<?xml version="1.0" encoding="UTF-8" standalone="no" ?>
<gpx xmlns="http://www.topografix.com/GPX/1/1" xmlns:xsi="http://www.w3.org/2001/XMLSchema-instance" xsi:schemaLocation="http://www.topografix.com/GPX/1/1 http://www.topografix.com/GPX/1/1/gpx.xsd" version="1.1" creator="VisuGPX - https://www.visugpx.com">
  <metadata>
    <name>2018-06-15 Bike ride-Ambérieux-Rancé O 36k</name>
    <desc><![CDATA[2018-06-15 Bike ride-Ambérieux-Rancé O 36k]]></desc>
  </metadata>
  <wpt lat="45.92464" lon="4.73718">
    <ele>174</ele>
    <name><![CDATA[2018-06-15 10:22 (Start)]]></name>
  </wpt>
  <wpt lat="45.92456" lon="4.73712">
    <ele>174</ele>
    <name><![CDATA[2018-06-15 10:22 (End)]]></name>
  </wpt>
  <trk>
    <name><![CDATA[2018-06-15 10:22]]></name>
    <trkseg>
      <trkpt lat="45.92464" lon="4.73718">
        <ele>174</ele>
        <time>2018-06-15T08:22:13.985Z</time>
      </trkpt>
      <trkpt lat="45.92469" lon="4.73709">
        <ele>174</ele>
        <time>2018-06-15T08:22:36Z</time>
      </trkpt>
      <trkpt lat="45.92469" lon="4.73707">
        <ele>174</ele>
        <time>2018-06-15T08:22:37Z</time>
      </trkpt>
      <trkpt lat="45.92472" lon="4.73695">
        <ele>174</ele>
        <time>2018-06-15T08:22:41Z</time>
      </trkpt>
      <trkpt lat="45.92473" lon="4.73691">
        <ele>174</ele>
        <time>2018-06-15T08:22:42Z</time>
      </trkpt>
      <trkpt lat="45.92474" lon="4.7368">
        <ele>174</ele>
        <time>2018-06-15T08:22:45Z</time>
      </trkpt>
      <trkpt lat="45.92474" lon="4.73675">
        <ele>174</ele>
        <time>2018-06-15T08:22:46Z</time>
      </trkpt>
      <trkpt lat="45.92475" lon="4.73664">
        <ele>174</ele>
        <time>2018-06-15T08:22:49Z</time>
      </trkpt>
      <trkpt lat="45.92476" lon="4.73659">
        <ele>174</ele>
        <time>2018-06-15T08:22:50Z</time>
      </trkpt>
      <trkpt lat="45.92478" lon="4.73651">
        <ele>174</ele>
        <time>2018-06-15T08:22:52Z</time>
      </trkpt>
      <trkpt lat="45.9248" lon="4.73647">
        <ele>174</ele>
        <time>2018-06-15T08:22:53Z</time>
      </trkpt>
      <trkpt lat="45.92485" lon="4.73642">
        <ele>174</ele>
        <time>2018-06-15T08:22:55Z</time>
      </trkpt>
      <trkpt lat="45.92494" lon="4.73639">
        <ele>174</ele>
        <time>2018-06-15T08:22:56Z</time>
      </trkpt>
      <trkpt lat="45.92501" lon="4.7364">
        <ele>174</ele>
        <time>2018-06-15T08:22:58Z</time>
      </trkpt>
      <trkpt lat="45.92506" lon="4.73641">
        <ele>174</ele>
        <time>2018-06-15T08:22:59Z</time>
      </trkpt>
      <trkpt lat="45.92512" lon="4.73641">
        <ele>174</ele>
        <time>2018-06-15T08:23:01Z</time>
      </trkpt>
      <trkpt lat="45.92517" lon="4.73639">
        <ele>173</ele>
        <time>2018-06-15T08:23:02Z</time>
      </trkpt>
      <trkpt lat="45.92523" lon="4.73639">
        <ele>173</ele>
        <time>2018-06-15T08:23:03Z</time>
      </trkpt>
      <trkpt lat="45.92528" lon="4.73639">
        <ele>173</ele>
        <time>2018-06-15T08:23:04Z</time>
      </trkpt>
      <trkpt lat="45.92532" lon="4.73638">
        <ele>173</ele>
        <time>2018-06-15T08:23:05Z</time>
      </trkpt>
      <trkpt lat="45.92537" lon="4.73638">
        <ele>173</ele>
        <time>2018-06-15T08:23:06Z</time>
      </trkpt>
      <trkpt lat="45.92542" lon="4.73637">
        <ele>173</ele>
        <time>2018-06-15T08:23:07Z</time>
      </trkpt>
      <trkpt lat="45.92546" lon="4.73636">
        <ele>173</ele>
        <time>2018-06-15T08:23:08Z</time>
      </trkpt>
      <trkpt lat="45.92551" lon="4.73636">
        <ele>173</ele>
        <time>2018-06-15T08:23:09Z</time>
      </trkpt>
      <trkpt lat="45.92556" lon="4.73635">
        <ele>173</ele>
        <time>2018-06-15T08:23:10Z</time>
      </trkpt>
      <trkpt lat="45.9256" lon="4.73634">
        <ele>173</ele>
        <time>2018-06-15T08:23:11Z</time>
      </trkpt>
      <trkpt lat="45.92565" lon="4.73632">
        <ele>173</ele>
        <time>2018-06-15T08:23:12Z</time>
      </trkpt>
      <trkpt lat="45.92571" lon="4.73627">
        <ele>173</ele>
        <time>2018-06-15T08:23:14Z</time>
      </trkpt>
      <trkpt lat="45.92575" lon="4.73626">
        <ele>173</ele>
        <time>2018-06-15T08:23:15Z</time>
      </trkpt>
      <trkpt lat="45.92579" lon="4.73624">
        <ele>173</ele>
        <time>2018-06-15T08:23:16Z</time>
      </trkpt>
      <trkpt lat="45.92584" lon="4.73623">
        <ele>173</ele>
        <time>2018-06-15T08:23:17Z</time>
      </trkpt>
      <trkpt lat="45.92589" lon="4.73622">
        <ele>173</ele>
        <time>2018-06-15T08:23:18Z</time>
      </trkpt>
      <trkpt lat="45.92593" lon="4.73621">
        <ele>173</ele>
        <time>2018-06-15T08:23:19Z</time>
      </trkpt>
      <trkpt lat="45.92597" lon="4.73621">
        <ele>173</ele>
        <time>2018-06-15T08:23:20Z</time>
      </trkpt>
      <trkpt lat="45.92603" lon="4.73623">
        <ele>173</ele>
        <time>2018-06-15T08:23:21Z</time>
      </trkpt>
      <trkpt lat="45.92608" lon="4.73624">
        <ele>173</ele>
        <time>2018-06-15T08:23:22Z</time>
      </trkpt>
      <trkpt lat="45.92613" lon="4.73625">
        <ele>173</ele>
        <time>2018-06-15T08:23:23Z</time>
      </trkpt>
      <trkpt lat="45.92617" lon="4.73627">
        <ele>173</ele>
        <time>2018-06-15T08:23:24Z</time>
      </trkpt>
      <trkpt lat="45.92623" lon="4.73637">
        <ele>173</ele>
        <time>2018-06-15T08:23:25Z</time>
      </trkpt>
      <trkpt lat="45.92629" lon="4.73646">
        <ele>173</ele>
        <time>2018-06-15T08:23:27Z</time>
      </trkpt>
      <trkpt lat="45.92631" lon="4.73652">
        <ele>173</ele>
        <time>2018-06-15T08:23:28Z</time>
      </trkpt>
      <trkpt lat="45.92635" lon="4.73659">
        <ele>173</ele>
        <time>2018-06-15T08:23:29Z</time>
      </trkpt>
      <trkpt lat="45.92638" lon="4.73665">
        <ele>173</ele>
        <time>2018-06-15T08:23:30Z</time>
      </trkpt>
      <trkpt lat="45.92643" lon="4.73674">
        <ele>173</ele>
        <time>2018-06-15T08:23:32Z</time>
      </trkpt>
      <trkpt lat="45.92646" lon="4.73679">
        <ele>173</ele>
        <time>2018-06-15T08:23:33Z</time>
      </trkpt>
      <trkpt lat="45.92652" lon="4.73688">
        <ele>173</ele>
        <time>2018-06-15T08:23:35Z</time>
      </trkpt>
      <trkpt lat="45.92656" lon="4.73692">
        <ele>173</ele>
        <time>2018-06-15T08:23:36Z</time>
      </trkpt>
      <trkpt lat="45.92661" lon="4.73695">
        <ele>173</ele>
        <time>2018-06-15T08:23:37Z</time>
      </trkpt>
      <trkpt lat="45.92664" lon="4.73699">
        <ele>173</ele>
        <time>2018-06-15T08:23:38Z</time>
      </trkpt>
      <trkpt lat="45.92669" lon="4.73701">
        <ele>174</ele>
        <time>2018-06-15T08:23:39Z</time>
      </trkpt>
      <trkpt lat="45.92673" lon="4.73705">
        <ele>174</ele>
        <time>2018-06-15T08:23:40Z</time>
      </trkpt>
      <trkpt lat="45.92677" lon="4.73703">
        <ele>173</ele>
        <time>2018-06-15T08:23:41Z</time>
      </trkpt>
      <trkpt lat="45.92682" lon="4.73705">
        <ele>173</ele>
        <time>2018-06-15T08:23:42Z</time>
      </trkpt>
      <trkpt lat="45.92689" lon="4.73707">
        <ele>173</ele>
        <time>2018-06-15T08:23:44Z</time>
      </trkpt>
      <trkpt lat="45.92696" lon="4.7371">
        <ele>173</ele>
        <time>2018-06-15T08:23:45Z</time>
      </trkpt>
      <trkpt lat="45.927" lon="4.73711">
        <ele>173</ele>
        <time>2018-06-15T08:23:46Z</time>
      </trkpt>
      <trkpt lat="45.92706" lon="4.73713">
        <ele>173</ele>
        <time>2018-06-15T08:23:47Z</time>
      </trkpt>
      <trkpt lat="45.92711" lon="4.73714">
        <ele>173</ele>
        <time>2018-06-15T08:23:48Z</time>
      </trkpt>
      <trkpt lat="45.92717" lon="4.73715">
        <ele>173</ele>
        <time>2018-06-15T08:23:49Z</time>
      </trkpt>
      <trkpt lat="45.92721" lon="4.73717">
        <ele>173</ele>
        <time>2018-06-15T08:23:50Z</time>
      </trkpt>
      <trkpt lat="45.92726" lon="4.73718">
        <ele>173</ele>
        <time>2018-06-15T08:23:51Z</time>
      </trkpt>
      <trkpt lat="45.92731" lon="4.73719">
        <ele>173</ele>
        <time>2018-06-15T08:23:52Z</time>
      </trkpt>
      <trkpt lat="45.92735" lon="4.73721">
        <ele>173</ele>
        <time>2018-06-15T08:23:53Z</time>
      </trkpt>
      <trkpt lat="45.92741" lon="4.73722">
        <ele>173</ele>
        <time>2018-06-15T08:23:54Z</time>
      </trkpt>
      <trkpt lat="45.92745" lon="4.73724">
        <ele>173</ele>
        <time>2018-06-15T08:23:55Z</time>
      </trkpt>
      <trkpt lat="45.92753" lon="4.73726">
        <ele>172</ele>
        <time>2018-06-15T08:23:57Z</time>
      </trkpt>
      <trkpt lat="45.92755" lon="4.73726">
        <ele>172</ele>
        <time>2018-06-15T08:23:58Z</time>
      </trkpt>
      <trkpt lat="45.92759" lon="4.73728">
        <ele>172</ele>
        <time>2018-06-15T08:23:59Z</time>
      </trkpt>
      <trkpt lat="45.92764" lon="4.7373">
        <ele>172</ele>
        <time>2018-06-15T08:24:00Z</time>
      </trkpt>
      <trkpt lat="45.92771" lon="4.73732">
        <ele>172</ele>
        <time>2018-06-15T08:24:02Z</time>
      </trkpt>
      <trkpt lat="45.92776" lon="4.73735">
        <ele>172</ele>
        <time>2018-06-15T08:24:03Z</time>
      </trkpt>
      <trkpt lat="45.92783" lon="4.73742">
        <ele>172</ele>
        <time>2018-06-15T08:24:08Z</time>
      </trkpt>
      <trkpt lat="45.92788" lon="4.7375">
        <ele>172</ele>
        <time>2018-06-15T08:24:09Z</time>
      </trkpt>
      <trkpt lat="45.92795" lon="4.73756">
        <ele>173</ele>
        <time>2018-06-15T08:24:11Z</time>
      </trkpt>
      <trkpt lat="45.92799" lon="4.73758">
        <ele>173</ele>
        <time>2018-06-15T08:24:12Z</time>
      </trkpt>
      <trkpt lat="45.92803" lon="4.7376">
        <ele>173</ele>
        <time>2018-06-15T08:24:13Z</time>
      </trkpt>
      <trkpt lat="45.92807" lon="4.73763">
        <ele>173</ele>
        <time>2018-06-15T08:24:14Z</time>
      </trkpt>
      <trkpt lat="45.92813" lon="4.73765">
        <ele>173</ele>
        <time>2018-06-15T08:24:15Z</time>
      </trkpt>
      <trkpt lat="45.92818" lon="4.73768">
        <ele>173</ele>
        <time>2018-06-15T08:24:16Z</time>
      </trkpt>
      <trkpt lat="45.92822" lon="4.73771">
        <ele>173</ele>
        <time>2018-06-15T08:24:17Z</time>
      </trkpt>
      <trkpt lat="45.92827" lon="4.73774">
        <ele>173</ele>
        <time>2018-06-15T08:24:18Z</time>
      </trkpt>
      <trkpt lat="45.92834" lon="4.73781">
        <ele>173</ele>
        <time>2018-06-15T08:24:20Z</time>
      </trkpt>
      <trkpt lat="45.92839" lon="4.73784">
        <ele>173</ele>
        <time>2018-06-15T08:24:21Z</time>
      </trkpt>
      <trkpt lat="45.92844" lon="4.73788">
        <ele>173</ele>
        <time>2018-06-15T08:24:22Z</time>
      </trkpt>
      <trkpt lat="45.92849" lon="4.73791">
        <ele>173</ele>
        <time>2018-06-15T08:24:23Z</time>
      </trkpt>
      <trkpt lat="45.92854" lon="4.73796">
        <ele>173</ele>
        <time>2018-06-15T08:24:24Z</time>
      </trkpt>
      <trkpt lat="45.92858" lon="4.73802">
        <ele>173</ele>
        <time>2018-06-15T08:24:25Z</time>
      </trkpt>
      <trkpt lat="45.92862" lon="4.73808">
        <ele>173</ele>
        <time>2018-06-15T08:24:26Z</time>
      </trkpt>
      <trkpt lat="45.92864" lon="4.73816">
        <ele>173</ele>
        <time>2018-06-15T08:24:27Z</time>
      </trkpt>
      <trkpt lat="45.92866" lon="4.73823">
        <ele>173</ele>
        <time>2018-06-15T08:24:28Z</time>
      </trkpt>
      <trkpt lat="45.92868" lon="4.7383">
        <ele>173</ele>
        <time>2018-06-15T08:24:29Z</time>
      </trkpt>
      <trkpt lat="45.92872" lon="4.73839">
        <ele>173</ele>
        <time>2018-06-15T08:24:30Z</time>
      </trkpt>
      <trkpt lat="45.92873" lon="4.73847">
        <ele>173</ele>
        <time>2018-06-15T08:24:31Z</time>
      </trkpt>
      <trkpt lat="45.92875" lon="4.73855">
        <ele>173</ele>
        <time>2018-06-15T08:24:32Z</time>
      </trkpt>
      <trkpt lat="45.9288" lon="4.73868">
        <ele>173</ele>
        <time>2018-06-15T08:24:34Z</time>
      </trkpt>
      <trkpt lat="45.92883" lon="4.73877">
        <ele>173</ele>
        <time>2018-06-15T08:24:35Z</time>
      </trkpt>
      <trkpt lat="45.92886" lon="4.73885">
        <ele>173</ele>
        <time>2018-06-15T08:24:36Z</time>
      </trkpt>
      <trkpt lat="45.92888" lon="4.73892">
        <ele>173</ele>
        <time>2018-06-15T08:24:37Z</time>
      </trkpt>
      <trkpt lat="45.92889" lon="4.73899">
        <ele>173</ele>
        <time>2018-06-15T08:24:38Z</time>
      </trkpt>
      <trkpt lat="45.9289" lon="4.73908">
        <ele>173</ele>
        <time>2018-06-15T08:24:39Z</time>
      </trkpt>
      <trkpt lat="45.92891" lon="4.73915">
        <ele>172</ele>
        <time>2018-06-15T08:24:40Z</time>
      </trkpt>
      <trkpt lat="45.92889" lon="4.73921">
        <ele>172</ele>
        <time>2018-06-15T08:24:41Z</time>
      </trkpt>
      <trkpt lat="45.92891" lon="4.73929">
        <ele>172</ele>
        <time>2018-06-15T08:24:42Z</time>
      </trkpt>
      <trkpt lat="45.9289" lon="4.73936">
        <ele>172</ele>
        <time>2018-06-15T08:24:43Z</time>
      </trkpt>
      <trkpt lat="45.92889" lon="4.73944">
        <ele>172</ele>
        <time>2018-06-15T08:24:44Z</time>
      </trkpt>
      <trkpt lat="45.92889" lon="4.73951">
        <ele>172</ele>
        <time>2018-06-15T08:24:45Z</time>
      </trkpt>
      <trkpt lat="45.92889" lon="4.73959">
        <ele>172</ele>
        <time>2018-06-15T08:24:46Z</time>
      </trkpt>
      <trkpt lat="45.92889" lon="4.73966">
        <ele>172</ele>
        <time>2018-06-15T08:24:47Z</time>
      </trkpt>
      <trkpt lat="45.92888" lon="4.73974">
        <ele>172</ele>
        <time>2018-06-15T08:24:48Z</time>
      </trkpt>
      <trkpt lat="45.92888" lon="4.73982">
        <ele>172</ele>
        <time>2018-06-15T08:24:49Z</time>
      </trkpt>
      <trkpt lat="45.92884" lon="4.73988">
        <ele>172</ele>
        <time>2018-06-15T08:24:50Z</time>
      </trkpt>
      <trkpt lat="45.92882" lon="4.73994">
        <ele>172</ele>
        <time>2018-06-15T08:24:51Z</time>
      </trkpt>
      <trkpt lat="45.9288" lon="4.74001">
        <ele>172</ele>
        <time>2018-06-15T08:24:52Z</time>
      </trkpt>
      <trkpt lat="45.92879" lon="4.74007">
        <ele>172</ele>
        <time>2018-06-15T08:24:53Z</time>
      </trkpt>
      <trkpt lat="45.92878" lon="4.74014">
        <ele>172</ele>
        <time>2018-06-15T08:24:54Z</time>
      </trkpt>
      <trkpt lat="45.92877" lon="4.74021">
        <ele>172</ele>
        <time>2018-06-15T08:24:55Z</time>
      </trkpt>
      <trkpt lat="45.92875" lon="4.74027">
        <ele>172</ele>
        <time>2018-06-15T08:24:56Z</time>
      </trkpt>
      <trkpt lat="45.92874" lon="4.74035">
        <ele>172</ele>
        <time>2018-06-15T08:24:57Z</time>
      </trkpt>
      <trkpt lat="45.92873" lon="4.74041">
        <ele>172</ele>
        <time>2018-06-15T08:24:58Z</time>
      </trkpt>
      <trkpt lat="45.92869" lon="4.74049">
        <ele>172</ele>
        <time>2018-06-15T08:24:59Z</time>
      </trkpt>
      <trkpt lat="45.92865" lon="4.74054">
        <ele>172</ele>
        <time>2018-06-15T08:25:00Z</time>
      </trkpt>
      <trkpt lat="45.92859" lon="4.74059">
        <ele>172</ele>
        <time>2018-06-15T08:25:01Z</time>
      </trkpt>
      <trkpt lat="45.92855" lon="4.74064">
        <ele>172</ele>
        <time>2018-06-15T08:25:02Z</time>
      </trkpt>
      <trkpt lat="45.92851" lon="4.74069">
        <ele>172</ele>
        <time>2018-06-15T08:25:03Z</time>
      </trkpt>
      <trkpt lat="45.92847" lon="4.74074">
        <ele>172</ele>
        <time>2018-06-15T08:25:04Z</time>
      </trkpt>
      <trkpt lat="45.92843" lon="4.74078">
        <ele>171</ele>
        <time>2018-06-15T08:25:05Z</time>
      </trkpt>
      <trkpt lat="45.92838" lon="4.74083">
        <ele>171</ele>
        <time>2018-06-15T08:25:06Z</time>
      </trkpt>
      <trkpt lat="45.92835" lon="4.7409">
        <ele>171</ele>
        <time>2018-06-15T08:25:07Z</time>
      </trkpt>
      <trkpt lat="45.92831" lon="4.74094">
        <ele>171</ele>
        <time>2018-06-15T08:25:08Z</time>
      </trkpt>
      <trkpt lat="45.92827" lon="4.74099">
        <ele>171</ele>
        <time>2018-06-15T08:25:09Z</time>
      </trkpt>
      <trkpt lat="45.92822" lon="4.74103">
        <ele>171</ele>
        <time>2018-06-15T08:25:10Z</time>
      </trkpt>
      <trkpt lat="45.92818" lon="4.74109">
        <ele>172</ele>
        <time>2018-06-15T08:25:11Z</time>
      </trkpt>
      <trkpt lat="45.92813" lon="4.74114">
        <ele>172</ele>
        <time>2018-06-15T08:25:12Z</time>
      </trkpt>
      <trkpt lat="45.92808" lon="4.74118">
        <ele>172</ele>
        <time>2018-06-15T08:25:13Z</time>
      </trkpt>
      <trkpt lat="45.92803" lon="4.74123">
        <ele>172</ele>
        <time>2018-06-15T08:25:14Z</time>
      </trkpt>
      <trkpt lat="45.92798" lon="4.74127">
        <ele>172</ele>
        <time>2018-06-15T08:25:15Z</time>
      </trkpt>
      <trkpt lat="45.92794" lon="4.74131">
        <ele>172</ele>
        <time>2018-06-15T08:25:16Z</time>
      </trkpt>
      <trkpt lat="45.9279" lon="4.74135">
        <ele>172</ele>
        <time>2018-06-15T08:25:17Z</time>
      </trkpt>
      <trkpt lat="45.92786" lon="4.74139">
        <ele>172</ele>
        <time>2018-06-15T08:25:18Z</time>
      </trkpt>
      <trkpt lat="45.92782" lon="4.74144">
        <ele>172</ele>
        <time>2018-06-15T08:25:19Z</time>
      </trkpt>
      <trkpt lat="45.92778" lon="4.74148">
        <ele>172</ele>
        <time>2018-06-15T08:25:20Z</time>
      </trkpt>
      <trkpt lat="45.92774" lon="4.74153">
        <ele>172</ele>
        <time>2018-06-15T08:25:21Z</time>
      </trkpt>
      <trkpt lat="45.92769" lon="4.74157">
        <ele>172</ele>
        <time>2018-06-15T08:25:22Z</time>
      </trkpt>
      <trkpt lat="45.92765" lon="4.74163">
        <ele>172</ele>
        <time>2018-06-15T08:25:23Z</time>
      </trkpt>
      <trkpt lat="45.9276" lon="4.74167">
        <ele>172</ele>
        <time>2018-06-15T08:25:24Z</time>
      </trkpt>
      <trkpt lat="45.92756" lon="4.74172">
        <ele>172</ele>
        <time>2018-06-15T08:25:25Z</time>
      </trkpt>
      <trkpt lat="45.92752" lon="4.74176">
        <ele>172</ele>
        <time>2018-06-15T08:25:26Z</time>
      </trkpt>
      <trkpt lat="45.92747" lon="4.74181">
        <ele>172</ele>
        <time>2018-06-15T08:25:27Z</time>
      </trkpt>
      <trkpt lat="45.92743" lon="4.74186">
        <ele>172</ele>
        <time>2018-06-15T08:25:28Z</time>
      </trkpt>
      <trkpt lat="45.92739" lon="4.74191">
        <ele>171</ele>
        <time>2018-06-15T08:25:29Z</time>
      </trkpt>
      <trkpt lat="45.92735" lon="4.74197">
        <ele>171</ele>
        <time>2018-06-15T08:25:30Z</time>
      </trkpt>
      <trkpt lat="45.92731" lon="4.74202">
        <ele>171</ele>
        <time>2018-06-15T08:25:31Z</time>
      </trkpt>
      <trkpt lat="45.92727" lon="4.74207">
        <ele>171</ele>
        <time>2018-06-15T08:25:32Z</time>
      </trkpt>
      <trkpt lat="45.92723" lon="4.74213">
        <ele>171</ele>
        <time>2018-06-15T08:25:33Z</time>
      </trkpt>
      <trkpt lat="45.92719" lon="4.74219">
        <ele>171</ele>
        <time>2018-06-15T08:25:34Z</time>
      </trkpt>
      <trkpt lat="45.92715" lon="4.74225">
        <ele>171</ele>
        <time>2018-06-15T08:25:35Z</time>
      </trkpt>
      <trkpt lat="45.92711" lon="4.74232">
        <ele>171</ele>
        <time>2018-06-15T08:25:36Z</time>
      </trkpt>
      <trkpt lat="45.92707" lon="4.74238">
        <ele>171</ele>
        <time>2018-06-15T08:25:37Z</time>
      </trkpt>
      <trkpt lat="45.92703" lon="4.74244">
        <ele>171</ele>
        <time>2018-06-15T08:25:38Z</time>
      </trkpt>
      <trkpt lat="45.927" lon="4.74251">
        <ele>171</ele>
        <time>2018-06-15T08:25:39Z</time>
      </trkpt>
      <trkpt lat="45.92695" lon="4.74258">
        <ele>171</ele>
        <time>2018-06-15T08:25:40Z</time>
      </trkpt>
      <trkpt lat="45.92691" lon="4.74264">
        <ele>171</ele>
        <time>2018-06-15T08:25:41Z</time>
      </trkpt>
      <trkpt lat="45.92687" lon="4.7427">
        <ele>171</ele>
        <time>2018-06-15T08:25:42Z</time>
      </trkpt>
      <trkpt lat="45.92683" lon="4.74277">
        <ele>171</ele>
        <time>2018-06-15T08:25:43Z</time>
      </trkpt>
      <trkpt lat="45.92679" lon="4.74284">
        <ele>171</ele>
        <time>2018-06-15T08:25:44Z</time>
      </trkpt>
      <trkpt lat="45.92676" lon="4.74291">
        <ele>171</ele>
        <time>2018-06-15T08:25:45Z</time>
      </trkpt>
      <trkpt lat="45.92672" lon="4.74298">
        <ele>171</ele>
        <time>2018-06-15T08:25:46Z</time>
      </trkpt>
      <trkpt lat="45.92668" lon="4.74306">
        <ele>171</ele>
        <time>2018-06-15T08:25:47Z</time>
      </trkpt>
      <trkpt lat="45.92664" lon="4.74315">
        <ele>171</ele>
        <time>2018-06-15T08:25:48Z</time>
      </trkpt>
      <trkpt lat="45.9266" lon="4.74322">
        <ele>171</ele>
        <time>2018-06-15T08:25:49Z</time>
      </trkpt>
      <trkpt lat="45.92656" lon="4.74329">
        <ele>171</ele>
        <time>2018-06-15T08:25:50Z</time>
      </trkpt>
      <trkpt lat="45.92652" lon="4.74337">
        <ele>171</ele>
        <time>2018-06-15T08:25:51Z</time>
      </trkpt>
      <trkpt lat="45.92648" lon="4.74344">
        <ele>171</ele>
        <time>2018-06-15T08:25:52Z</time>
      </trkpt>
      <trkpt lat="45.92644" lon="4.74352">
        <ele>171</ele>
        <time>2018-06-15T08:25:53Z</time>
      </trkpt>
      <trkpt lat="45.9264" lon="4.74359">
        <ele>171</ele>
        <time>2018-06-15T08:25:54Z</time>
      </trkpt>
      <trkpt lat="45.92636" lon="4.74367">
        <ele>171</ele>
        <time>2018-06-15T08:25:55Z</time>
      </trkpt>
      <trkpt lat="45.92631" lon="4.74374">
        <ele>171</ele>
        <time>2018-06-15T08:25:56Z</time>
      </trkpt>
      <trkpt lat="45.92627" lon="4.74382">
        <ele>170</ele>
        <time>2018-06-15T08:25:57Z</time>
      </trkpt>
      <trkpt lat="45.92622" lon="4.74389">
        <ele>170</ele>
        <time>2018-06-15T08:25:58Z</time>
      </trkpt>
      <trkpt lat="45.92618" lon="4.74396">
        <ele>170</ele>
        <time>2018-06-15T08:25:59Z</time>
      </trkpt>
      <trkpt lat="45.92614" lon="4.74404">
        <ele>170</ele>
        <time>2018-06-15T08:26:00Z</time>
      </trkpt>
      <trkpt lat="45.92611" lon="4.7441">
        <ele>170</ele>
        <time>2018-06-15T08:26:01Z</time>
      </trkpt>
      <trkpt lat="45.92607" lon="4.74418">
        <ele>170</ele>
        <time>2018-06-15T08:26:02Z</time>
      </trkpt>
      <trkpt lat="45.92603" lon="4.74425">
        <ele>170</ele>
        <time>2018-06-15T08:26:03Z</time>
      </trkpt>
      <trkpt lat="45.92599" lon="4.74431">
        <ele>170</ele>
        <time>2018-06-15T08:26:04Z</time>
      </trkpt>
      <trkpt lat="45.92595" lon="4.74438">
        <ele>170</ele>
        <time>2018-06-15T08:26:05Z</time>
      </trkpt>
      <trkpt lat="45.92591" lon="4.74445">
        <ele>170</ele>
        <time>2018-06-15T08:26:06Z</time>
      </trkpt>
      <trkpt lat="45.92587" lon="4.74451">
        <ele>170</ele>
        <time>2018-06-15T08:26:07Z</time>
      </trkpt>
      <trkpt lat="45.92583" lon="4.74458">
        <ele>170</ele>
        <time>2018-06-15T08:26:08Z</time>
      </trkpt>
      <trkpt lat="45.92579" lon="4.74465">
        <ele>170</ele>
        <time>2018-06-15T08:26:09Z</time>
      </trkpt>
      <trkpt lat="45.92575" lon="4.74472">
        <ele>170</ele>
        <time>2018-06-15T08:26:10Z</time>
      </trkpt>
      <trkpt lat="45.92571" lon="4.74479">
        <ele>170</ele>
        <time>2018-06-15T08:26:11Z</time>
      </trkpt>
      <trkpt lat="45.92568" lon="4.74485">
        <ele>170</ele>
        <time>2018-06-15T08:26:12Z</time>
      </trkpt>
      <trkpt lat="45.92563" lon="4.74492">
        <ele>170</ele>
        <time>2018-06-15T08:26:13Z</time>
      </trkpt>
      <trkpt lat="45.92559" lon="4.74499">
        <ele>170</ele>
        <time>2018-06-15T08:26:14Z</time>
      </trkpt>
      <trkpt lat="45.92556" lon="4.74506">
        <ele>170</ele>
        <time>2018-06-15T08:26:15Z</time>
      </trkpt>
      <trkpt lat="45.92552" lon="4.74513">
        <ele>170</ele>
        <time>2018-06-15T08:26:16Z</time>
      </trkpt>
      <trkpt lat="45.92548" lon="4.7452">
        <ele>170</ele>
        <time>2018-06-15T08:26:17Z</time>
      </trkpt>
      <trkpt lat="45.92544" lon="4.74527">
        <ele>170</ele>
        <time>2018-06-15T08:26:18Z</time>
      </trkpt>
      <trkpt lat="45.9254" lon="4.74533">
        <ele>171</ele>
        <time>2018-06-15T08:26:19Z</time>
      </trkpt>
      <trkpt lat="45.92536" lon="4.74541">
        <ele>171</ele>
        <time>2018-06-15T08:26:20Z</time>
      </trkpt>
      <trkpt lat="45.92532" lon="4.74548">
        <ele>171</ele>
        <time>2018-06-15T08:26:21Z</time>
      </trkpt>
      <trkpt lat="45.92528" lon="4.74554">
        <ele>171</ele>
        <time>2018-06-15T08:26:22Z</time>
      </trkpt>
      <trkpt lat="45.92525" lon="4.74561">
        <ele>171</ele>
        <time>2018-06-15T08:26:23Z</time>
      </trkpt>
      <trkpt lat="45.92521" lon="4.74567">
        <ele>171</ele>
        <time>2018-06-15T08:26:24Z</time>
      </trkpt>
      <trkpt lat="45.92517" lon="4.74572">
        <ele>171</ele>
        <time>2018-06-15T08:26:25Z</time>
      </trkpt>
      <trkpt lat="45.92511" lon="4.74578">
        <ele>171</ele>
        <time>2018-06-15T08:26:26Z</time>
      </trkpt>
      <trkpt lat="45.92507" lon="4.74583">
        <ele>171</ele>
        <time>2018-06-15T08:26:27Z</time>
      </trkpt>
      <trkpt lat="45.92502" lon="4.74588">
        <ele>171</ele>
        <time>2018-06-15T08:26:28Z</time>
      </trkpt>
      <trkpt lat="45.92497" lon="4.74593">
        <ele>171</ele>
        <time>2018-06-15T08:26:29Z</time>
      </trkpt>
      <trkpt lat="45.92493" lon="4.74599">
        <ele>171</ele>
        <time>2018-06-15T08:26:30Z</time>
      </trkpt>
      <trkpt lat="45.92489" lon="4.74604">
        <ele>171</ele>
        <time>2018-06-15T08:26:31Z</time>
      </trkpt>
      <trkpt lat="45.92484" lon="4.74609">
        <ele>171</ele>
        <time>2018-06-15T08:26:32Z</time>
      </trkpt>
      <trkpt lat="45.92479" lon="4.74615">
        <ele>171</ele>
        <time>2018-06-15T08:26:33Z</time>
      </trkpt>
      <trkpt lat="45.92475" lon="4.74621">
        <ele>171</ele>
        <time>2018-06-15T08:26:34Z</time>
      </trkpt>
      <trkpt lat="45.92471" lon="4.74628">
        <ele>171</ele>
        <time>2018-06-15T08:26:35Z</time>
      </trkpt>
      <trkpt lat="45.92467" lon="4.74634">
        <ele>171</ele>
        <time>2018-06-15T08:26:36Z</time>
      </trkpt>
      <trkpt lat="45.92464" lon="4.74641">
        <ele>171</ele>
        <time>2018-06-15T08:26:37Z</time>
      </trkpt>
      <trkpt lat="45.9246" lon="4.74648">
        <ele>171</ele>
        <time>2018-06-15T08:26:38Z</time>
      </trkpt>
      <trkpt lat="45.92456" lon="4.74654">
        <ele>171</ele>
        <time>2018-06-15T08:26:39Z</time>
      </trkpt>
      <trkpt lat="45.92453" lon="4.74662">
        <ele>171</ele>
        <time>2018-06-15T08:26:40Z</time>
      </trkpt>
      <trkpt lat="45.92449" lon="4.74671">
        <ele>171</ele>
        <time>2018-06-15T08:26:41Z</time>
      </trkpt>
      <trkpt lat="45.92446" lon="4.74677">
        <ele>171</ele>
        <time>2018-06-15T08:26:42Z</time>
      </trkpt>
      <trkpt lat="45.92442" lon="4.74683">
        <ele>171</ele>
        <time>2018-06-15T08:26:43Z</time>
      </trkpt>
      <trkpt lat="45.92439" lon="4.74688">
        <ele>171</ele>
        <time>2018-06-15T08:26:44Z</time>
      </trkpt>
      <trkpt lat="45.92436" lon="4.74695">
        <ele>171</ele>
        <time>2018-06-15T08:26:45Z</time>
      </trkpt>
      <trkpt lat="45.92432" lon="4.74702">
        <ele>171</ele>
        <time>2018-06-15T08:26:46Z</time>
      </trkpt>
      <trkpt lat="45.9243" lon="4.74709">
        <ele>171</ele>
        <time>2018-06-15T08:26:47Z</time>
      </trkpt>
      <trkpt lat="45.92427" lon="4.74718">
        <ele>171</ele>
        <time>2018-06-15T08:26:48Z</time>
      </trkpt>
      <trkpt lat="45.92425" lon="4.74723">
        <ele>171</ele>
        <time>2018-06-15T08:26:49Z</time>
      </trkpt>
      <trkpt lat="45.92423" lon="4.7473">
        <ele>171</ele>
        <time>2018-06-15T08:26:50Z</time>
      </trkpt>
      <trkpt lat="45.92421" lon="4.74738">
        <ele>172</ele>
        <time>2018-06-15T08:26:51Z</time>
      </trkpt>
      <trkpt lat="45.92418" lon="4.74745">
        <ele>172</ele>
        <time>2018-06-15T08:26:52Z</time>
      </trkpt>
      <trkpt lat="45.92416" lon="4.74753">
        <ele>172</ele>
        <time>2018-06-15T08:26:53Z</time>
      </trkpt>
      <trkpt lat="45.92414" lon="4.74761">
        <ele>172</ele>
        <time>2018-06-15T08:26:54Z</time>
      </trkpt>
      <trkpt lat="45.92412" lon="4.74769">
        <ele>172</ele>
        <time>2018-06-15T08:26:55Z</time>
      </trkpt>
      <trkpt lat="45.9241" lon="4.74777">
        <ele>171</ele>
        <time>2018-06-15T08:26:56Z</time>
      </trkpt>
      <trkpt lat="45.92407" lon="4.74785">
        <ele>171</ele>
        <time>2018-06-15T08:26:57Z</time>
      </trkpt>
      <trkpt lat="45.92405" lon="4.74793">
        <ele>171</ele>
        <time>2018-06-15T08:26:58Z</time>
      </trkpt>
      <trkpt lat="45.92404" lon="4.74801">
        <ele>171</ele>
        <time>2018-06-15T08:26:59Z</time>
      </trkpt>
      <trkpt lat="45.92403" lon="4.74809">
        <ele>171</ele>
        <time>2018-06-15T08:27:00Z</time>
      </trkpt>
      <trkpt lat="45.924" lon="4.74819">
        <ele>171</ele>
        <time>2018-06-15T08:27:01Z</time>
      </trkpt>
      <trkpt lat="45.92398" lon="4.74827">
        <ele>171</ele>
        <time>2018-06-15T08:27:02Z</time>
      </trkpt>
      <trkpt lat="45.92396" lon="4.74836">
        <ele>171</ele>
        <time>2018-06-15T08:27:03Z</time>
      </trkpt>
      <trkpt lat="45.92394" lon="4.74845">
        <ele>171</ele>
        <time>2018-06-15T08:27:04Z</time>
      </trkpt>
      <trkpt lat="45.92392" lon="4.74854">
        <ele>171</ele>
        <time>2018-06-15T08:27:05Z</time>
      </trkpt>
      <trkpt lat="45.9239" lon="4.74863">
        <ele>171</ele>
        <time>2018-06-15T08:27:06Z</time>
      </trkpt>
      <trkpt lat="45.92387" lon="4.74871">
        <ele>171</ele>
        <time>2018-06-15T08:27:07Z</time>
      </trkpt>
      <trkpt lat="45.92384" lon="4.74879">
        <ele>171</ele>
        <time>2018-06-15T08:27:08Z</time>
      </trkpt>
      <trkpt lat="45.9238" lon="4.74888">
        <ele>171</ele>
        <time>2018-06-15T08:27:09Z</time>
      </trkpt>
      <trkpt lat="45.92377" lon="4.74896">
        <ele>171</ele>
        <time>2018-06-15T08:27:10Z</time>
      </trkpt>
      <trkpt lat="45.92374" lon="4.74904">
        <ele>171</ele>
        <time>2018-06-15T08:27:11Z</time>
      </trkpt>
      <trkpt lat="45.9237" lon="4.74912">
        <ele>171</ele>
        <time>2018-06-15T08:27:12Z</time>
      </trkpt>
      <trkpt lat="45.92368" lon="4.7492">
        <ele>170</ele>
        <time>2018-06-15T08:27:13Z</time>
      </trkpt>
      <trkpt lat="45.92365" lon="4.74927">
        <ele>170</ele>
        <time>2018-06-15T08:27:14Z</time>
      </trkpt>
      <trkpt lat="45.92361" lon="4.74936">
        <ele>170</ele>
        <time>2018-06-15T08:27:15Z</time>
      </trkpt>
      <trkpt lat="45.92359" lon="4.74944">
        <ele>170</ele>
        <time>2018-06-15T08:27:16Z</time>
      </trkpt>
      <trkpt lat="45.92357" lon="4.74951">
        <ele>170</ele>
        <time>2018-06-15T08:27:17Z</time>
      </trkpt>
      <trkpt lat="45.92354" lon="4.74958">
        <ele>170</ele>
        <time>2018-06-15T08:27:18Z</time>
      </trkpt>
      <trkpt lat="45.92351" lon="4.74965">
        <ele>170</ele>
        <time>2018-06-15T08:27:19Z</time>
      </trkpt>
      <trkpt lat="45.92348" lon="4.74973">
        <ele>170</ele>
        <time>2018-06-15T08:27:20Z</time>
      </trkpt>
      <trkpt lat="45.92345" lon="4.74981">
        <ele>170</ele>
        <time>2018-06-15T08:27:21Z</time>
      </trkpt>
      <trkpt lat="45.92345" lon="4.7499">
        <ele>170</ele>
        <time>2018-06-15T08:27:22Z</time>
      </trkpt>
      <trkpt lat="45.92343" lon="4.74999">
        <ele>170</ele>
        <time>2018-06-15T08:27:23Z</time>
      </trkpt>
      <trkpt lat="45.9234" lon="4.75006">
        <ele>170</ele>
        <time>2018-06-15T08:27:24Z</time>
      </trkpt>
      <trkpt lat="45.92336" lon="4.75014">
        <ele>170</ele>
        <time>2018-06-15T08:27:25Z</time>
      </trkpt>
      <trkpt lat="45.92333" lon="4.75021">
        <ele>171</ele>
        <time>2018-06-15T08:27:26Z</time>
      </trkpt>
      <trkpt lat="45.92329" lon="4.75029">
        <ele>171</ele>
        <time>2018-06-15T08:27:27Z</time>
      </trkpt>
      <trkpt lat="45.92326" lon="4.75035">
        <ele>171</ele>
        <time>2018-06-15T08:27:28Z</time>
      </trkpt>
      <trkpt lat="45.92324" lon="4.75042">
        <ele>172</ele>
        <time>2018-06-15T08:27:29Z</time>
      </trkpt>
      <trkpt lat="45.9232" lon="4.7505">
        <ele>172</ele>
        <time>2018-06-15T08:27:30Z</time>
      </trkpt>
      <trkpt lat="45.92317" lon="4.75056">
        <ele>172</ele>
        <time>2018-06-15T08:27:31Z</time>
      </trkpt>
      <trkpt lat="45.92312" lon="4.7506">
        <ele>172</ele>
        <time>2018-06-15T08:27:32Z</time>
      </trkpt>
      <trkpt lat="45.92308" lon="4.75067">
        <ele>172</ele>
        <time>2018-06-15T08:27:33Z</time>
      </trkpt>
      <trkpt lat="45.92303" lon="4.75072">
        <ele>172</ele>
        <time>2018-06-15T08:27:34Z</time>
      </trkpt>
      <trkpt lat="45.92299" lon="4.75077">
        <ele>172</ele>
        <time>2018-06-15T08:27:35Z</time>
      </trkpt>
      <trkpt lat="45.92295" lon="4.75082">
        <ele>172</ele>
        <time>2018-06-15T08:27:36Z</time>
      </trkpt>
      <trkpt lat="45.92289" lon="4.75087">
        <ele>173</ele>
        <time>2018-06-15T08:27:37Z</time>
      </trkpt>
      <trkpt lat="45.92284" lon="4.75092">
        <ele>173</ele>
        <time>2018-06-15T08:27:38Z</time>
      </trkpt>
      <trkpt lat="45.92279" lon="4.75096">
        <ele>173</ele>
        <time>2018-06-15T08:27:39Z</time>
      </trkpt>
      <trkpt lat="45.92274" lon="4.75102">
        <ele>173</ele>
        <time>2018-06-15T08:27:40Z</time>
      </trkpt>
      <trkpt lat="45.9227" lon="4.75106">
        <ele>174</ele>
        <time>2018-06-15T08:27:41Z</time>
      </trkpt>
      <trkpt lat="45.92265" lon="4.7511">
        <ele>174</ele>
        <time>2018-06-15T08:27:42Z</time>
      </trkpt>
      <trkpt lat="45.92261" lon="4.75116">
        <ele>174</ele>
        <time>2018-06-15T08:27:43Z</time>
      </trkpt>
      <trkpt lat="45.92257" lon="4.75121">
        <ele>174</ele>
        <time>2018-06-15T08:27:44Z</time>
      </trkpt>
      <trkpt lat="45.92254" lon="4.75126">
        <ele>174</ele>
        <time>2018-06-15T08:27:45Z</time>
      </trkpt>
      <trkpt lat="45.9225" lon="4.75131">
        <ele>174</ele>
        <time>2018-06-15T08:27:46Z</time>
      </trkpt>
      <trkpt lat="45.92246" lon="4.75135">
        <ele>174</ele>
        <time>2018-06-15T08:27:47Z</time>
      </trkpt>
      <trkpt lat="45.92241" lon="4.75141">
        <ele>174</ele>
        <time>2018-06-15T08:27:48Z</time>
      </trkpt>
      <trkpt lat="45.92238" lon="4.75147">
        <ele>174</ele>
        <time>2018-06-15T08:27:49Z</time>
      </trkpt>
      <trkpt lat="45.92233" lon="4.75152">
        <ele>174</ele>
        <time>2018-06-15T08:27:50Z</time>
      </trkpt>
      <trkpt lat="45.9223" lon="4.75157">
        <ele>174</ele>
        <time>2018-06-15T08:27:51Z</time>
      </trkpt>
      <trkpt lat="45.92227" lon="4.75164">
        <ele>174</ele>
        <time>2018-06-15T08:27:52Z</time>
      </trkpt>
      <trkpt lat="45.92225" lon="4.75171">
        <ele>175</ele>
        <time>2018-06-15T08:27:53Z</time>
      </trkpt>
      <trkpt lat="45.92222" lon="4.75178">
        <ele>175</ele>
        <time>2018-06-15T08:27:54Z</time>
      </trkpt>
      <trkpt lat="45.92219" lon="4.75184">
        <ele>175</ele>
        <time>2018-06-15T08:27:55Z</time>
      </trkpt>
      <trkpt lat="45.92217" lon="4.75191">
        <ele>175</ele>
        <time>2018-06-15T08:27:56Z</time>
      </trkpt>
      <trkpt lat="45.92215" lon="4.75199">
        <ele>175</ele>
        <time>2018-06-15T08:27:57Z</time>
      </trkpt>
      <trkpt lat="45.92214" lon="4.75206">
        <ele>175</ele>
        <time>2018-06-15T08:27:58Z</time>
      </trkpt>
      <trkpt lat="45.92213" lon="4.75213">
        <ele>175</ele>
        <time>2018-06-15T08:27:59Z</time>
      </trkpt>
      <trkpt lat="45.92212" lon="4.75222">
        <ele>175</ele>
        <time>2018-06-15T08:28:00Z</time>
      </trkpt>
      <trkpt lat="45.92211" lon="4.7523">
        <ele>175</ele>
        <time>2018-06-15T08:28:01Z</time>
      </trkpt>
      <trkpt lat="45.92211" lon="4.75238">
        <ele>175</ele>
        <time>2018-06-15T08:28:02Z</time>
      </trkpt>
      <trkpt lat="45.9221" lon="4.7525">
        <ele>175</ele>
        <time>2018-06-15T08:28:04Z</time>
      </trkpt>
      <trkpt lat="45.92211" lon="4.75259">
        <ele>176</ele>
        <time>2018-06-15T08:28:05Z</time>
      </trkpt>
      <trkpt lat="45.9221" lon="4.75266">
        <ele>176</ele>
        <time>2018-06-15T08:28:06Z</time>
      </trkpt>
      <trkpt lat="45.9221" lon="4.75275">
        <ele>176</ele>
        <time>2018-06-15T08:28:07Z</time>
      </trkpt>
      <trkpt lat="45.92208" lon="4.75282">
        <ele>176</ele>
        <time>2018-06-15T08:28:08Z</time>
      </trkpt>
      <trkpt lat="45.92208" lon="4.7529">
        <ele>176</ele>
        <time>2018-06-15T08:28:09Z</time>
      </trkpt>
      <trkpt lat="45.92208" lon="4.75297">
        <ele>176</ele>
        <time>2018-06-15T08:28:10Z</time>
      </trkpt>
      <trkpt lat="45.92208" lon="4.75305">
        <ele>176</ele>
        <time>2018-06-15T08:28:11Z</time>
      </trkpt>
      <trkpt lat="45.9221" lon="4.75313">
        <ele>176</ele>
        <time>2018-06-15T08:28:12Z</time>
      </trkpt>
      <trkpt lat="45.92209" lon="4.75321">
        <ele>176</ele>
        <time>2018-06-15T08:28:13Z</time>
      </trkpt>
      <trkpt lat="45.92208" lon="4.75328">
        <ele>176</ele>
        <time>2018-06-15T08:28:14Z</time>
      </trkpt>
      <trkpt lat="45.92208" lon="4.75335">
        <ele>177</ele>
        <time>2018-06-15T08:28:15Z</time>
      </trkpt>
      <trkpt lat="45.92206" lon="4.75341">
        <ele>177</ele>
        <time>2018-06-15T08:28:16Z</time>
      </trkpt>
      <trkpt lat="45.92204" lon="4.75347">
        <ele>177</ele>
        <time>2018-06-15T08:28:17Z</time>
      </trkpt>
      <trkpt lat="45.92203" lon="4.75353">
        <ele>177</ele>
        <time>2018-06-15T08:28:18Z</time>
      </trkpt>
      <trkpt lat="45.92202" lon="4.7536">
        <ele>177</ele>
        <time>2018-06-15T08:28:19Z</time>
      </trkpt>
      <trkpt lat="45.922" lon="4.75366">
        <ele>177</ele>
        <time>2018-06-15T08:28:20Z</time>
      </trkpt>
      <trkpt lat="45.92198" lon="4.75372">
        <ele>177</ele>
        <time>2018-06-15T08:28:21Z</time>
      </trkpt>
      <trkpt lat="45.92195" lon="4.75379">
        <ele>177</ele>
        <time>2018-06-15T08:28:22Z</time>
      </trkpt>
      <trkpt lat="45.92192" lon="4.75385">
        <ele>177</ele>
        <time>2018-06-15T08:28:23Z</time>
      </trkpt>
      <trkpt lat="45.9219" lon="4.75391">
        <ele>177</ele>
        <time>2018-06-15T08:28:24Z</time>
      </trkpt>
      <trkpt lat="45.92187" lon="4.75398">
        <ele>177</ele>
        <time>2018-06-15T08:28:25Z</time>
      </trkpt>
      <trkpt lat="45.92185" lon="4.75404">
        <ele>177</ele>
        <time>2018-06-15T08:28:26Z</time>
      </trkpt>
      <trkpt lat="45.92182" lon="4.75411">
        <ele>177</ele>
        <time>2018-06-15T08:28:27Z</time>
      </trkpt>
      <trkpt lat="45.9218" lon="4.75416">
        <ele>177</ele>
        <time>2018-06-15T08:28:28Z</time>
      </trkpt>
      <trkpt lat="45.92178" lon="4.75423">
        <ele>177</ele>
        <time>2018-06-15T08:28:29Z</time>
      </trkpt>
      <trkpt lat="45.92175" lon="4.7543">
        <ele>177</ele>
        <time>2018-06-15T08:28:30Z</time>
      </trkpt>
      <trkpt lat="45.92173" lon="4.75435">
        <ele>177</ele>
        <time>2018-06-15T08:28:31Z</time>
      </trkpt>
      <trkpt lat="45.9217" lon="4.75441">
        <ele>177</ele>
        <time>2018-06-15T08:28:32Z</time>
      </trkpt>
      <trkpt lat="45.92167" lon="4.75448">
        <ele>176</ele>
        <time>2018-06-15T08:28:33Z</time>
      </trkpt>
      <trkpt lat="45.92164" lon="4.75455">
        <ele>176</ele>
        <time>2018-06-15T08:28:34Z</time>
      </trkpt>
      <trkpt lat="45.92161" lon="4.75463">
        <ele>176</ele>
        <time>2018-06-15T08:28:35Z</time>
      </trkpt>
      <trkpt lat="45.92158" lon="4.7547">
        <ele>176</ele>
        <time>2018-06-15T08:28:36Z</time>
      </trkpt>
      <trkpt lat="45.92154" lon="4.75476">
        <ele>176</ele>
        <time>2018-06-15T08:28:37Z</time>
      </trkpt>
      <trkpt lat="45.92152" lon="4.75483">
        <ele>176</ele>
        <time>2018-06-15T08:28:38Z</time>
      </trkpt>
      <trkpt lat="45.92149" lon="4.7549">
        <ele>176</ele>
        <time>2018-06-15T08:28:39Z</time>
      </trkpt>
      <trkpt lat="45.92145" lon="4.75497">
        <ele>175</ele>
        <time>2018-06-15T08:28:40Z</time>
      </trkpt>
      <trkpt lat="45.92142" lon="4.75505">
        <ele>174</ele>
        <time>2018-06-15T08:28:41Z</time>
      </trkpt>
      <trkpt lat="45.92138" lon="4.75512">
        <ele>174</ele>
        <time>2018-06-15T08:28:42Z</time>
      </trkpt>
      <trkpt lat="45.92134" lon="4.75519">
        <ele>174</ele>
        <time>2018-06-15T08:28:43Z</time>
      </trkpt>
      <trkpt lat="45.92129" lon="4.75526">
        <ele>174</ele>
        <time>2018-06-15T08:28:44Z</time>
      </trkpt>
      <trkpt lat="45.92126" lon="4.75533">
        <ele>174</ele>
        <time>2018-06-15T08:28:45Z</time>
      </trkpt>
      <trkpt lat="45.92124" lon="4.7554">
        <ele>174</ele>
        <time>2018-06-15T08:28:46Z</time>
      </trkpt>
      <trkpt lat="45.92121" lon="4.75547">
        <ele>174</ele>
        <time>2018-06-15T08:28:47Z</time>
      </trkpt>
      <trkpt lat="45.92117" lon="4.75552">
        <ele>174</ele>
        <time>2018-06-15T08:28:48Z</time>
      </trkpt>
      <trkpt lat="45.92114" lon="4.75558">
        <ele>174</ele>
        <time>2018-06-15T08:28:49Z</time>
      </trkpt>
      <trkpt lat="45.9211" lon="4.75567">
        <ele>174</ele>
        <time>2018-06-15T08:28:53Z</time>
      </trkpt>
      <trkpt lat="45.92109" lon="4.75569">
        <ele>174</ele>
        <time>2018-06-15T08:28:54Z</time>
      </trkpt>
      <trkpt lat="45.92106" lon="4.7558">
        <ele>174</ele>
        <time>2018-06-15T08:28:59Z</time>
      </trkpt>
      <trkpt lat="45.92109" lon="4.7559">
        <ele>174</ele>
        <time>2018-06-15T08:29:00Z</time>
      </trkpt>
      <trkpt lat="45.92116" lon="4.75597">
        <ele>174</ele>
        <time>2018-06-15T08:29:02Z</time>
      </trkpt>
      <trkpt lat="45.92121" lon="4.75598">
        <ele>174</ele>
        <time>2018-06-15T08:29:03Z</time>
      </trkpt>
      <trkpt lat="45.92127" lon="4.75603">
        <ele>174</ele>
        <time>2018-06-15T08:29:05Z</time>
      </trkpt>
      <trkpt lat="45.92132" lon="4.75608">
        <ele>174</ele>
        <time>2018-06-15T08:29:06Z</time>
      </trkpt>
      <trkpt lat="45.92136" lon="4.75612">
        <ele>174</ele>
        <time>2018-06-15T08:29:07Z</time>
      </trkpt>
      <trkpt lat="45.9214" lon="4.75616">
        <ele>174</ele>
        <time>2018-06-15T08:29:08Z</time>
      </trkpt>
      <trkpt lat="45.92144" lon="4.7562">
        <ele>174</ele>
        <time>2018-06-15T08:29:09Z</time>
      </trkpt>
      <trkpt lat="45.92149" lon="4.75625">
        <ele>174</ele>
        <time>2018-06-15T08:29:10Z</time>
      </trkpt>
      <trkpt lat="45.92153" lon="4.7563">
        <ele>174</ele>
        <time>2018-06-15T08:29:11Z</time>
      </trkpt>
      <trkpt lat="45.92157" lon="4.75634">
        <ele>174</ele>
        <time>2018-06-15T08:29:12Z</time>
      </trkpt>
      <trkpt lat="45.92163" lon="4.75638">
        <ele>174</ele>
        <time>2018-06-15T08:29:13Z</time>
      </trkpt>
      <trkpt lat="45.92167" lon="4.75644">
        <ele>174</ele>
        <time>2018-06-15T08:29:14Z</time>
      </trkpt>
      <trkpt lat="45.92172" lon="4.75648">
        <ele>174</ele>
        <time>2018-06-15T08:29:15Z</time>
      </trkpt>
      <trkpt lat="45.92177" lon="4.75653">
        <ele>174</ele>
        <time>2018-06-15T08:29:16Z</time>
      </trkpt>
      <trkpt lat="45.92181" lon="4.75656">
        <ele>174</ele>
        <time>2018-06-15T08:29:17Z</time>
      </trkpt>
      <trkpt lat="45.92186" lon="4.75661">
        <ele>174</ele>
        <time>2018-06-15T08:29:18Z</time>
      </trkpt>
      <trkpt lat="45.9219" lon="4.75665">
        <ele>174</ele>
        <time>2018-06-15T08:29:19Z</time>
      </trkpt>
      <trkpt lat="45.92194" lon="4.7567">
        <ele>174</ele>
        <time>2018-06-15T08:29:20Z</time>
      </trkpt>
      <trkpt lat="45.92199" lon="4.75678">
        <ele>174</ele>
        <time>2018-06-15T08:29:22Z</time>
      </trkpt>
      <trkpt lat="45.92206" lon="4.75682">
        <ele>174</ele>
        <time>2018-06-15T08:29:23Z</time>
      </trkpt>
      <trkpt lat="45.92212" lon="4.75687">
        <ele>174</ele>
        <time>2018-06-15T08:29:24Z</time>
      </trkpt>
      <trkpt lat="45.92218" lon="4.7569">
        <ele>174</ele>
        <time>2018-06-15T08:29:25Z</time>
      </trkpt>
      <trkpt lat="45.92223" lon="4.75694">
        <ele>174</ele>
        <time>2018-06-15T08:29:26Z</time>
      </trkpt>
      <trkpt lat="45.92227" lon="4.75699">
        <ele>174</ele>
        <time>2018-06-15T08:29:27Z</time>
      </trkpt>
      <trkpt lat="45.9223" lon="4.75704">
        <ele>174</ele>
        <time>2018-06-15T08:29:28Z</time>
      </trkpt>
      <trkpt lat="45.92233" lon="4.7571">
        <ele>174</ele>
        <time>2018-06-15T08:29:29Z</time>
      </trkpt>
      <trkpt lat="45.92236" lon="4.75715">
        <ele>174</ele>
        <time>2018-06-15T08:29:30Z</time>
      </trkpt>
      <trkpt lat="45.9224" lon="4.7572">
        <ele>174</ele>
        <time>2018-06-15T08:29:31Z</time>
      </trkpt>
      <trkpt lat="45.92241" lon="4.75726">
        <ele>174</ele>
        <time>2018-06-15T08:29:32Z</time>
      </trkpt>
      <trkpt lat="45.92244" lon="4.75732">
        <ele>174</ele>
        <time>2018-06-15T08:29:33Z</time>
      </trkpt>
      <trkpt lat="45.92246" lon="4.75738">
        <ele>174</ele>
        <time>2018-06-15T08:29:34Z</time>
      </trkpt>
      <trkpt lat="45.92247" lon="4.75745">
        <ele>174</ele>
        <time>2018-06-15T08:29:35Z</time>
      </trkpt>
      <trkpt lat="45.92249" lon="4.75757">
        <ele>174</ele>
        <time>2018-06-15T08:29:37Z</time>
      </trkpt>
      <trkpt lat="45.9225" lon="4.75762">
        <ele>174</ele>
        <time>2018-06-15T08:29:38Z</time>
      </trkpt>
      <trkpt lat="45.92252" lon="4.75769">
        <ele>174</ele>
        <time>2018-06-15T08:29:39Z</time>
      </trkpt>
      <trkpt lat="45.92253" lon="4.75775">
        <ele>174</ele>
        <time>2018-06-15T08:29:40Z</time>
      </trkpt>
      <trkpt lat="45.92254" lon="4.75782">
        <ele>174</ele>
        <time>2018-06-15T08:29:41Z</time>
      </trkpt>
      <trkpt lat="45.92256" lon="4.75789">
        <ele>174</ele>
        <time>2018-06-15T08:29:42Z</time>
      </trkpt>
      <trkpt lat="45.92257" lon="4.75797">
        <ele>174</ele>
        <time>2018-06-15T08:29:43Z</time>
      </trkpt>
      <trkpt lat="45.92259" lon="4.75803">
        <ele>174</ele>
        <time>2018-06-15T08:29:44Z</time>
      </trkpt>
      <trkpt lat="45.92263" lon="4.75808">
        <ele>174</ele>
        <time>2018-06-15T08:29:45Z</time>
      </trkpt>
      <trkpt lat="45.92265" lon="4.75815">
        <ele>174</ele>
        <time>2018-06-15T08:29:46Z</time>
      </trkpt>
      <trkpt lat="45.92268" lon="4.75821">
        <ele>174</ele>
        <time>2018-06-15T08:29:47Z</time>
      </trkpt>
      <trkpt lat="45.92272" lon="4.75825">
        <ele>174</ele>
        <time>2018-06-15T08:29:48Z</time>
      </trkpt>
      <trkpt lat="45.92275" lon="4.7583">
        <ele>174</ele>
        <time>2018-06-15T08:29:49Z</time>
      </trkpt>
      <trkpt lat="45.92279" lon="4.75834">
        <ele>173</ele>
        <time>2018-06-15T08:29:50Z</time>
      </trkpt>
      <trkpt lat="45.92285" lon="4.75838">
        <ele>173</ele>
        <time>2018-06-15T08:29:51Z</time>
      </trkpt>
      <trkpt lat="45.92292" lon="4.75839">
        <ele>173</ele>
        <time>2018-06-15T08:29:52Z</time>
      </trkpt>
      <trkpt lat="45.92297" lon="4.75841">
        <ele>173</ele>
        <time>2018-06-15T08:29:53Z</time>
      </trkpt>
      <trkpt lat="45.92302" lon="4.75844">
        <ele>173</ele>
        <time>2018-06-15T08:29:54Z</time>
      </trkpt>
      <trkpt lat="45.92307" lon="4.75847">
        <ele>173</ele>
        <time>2018-06-15T08:29:55Z</time>
      </trkpt>
      <trkpt lat="45.92312" lon="4.75851">
        <ele>173</ele>
        <time>2018-06-15T08:29:56Z</time>
      </trkpt>
      <trkpt lat="45.92318" lon="4.75853">
        <ele>173</ele>
        <time>2018-06-15T08:29:57Z</time>
      </trkpt>
      <trkpt lat="45.92323" lon="4.75856">
        <ele>173</ele>
        <time>2018-06-15T08:29:58Z</time>
      </trkpt>
      <trkpt lat="45.92328" lon="4.75859">
        <ele>173</ele>
        <time>2018-06-15T08:29:59Z</time>
      </trkpt>
      <trkpt lat="45.92334" lon="4.75862">
        <ele>173</ele>
        <time>2018-06-15T08:30:00Z</time>
      </trkpt>
      <trkpt lat="45.92339" lon="4.75866">
        <ele>173</ele>
        <time>2018-06-15T08:30:01Z</time>
      </trkpt>
      <trkpt lat="45.92345" lon="4.75869">
        <ele>173</ele>
        <time>2018-06-15T08:30:02Z</time>
      </trkpt>
      <trkpt lat="45.9235" lon="4.75873">
        <ele>173</ele>
        <time>2018-06-15T08:30:03Z</time>
      </trkpt>
      <trkpt lat="45.92355" lon="4.75878">
        <ele>173</ele>
        <time>2018-06-15T08:30:04Z</time>
      </trkpt>
      <trkpt lat="45.92361" lon="4.7588">
        <ele>173</ele>
        <time>2018-06-15T08:30:05Z</time>
      </trkpt>
      <trkpt lat="45.92366" lon="4.75885">
        <ele>173</ele>
        <time>2018-06-15T08:30:06Z</time>
      </trkpt>
      <trkpt lat="45.92372" lon="4.75889">
        <ele>173</ele>
        <time>2018-06-15T08:30:07Z</time>
      </trkpt>
      <trkpt lat="45.92376" lon="4.75893">
        <ele>173</ele>
        <time>2018-06-15T08:30:08Z</time>
      </trkpt>
      <trkpt lat="45.92383" lon="4.75896">
        <ele>173</ele>
        <time>2018-06-15T08:30:09Z</time>
      </trkpt>
      <trkpt lat="45.92388" lon="4.75901">
        <ele>173</ele>
        <time>2018-06-15T08:30:10Z</time>
      </trkpt>
      <trkpt lat="45.92394" lon="4.75905">
        <ele>173</ele>
        <time>2018-06-15T08:30:11Z</time>
      </trkpt>
      <trkpt lat="45.924" lon="4.75908">
        <ele>173</ele>
        <time>2018-06-15T08:30:12Z</time>
      </trkpt>
      <trkpt lat="45.92405" lon="4.75912">
        <ele>172</ele>
        <time>2018-06-15T08:30:13Z</time>
      </trkpt>
      <trkpt lat="45.9241" lon="4.75915">
        <ele>172</ele>
        <time>2018-06-15T08:30:14Z</time>
      </trkpt>
      <trkpt lat="45.92415" lon="4.75919">
        <ele>172</ele>
        <time>2018-06-15T08:30:15Z</time>
      </trkpt>
      <trkpt lat="45.9242" lon="4.75924">
        <ele>172</ele>
        <time>2018-06-15T08:30:16Z</time>
      </trkpt>
      <trkpt lat="45.92424" lon="4.75928">
        <ele>172</ele>
        <time>2018-06-15T08:30:17Z</time>
      </trkpt>
      <trkpt lat="45.92429" lon="4.75932">
        <ele>172</ele>
        <time>2018-06-15T08:30:18Z</time>
      </trkpt>
      <trkpt lat="45.92435" lon="4.75935">
        <ele>172</ele>
        <time>2018-06-15T08:30:19Z</time>
      </trkpt>
      <trkpt lat="45.9244" lon="4.75939">
        <ele>172</ele>
        <time>2018-06-15T08:30:20Z</time>
      </trkpt>
      <trkpt lat="45.92447" lon="4.75945">
        <ele>172</ele>
        <time>2018-06-15T08:30:22Z</time>
      </trkpt>
      <trkpt lat="45.92451" lon="4.75949">
        <ele>172</ele>
        <time>2018-06-15T08:30:23Z</time>
      </trkpt>
      <trkpt lat="45.92456" lon="4.75953">
        <ele>172</ele>
        <time>2018-06-15T08:30:24Z</time>
      </trkpt>
      <trkpt lat="45.92459" lon="4.75955">
        <ele>172</ele>
        <time>2018-06-15T08:30:25Z</time>
      </trkpt>
      <trkpt lat="45.92466" lon="4.75961">
        <ele>172</ele>
        <time>2018-06-15T08:30:27Z</time>
      </trkpt>
      <trkpt lat="45.92468" lon="4.75963">
        <ele>172</ele>
        <time>2018-06-15T08:30:28Z</time>
      </trkpt>
      <trkpt lat="45.92473" lon="4.75967">
        <ele>172</ele>
        <time>2018-06-15T08:30:29Z</time>
      </trkpt>
      <trkpt lat="45.92477" lon="4.7597">
        <ele>172</ele>
        <time>2018-06-15T08:30:30Z</time>
      </trkpt>
      <trkpt lat="45.92483" lon="4.75975">
        <ele>172</ele>
        <time>2018-06-15T08:30:32Z</time>
      </trkpt>
      <trkpt lat="45.92486" lon="4.75978">
        <ele>172</ele>
        <time>2018-06-15T08:30:33Z</time>
      </trkpt>
      <trkpt lat="45.92494" lon="4.75985">
        <ele>172</ele>
        <time>2018-06-15T08:30:35Z</time>
      </trkpt>
      <trkpt lat="45.92497" lon="4.75988">
        <ele>172</ele>
        <time>2018-06-15T08:30:36Z</time>
      </trkpt>
      <trkpt lat="45.92504" lon="4.75993">
        <ele>172</ele>
        <time>2018-06-15T08:30:38Z</time>
      </trkpt>
      <trkpt lat="45.92508" lon="4.75997">
        <ele>172</ele>
        <time>2018-06-15T08:30:39Z</time>
      </trkpt>
      <trkpt lat="45.92512" lon="4.76">
        <ele>172</ele>
        <time>2018-06-15T08:30:40Z</time>
      </trkpt>
      <trkpt lat="45.92517" lon="4.76003">
        <ele>172</ele>
        <time>2018-06-15T08:30:41Z</time>
      </trkpt>
      <trkpt lat="45.92525" lon="4.76008">
        <ele>172</ele>
        <time>2018-06-15T08:30:43Z</time>
      </trkpt>
      <trkpt lat="45.92529" lon="4.76011">
        <ele>172</ele>
        <time>2018-06-15T08:30:44Z</time>
      </trkpt>
      <trkpt lat="45.92535" lon="4.76014">
        <ele>172</ele>
        <time>2018-06-15T08:30:45Z</time>
      </trkpt>
      <trkpt lat="45.9254" lon="4.76017">
        <ele>172</ele>
        <time>2018-06-15T08:30:46Z</time>
      </trkpt>
      <trkpt lat="45.92545" lon="4.7602">
        <ele>172</ele>
        <time>2018-06-15T08:30:47Z</time>
      </trkpt>
      <trkpt lat="45.9255" lon="4.76023">
        <ele>172</ele>
        <time>2018-06-15T08:30:48Z</time>
      </trkpt>
      <trkpt lat="45.92554" lon="4.76026">
        <ele>172</ele>
        <time>2018-06-15T08:30:49Z</time>
      </trkpt>
      <trkpt lat="45.92559" lon="4.7603">
        <ele>172</ele>
        <time>2018-06-15T08:30:50Z</time>
      </trkpt>
      <trkpt lat="45.92565" lon="4.76034">
        <ele>172</ele>
        <time>2018-06-15T08:30:51Z</time>
      </trkpt>
      <trkpt lat="45.92569" lon="4.76038">
        <ele>172</ele>
        <time>2018-06-15T08:30:52Z</time>
      </trkpt>
      <trkpt lat="45.92574" lon="4.76041">
        <ele>172</ele>
        <time>2018-06-15T08:30:53Z</time>
      </trkpt>
      <trkpt lat="45.9258" lon="4.76044">
        <ele>171</ele>
        <time>2018-06-15T08:30:54Z</time>
      </trkpt>
      <trkpt lat="45.92585" lon="4.76048">
        <ele>171</ele>
        <time>2018-06-15T08:30:55Z</time>
      </trkpt>
      <trkpt lat="45.9259" lon="4.76052">
        <ele>171</ele>
        <time>2018-06-15T08:30:56Z</time>
      </trkpt>
      <trkpt lat="45.92595" lon="4.76055">
        <ele>171</ele>
        <time>2018-06-15T08:30:57Z</time>
      </trkpt>
      <trkpt lat="45.92599" lon="4.76059">
        <ele>171</ele>
        <time>2018-06-15T08:30:58Z</time>
      </trkpt>
      <trkpt lat="45.92604" lon="4.76061">
        <ele>171</ele>
        <time>2018-06-15T08:30:59Z</time>
      </trkpt>
      <trkpt lat="45.92609" lon="4.76065">
        <ele>171</ele>
        <time>2018-06-15T08:31:00Z</time>
      </trkpt>
      <trkpt lat="45.92614" lon="4.76069">
        <ele>171</ele>
        <time>2018-06-15T08:31:01Z</time>
      </trkpt>
      <trkpt lat="45.9262" lon="4.76071">
        <ele>171</ele>
        <time>2018-06-15T08:31:02Z</time>
      </trkpt>
      <trkpt lat="45.92626" lon="4.76075">
        <ele>170</ele>
        <time>2018-06-15T08:31:03Z</time>
      </trkpt>
      <trkpt lat="45.92631" lon="4.76079">
        <ele>170</ele>
        <time>2018-06-15T08:31:04Z</time>
      </trkpt>
      <trkpt lat="45.92637" lon="4.76083">
        <ele>170</ele>
        <time>2018-06-15T08:31:05Z</time>
      </trkpt>
      <trkpt lat="45.92643" lon="4.76087">
        <ele>170</ele>
        <time>2018-06-15T08:31:06Z</time>
      </trkpt>
      <trkpt lat="45.9265" lon="4.7609">
        <ele>170</ele>
        <time>2018-06-15T08:31:07Z</time>
      </trkpt>
      <trkpt lat="45.92656" lon="4.76094">
        <ele>170</ele>
        <time>2018-06-15T08:31:08Z</time>
      </trkpt>
      <trkpt lat="45.92663" lon="4.76097">
        <ele>170</ele>
        <time>2018-06-15T08:31:09Z</time>
      </trkpt>
      <trkpt lat="45.9267" lon="4.76102">
        <ele>169</ele>
        <time>2018-06-15T08:31:10Z</time>
      </trkpt>
      <trkpt lat="45.92677" lon="4.76105">
        <ele>169</ele>
        <time>2018-06-15T08:31:11Z</time>
      </trkpt>
      <trkpt lat="45.92683" lon="4.7611">
        <ele>169</ele>
        <time>2018-06-15T08:31:12Z</time>
      </trkpt>
      <trkpt lat="45.92689" lon="4.76116">
        <ele>169</ele>
        <time>2018-06-15T08:31:13Z</time>
      </trkpt>
      <trkpt lat="45.92696" lon="4.76121">
        <ele>169</ele>
        <time>2018-06-15T08:31:14Z</time>
      </trkpt>
      <trkpt lat="45.92703" lon="4.76126">
        <ele>169</ele>
        <time>2018-06-15T08:31:15Z</time>
      </trkpt>
      <trkpt lat="45.9271" lon="4.76131">
        <ele>168</ele>
        <time>2018-06-15T08:31:16Z</time>
      </trkpt>
      <trkpt lat="45.92717" lon="4.76136">
        <ele>168</ele>
        <time>2018-06-15T08:31:17Z</time>
      </trkpt>
      <trkpt lat="45.92721" lon="4.7614">
        <ele>168</ele>
        <time>2018-06-15T08:31:18Z</time>
      </trkpt>
      <trkpt lat="45.92728" lon="4.76145">
        <ele>168</ele>
        <time>2018-06-15T08:31:19Z</time>
      </trkpt>
      <trkpt lat="45.92734" lon="4.76151">
        <ele>168</ele>
        <time>2018-06-15T08:31:20Z</time>
      </trkpt>
      <trkpt lat="45.92741" lon="4.76155">
        <ele>168</ele>
        <time>2018-06-15T08:31:21Z</time>
      </trkpt>
      <trkpt lat="45.92748" lon="4.76161">
        <ele>167</ele>
        <time>2018-06-15T08:31:22Z</time>
      </trkpt>
      <trkpt lat="45.92754" lon="4.76166">
        <ele>167</ele>
        <time>2018-06-15T08:31:23Z</time>
      </trkpt>
      <trkpt lat="45.9276" lon="4.76172">
        <ele>167</ele>
        <time>2018-06-15T08:31:24Z</time>
      </trkpt>
      <trkpt lat="45.92765" lon="4.76177">
        <ele>167</ele>
        <time>2018-06-15T08:31:25Z</time>
      </trkpt>
      <trkpt lat="45.9277" lon="4.76181">
        <ele>167</ele>
        <time>2018-06-15T08:31:26Z</time>
      </trkpt>
      <trkpt lat="45.92776" lon="4.76186">
        <ele>168</ele>
        <time>2018-06-15T08:31:27Z</time>
      </trkpt>
      <trkpt lat="45.92781" lon="4.76191">
        <ele>168</ele>
        <time>2018-06-15T08:31:28Z</time>
      </trkpt>
      <trkpt lat="45.92788" lon="4.76196">
        <ele>168</ele>
        <time>2018-06-15T08:31:29Z</time>
      </trkpt>
      <trkpt lat="45.92792" lon="4.76201">
        <ele>168</ele>
        <time>2018-06-15T08:31:30Z</time>
      </trkpt>
      <trkpt lat="45.92796" lon="4.76207">
        <ele>168</ele>
        <time>2018-06-15T08:31:31Z</time>
      </trkpt>
      <trkpt lat="45.928" lon="4.76211">
        <ele>168</ele>
        <time>2018-06-15T08:31:32Z</time>
      </trkpt>
      <trkpt lat="45.92805" lon="4.76215">
        <ele>168</ele>
        <time>2018-06-15T08:31:33Z</time>
      </trkpt>
      <trkpt lat="45.92809" lon="4.76221">
        <ele>168</ele>
        <time>2018-06-15T08:31:34Z</time>
      </trkpt>
      <trkpt lat="45.92813" lon="4.76227">
        <ele>168</ele>
        <time>2018-06-15T08:31:35Z</time>
      </trkpt>
      <trkpt lat="45.92819" lon="4.76232">
        <ele>168</ele>
        <time>2018-06-15T08:31:36Z</time>
      </trkpt>
      <trkpt lat="45.92825" lon="4.76235">
        <ele>168</ele>
        <time>2018-06-15T08:31:37Z</time>
      </trkpt>
      <trkpt lat="45.92829" lon="4.76239">
        <ele>168</ele>
        <time>2018-06-15T08:31:38Z</time>
      </trkpt>
      <trkpt lat="45.92833" lon="4.76243">
        <ele>169</ele>
        <time>2018-06-15T08:31:39Z</time>
      </trkpt>
      <trkpt lat="45.92839" lon="4.76248">
        <ele>169</ele>
        <time>2018-06-15T08:31:40Z</time>
      </trkpt>
      <trkpt lat="45.92844" lon="4.76252">
        <ele>169</ele>
        <time>2018-06-15T08:31:41Z</time>
      </trkpt>
      <trkpt lat="45.92848" lon="4.76257">
        <ele>169</ele>
        <time>2018-06-15T08:31:42Z</time>
      </trkpt>
      <trkpt lat="45.92854" lon="4.7626">
        <ele>169</ele>
        <time>2018-06-15T08:31:43Z</time>
      </trkpt>
      <trkpt lat="45.92858" lon="4.76267">
        <ele>169</ele>
        <time>2018-06-15T08:31:44Z</time>
      </trkpt>
      <trkpt lat="45.9286" lon="4.76272">
        <ele>169</ele>
        <time>2018-06-15T08:31:45Z</time>
      </trkpt>
      <trkpt lat="45.92867" lon="4.76277">
        <ele>169</ele>
        <time>2018-06-15T08:31:46Z</time>
      </trkpt>
      <trkpt lat="45.9287" lon="4.76279">
        <ele>169</ele>
        <time>2018-06-15T08:31:47Z</time>
      </trkpt>
      <trkpt lat="45.92874" lon="4.76285">
        <ele>169</ele>
        <time>2018-06-15T08:31:48Z</time>
      </trkpt>
      <trkpt lat="45.92876" lon="4.76289">
        <ele>169</ele>
        <time>2018-06-15T08:31:49Z</time>
      </trkpt>
      <trkpt lat="45.92881" lon="4.76295">
        <ele>169</ele>
        <time>2018-06-15T08:31:50Z</time>
      </trkpt>
      <trkpt lat="45.92887" lon="4.763">
        <ele>169</ele>
        <time>2018-06-15T08:31:51Z</time>
      </trkpt>
      <trkpt lat="45.92891" lon="4.76306">
        <ele>169</ele>
        <time>2018-06-15T08:31:52Z</time>
      </trkpt>
      <trkpt lat="45.92896" lon="4.76312">
        <ele>169</ele>
        <time>2018-06-15T08:31:53Z</time>
      </trkpt>
      <trkpt lat="45.92902" lon="4.76316">
        <ele>169</ele>
        <time>2018-06-15T08:31:54Z</time>
      </trkpt>
      <trkpt lat="45.92906" lon="4.76321">
        <ele>169</ele>
        <time>2018-06-15T08:31:55Z</time>
      </trkpt>
      <trkpt lat="45.92911" lon="4.76324">
        <ele>169</ele>
        <time>2018-06-15T08:31:56Z</time>
      </trkpt>
      <trkpt lat="45.92917" lon="4.76329">
        <ele>169</ele>
        <time>2018-06-15T08:31:57Z</time>
      </trkpt>
      <trkpt lat="45.92922" lon="4.76333">
        <ele>169</ele>
        <time>2018-06-15T08:31:58Z</time>
      </trkpt>
      <trkpt lat="45.92926" lon="4.76337">
        <ele>169</ele>
        <time>2018-06-15T08:31:59Z</time>
      </trkpt>
      <trkpt lat="45.9293" lon="4.76342">
        <ele>169</ele>
        <time>2018-06-15T08:32:00Z</time>
      </trkpt>
      <trkpt lat="45.92935" lon="4.76347">
        <ele>169</ele>
        <time>2018-06-15T08:32:01Z</time>
      </trkpt>
      <trkpt lat="45.9294" lon="4.76352">
        <ele>169</ele>
        <time>2018-06-15T08:32:02Z</time>
      </trkpt>
      <trkpt lat="45.92943" lon="4.76356">
        <ele>169</ele>
        <time>2018-06-15T08:32:03Z</time>
      </trkpt>
      <trkpt lat="45.92947" lon="4.76362">
        <ele>169</ele>
        <time>2018-06-15T08:32:04Z</time>
      </trkpt>
      <trkpt lat="45.92953" lon="4.76364">
        <ele>169</ele>
        <time>2018-06-15T08:32:05Z</time>
      </trkpt>
      <trkpt lat="45.92956" lon="4.76368">
        <ele>169</ele>
        <time>2018-06-15T08:32:06Z</time>
      </trkpt>
      <trkpt lat="45.92962" lon="4.76371">
        <ele>169</ele>
        <time>2018-06-15T08:32:07Z</time>
      </trkpt>
      <trkpt lat="45.92966" lon="4.76376">
        <ele>169</ele>
        <time>2018-06-15T08:32:08Z</time>
      </trkpt>
      <trkpt lat="45.9297" lon="4.76381">
        <ele>169</ele>
        <time>2018-06-15T08:32:09Z</time>
      </trkpt>
      <trkpt lat="45.92976" lon="4.76386">
        <ele>169</ele>
        <time>2018-06-15T08:32:10Z</time>
      </trkpt>
      <trkpt lat="45.92981" lon="4.76391">
        <ele>169</ele>
        <time>2018-06-15T08:32:11Z</time>
      </trkpt>
      <trkpt lat="45.92988" lon="4.76396">
        <ele>169</ele>
        <time>2018-06-15T08:32:12Z</time>
      </trkpt>
      <trkpt lat="45.92992" lon="4.76401">
        <ele>169</ele>
        <time>2018-06-15T08:32:13Z</time>
      </trkpt>
      <trkpt lat="45.92996" lon="4.76406">
        <ele>169</ele>
        <time>2018-06-15T08:32:14Z</time>
      </trkpt>
      <trkpt lat="45.93" lon="4.7641">
        <ele>169</ele>
        <time>2018-06-15T08:32:15Z</time>
      </trkpt>
      <trkpt lat="45.93004" lon="4.76415">
        <ele>169</ele>
        <time>2018-06-15T08:32:16Z</time>
      </trkpt>
      <trkpt lat="45.93008" lon="4.76419">
        <ele>169</ele>
        <time>2018-06-15T08:32:17Z</time>
      </trkpt>
      <trkpt lat="45.93013" lon="4.76421">
        <ele>169</ele>
        <time>2018-06-15T08:32:18Z</time>
      </trkpt>
      <trkpt lat="45.93017" lon="4.76426">
        <ele>169</ele>
        <time>2018-06-15T08:32:19Z</time>
      </trkpt>
      <trkpt lat="45.93023" lon="4.76431">
        <ele>169</ele>
        <time>2018-06-15T08:32:20Z</time>
      </trkpt>
      <trkpt lat="45.93028" lon="4.76438">
        <ele>169</ele>
        <time>2018-06-15T08:32:21Z</time>
      </trkpt>
      <trkpt lat="45.93034" lon="4.76444">
        <ele>169</ele>
        <time>2018-06-15T08:32:22Z</time>
      </trkpt>
      <trkpt lat="45.93039" lon="4.76447">
        <ele>169</ele>
        <time>2018-06-15T08:32:23Z</time>
      </trkpt>
      <trkpt lat="45.93043" lon="4.76452">
        <ele>169</ele>
        <time>2018-06-15T08:32:24Z</time>
      </trkpt>
      <trkpt lat="45.93048" lon="4.76456">
        <ele>169</ele>
        <time>2018-06-15T08:32:25Z</time>
      </trkpt>
      <trkpt lat="45.93052" lon="4.7646">
        <ele>169</ele>
        <time>2018-06-15T08:32:26Z</time>
      </trkpt>
      <trkpt lat="45.93057" lon="4.76464">
        <ele>169</ele>
        <time>2018-06-15T08:32:27Z</time>
      </trkpt>
      <trkpt lat="45.93063" lon="4.76468">
        <ele>169</ele>
        <time>2018-06-15T08:32:28Z</time>
      </trkpt>
      <trkpt lat="45.93068" lon="4.76473">
        <ele>169</ele>
        <time>2018-06-15T08:32:29Z</time>
      </trkpt>
      <trkpt lat="45.93073" lon="4.76477">
        <ele>169</ele>
        <time>2018-06-15T08:32:30Z</time>
      </trkpt>
      <trkpt lat="45.93076" lon="4.76482">
        <ele>169</ele>
        <time>2018-06-15T08:32:31Z</time>
      </trkpt>
      <trkpt lat="45.93079" lon="4.76486">
        <ele>170</ele>
        <time>2018-06-15T08:32:32Z</time>
      </trkpt>
      <trkpt lat="45.93085" lon="4.76492">
        <ele>170</ele>
        <time>2018-06-15T08:32:33Z</time>
      </trkpt>
      <trkpt lat="45.93092" lon="4.76497">
        <ele>170</ele>
        <time>2018-06-15T08:32:34Z</time>
      </trkpt>
      <trkpt lat="45.93097" lon="4.76503">
        <ele>170</ele>
        <time>2018-06-15T08:32:35Z</time>
      </trkpt>
      <trkpt lat="45.93103" lon="4.76508">
        <ele>170</ele>
        <time>2018-06-15T08:32:36Z</time>
      </trkpt>
      <trkpt lat="45.93108" lon="4.76514">
        <ele>170</ele>
        <time>2018-06-15T08:32:37Z</time>
      </trkpt>
      <trkpt lat="45.93113" lon="4.76518">
        <ele>170</ele>
        <time>2018-06-15T08:32:38Z</time>
      </trkpt>
      <trkpt lat="45.93118" lon="4.76522">
        <ele>170</ele>
        <time>2018-06-15T08:32:39Z</time>
      </trkpt>
      <trkpt lat="45.93122" lon="4.76527">
        <ele>170</ele>
        <time>2018-06-15T08:32:40Z</time>
      </trkpt>
      <trkpt lat="45.93127" lon="4.76532">
        <ele>170</ele>
        <time>2018-06-15T08:32:41Z</time>
      </trkpt>
      <trkpt lat="45.93131" lon="4.76537">
        <ele>170</ele>
        <time>2018-06-15T08:32:42Z</time>
      </trkpt>
      <trkpt lat="45.93137" lon="4.76543">
        <ele>170</ele>
        <time>2018-06-15T08:32:43Z</time>
      </trkpt>
      <trkpt lat="45.93141" lon="4.76547">
        <ele>170</ele>
        <time>2018-06-15T08:32:44Z</time>
      </trkpt>
      <trkpt lat="45.93148" lon="4.76555">
        <ele>170</ele>
        <time>2018-06-15T08:32:46Z</time>
      </trkpt>
      <trkpt lat="45.93153" lon="4.7656">
        <ele>170</ele>
        <time>2018-06-15T08:32:47Z</time>
      </trkpt>
      <trkpt lat="45.93157" lon="4.76565">
        <ele>170</ele>
        <time>2018-06-15T08:32:48Z</time>
      </trkpt>
      <trkpt lat="45.93161" lon="4.76568">
        <ele>170</ele>
        <time>2018-06-15T08:32:49Z</time>
      </trkpt>
      <trkpt lat="45.93167" lon="4.76576">
        <ele>170</ele>
        <time>2018-06-15T08:32:51Z</time>
      </trkpt>
      <trkpt lat="45.93172" lon="4.76581">
        <ele>171</ele>
        <time>2018-06-15T08:32:52Z</time>
      </trkpt>
      <trkpt lat="45.93175" lon="4.76584">
        <ele>171</ele>
        <time>2018-06-15T08:32:53Z</time>
      </trkpt>
      <trkpt lat="45.93181" lon="4.76589">
        <ele>171</ele>
        <time>2018-06-15T08:32:54Z</time>
      </trkpt>
      <trkpt lat="45.93187" lon="4.76594">
        <ele>171</ele>
        <time>2018-06-15T08:32:55Z</time>
      </trkpt>
      <trkpt lat="45.93193" lon="4.76599">
        <ele>170</ele>
        <time>2018-06-15T08:32:56Z</time>
      </trkpt>
      <trkpt lat="45.93198" lon="4.76603">
        <ele>170</ele>
        <time>2018-06-15T08:32:57Z</time>
      </trkpt>
      <trkpt lat="45.93202" lon="4.7661">
        <ele>170</ele>
        <time>2018-06-15T08:32:58Z</time>
      </trkpt>
      <trkpt lat="45.93208" lon="4.76613">
        <ele>170</ele>
        <time>2018-06-15T08:32:59Z</time>
      </trkpt>
      <trkpt lat="45.93212" lon="4.76619">
        <ele>170</ele>
        <time>2018-06-15T08:33:00Z</time>
      </trkpt>
      <trkpt lat="45.93218" lon="4.76622">
        <ele>170</ele>
        <time>2018-06-15T08:33:01Z</time>
      </trkpt>
      <trkpt lat="45.93222" lon="4.76628">
        <ele>170</ele>
        <time>2018-06-15T08:33:02Z</time>
      </trkpt>
      <trkpt lat="45.93227" lon="4.76631">
        <ele>170</ele>
        <time>2018-06-15T08:33:03Z</time>
      </trkpt>
      <trkpt lat="45.93231" lon="4.76637">
        <ele>171</ele>
        <time>2018-06-15T08:33:04Z</time>
      </trkpt>
      <trkpt lat="45.93238" lon="4.76641">
        <ele>171</ele>
        <time>2018-06-15T08:33:05Z</time>
      </trkpt>
      <trkpt lat="45.93242" lon="4.76645">
        <ele>171</ele>
        <time>2018-06-15T08:33:06Z</time>
      </trkpt>
      <trkpt lat="45.93245" lon="4.76649">
        <ele>171</ele>
        <time>2018-06-15T08:33:07Z</time>
      </trkpt>
      <trkpt lat="45.9325" lon="4.76655">
        <ele>171</ele>
        <time>2018-06-15T08:33:08Z</time>
      </trkpt>
      <trkpt lat="45.93255" lon="4.76659">
        <ele>171</ele>
        <time>2018-06-15T08:33:09Z</time>
      </trkpt>
      <trkpt lat="45.93259" lon="4.76664">
        <ele>171</ele>
        <time>2018-06-15T08:33:10Z</time>
      </trkpt>
      <trkpt lat="45.93263" lon="4.76668">
        <ele>172</ele>
        <time>2018-06-15T08:33:11Z</time>
      </trkpt>
      <trkpt lat="45.93267" lon="4.76673">
        <ele>172</ele>
        <time>2018-06-15T08:33:12Z</time>
      </trkpt>
      <trkpt lat="45.93272" lon="4.76677">
        <ele>172</ele>
        <time>2018-06-15T08:33:13Z</time>
      </trkpt>
      <trkpt lat="45.93277" lon="4.76683">
        <ele>172</ele>
        <time>2018-06-15T08:33:14Z</time>
      </trkpt>
      <trkpt lat="45.93281" lon="4.76687">
        <ele>172</ele>
        <time>2018-06-15T08:33:15Z</time>
      </trkpt>
      <trkpt lat="45.93286" lon="4.76694">
        <ele>172</ele>
        <time>2018-06-15T08:33:16Z</time>
      </trkpt>
      <trkpt lat="45.93291" lon="4.76698">
        <ele>172</ele>
        <time>2018-06-15T08:33:17Z</time>
      </trkpt>
      <trkpt lat="45.93297" lon="4.76702">
        <ele>172</ele>
        <time>2018-06-15T08:33:18Z</time>
      </trkpt>
      <trkpt lat="45.93302" lon="4.76706">
        <ele>172</ele>
        <time>2018-06-15T08:33:19Z</time>
      </trkpt>
      <trkpt lat="45.93307" lon="4.76711">
        <ele>172</ele>
        <time>2018-06-15T08:33:20Z</time>
      </trkpt>
      <trkpt lat="45.93312" lon="4.76717">
        <ele>172</ele>
        <time>2018-06-15T08:33:21Z</time>
      </trkpt>
      <trkpt lat="45.93316" lon="4.76721">
        <ele>172</ele>
        <time>2018-06-15T08:33:22Z</time>
      </trkpt>
      <trkpt lat="45.93321" lon="4.76726">
        <ele>172</ele>
        <time>2018-06-15T08:33:23Z</time>
      </trkpt>
      <trkpt lat="45.93326" lon="4.7673">
        <ele>172</ele>
        <time>2018-06-15T08:33:24Z</time>
      </trkpt>
      <trkpt lat="45.93331" lon="4.76734">
        <ele>172</ele>
        <time>2018-06-15T08:33:25Z</time>
      </trkpt>
      <trkpt lat="45.93335" lon="4.76739">
        <ele>173</ele>
        <time>2018-06-15T08:33:26Z</time>
      </trkpt>
      <trkpt lat="45.9334" lon="4.76744">
        <ele>173</ele>
        <time>2018-06-15T08:33:27Z</time>
      </trkpt>
      <trkpt lat="45.93345" lon="4.76749">
        <ele>172</ele>
        <time>2018-06-15T08:33:28Z</time>
      </trkpt>
      <trkpt lat="45.93349" lon="4.76753">
        <ele>172</ele>
        <time>2018-06-15T08:33:29Z</time>
      </trkpt>
      <trkpt lat="45.93354" lon="4.76757">
        <ele>172</ele>
        <time>2018-06-15T08:33:30Z</time>
      </trkpt>
      <trkpt lat="45.93359" lon="4.76762">
        <ele>172</ele>
        <time>2018-06-15T08:33:31Z</time>
      </trkpt>
      <trkpt lat="45.93364" lon="4.76767">
        <ele>172</ele>
        <time>2018-06-15T08:33:32Z</time>
      </trkpt>
      <trkpt lat="45.93369" lon="4.76772">
        <ele>172</ele>
        <time>2018-06-15T08:33:33Z</time>
      </trkpt>
      <trkpt lat="45.93373" lon="4.76776">
        <ele>172</ele>
        <time>2018-06-15T08:33:34Z</time>
      </trkpt>
      <trkpt lat="45.93378" lon="4.7678">
        <ele>172</ele>
        <time>2018-06-15T08:33:35Z</time>
      </trkpt>
      <trkpt lat="45.93382" lon="4.76784">
        <ele>172</ele>
        <time>2018-06-15T08:33:36Z</time>
      </trkpt>
      <trkpt lat="45.93386" lon="4.7679">
        <ele>172</ele>
        <time>2018-06-15T08:33:37Z</time>
      </trkpt>
      <trkpt lat="45.9339" lon="4.76795">
        <ele>172</ele>
        <time>2018-06-15T08:33:38Z</time>
      </trkpt>
      <trkpt lat="45.93395" lon="4.76801">
        <ele>172</ele>
        <time>2018-06-15T08:33:39Z</time>
      </trkpt>
      <trkpt lat="45.93399" lon="4.76808">
        <ele>172</ele>
        <time>2018-06-15T08:33:40Z</time>
      </trkpt>
      <trkpt lat="45.93403" lon="4.76813">
        <ele>172</ele>
        <time>2018-06-15T08:33:41Z</time>
      </trkpt>
      <trkpt lat="45.93407" lon="4.76819">
        <ele>172</ele>
        <time>2018-06-15T08:33:42Z</time>
      </trkpt>
      <trkpt lat="45.93411" lon="4.76825">
        <ele>172</ele>
        <time>2018-06-15T08:33:43Z</time>
      </trkpt>
      <trkpt lat="45.93414" lon="4.76831">
        <ele>172</ele>
        <time>2018-06-15T08:33:44Z</time>
      </trkpt>
      <trkpt lat="45.93417" lon="4.76837">
        <ele>172</ele>
        <time>2018-06-15T08:33:45Z</time>
      </trkpt>
      <trkpt lat="45.9342" lon="4.76843">
        <ele>171</ele>
        <time>2018-06-15T08:33:46Z</time>
      </trkpt>
      <trkpt lat="45.93423" lon="4.76849">
        <ele>171</ele>
        <time>2018-06-15T08:33:47Z</time>
      </trkpt>
      <trkpt lat="45.93425" lon="4.76855">
        <ele>171</ele>
        <time>2018-06-15T08:33:48Z</time>
      </trkpt>
      <trkpt lat="45.93428" lon="4.76861">
        <ele>171</ele>
        <time>2018-06-15T08:33:49Z</time>
      </trkpt>
      <trkpt lat="45.9343" lon="4.76868">
        <ele>171</ele>
        <time>2018-06-15T08:33:50Z</time>
      </trkpt>
      <trkpt lat="45.93433" lon="4.76874">
        <ele>171</ele>
        <time>2018-06-15T08:33:51Z</time>
      </trkpt>
      <trkpt lat="45.93436" lon="4.7688">
        <ele>171</ele>
        <time>2018-06-15T08:33:52Z</time>
      </trkpt>
      <trkpt lat="45.93438" lon="4.76887">
        <ele>170</ele>
        <time>2018-06-15T08:33:53Z</time>
      </trkpt>
      <trkpt lat="45.93441" lon="4.76894">
        <ele>170</ele>
        <time>2018-06-15T08:33:54Z</time>
      </trkpt>
      <trkpt lat="45.93443" lon="4.76902">
        <ele>170</ele>
        <time>2018-06-15T08:33:55Z</time>
      </trkpt>
      <trkpt lat="45.93445" lon="4.76909">
        <ele>170</ele>
        <time>2018-06-15T08:33:56Z</time>
      </trkpt>
      <trkpt lat="45.93447" lon="4.76917">
        <ele>170</ele>
        <time>2018-06-15T08:33:57Z</time>
      </trkpt>
      <trkpt lat="45.93449" lon="4.76925">
        <ele>170</ele>
        <time>2018-06-15T08:33:58Z</time>
      </trkpt>
      <trkpt lat="45.9345" lon="4.76933">
        <ele>170</ele>
        <time>2018-06-15T08:33:59Z</time>
      </trkpt>
      <trkpt lat="45.93452" lon="4.76941">
        <ele>170</ele>
        <time>2018-06-15T08:34:00Z</time>
      </trkpt>
      <trkpt lat="45.93453" lon="4.76949">
        <ele>170</ele>
        <time>2018-06-15T08:34:01Z</time>
      </trkpt>
      <trkpt lat="45.93453" lon="4.76958">
        <ele>170</ele>
        <time>2018-06-15T08:34:02Z</time>
      </trkpt>
      <trkpt lat="45.93454" lon="4.76964">
        <ele>170</ele>
        <time>2018-06-15T08:34:03Z</time>
      </trkpt>
      <trkpt lat="45.93455" lon="4.76972">
        <ele>170</ele>
        <time>2018-06-15T08:34:04Z</time>
      </trkpt>
      <trkpt lat="45.93456" lon="4.76979">
        <ele>170</ele>
        <time>2018-06-15T08:34:05Z</time>
      </trkpt>
      <trkpt lat="45.93457" lon="4.76987">
        <ele>170</ele>
        <time>2018-06-15T08:34:06Z</time>
      </trkpt>
      <trkpt lat="45.93459" lon="4.76995">
        <ele>170</ele>
        <time>2018-06-15T08:34:07Z</time>
      </trkpt>
      <trkpt lat="45.9346" lon="4.77003">
        <ele>170</ele>
        <time>2018-06-15T08:34:08Z</time>
      </trkpt>
      <trkpt lat="45.93461" lon="4.7701">
        <ele>170</ele>
        <time>2018-06-15T08:34:09Z</time>
      </trkpt>
      <trkpt lat="45.93462" lon="4.77018">
        <ele>170</ele>
        <time>2018-06-15T08:34:10Z</time>
      </trkpt>
      <trkpt lat="45.93463" lon="4.77024">
        <ele>170</ele>
        <time>2018-06-15T08:34:11Z</time>
      </trkpt>
      <trkpt lat="45.93464" lon="4.77032">
        <ele>170</ele>
        <time>2018-06-15T08:34:12Z</time>
      </trkpt>
      <trkpt lat="45.93466" lon="4.77041">
        <ele>170</ele>
        <time>2018-06-15T08:34:13Z</time>
      </trkpt>
      <trkpt lat="45.93466" lon="4.7705">
        <ele>170</ele>
        <time>2018-06-15T08:34:14Z</time>
      </trkpt>
      <trkpt lat="45.93468" lon="4.77057">
        <ele>170</ele>
        <time>2018-06-15T08:34:15Z</time>
      </trkpt>
      <trkpt lat="45.93469" lon="4.77064">
        <ele>170</ele>
        <time>2018-06-15T08:34:16Z</time>
      </trkpt>
      <trkpt lat="45.93471" lon="4.77073">
        <ele>170</ele>
        <time>2018-06-15T08:34:17Z</time>
      </trkpt>
      <trkpt lat="45.93474" lon="4.77083">
        <ele>170</ele>
        <time>2018-06-15T08:34:18Z</time>
      </trkpt>
      <trkpt lat="45.93475" lon="4.77091">
        <ele>169</ele>
        <time>2018-06-15T08:34:19Z</time>
      </trkpt>
      <trkpt lat="45.93477" lon="4.771">
        <ele>169</ele>
        <time>2018-06-15T08:34:20Z</time>
      </trkpt>
      <trkpt lat="45.93478" lon="4.77107">
        <ele>169</ele>
        <time>2018-06-15T08:34:21Z</time>
      </trkpt>
      <trkpt lat="45.9348" lon="4.77115">
        <ele>169</ele>
        <time>2018-06-15T08:34:22Z</time>
      </trkpt>
      <trkpt lat="45.9348" lon="4.77123">
        <ele>169</ele>
        <time>2018-06-15T08:34:23Z</time>
      </trkpt>
      <trkpt lat="45.93482" lon="4.7713">
        <ele>169</ele>
        <time>2018-06-15T08:34:24Z</time>
      </trkpt>
      <trkpt lat="45.93485" lon="4.77136">
        <ele>169</ele>
        <time>2018-06-15T08:34:25Z</time>
      </trkpt>
      <trkpt lat="45.93486" lon="4.77142">
        <ele>169</ele>
        <time>2018-06-15T08:34:26Z</time>
      </trkpt>
      <trkpt lat="45.93487" lon="4.77148">
        <ele>169</ele>
        <time>2018-06-15T08:34:27Z</time>
      </trkpt>
      <trkpt lat="45.93489" lon="4.77155">
        <ele>169</ele>
        <time>2018-06-15T08:34:28Z</time>
      </trkpt>
      <trkpt lat="45.9349" lon="4.77163">
        <ele>169</ele>
        <time>2018-06-15T08:34:29Z</time>
      </trkpt>
      <trkpt lat="45.93491" lon="4.77171">
        <ele>169</ele>
        <time>2018-06-15T08:34:30Z</time>
      </trkpt>
      <trkpt lat="45.93495" lon="4.77182">
        <ele>169</ele>
        <time>2018-06-15T08:34:31Z</time>
      </trkpt>
      <trkpt lat="45.93496" lon="4.77188">
        <ele>169</ele>
        <time>2018-06-15T08:34:32Z</time>
      </trkpt>
      <trkpt lat="45.93498" lon="4.77197">
        <ele>169</ele>
        <time>2018-06-15T08:34:33Z</time>
      </trkpt>
      <trkpt lat="45.93499" lon="4.77204">
        <ele>169</ele>
        <time>2018-06-15T08:34:34Z</time>
      </trkpt>
      <trkpt lat="45.93501" lon="4.77212">
        <ele>169</ele>
        <time>2018-06-15T08:34:35Z</time>
      </trkpt>
      <trkpt lat="45.93503" lon="4.7722">
        <ele>169</ele>
        <time>2018-06-15T08:34:36Z</time>
      </trkpt>
      <trkpt lat="45.93504" lon="4.77228">
        <ele>169</ele>
        <time>2018-06-15T08:34:37Z</time>
      </trkpt>
      <trkpt lat="45.93505" lon="4.77237">
        <ele>169</ele>
        <time>2018-06-15T08:34:38Z</time>
      </trkpt>
      <trkpt lat="45.93507" lon="4.77245">
        <ele>170</ele>
        <time>2018-06-15T08:34:39Z</time>
      </trkpt>
      <trkpt lat="45.93509" lon="4.77252">
        <ele>170</ele>
        <time>2018-06-15T08:34:40Z</time>
      </trkpt>
      <trkpt lat="45.93511" lon="4.77259">
        <ele>170</ele>
        <time>2018-06-15T08:34:41Z</time>
      </trkpt>
      <trkpt lat="45.93512" lon="4.77266">
        <ele>170</ele>
        <time>2018-06-15T08:34:42Z</time>
      </trkpt>
      <trkpt lat="45.93514" lon="4.77273">
        <ele>170</ele>
        <time>2018-06-15T08:34:43Z</time>
      </trkpt>
      <trkpt lat="45.93516" lon="4.77281">
        <ele>170</ele>
        <time>2018-06-15T08:34:44Z</time>
      </trkpt>
      <trkpt lat="45.93518" lon="4.77287">
        <ele>170</ele>
        <time>2018-06-15T08:34:45Z</time>
      </trkpt>
      <trkpt lat="45.93519" lon="4.77295">
        <ele>170</ele>
        <time>2018-06-15T08:34:46Z</time>
      </trkpt>
      <trkpt lat="45.93521" lon="4.77303">
        <ele>170</ele>
        <time>2018-06-15T08:34:47Z</time>
      </trkpt>
      <trkpt lat="45.93522" lon="4.7731">
        <ele>170</ele>
        <time>2018-06-15T08:34:48Z</time>
      </trkpt>
      <trkpt lat="45.93524" lon="4.77318">
        <ele>170</ele>
        <time>2018-06-15T08:34:49Z</time>
      </trkpt>
      <trkpt lat="45.93526" lon="4.77327">
        <ele>170</ele>
        <time>2018-06-15T08:34:50Z</time>
      </trkpt>
      <trkpt lat="45.93528" lon="4.77335">
        <ele>170</ele>
        <time>2018-06-15T08:34:51Z</time>
      </trkpt>
      <trkpt lat="45.9353" lon="4.77343">
        <ele>170</ele>
        <time>2018-06-15T08:34:52Z</time>
      </trkpt>
      <trkpt lat="45.93531" lon="4.7735">
        <ele>170</ele>
        <time>2018-06-15T08:34:53Z</time>
      </trkpt>
      <trkpt lat="45.93533" lon="4.77359">
        <ele>170</ele>
        <time>2018-06-15T08:34:54Z</time>
      </trkpt>
      <trkpt lat="45.93534" lon="4.77366">
        <ele>170</ele>
        <time>2018-06-15T08:34:55Z</time>
      </trkpt>
      <trkpt lat="45.93534" lon="4.77373">
        <ele>170</ele>
        <time>2018-06-15T08:34:56Z</time>
      </trkpt>
      <trkpt lat="45.93536" lon="4.77381">
        <ele>170</ele>
        <time>2018-06-15T08:34:57Z</time>
      </trkpt>
      <trkpt lat="45.93537" lon="4.77388">
        <ele>170</ele>
        <time>2018-06-15T08:34:58Z</time>
      </trkpt>
      <trkpt lat="45.9354" lon="4.77396">
        <ele>170</ele>
        <time>2018-06-15T08:34:59Z</time>
      </trkpt>
      <trkpt lat="45.93543" lon="4.77405">
        <ele>170</ele>
        <time>2018-06-15T08:35:00Z</time>
      </trkpt>
      <trkpt lat="45.93545" lon="4.77414">
        <ele>170</ele>
        <time>2018-06-15T08:35:01Z</time>
      </trkpt>
      <trkpt lat="45.93547" lon="4.77422">
        <ele>170</ele>
        <time>2018-06-15T08:35:02Z</time>
      </trkpt>
      <trkpt lat="45.93549" lon="4.77431">
        <ele>169</ele>
        <time>2018-06-15T08:35:03Z</time>
      </trkpt>
      <trkpt lat="45.93551" lon="4.77438">
        <ele>169</ele>
        <time>2018-06-15T08:35:04Z</time>
      </trkpt>
      <trkpt lat="45.93553" lon="4.77447">
        <ele>169</ele>
        <time>2018-06-15T08:35:05Z</time>
      </trkpt>
      <trkpt lat="45.93556" lon="4.77455">
        <ele>169</ele>
        <time>2018-06-15T08:35:06Z</time>
      </trkpt>
      <trkpt lat="45.93558" lon="4.77462">
        <ele>169</ele>
        <time>2018-06-15T08:35:07Z</time>
      </trkpt>
      <trkpt lat="45.93559" lon="4.7747">
        <ele>169</ele>
        <time>2018-06-15T08:35:08Z</time>
      </trkpt>
      <trkpt lat="45.9356" lon="4.77477">
        <ele>169</ele>
        <time>2018-06-15T08:35:09Z</time>
      </trkpt>
      <trkpt lat="45.93562" lon="4.77486">
        <ele>169</ele>
        <time>2018-06-15T08:35:10Z</time>
      </trkpt>
      <trkpt lat="45.93563" lon="4.77493">
        <ele>169</ele>
        <time>2018-06-15T08:35:11Z</time>
      </trkpt>
      <trkpt lat="45.93565" lon="4.77501">
        <ele>169</ele>
        <time>2018-06-15T08:35:12Z</time>
      </trkpt>
      <trkpt lat="45.93568" lon="4.77508">
        <ele>169</ele>
        <time>2018-06-15T08:35:13Z</time>
      </trkpt>
      <trkpt lat="45.9357" lon="4.77515">
        <ele>169</ele>
        <time>2018-06-15T08:35:14Z</time>
      </trkpt>
      <trkpt lat="45.93573" lon="4.77521">
        <ele>169</ele>
        <time>2018-06-15T08:35:15Z</time>
      </trkpt>
      <trkpt lat="45.93574" lon="4.77528">
        <ele>169</ele>
        <time>2018-06-15T08:35:16Z</time>
      </trkpt>
      <trkpt lat="45.93576" lon="4.77535">
        <ele>169</ele>
        <time>2018-06-15T08:35:17Z</time>
      </trkpt>
      <trkpt lat="45.93577" lon="4.77542">
        <ele>169</ele>
        <time>2018-06-15T08:35:18Z</time>
      </trkpt>
      <trkpt lat="45.93579" lon="4.77548">
        <ele>169</ele>
        <time>2018-06-15T08:35:19Z</time>
      </trkpt>
      <trkpt lat="45.93581" lon="4.77555">
        <ele>169</ele>
        <time>2018-06-15T08:35:20Z</time>
      </trkpt>
      <trkpt lat="45.93583" lon="4.77563">
        <ele>169</ele>
        <time>2018-06-15T08:35:21Z</time>
      </trkpt>
      <trkpt lat="45.93585" lon="4.77571">
        <ele>170</ele>
        <time>2018-06-15T08:35:22Z</time>
      </trkpt>
      <trkpt lat="45.93588" lon="4.77579">
        <ele>170</ele>
        <time>2018-06-15T08:35:23Z</time>
      </trkpt>
      <trkpt lat="45.9359" lon="4.77585">
        <ele>170</ele>
        <time>2018-06-15T08:35:24Z</time>
      </trkpt>
      <trkpt lat="45.93592" lon="4.77593">
        <ele>170</ele>
        <time>2018-06-15T08:35:25Z</time>
      </trkpt>
      <trkpt lat="45.93595" lon="4.776">
        <ele>170</ele>
        <time>2018-06-15T08:35:26Z</time>
      </trkpt>
      <trkpt lat="45.93598" lon="4.77607">
        <ele>170</ele>
        <time>2018-06-15T08:35:27Z</time>
      </trkpt>
      <trkpt lat="45.93601" lon="4.77614">
        <ele>170</ele>
        <time>2018-06-15T08:35:28Z</time>
      </trkpt>
      <trkpt lat="45.93603" lon="4.77622">
        <ele>170</ele>
        <time>2018-06-15T08:35:29Z</time>
      </trkpt>
      <trkpt lat="45.93606" lon="4.77631">
        <ele>169</ele>
        <time>2018-06-15T08:35:30Z</time>
      </trkpt>
      <trkpt lat="45.93608" lon="4.77639">
        <ele>169</ele>
        <time>2018-06-15T08:35:31Z</time>
      </trkpt>
      <trkpt lat="45.93611" lon="4.77647">
        <ele>169</ele>
        <time>2018-06-15T08:35:32Z</time>
      </trkpt>
      <trkpt lat="45.93614" lon="4.77655">
        <ele>169</ele>
        <time>2018-06-15T08:35:33Z</time>
      </trkpt>
      <trkpt lat="45.93617" lon="4.77662">
        <ele>169</ele>
        <time>2018-06-15T08:35:34Z</time>
      </trkpt>
      <trkpt lat="45.9362" lon="4.77669">
        <ele>169</ele>
        <time>2018-06-15T08:35:35Z</time>
      </trkpt>
      <trkpt lat="45.93622" lon="4.77674">
        <ele>169</ele>
        <time>2018-06-15T08:35:36Z</time>
      </trkpt>
      <trkpt lat="45.93625" lon="4.7768">
        <ele>169</ele>
        <time>2018-06-15T08:35:37Z</time>
      </trkpt>
      <trkpt lat="45.93628" lon="4.77685">
        <ele>169</ele>
        <time>2018-06-15T08:35:38Z</time>
      </trkpt>
      <trkpt lat="45.9363" lon="4.77692">
        <ele>169</ele>
        <time>2018-06-15T08:35:39Z</time>
      </trkpt>
      <trkpt lat="45.93633" lon="4.77698">
        <ele>169</ele>
        <time>2018-06-15T08:35:40Z</time>
      </trkpt>
      <trkpt lat="45.93637" lon="4.77704">
        <ele>170</ele>
        <time>2018-06-15T08:35:41Z</time>
      </trkpt>
      <trkpt lat="45.93639" lon="4.77709">
        <ele>170</ele>
        <time>2018-06-15T08:35:42Z</time>
      </trkpt>
      <trkpt lat="45.93642" lon="4.77715">
        <ele>170</ele>
        <time>2018-06-15T08:35:43Z</time>
      </trkpt>
      <trkpt lat="45.93645" lon="4.7772">
        <ele>170</ele>
        <time>2018-06-15T08:35:44Z</time>
      </trkpt>
      <trkpt lat="45.9365" lon="4.77729">
        <ele>170</ele>
        <time>2018-06-15T08:35:46Z</time>
      </trkpt>
      <trkpt lat="45.93651" lon="4.77732">
        <ele>170</ele>
        <time>2018-06-15T08:35:47Z</time>
      </trkpt>
      <trkpt lat="45.93653" lon="4.77734">
        <ele>170</ele>
        <time>2018-06-15T08:35:48Z</time>
      </trkpt>
      <trkpt lat="45.93658" lon="4.77741">
        <ele>170</ele>
        <time>2018-06-15T08:35:49Z</time>
      </trkpt>
      <trkpt lat="45.93663" lon="4.77749">
        <ele>171</ele>
        <time>2018-06-15T08:35:51Z</time>
      </trkpt>
      <trkpt lat="45.93664" lon="4.77751">
        <ele>171</ele>
        <time>2018-06-15T08:35:52Z</time>
      </trkpt>
      <trkpt lat="45.9367" lon="4.7776">
        <ele>170</ele>
        <time>2018-06-15T08:35:54Z</time>
      </trkpt>
      <trkpt lat="45.93671" lon="4.77762">
        <ele>170</ele>
        <time>2018-06-15T08:35:55Z</time>
      </trkpt>
      <trkpt lat="45.93675" lon="4.77769">
        <ele>170</ele>
        <time>2018-06-15T08:35:58Z</time>
      </trkpt>
      <trkpt lat="45.93677" lon="4.77772">
        <ele>170</ele>
        <time>2018-06-15T08:35:59Z</time>
      </trkpt>
      <trkpt lat="45.93682" lon="4.77778">
        <ele>170</ele>
        <time>2018-06-15T08:36:01Z</time>
      </trkpt>
      <trkpt lat="45.93688" lon="4.77786">
        <ele>170</ele>
        <time>2018-06-15T08:36:02Z</time>
      </trkpt>
      <trkpt lat="45.93694" lon="4.77794">
        <ele>169</ele>
        <time>2018-06-15T08:36:04Z</time>
      </trkpt>
      <trkpt lat="45.93697" lon="4.77798">
        <ele>169</ele>
        <time>2018-06-15T08:36:05Z</time>
      </trkpt>
      <trkpt lat="45.93702" lon="4.77805">
        <ele>169</ele>
        <time>2018-06-15T08:36:07Z</time>
      </trkpt>
      <trkpt lat="45.93705" lon="4.77809">
        <ele>169</ele>
        <time>2018-06-15T08:36:08Z</time>
      </trkpt>
      <trkpt lat="45.93712" lon="4.77817">
        <ele>169</ele>
        <time>2018-06-15T08:36:10Z</time>
      </trkpt>
      <trkpt lat="45.93715" lon="4.77821">
        <ele>169</ele>
        <time>2018-06-15T08:36:11Z</time>
      </trkpt>
      <trkpt lat="45.93721" lon="4.77829">
        <ele>168</ele>
        <time>2018-06-15T08:36:13Z</time>
      </trkpt>
      <trkpt lat="45.93724" lon="4.77832">
        <ele>168</ele>
        <time>2018-06-15T08:36:14Z</time>
      </trkpt>
      <trkpt lat="45.9373" lon="4.7784">
        <ele>167</ele>
        <time>2018-06-15T08:36:16Z</time>
      </trkpt>
      <trkpt lat="45.93733" lon="4.77844">
        <ele>167</ele>
        <time>2018-06-15T08:36:17Z</time>
      </trkpt>
      <trkpt lat="45.93739" lon="4.77851">
        <ele>167</ele>
        <time>2018-06-15T08:36:19Z</time>
      </trkpt>
      <trkpt lat="45.93742" lon="4.77855">
        <ele>167</ele>
        <time>2018-06-15T08:36:20Z</time>
      </trkpt>
      <trkpt lat="45.93747" lon="4.77862">
        <ele>167</ele>
        <time>2018-06-15T08:36:22Z</time>
      </trkpt>
      <trkpt lat="45.93751" lon="4.77866">
        <ele>166</ele>
        <time>2018-06-15T08:36:23Z</time>
      </trkpt>
      <trkpt lat="45.93757" lon="4.77874">
        <ele>166</ele>
        <time>2018-06-15T08:36:25Z</time>
      </trkpt>
      <trkpt lat="45.93761" lon="4.77878">
        <ele>166</ele>
        <time>2018-06-15T08:36:26Z</time>
      </trkpt>
      <trkpt lat="45.93767" lon="4.77887">
        <ele>166</ele>
        <time>2018-06-15T08:36:28Z</time>
      </trkpt>
      <trkpt lat="45.93768" lon="4.77888">
        <ele>166</ele>
        <time>2018-06-15T08:36:29Z</time>
      </trkpt>
      <trkpt lat="45.93772" lon="4.77894">
        <ele>166</ele>
        <time>2018-06-15T08:36:30Z</time>
      </trkpt>
      <trkpt lat="45.93775" lon="4.77898">
        <ele>166</ele>
        <time>2018-06-15T08:36:31Z</time>
      </trkpt>
      <trkpt lat="45.9378" lon="4.77906">
        <ele>166</ele>
        <time>2018-06-15T08:36:33Z</time>
      </trkpt>
      <trkpt lat="45.93783" lon="4.7791">
        <ele>166</ele>
        <time>2018-06-15T08:36:34Z</time>
      </trkpt>
      <trkpt lat="45.93788" lon="4.77918">
        <ele>168</ele>
        <time>2018-06-15T08:36:36Z</time>
      </trkpt>
      <trkpt lat="45.93792" lon="4.77922">
        <ele>168</ele>
        <time>2018-06-15T08:36:37Z</time>
      </trkpt>
      <trkpt lat="45.93798" lon="4.7793">
        <ele>168</ele>
        <time>2018-06-15T08:36:39Z</time>
      </trkpt>
      <trkpt lat="45.93801" lon="4.77934">
        <ele>168</ele>
        <time>2018-06-15T08:36:40Z</time>
      </trkpt>
      <trkpt lat="45.93805" lon="4.77939">
        <ele>169</ele>
        <time>2018-06-15T08:36:41Z</time>
      </trkpt>
      <trkpt lat="45.93809" lon="4.77943">
        <ele>169</ele>
        <time>2018-06-15T08:36:42Z</time>
      </trkpt>
      <trkpt lat="45.93812" lon="4.77947">
        <ele>169</ele>
        <time>2018-06-15T08:36:43Z</time>
      </trkpt>
      <trkpt lat="45.93816" lon="4.77954">
        <ele>170</ele>
        <time>2018-06-15T08:36:44Z</time>
      </trkpt>
      <trkpt lat="45.93821" lon="4.77959">
        <ele>170</ele>
        <time>2018-06-15T08:36:45Z</time>
      </trkpt>
      <trkpt lat="45.93825" lon="4.77964">
        <ele>171</ele>
        <time>2018-06-15T08:36:46Z</time>
      </trkpt>
      <trkpt lat="45.93828" lon="4.77969">
        <ele>172</ele>
        <time>2018-06-15T08:36:47Z</time>
      </trkpt>
      <trkpt lat="45.93832" lon="4.77975">
        <ele>173</ele>
        <time>2018-06-15T08:36:48Z</time>
      </trkpt>
      <trkpt lat="45.93835" lon="4.77981">
        <ele>178</ele>
        <time>2018-06-15T08:36:49Z</time>
      </trkpt>
      <trkpt lat="45.93839" lon="4.77987">
        <ele>179</ele>
        <time>2018-06-15T08:36:50Z</time>
      </trkpt>
      <trkpt lat="45.93842" lon="4.77994">
        <ele>179</ele>
        <time>2018-06-15T08:36:51Z</time>
      </trkpt>
      <trkpt lat="45.93845" lon="4.78">
        <ele>181</ele>
        <time>2018-06-15T08:36:52Z</time>
      </trkpt>
      <trkpt lat="45.93846" lon="4.78009">
        <ele>181</ele>
        <time>2018-06-15T08:36:53Z</time>
      </trkpt>
      <trkpt lat="45.93847" lon="4.78017">
        <ele>182</ele>
        <time>2018-06-15T08:36:54Z</time>
      </trkpt>
      <trkpt lat="45.93848" lon="4.78025">
        <ele>182</ele>
        <time>2018-06-15T08:36:55Z</time>
      </trkpt>
      <trkpt lat="45.93849" lon="4.78033">
        <ele>182</ele>
        <time>2018-06-15T08:36:56Z</time>
      </trkpt>
      <trkpt lat="45.93851" lon="4.7804">
        <ele>183</ele>
        <time>2018-06-15T08:36:57Z</time>
      </trkpt>
      <trkpt lat="45.93852" lon="4.78047">
        <ele>183</ele>
        <time>2018-06-15T08:36:58Z</time>
      </trkpt>
      <trkpt lat="45.93852" lon="4.78059">
        <ele>183</ele>
        <time>2018-06-15T08:37:00Z</time>
      </trkpt>
      <trkpt lat="45.93851" lon="4.78064">
        <ele>182</ele>
        <time>2018-06-15T08:37:01Z</time>
      </trkpt>
      <trkpt lat="45.9385" lon="4.78071">
        <ele>182</ele>
        <time>2018-06-15T08:37:02Z</time>
      </trkpt>
      <trkpt lat="45.93848" lon="4.78078">
        <ele>182</ele>
        <time>2018-06-15T08:37:03Z</time>
      </trkpt>
      <trkpt lat="45.93847" lon="4.7809">
        <ele>183</ele>
        <time>2018-06-15T08:37:05Z</time>
      </trkpt>
      <trkpt lat="45.93845" lon="4.78097">
        <ele>183</ele>
        <time>2018-06-15T08:37:06Z</time>
      </trkpt>
      <trkpt lat="45.93843" lon="4.78103">
        <ele>184</ele>
        <time>2018-06-15T08:37:07Z</time>
      </trkpt>
      <trkpt lat="45.93841" lon="4.7811">
        <ele>184</ele>
        <time>2018-06-15T08:37:08Z</time>
      </trkpt>
      <trkpt lat="45.93839" lon="4.78118">
        <ele>184</ele>
        <time>2018-06-15T08:37:09Z</time>
      </trkpt>
      <trkpt lat="45.93837" lon="4.78125">
        <ele>184</ele>
        <time>2018-06-15T08:37:10Z</time>
      </trkpt>
      <trkpt lat="45.93835" lon="4.78132">
        <ele>184</ele>
        <time>2018-06-15T08:37:11Z</time>
      </trkpt>
      <trkpt lat="45.93832" lon="4.78138">
        <ele>180</ele>
        <time>2018-06-15T08:37:12Z</time>
      </trkpt>
      <trkpt lat="45.93832" lon="4.78146">
        <ele>180</ele>
        <time>2018-06-15T08:37:13Z</time>
      </trkpt>
      <trkpt lat="45.93831" lon="4.78152">
        <ele>181</ele>
        <time>2018-06-15T08:37:14Z</time>
      </trkpt>
      <trkpt lat="45.93828" lon="4.78159">
        <ele>181</ele>
        <time>2018-06-15T08:37:15Z</time>
      </trkpt>
      <trkpt lat="45.93827" lon="4.78166">
        <ele>181</ele>
        <time>2018-06-15T08:37:16Z</time>
      </trkpt>
      <trkpt lat="45.93825" lon="4.78171">
        <ele>182</ele>
        <time>2018-06-15T08:37:17Z</time>
      </trkpt>
      <trkpt lat="45.93823" lon="4.78179">
        <ele>182</ele>
        <time>2018-06-15T08:37:18Z</time>
      </trkpt>
      <trkpt lat="45.93821" lon="4.78185">
        <ele>182</ele>
        <time>2018-06-15T08:37:19Z</time>
      </trkpt>
      <trkpt lat="45.93819" lon="4.78191">
        <ele>182</ele>
        <time>2018-06-15T08:37:20Z</time>
      </trkpt>
      <trkpt lat="45.93818" lon="4.78197">
        <ele>182</ele>
        <time>2018-06-15T08:37:21Z</time>
      </trkpt>
      <trkpt lat="45.93816" lon="4.78204">
        <ele>182</ele>
        <time>2018-06-15T08:37:22Z</time>
      </trkpt>
      <trkpt lat="45.93813" lon="4.7821">
        <ele>182</ele>
        <time>2018-06-15T08:37:23Z</time>
      </trkpt>
      <trkpt lat="45.93812" lon="4.78217">
        <ele>182</ele>
        <time>2018-06-15T08:37:24Z</time>
      </trkpt>
      <trkpt lat="45.93807" lon="4.78227">
        <ele>182</ele>
        <time>2018-06-15T08:37:26Z</time>
      </trkpt>
      <trkpt lat="45.93804" lon="4.78233">
        <ele>182</ele>
        <time>2018-06-15T08:37:27Z</time>
      </trkpt>
      <trkpt lat="45.93799" lon="4.78238">
        <ele>182</ele>
        <time>2018-06-15T08:37:28Z</time>
      </trkpt>
      <trkpt lat="45.93796" lon="4.78245">
        <ele>182</ele>
        <time>2018-06-15T08:37:29Z</time>
      </trkpt>
      <trkpt lat="45.93794" lon="4.78252">
        <ele>183</ele>
        <time>2018-06-15T08:37:30Z</time>
      </trkpt>
      <trkpt lat="45.93792" lon="4.78261">
        <ele>183</ele>
        <time>2018-06-15T08:37:31Z</time>
      </trkpt>
      <trkpt lat="45.93791" lon="4.78269">
        <ele>183</ele>
        <time>2018-06-15T08:37:32Z</time>
      </trkpt>
      <trkpt lat="45.9379" lon="4.78276">
        <ele>183</ele>
        <time>2018-06-15T08:37:33Z</time>
      </trkpt>
      <trkpt lat="45.93788" lon="4.78282">
        <ele>183</ele>
        <time>2018-06-15T08:37:34Z</time>
      </trkpt>
      <trkpt lat="45.93786" lon="4.78292">
        <ele>183</ele>
        <time>2018-06-15T08:37:35Z</time>
      </trkpt>
      <trkpt lat="45.93784" lon="4.78299">
        <ele>183</ele>
        <time>2018-06-15T08:37:36Z</time>
      </trkpt>
      <trkpt lat="45.93782" lon="4.78306">
        <ele>183</ele>
        <time>2018-06-15T08:37:37Z</time>
      </trkpt>
      <trkpt lat="45.9378" lon="4.78313">
        <ele>183</ele>
        <time>2018-06-15T08:37:38Z</time>
      </trkpt>
      <trkpt lat="45.93778" lon="4.78322">
        <ele>183</ele>
        <time>2018-06-15T08:37:39Z</time>
      </trkpt>
      <trkpt lat="45.93776" lon="4.78329">
        <ele>183</ele>
        <time>2018-06-15T08:37:40Z</time>
      </trkpt>
      <trkpt lat="45.93774" lon="4.78336">
        <ele>183</ele>
        <time>2018-06-15T08:37:41Z</time>
      </trkpt>
      <trkpt lat="45.93774" lon="4.78343">
        <ele>183</ele>
        <time>2018-06-15T08:37:42Z</time>
      </trkpt>
      <trkpt lat="45.93772" lon="4.78349">
        <ele>183</ele>
        <time>2018-06-15T08:37:43Z</time>
      </trkpt>
      <trkpt lat="45.93771" lon="4.78357">
        <ele>183</ele>
        <time>2018-06-15T08:37:44Z</time>
      </trkpt>
      <trkpt lat="45.93768" lon="4.78364">
        <ele>183</ele>
        <time>2018-06-15T08:37:45Z</time>
      </trkpt>
      <trkpt lat="45.93767" lon="4.78371">
        <ele>183</ele>
        <time>2018-06-15T08:37:46Z</time>
      </trkpt>
      <trkpt lat="45.93765" lon="4.78377">
        <ele>183</ele>
        <time>2018-06-15T08:37:47Z</time>
      </trkpt>
      <trkpt lat="45.93763" lon="4.78384">
        <ele>183</ele>
        <time>2018-06-15T08:37:48Z</time>
      </trkpt>
      <trkpt lat="45.93761" lon="4.78392">
        <ele>183</ele>
        <time>2018-06-15T08:37:49Z</time>
      </trkpt>
      <trkpt lat="45.93759" lon="4.78399">
        <ele>183</ele>
        <time>2018-06-15T08:37:50Z</time>
      </trkpt>
      <trkpt lat="45.93757" lon="4.78407">
        <ele>182</ele>
        <time>2018-06-15T08:37:51Z</time>
      </trkpt>
      <trkpt lat="45.93755" lon="4.78415">
        <ele>182</ele>
        <time>2018-06-15T08:37:52Z</time>
      </trkpt>
      <trkpt lat="45.93753" lon="4.78423">
        <ele>182</ele>
        <time>2018-06-15T08:37:53Z</time>
      </trkpt>
      <trkpt lat="45.93751" lon="4.78431">
        <ele>183</ele>
        <time>2018-06-15T08:37:54Z</time>
      </trkpt>
      <trkpt lat="45.9375" lon="4.7844">
        <ele>181</ele>
        <time>2018-06-15T08:37:55Z</time>
      </trkpt>
      <trkpt lat="45.93748" lon="4.78449">
        <ele>180</ele>
        <time>2018-06-15T08:37:56Z</time>
      </trkpt>
      <trkpt lat="45.93745" lon="4.78457">
        <ele>180</ele>
        <time>2018-06-15T08:37:57Z</time>
      </trkpt>
      <trkpt lat="45.93743" lon="4.78467">
        <ele>180</ele>
        <time>2018-06-15T08:37:58Z</time>
      </trkpt>
      <trkpt lat="45.9374" lon="4.78474">
        <ele>180</ele>
        <time>2018-06-15T08:37:59Z</time>
      </trkpt>
      <trkpt lat="45.93738" lon="4.78483">
        <ele>180</ele>
        <time>2018-06-15T08:38:00Z</time>
      </trkpt>
      <trkpt lat="45.93734" lon="4.78491">
        <ele>180</ele>
        <time>2018-06-15T08:38:01Z</time>
      </trkpt>
      <trkpt lat="45.93732" lon="4.78499">
        <ele>180</ele>
        <time>2018-06-15T08:38:02Z</time>
      </trkpt>
      <trkpt lat="45.9373" lon="4.78508">
        <ele>179</ele>
        <time>2018-06-15T08:38:03Z</time>
      </trkpt>
      <trkpt lat="45.93728" lon="4.78516">
        <ele>179</ele>
        <time>2018-06-15T08:38:04Z</time>
      </trkpt>
      <trkpt lat="45.93726" lon="4.78525">
        <ele>179</ele>
        <time>2018-06-15T08:38:05Z</time>
      </trkpt>
      <trkpt lat="45.93725" lon="4.78535">
        <ele>178</ele>
        <time>2018-06-15T08:38:06Z</time>
      </trkpt>
      <trkpt lat="45.93722" lon="4.78545">
        <ele>178</ele>
        <time>2018-06-15T08:38:07Z</time>
      </trkpt>
      <trkpt lat="45.9372" lon="4.78554">
        <ele>178</ele>
        <time>2018-06-15T08:38:08Z</time>
      </trkpt>
      <trkpt lat="45.93719" lon="4.78563">
        <ele>178</ele>
        <time>2018-06-15T08:38:09Z</time>
      </trkpt>
      <trkpt lat="45.93716" lon="4.78571">
        <ele>178</ele>
        <time>2018-06-15T08:38:10Z</time>
      </trkpt>
      <trkpt lat="45.93715" lon="4.78581">
        <ele>178</ele>
        <time>2018-06-15T08:38:11Z</time>
      </trkpt>
      <trkpt lat="45.93713" lon="4.78589">
        <ele>177</ele>
        <time>2018-06-15T08:38:12Z</time>
      </trkpt>
      <trkpt lat="45.93712" lon="4.78596">
        <ele>176</ele>
        <time>2018-06-15T08:38:13Z</time>
      </trkpt>
      <trkpt lat="45.9371" lon="4.78603">
        <ele>176</ele>
        <time>2018-06-15T08:38:14Z</time>
      </trkpt>
      <trkpt lat="45.93707" lon="4.78608">
        <ele>176</ele>
        <time>2018-06-15T08:38:15Z</time>
      </trkpt>
      <trkpt lat="45.93705" lon="4.78615">
        <ele>176</ele>
        <time>2018-06-15T08:38:16Z</time>
      </trkpt>
      <trkpt lat="45.93703" lon="4.78622">
        <ele>176</ele>
        <time>2018-06-15T08:38:17Z</time>
      </trkpt>
      <trkpt lat="45.93704" lon="4.78629">
        <ele>176</ele>
        <time>2018-06-15T08:38:18Z</time>
      </trkpt>
      <trkpt lat="45.93706" lon="4.78634">
        <ele>176</ele>
        <time>2018-06-15T08:38:19Z</time>
      </trkpt>
      <trkpt lat="45.93713" lon="4.78638">
        <ele>176</ele>
        <time>2018-06-15T08:38:21Z</time>
      </trkpt>
      <trkpt lat="45.93716" lon="4.78636">
        <ele>176</ele>
        <time>2018-06-15T08:38:22Z</time>
      </trkpt>
      <trkpt lat="45.93723" lon="4.78633">
        <ele>177</ele>
        <time>2018-06-15T08:38:25Z</time>
      </trkpt>
      <trkpt lat="45.93726" lon="4.78632">
        <ele>177</ele>
        <time>2018-06-15T08:38:26Z</time>
      </trkpt>
      <trkpt lat="45.93734" lon="4.7863">
        <ele>177</ele>
        <time>2018-06-15T08:38:29Z</time>
      </trkpt>
      <trkpt lat="45.93737" lon="4.7863">
        <ele>177</ele>
        <time>2018-06-15T08:38:30Z</time>
      </trkpt>
      <trkpt lat="45.93745" lon="4.78629">
        <ele>177</ele>
        <time>2018-06-15T08:38:32Z</time>
      </trkpt>
      <trkpt lat="45.93748" lon="4.78628">
        <ele>177</ele>
        <time>2018-06-15T08:38:33Z</time>
      </trkpt>
      <trkpt lat="45.93754" lon="4.78627">
        <ele>181</ele>
        <time>2018-06-15T08:38:35Z</time>
      </trkpt>
      <trkpt lat="45.93758" lon="4.78626">
        <ele>181</ele>
        <time>2018-06-15T08:38:36Z</time>
      </trkpt>
      <trkpt lat="45.93764" lon="4.78625">
        <ele>181</ele>
        <time>2018-06-15T08:38:38Z</time>
      </trkpt>
      <trkpt lat="45.93767" lon="4.78624">
        <ele>181</ele>
        <time>2018-06-15T08:38:39Z</time>
      </trkpt>
      <trkpt lat="45.93774" lon="4.78623">
        <ele>181</ele>
        <time>2018-06-15T08:38:41Z</time>
      </trkpt>
      <trkpt lat="45.93777" lon="4.78622">
        <ele>181</ele>
        <time>2018-06-15T08:38:42Z</time>
      </trkpt>
      <trkpt lat="45.93783" lon="4.78621">
        <ele>181</ele>
        <time>2018-06-15T08:38:44Z</time>
      </trkpt>
      <trkpt lat="45.93786" lon="4.7862">
        <ele>182</ele>
        <time>2018-06-15T08:38:45Z</time>
      </trkpt>
      <trkpt lat="45.93792" lon="4.78618">
        <ele>182</ele>
        <time>2018-06-15T08:38:47Z</time>
      </trkpt>
      <trkpt lat="45.93796" lon="4.78617">
        <ele>182</ele>
        <time>2018-06-15T08:38:48Z</time>
      </trkpt>
      <trkpt lat="45.93799" lon="4.78616">
        <ele>182</ele>
        <time>2018-06-15T08:38:49Z</time>
      </trkpt>
      <trkpt lat="45.93808" lon="4.78613">
        <ele>183</ele>
        <time>2018-06-15T08:38:50Z</time>
      </trkpt>
      <trkpt lat="45.93816" lon="4.78611">
        <ele>183</ele>
        <time>2018-06-15T08:38:53Z</time>
      </trkpt>
      <trkpt lat="45.93818" lon="4.78611">
        <ele>183</ele>
        <time>2018-06-15T08:38:54Z</time>
      </trkpt>
      <trkpt lat="45.93827" lon="4.78608">
        <ele>184</ele>
        <time>2018-06-15T08:38:57Z</time>
      </trkpt>
      <trkpt lat="45.93829" lon="4.78607">
        <ele>184</ele>
        <time>2018-06-15T08:38:58Z</time>
      </trkpt>
      <trkpt lat="45.93837" lon="4.78604">
        <ele>187</ele>
        <time>2018-06-15T08:39:01Z</time>
      </trkpt>
      <trkpt lat="45.93839" lon="4.78603">
        <ele>187</ele>
        <time>2018-06-15T08:39:02Z</time>
      </trkpt>
      <trkpt lat="45.93846" lon="4.78601">
        <ele>188</ele>
        <time>2018-06-15T08:39:05Z</time>
      </trkpt>
      <trkpt lat="45.93849" lon="4.786">
        <ele>188</ele>
        <time>2018-06-15T08:39:06Z</time>
      </trkpt>
      <trkpt lat="45.93856" lon="4.78597">
        <ele>188</ele>
        <time>2018-06-15T08:39:09Z</time>
      </trkpt>
      <trkpt lat="45.93858" lon="4.78597">
        <ele>188</ele>
        <time>2018-06-15T08:39:10Z</time>
      </trkpt>
      <trkpt lat="45.93866" lon="4.78595">
        <ele>188</ele>
        <time>2018-06-15T08:39:13Z</time>
      </trkpt>
      <trkpt lat="45.93868" lon="4.78595">
        <ele>188</ele>
        <time>2018-06-15T08:39:14Z</time>
      </trkpt>
      <trkpt lat="45.93875" lon="4.78594">
        <ele>189</ele>
        <time>2018-06-15T08:39:17Z</time>
      </trkpt>
      <trkpt lat="45.93878" lon="4.78594">
        <ele>189</ele>
        <time>2018-06-15T08:39:18Z</time>
      </trkpt>
      <trkpt lat="45.93885" lon="4.78592">
        <ele>189</ele>
        <time>2018-06-15T08:39:21Z</time>
      </trkpt>
      <trkpt lat="45.93888" lon="4.78591">
        <ele>190</ele>
        <time>2018-06-15T08:39:22Z</time>
      </trkpt>
      <trkpt lat="45.93894" lon="4.7859">
        <ele>190</ele>
        <time>2018-06-15T08:39:25Z</time>
      </trkpt>
      <trkpt lat="45.93897" lon="4.7859">
        <ele>190</ele>
        <time>2018-06-15T08:39:26Z</time>
      </trkpt>
      <trkpt lat="45.93905" lon="4.78588">
        <ele>191</ele>
        <time>2018-06-15T08:39:30Z</time>
      </trkpt>
      <trkpt lat="45.93907" lon="4.78587">
        <ele>191</ele>
        <time>2018-06-15T08:39:31Z</time>
      </trkpt>
      <trkpt lat="45.93914" lon="4.78586">
        <ele>192</ele>
        <time>2018-06-15T08:39:34Z</time>
      </trkpt>
      <trkpt lat="45.93916" lon="4.78586">
        <ele>193</ele>
        <time>2018-06-15T08:39:35Z</time>
      </trkpt>
      <trkpt lat="45.93923" lon="4.78581">
        <ele>194</ele>
        <time>2018-06-15T08:39:38Z</time>
      </trkpt>
      <trkpt lat="45.93925" lon="4.78579">
        <ele>195</ele>
        <time>2018-06-15T08:39:39Z</time>
      </trkpt>
      <trkpt lat="45.93931" lon="4.78573">
        <ele>196</ele>
        <time>2018-06-15T08:39:43Z</time>
      </trkpt>
      <trkpt lat="45.93933" lon="4.78573">
        <ele>196</ele>
        <time>2018-06-15T08:39:44Z</time>
      </trkpt>
      <trkpt lat="45.93938" lon="4.78581">
        <ele>196</ele>
        <time>2018-06-15T08:39:48Z</time>
      </trkpt>
      <trkpt lat="45.93938" lon="4.78585">
        <ele>195</ele>
        <time>2018-06-15T08:39:49Z</time>
      </trkpt>
      <trkpt lat="45.93938" lon="4.78595">
        <ele>195</ele>
        <time>2018-06-15T08:39:51Z</time>
      </trkpt>
      <trkpt lat="45.93937" lon="4.78599">
        <ele>196</ele>
        <time>2018-06-15T08:39:52Z</time>
      </trkpt>
      <trkpt lat="45.93936" lon="4.78611">
        <ele>196</ele>
        <time>2018-06-15T08:39:53Z</time>
      </trkpt>
      <trkpt lat="45.93936" lon="4.78614">
        <ele>196</ele>
        <time>2018-06-15T08:39:54Z</time>
      </trkpt>
      <trkpt lat="45.93936" lon="4.78626">
        <ele>195</ele>
        <time>2018-06-15T08:39:57Z</time>
      </trkpt>
      <trkpt lat="45.93935" lon="4.78637">
        <ele>195</ele>
        <time>2018-06-15T08:39:58Z</time>
      </trkpt>
      <trkpt lat="45.93936" lon="4.78649">
        <ele>194</ele>
        <time>2018-06-15T08:40:01Z</time>
      </trkpt>
      <trkpt lat="45.93936" lon="4.78653">
        <ele>194</ele>
        <time>2018-06-15T08:40:02Z</time>
      </trkpt>
      <trkpt lat="45.93938" lon="4.78665">
        <ele>194</ele>
        <time>2018-06-15T08:40:03Z</time>
      </trkpt>
      <trkpt lat="45.93937" lon="4.7867">
        <ele>193</ele>
        <time>2018-06-15T08:40:04Z</time>
      </trkpt>
      <trkpt lat="45.93938" lon="4.78681">
        <ele>194</ele>
        <time>2018-06-15T08:40:06Z</time>
      </trkpt>
      <trkpt lat="45.93938" lon="4.78688">
        <ele>194</ele>
        <time>2018-06-15T08:40:07Z</time>
      </trkpt>
      <trkpt lat="45.93938" lon="4.78699">
        <ele>194</ele>
        <time>2018-06-15T08:40:09Z</time>
      </trkpt>
      <trkpt lat="45.93938" lon="4.78705">
        <ele>194</ele>
        <time>2018-06-15T08:40:10Z</time>
      </trkpt>
      <trkpt lat="45.93937" lon="4.78714">
        <ele>194</ele>
        <time>2018-06-15T08:40:12Z</time>
      </trkpt>
      <trkpt lat="45.93937" lon="4.78721">
        <ele>194</ele>
        <time>2018-06-15T08:40:13Z</time>
      </trkpt>
      <trkpt lat="45.93937" lon="4.78729">
        <ele>194</ele>
        <time>2018-06-15T08:40:15Z</time>
      </trkpt>
      <trkpt lat="45.93937" lon="4.78737">
        <ele>193</ele>
        <time>2018-06-15T08:40:16Z</time>
      </trkpt>
      <trkpt lat="45.93939" lon="4.78749">
        <ele>193</ele>
        <time>2018-06-15T08:40:18Z</time>
      </trkpt>
      <trkpt lat="45.93939" lon="4.78756">
        <ele>193</ele>
        <time>2018-06-15T08:40:19Z</time>
      </trkpt>
      <trkpt lat="45.93941" lon="4.78768">
        <ele>194</ele>
        <time>2018-06-15T08:40:21Z</time>
      </trkpt>
      <trkpt lat="45.93941" lon="4.78774">
        <ele>194</ele>
        <time>2018-06-15T08:40:22Z</time>
      </trkpt>
      <trkpt lat="45.93942" lon="4.78781">
        <ele>194</ele>
        <time>2018-06-15T08:40:23Z</time>
      </trkpt>
      <trkpt lat="45.93943" lon="4.78788">
        <ele>194</ele>
        <time>2018-06-15T08:40:24Z</time>
      </trkpt>
      <trkpt lat="45.93943" lon="4.78795">
        <ele>194</ele>
        <time>2018-06-15T08:40:25Z</time>
      </trkpt>
      <trkpt lat="45.93944" lon="4.78802">
        <ele>194</ele>
        <time>2018-06-15T08:40:26Z</time>
      </trkpt>
      <trkpt lat="45.93944" lon="4.78809">
        <ele>194</ele>
        <time>2018-06-15T08:40:27Z</time>
      </trkpt>
      <trkpt lat="45.93943" lon="4.78815">
        <ele>194</ele>
        <time>2018-06-15T08:40:28Z</time>
      </trkpt>
      <trkpt lat="45.93942" lon="4.78824">
        <ele>194</ele>
        <time>2018-06-15T08:40:29Z</time>
      </trkpt>
      <trkpt lat="45.93941" lon="4.7883">
        <ele>194</ele>
        <time>2018-06-15T08:40:30Z</time>
      </trkpt>
      <trkpt lat="45.9394" lon="4.78838">
        <ele>193</ele>
        <time>2018-06-15T08:40:31Z</time>
      </trkpt>
      <trkpt lat="45.9394" lon="4.78844">
        <ele>193</ele>
        <time>2018-06-15T08:40:32Z</time>
      </trkpt>
      <trkpt lat="45.9394" lon="4.78851">
        <ele>194</ele>
        <time>2018-06-15T08:40:33Z</time>
      </trkpt>
      <trkpt lat="45.9394" lon="4.78858">
        <ele>194</ele>
        <time>2018-06-15T08:40:34Z</time>
      </trkpt>
      <trkpt lat="45.9394" lon="4.78865">
        <ele>194</ele>
        <time>2018-06-15T08:40:35Z</time>
      </trkpt>
      <trkpt lat="45.93939" lon="4.78872">
        <ele>194</ele>
        <time>2018-06-15T08:40:36Z</time>
      </trkpt>
      <trkpt lat="45.93938" lon="4.78879">
        <ele>194</ele>
        <time>2018-06-15T08:40:37Z</time>
      </trkpt>
      <trkpt lat="45.93939" lon="4.78885">
        <ele>193</ele>
        <time>2018-06-15T08:40:38Z</time>
      </trkpt>
      <trkpt lat="45.93939" lon="4.78892">
        <ele>193</ele>
        <time>2018-06-15T08:40:39Z</time>
      </trkpt>
      <trkpt lat="45.9394" lon="4.78899">
        <ele>193</ele>
        <time>2018-06-15T08:40:40Z</time>
      </trkpt>
      <trkpt lat="45.93941" lon="4.78911">
        <ele>193</ele>
        <time>2018-06-15T08:40:42Z</time>
      </trkpt>
      <trkpt lat="45.93943" lon="4.78921">
        <ele>193</ele>
        <time>2018-06-15T08:40:43Z</time>
      </trkpt>
      <trkpt lat="45.93943" lon="4.78928">
        <ele>193</ele>
        <time>2018-06-15T08:40:44Z</time>
      </trkpt>
      <trkpt lat="45.93943" lon="4.78936">
        <ele>194</ele>
        <time>2018-06-15T08:40:45Z</time>
      </trkpt>
      <trkpt lat="45.93942" lon="4.78942">
        <ele>194</ele>
        <time>2018-06-15T08:40:46Z</time>
      </trkpt>
      <trkpt lat="45.93944" lon="4.78949">
        <ele>194</ele>
        <time>2018-06-15T08:40:47Z</time>
      </trkpt>
      <trkpt lat="45.93944" lon="4.78961">
        <ele>194</ele>
        <time>2018-06-15T08:40:49Z</time>
      </trkpt>
      <trkpt lat="45.93944" lon="4.78967">
        <ele>194</ele>
        <time>2018-06-15T08:40:50Z</time>
      </trkpt>
      <trkpt lat="45.93947" lon="4.78978">
        <ele>194</ele>
        <time>2018-06-15T08:40:51Z</time>
      </trkpt>
      <trkpt lat="45.93947" lon="4.78983">
        <ele>194</ele>
        <time>2018-06-15T08:40:52Z</time>
      </trkpt>
      <trkpt lat="45.93947" lon="4.7899">
        <ele>194</ele>
        <time>2018-06-15T08:40:53Z</time>
      </trkpt>
      <trkpt lat="45.93948" lon="4.78997">
        <ele>194</ele>
        <time>2018-06-15T08:40:54Z</time>
      </trkpt>
      <trkpt lat="45.93948" lon="4.79008">
        <ele>195</ele>
        <time>2018-06-15T08:40:56Z</time>
      </trkpt>
      <trkpt lat="45.93949" lon="4.79013">
        <ele>195</ele>
        <time>2018-06-15T08:40:57Z</time>
      </trkpt>
      <trkpt lat="45.93949" lon="4.79019">
        <ele>195</ele>
        <time>2018-06-15T08:40:58Z</time>
      </trkpt>
      <trkpt lat="45.93947" lon="4.79026">
        <ele>195</ele>
        <time>2018-06-15T08:40:59Z</time>
      </trkpt>
      <trkpt lat="45.93948" lon="4.79034">
        <ele>195</ele>
        <time>2018-06-15T08:41:00Z</time>
      </trkpt>
      <trkpt lat="45.93949" lon="4.79041">
        <ele>196</ele>
        <time>2018-06-15T08:41:01Z</time>
      </trkpt>
      <trkpt lat="45.93948" lon="4.79048">
        <ele>196</ele>
        <time>2018-06-15T08:41:02Z</time>
      </trkpt>
      <trkpt lat="45.93949" lon="4.79054">
        <ele>196</ele>
        <time>2018-06-15T08:41:03Z</time>
      </trkpt>
      <trkpt lat="45.93949" lon="4.79067">
        <ele>196</ele>
        <time>2018-06-15T08:41:05Z</time>
      </trkpt>
      <trkpt lat="45.9395" lon="4.79074">
        <ele>196</ele>
        <time>2018-06-15T08:41:06Z</time>
      </trkpt>
      <trkpt lat="45.93951" lon="4.79082">
        <ele>196</ele>
        <time>2018-06-15T08:41:08Z</time>
      </trkpt>
      <trkpt lat="45.93951" lon="4.79091">
        <ele>197</ele>
        <time>2018-06-15T08:41:09Z</time>
      </trkpt>
      <trkpt lat="45.93952" lon="4.79098">
        <ele>197</ele>
        <time>2018-06-15T08:41:10Z</time>
      </trkpt>
      <trkpt lat="45.93952" lon="4.79104">
        <ele>197</ele>
        <time>2018-06-15T08:41:11Z</time>
      </trkpt>
      <trkpt lat="45.93951" lon="4.79116">
        <ele>197</ele>
        <time>2018-06-15T08:41:13Z</time>
      </trkpt>
      <trkpt lat="45.93951" lon="4.79122">
        <ele>197</ele>
        <time>2018-06-15T08:41:14Z</time>
      </trkpt>
      <trkpt lat="45.93952" lon="4.79128">
        <ele>197</ele>
        <time>2018-06-15T08:41:15Z</time>
      </trkpt>
      <trkpt lat="45.93953" lon="4.79136">
        <ele>197</ele>
        <time>2018-06-15T08:41:16Z</time>
      </trkpt>
      <trkpt lat="45.93951" lon="4.79144">
        <ele>197</ele>
        <time>2018-06-15T08:41:17Z</time>
      </trkpt>
      <trkpt lat="45.93951" lon="4.7915">
        <ele>197</ele>
        <time>2018-06-15T08:41:18Z</time>
      </trkpt>
      <trkpt lat="45.93951" lon="4.79161">
        <ele>197</ele>
        <time>2018-06-15T08:41:20Z</time>
      </trkpt>
      <trkpt lat="45.9395" lon="4.79167">
        <ele>197</ele>
        <time>2018-06-15T08:41:21Z</time>
      </trkpt>
      <trkpt lat="45.93952" lon="4.7918">
        <ele>197</ele>
        <time>2018-06-15T08:41:23Z</time>
      </trkpt>
      <trkpt lat="45.93952" lon="4.79186">
        <ele>197</ele>
        <time>2018-06-15T08:41:24Z</time>
      </trkpt>
      <trkpt lat="45.93952" lon="4.79193">
        <ele>197</ele>
        <time>2018-06-15T08:41:25Z</time>
      </trkpt>
      <trkpt lat="45.93952" lon="4.79199">
        <ele>197</ele>
        <time>2018-06-15T08:41:26Z</time>
      </trkpt>
      <trkpt lat="45.93953" lon="4.79207">
        <ele>197</ele>
        <time>2018-06-15T08:41:27Z</time>
      </trkpt>
      <trkpt lat="45.93952" lon="4.79213">
        <ele>197</ele>
        <time>2018-06-15T08:41:28Z</time>
      </trkpt>
      <trkpt lat="45.93952" lon="4.79221">
        <ele>197</ele>
        <time>2018-06-15T08:41:29Z</time>
      </trkpt>
      <trkpt lat="45.93953" lon="4.79229">
        <ele>197</ele>
        <time>2018-06-15T08:41:30Z</time>
      </trkpt>
      <trkpt lat="45.93953" lon="4.79236">
        <ele>197</ele>
        <time>2018-06-15T08:41:31Z</time>
      </trkpt>
      <trkpt lat="45.93952" lon="4.79244">
        <ele>197</ele>
        <time>2018-06-15T08:41:32Z</time>
      </trkpt>
      <trkpt lat="45.93953" lon="4.79252">
        <ele>198</ele>
        <time>2018-06-15T08:41:33Z</time>
      </trkpt>
      <trkpt lat="45.93953" lon="4.79258">
        <ele>198</ele>
        <time>2018-06-15T08:41:34Z</time>
      </trkpt>
      <trkpt lat="45.93953" lon="4.79271">
        <ele>198</ele>
        <time>2018-06-15T08:41:36Z</time>
      </trkpt>
      <trkpt lat="45.93953" lon="4.79278">
        <ele>198</ele>
        <time>2018-06-15T08:41:37Z</time>
      </trkpt>
      <trkpt lat="45.93953" lon="4.79284">
        <ele>198</ele>
        <time>2018-06-15T08:41:38Z</time>
      </trkpt>
      <trkpt lat="45.93953" lon="4.79291">
        <ele>198</ele>
        <time>2018-06-15T08:41:39Z</time>
      </trkpt>
      <trkpt lat="45.93955" lon="4.79298">
        <ele>199</ele>
        <time>2018-06-15T08:41:40Z</time>
      </trkpt>
      <trkpt lat="45.93955" lon="4.79304">
        <ele>199</ele>
        <time>2018-06-15T08:41:41Z</time>
      </trkpt>
      <trkpt lat="45.93955" lon="4.79317">
        <ele>199</ele>
        <time>2018-06-15T08:41:43Z</time>
      </trkpt>
      <trkpt lat="45.93955" lon="4.79324">
        <ele>199</ele>
        <time>2018-06-15T08:41:44Z</time>
      </trkpt>
      <trkpt lat="45.93955" lon="4.79337">
        <ele>200</ele>
        <time>2018-06-15T08:41:46Z</time>
      </trkpt>
      <trkpt lat="45.93957" lon="4.79344">
        <ele>201</ele>
        <time>2018-06-15T08:41:47Z</time>
      </trkpt>
      <trkpt lat="45.93956" lon="4.79355">
        <ele>201</ele>
        <time>2018-06-15T08:41:49Z</time>
      </trkpt>
      <trkpt lat="45.93956" lon="4.7936">
        <ele>201</ele>
        <time>2018-06-15T08:41:50Z</time>
      </trkpt>
      <trkpt lat="45.93956" lon="4.79367">
        <ele>201</ele>
        <time>2018-06-15T08:41:51Z</time>
      </trkpt>
      <trkpt lat="45.93956" lon="4.79374">
        <ele>201</ele>
        <time>2018-06-15T08:41:52Z</time>
      </trkpt>
      <trkpt lat="45.93955" lon="4.79385">
        <ele>201</ele>
        <time>2018-06-15T08:41:54Z</time>
      </trkpt>
      <trkpt lat="45.93955" lon="4.7939">
        <ele>201</ele>
        <time>2018-06-15T08:41:55Z</time>
      </trkpt>
      <trkpt lat="45.93955" lon="4.79402">
        <ele>201</ele>
        <time>2018-06-15T08:41:57Z</time>
      </trkpt>
      <trkpt lat="45.93955" lon="4.79404">
        <ele>201</ele>
        <time>2018-06-15T08:41:58Z</time>
      </trkpt>
      <trkpt lat="45.93955" lon="4.79414">
        <ele>201</ele>
        <time>2018-06-15T08:41:59Z</time>
      </trkpt>
      <trkpt lat="45.93955" lon="4.79418">
        <ele>202</ele>
        <time>2018-06-15T08:42:00Z</time>
      </trkpt>
      <trkpt lat="45.93955" lon="4.79429">
        <ele>202</ele>
        <time>2018-06-15T08:42:03Z</time>
      </trkpt>
      <trkpt lat="45.93955" lon="4.79439">
        <ele>203</ele>
        <time>2018-06-15T08:42:04Z</time>
      </trkpt>
      <trkpt lat="45.93955" lon="4.79451">
        <ele>203</ele>
        <time>2018-06-15T08:42:06Z</time>
      </trkpt>
      <trkpt lat="45.93954" lon="4.79457">
        <ele>203</ele>
        <time>2018-06-15T08:42:07Z</time>
      </trkpt>
      <trkpt lat="45.93953" lon="4.79468">
        <ele>203</ele>
        <time>2018-06-15T08:42:09Z</time>
      </trkpt>
      <trkpt lat="45.93953" lon="4.79474">
        <ele>203</ele>
        <time>2018-06-15T08:42:10Z</time>
      </trkpt>
      <trkpt lat="45.93953" lon="4.7948">
        <ele>203</ele>
        <time>2018-06-15T08:42:11Z</time>
      </trkpt>
      <trkpt lat="45.93952" lon="4.79487">
        <ele>202</ele>
        <time>2018-06-15T08:42:12Z</time>
      </trkpt>
      <trkpt lat="45.93951" lon="4.79496">
        <ele>202</ele>
        <time>2018-06-15T08:42:14Z</time>
      </trkpt>
      <trkpt lat="45.93951" lon="4.79503">
        <ele>204</ele>
        <time>2018-06-15T08:42:15Z</time>
      </trkpt>
      <trkpt lat="45.93952" lon="4.79514">
        <ele>204</ele>
        <time>2018-06-15T08:42:17Z</time>
      </trkpt>
      <trkpt lat="45.93953" lon="4.79519">
        <ele>204</ele>
        <time>2018-06-15T08:42:18Z</time>
      </trkpt>
      <trkpt lat="45.93953" lon="4.7953">
        <ele>204</ele>
        <time>2018-06-15T08:42:20Z</time>
      </trkpt>
      <trkpt lat="45.93954" lon="4.79532">
        <ele>204</ele>
        <time>2018-06-15T08:42:21Z</time>
      </trkpt>
      <trkpt lat="45.93954" lon="4.79545">
        <ele>205</ele>
        <time>2018-06-15T08:42:23Z</time>
      </trkpt>
      <trkpt lat="45.93955" lon="4.7955">
        <ele>205</ele>
        <time>2018-06-15T08:42:24Z</time>
      </trkpt>
      <trkpt lat="45.93955" lon="4.79556">
        <ele>205</ele>
        <time>2018-06-15T08:42:26Z</time>
      </trkpt>
      <trkpt lat="45.93956" lon="4.79565">
        <ele>205</ele>
        <time>2018-06-15T08:42:27Z</time>
      </trkpt>
      <trkpt lat="45.93956" lon="4.79576">
        <ele>205</ele>
        <time>2018-06-15T08:42:29Z</time>
      </trkpt>
      <trkpt lat="45.93957" lon="4.79581">
        <ele>205</ele>
        <time>2018-06-15T08:42:30Z</time>
      </trkpt>
      <trkpt lat="45.93958" lon="4.79592">
        <ele>207</ele>
        <time>2018-06-15T08:42:32Z</time>
      </trkpt>
      <trkpt lat="45.93959" lon="4.79597">
        <ele>207</ele>
        <time>2018-06-15T08:42:33Z</time>
      </trkpt>
      <trkpt lat="45.9396" lon="4.79608">
        <ele>207</ele>
        <time>2018-06-15T08:42:35Z</time>
      </trkpt>
      <trkpt lat="45.93961" lon="4.79613">
        <ele>207</ele>
        <time>2018-06-15T08:42:36Z</time>
      </trkpt>
      <trkpt lat="45.93963" lon="4.79624">
        <ele>207</ele>
        <time>2018-06-15T08:42:38Z</time>
      </trkpt>
      <trkpt lat="45.93964" lon="4.7963">
        <ele>207</ele>
        <time>2018-06-15T08:42:39Z</time>
      </trkpt>
      <trkpt lat="45.93965" lon="4.79641">
        <ele>207</ele>
        <time>2018-06-15T08:42:41Z</time>
      </trkpt>
      <trkpt lat="45.93966" lon="4.79647">
        <ele>207</ele>
        <time>2018-06-15T08:42:42Z</time>
      </trkpt>
      <trkpt lat="45.93966" lon="4.79653">
        <ele>207</ele>
        <time>2018-06-15T08:42:44Z</time>
      </trkpt>
      <trkpt lat="45.93966" lon="4.79662">
        <ele>208</ele>
        <time>2018-06-15T08:42:45Z</time>
      </trkpt>
      <trkpt lat="45.93967" lon="4.79673">
        <ele>207</ele>
        <time>2018-06-15T08:42:47Z</time>
      </trkpt>
      <trkpt lat="45.93967" lon="4.79676">
        <ele>207</ele>
        <time>2018-06-15T08:42:48Z</time>
      </trkpt>
      <trkpt lat="45.93968" lon="4.79687">
        <ele>207</ele>
        <time>2018-06-15T08:42:50Z</time>
      </trkpt>
      <trkpt lat="45.93968" lon="4.79693">
        <ele>207</ele>
        <time>2018-06-15T08:42:51Z</time>
      </trkpt>
      <trkpt lat="45.93969" lon="4.79704">
        <ele>207</ele>
        <time>2018-06-15T08:42:53Z</time>
      </trkpt>
      <trkpt lat="45.93969" lon="4.7971">
        <ele>207</ele>
        <time>2018-06-15T08:42:54Z</time>
      </trkpt>
      <trkpt lat="45.9397" lon="4.79721">
        <ele>207</ele>
        <time>2018-06-15T08:42:56Z</time>
      </trkpt>
      <trkpt lat="45.9397" lon="4.79727">
        <ele>207</ele>
        <time>2018-06-15T08:42:57Z</time>
      </trkpt>
      <trkpt lat="45.93971" lon="4.79737">
        <ele>207</ele>
        <time>2018-06-15T08:42:59Z</time>
      </trkpt>
      <trkpt lat="45.93971" lon="4.79743">
        <ele>207</ele>
        <time>2018-06-15T08:43:00Z</time>
      </trkpt>
      <trkpt lat="45.93971" lon="4.79756">
        <ele>206</ele>
        <time>2018-06-15T08:43:02Z</time>
      </trkpt>
      <trkpt lat="45.93971" lon="4.79763">
        <ele>206</ele>
        <time>2018-06-15T08:43:03Z</time>
      </trkpt>
      <trkpt lat="45.9397" lon="4.79768">
        <ele>206</ele>
        <time>2018-06-15T08:43:04Z</time>
      </trkpt>
      <trkpt lat="45.93972" lon="4.79776">
        <ele>206</ele>
        <time>2018-06-15T08:43:05Z</time>
      </trkpt>
      <trkpt lat="45.93971" lon="4.79783">
        <ele>206</ele>
        <time>2018-06-15T08:43:06Z</time>
      </trkpt>
      <trkpt lat="45.93972" lon="4.79789">
        <ele>206</ele>
        <time>2018-06-15T08:43:07Z</time>
      </trkpt>
      <trkpt lat="45.93972" lon="4.79797">
        <ele>206</ele>
        <time>2018-06-15T08:43:08Z</time>
      </trkpt>
      <trkpt lat="45.93973" lon="4.79802">
        <ele>207</ele>
        <time>2018-06-15T08:43:09Z</time>
      </trkpt>
      <trkpt lat="45.93972" lon="4.79808">
        <ele>207</ele>
        <time>2018-06-15T08:43:10Z</time>
      </trkpt>
      <trkpt lat="45.93971" lon="4.79815">
        <ele>207</ele>
        <time>2018-06-15T08:43:11Z</time>
      </trkpt>
      <trkpt lat="45.9397" lon="4.79823">
        <ele>207</ele>
        <time>2018-06-15T08:43:12Z</time>
      </trkpt>
      <trkpt lat="45.93969" lon="4.7983">
        <ele>207</ele>
        <time>2018-06-15T08:43:13Z</time>
      </trkpt>
      <trkpt lat="45.93968" lon="4.79837">
        <ele>206</ele>
        <time>2018-06-15T08:43:14Z</time>
      </trkpt>
      <trkpt lat="45.93968" lon="4.79845">
        <ele>206</ele>
        <time>2018-06-15T08:43:15Z</time>
      </trkpt>
      <trkpt lat="45.93967" lon="4.79854">
        <ele>206</ele>
        <time>2018-06-15T08:43:16Z</time>
      </trkpt>
      <trkpt lat="45.93967" lon="4.79859">
        <ele>206</ele>
        <time>2018-06-15T08:43:17Z</time>
      </trkpt>
      <trkpt lat="45.93966" lon="4.79866">
        <ele>206</ele>
        <time>2018-06-15T08:43:18Z</time>
      </trkpt>
      <trkpt lat="45.93965" lon="4.79873">
        <ele>206</ele>
        <time>2018-06-15T08:43:19Z</time>
      </trkpt>
      <trkpt lat="45.93964" lon="4.7988">
        <ele>206</ele>
        <time>2018-06-15T08:43:20Z</time>
      </trkpt>
      <trkpt lat="45.93962" lon="4.79888">
        <ele>206</ele>
        <time>2018-06-15T08:43:21Z</time>
      </trkpt>
      <trkpt lat="45.93961" lon="4.79894">
        <ele>206</ele>
        <time>2018-06-15T08:43:22Z</time>
      </trkpt>
      <trkpt lat="45.93959" lon="4.79901">
        <ele>206</ele>
        <time>2018-06-15T08:43:23Z</time>
      </trkpt>
      <trkpt lat="45.93959" lon="4.79909">
        <ele>206</ele>
        <time>2018-06-15T08:43:24Z</time>
      </trkpt>
      <trkpt lat="45.93958" lon="4.79915">
        <ele>205</ele>
        <time>2018-06-15T08:43:25Z</time>
      </trkpt>
      <trkpt lat="45.93956" lon="4.79922">
        <ele>205</ele>
        <time>2018-06-15T08:43:26Z</time>
      </trkpt>
      <trkpt lat="45.93954" lon="4.79929">
        <ele>205</ele>
        <time>2018-06-15T08:43:27Z</time>
      </trkpt>
      <trkpt lat="45.93953" lon="4.79935">
        <ele>205</ele>
        <time>2018-06-15T08:43:28Z</time>
      </trkpt>
      <trkpt lat="45.93951" lon="4.79942">
        <ele>205</ele>
        <time>2018-06-15T08:43:29Z</time>
      </trkpt>
      <trkpt lat="45.93951" lon="4.7995">
        <ele>205</ele>
        <time>2018-06-15T08:43:30Z</time>
      </trkpt>
      <trkpt lat="45.93949" lon="4.79958">
        <ele>205</ele>
        <time>2018-06-15T08:43:31Z</time>
      </trkpt>
      <trkpt lat="45.93948" lon="4.79964">
        <ele>205</ele>
        <time>2018-06-15T08:43:32Z</time>
      </trkpt>
      <trkpt lat="45.93945" lon="4.79971">
        <ele>205</ele>
        <time>2018-06-15T08:43:33Z</time>
      </trkpt>
      <trkpt lat="45.93945" lon="4.79978">
        <ele>205</ele>
        <time>2018-06-15T08:43:34Z</time>
      </trkpt>
      <trkpt lat="45.93945" lon="4.79986">
        <ele>205</ele>
        <time>2018-06-15T08:43:35Z</time>
      </trkpt>
      <trkpt lat="45.93945" lon="4.79993">
        <ele>205</ele>
        <time>2018-06-15T08:43:36Z</time>
      </trkpt>
      <trkpt lat="45.93943" lon="4.79999">
        <ele>204</ele>
        <time>2018-06-15T08:43:37Z</time>
      </trkpt>
      <trkpt lat="45.93941" lon="4.80011">
        <ele>206</ele>
        <time>2018-06-15T08:43:39Z</time>
      </trkpt>
      <trkpt lat="45.93942" lon="4.80019">
        <ele>206</ele>
        <time>2018-06-15T08:43:40Z</time>
      </trkpt>
      <trkpt lat="45.9394" lon="4.80025">
        <ele>207</ele>
        <time>2018-06-15T08:43:41Z</time>
      </trkpt>
      <trkpt lat="45.93939" lon="4.80031">
        <ele>207</ele>
        <time>2018-06-15T08:43:42Z</time>
      </trkpt>
      <trkpt lat="45.93939" lon="4.80039">
        <ele>207</ele>
        <time>2018-06-15T08:43:43Z</time>
      </trkpt>
      <trkpt lat="45.93938" lon="4.80044">
        <ele>207</ele>
        <time>2018-06-15T08:43:44Z</time>
      </trkpt>
      <trkpt lat="45.93938" lon="4.80052">
        <ele>207</ele>
        <time>2018-06-15T08:43:45Z</time>
      </trkpt>
      <trkpt lat="45.93937" lon="4.8006">
        <ele>207</ele>
        <time>2018-06-15T08:43:46Z</time>
      </trkpt>
      <trkpt lat="45.93936" lon="4.80067">
        <ele>207</ele>
        <time>2018-06-15T08:43:47Z</time>
      </trkpt>
      <trkpt lat="45.93937" lon="4.80075">
        <ele>207</ele>
        <time>2018-06-15T08:43:48Z</time>
      </trkpt>
      <trkpt lat="45.93937" lon="4.80082">
        <ele>207</ele>
        <time>2018-06-15T08:43:49Z</time>
      </trkpt>
      <trkpt lat="45.93938" lon="4.80089">
        <ele>208</ele>
        <time>2018-06-15T08:43:50Z</time>
      </trkpt>
      <trkpt lat="45.93938" lon="4.80096">
        <ele>208</ele>
        <time>2018-06-15T08:43:51Z</time>
      </trkpt>
      <trkpt lat="45.93938" lon="4.80102">
        <ele>208</ele>
        <time>2018-06-15T08:43:52Z</time>
      </trkpt>
      <trkpt lat="45.9394" lon="4.80109">
        <ele>208</ele>
        <time>2018-06-15T08:43:53Z</time>
      </trkpt>
      <trkpt lat="45.93941" lon="4.80116">
        <ele>209</ele>
        <time>2018-06-15T08:43:54Z</time>
      </trkpt>
      <trkpt lat="45.9394" lon="4.80123">
        <ele>208</ele>
        <time>2018-06-15T08:43:55Z</time>
      </trkpt>
      <trkpt lat="45.93941" lon="4.8013">
        <ele>208</ele>
        <time>2018-06-15T08:43:56Z</time>
      </trkpt>
      <trkpt lat="45.93943" lon="4.80136">
        <ele>208</ele>
        <time>2018-06-15T08:43:57Z</time>
      </trkpt>
      <trkpt lat="45.93944" lon="4.80143">
        <ele>208</ele>
        <time>2018-06-15T08:43:58Z</time>
      </trkpt>
      <trkpt lat="45.93944" lon="4.8015">
        <ele>208</ele>
        <time>2018-06-15T08:43:59Z</time>
      </trkpt>
      <trkpt lat="45.93946" lon="4.80158">
        <ele>208</ele>
        <time>2018-06-15T08:44:00Z</time>
      </trkpt>
      <trkpt lat="45.93948" lon="4.80165">
        <ele>208</ele>
        <time>2018-06-15T08:44:01Z</time>
      </trkpt>
      <trkpt lat="45.93948" lon="4.80171">
        <ele>206</ele>
        <time>2018-06-15T08:44:02Z</time>
      </trkpt>
      <trkpt lat="45.9395" lon="4.80176">
        <ele>206</ele>
        <time>2018-06-15T08:44:03Z</time>
      </trkpt>
      <trkpt lat="45.93951" lon="4.80184">
        <ele>206</ele>
        <time>2018-06-15T08:44:04Z</time>
      </trkpt>
      <trkpt lat="45.93952" lon="4.80191">
        <ele>206</ele>
        <time>2018-06-15T08:44:05Z</time>
      </trkpt>
      <trkpt lat="45.93955" lon="4.80199">
        <ele>205</ele>
        <time>2018-06-15T08:44:06Z</time>
      </trkpt>
      <trkpt lat="45.93957" lon="4.80208">
        <ele>205</ele>
        <time>2018-06-15T08:44:07Z</time>
      </trkpt>
      <trkpt lat="45.93959" lon="4.80216">
        <ele>205</ele>
        <time>2018-06-15T08:44:08Z</time>
      </trkpt>
      <trkpt lat="45.93961" lon="4.80223">
        <ele>205</ele>
        <time>2018-06-15T08:44:09Z</time>
      </trkpt>
      <trkpt lat="45.93962" lon="4.80229">
        <ele>205</ele>
        <time>2018-06-15T08:44:10Z</time>
      </trkpt>
      <trkpt lat="45.93964" lon="4.80237">
        <ele>204</ele>
        <time>2018-06-15T08:44:11Z</time>
      </trkpt>
      <trkpt lat="45.93966" lon="4.80243">
        <ele>204</ele>
        <time>2018-06-15T08:44:12Z</time>
      </trkpt>
      <trkpt lat="45.93969" lon="4.80249">
        <ele>204</ele>
        <time>2018-06-15T08:44:13Z</time>
      </trkpt>
      <trkpt lat="45.9397" lon="4.80256">
        <ele>202</ele>
        <time>2018-06-15T08:44:14Z</time>
      </trkpt>
      <trkpt lat="45.93972" lon="4.80263">
        <ele>202</ele>
        <time>2018-06-15T08:44:15Z</time>
      </trkpt>
      <trkpt lat="45.93973" lon="4.8027">
        <ele>203</ele>
        <time>2018-06-15T08:44:16Z</time>
      </trkpt>
      <trkpt lat="45.93977" lon="4.80282">
        <ele>203</ele>
        <time>2018-06-15T08:44:18Z</time>
      </trkpt>
      <trkpt lat="45.93978" lon="4.80288">
        <ele>203</ele>
        <time>2018-06-15T08:44:19Z</time>
      </trkpt>
      <trkpt lat="45.93981" lon="4.803">
        <ele>203</ele>
        <time>2018-06-15T08:44:21Z</time>
      </trkpt>
      <trkpt lat="45.93983" lon="4.80306">
        <ele>203</ele>
        <time>2018-06-15T08:44:22Z</time>
      </trkpt>
      <trkpt lat="45.93986" lon="4.80317">
        <ele>204</ele>
        <time>2018-06-15T08:44:24Z</time>
      </trkpt>
      <trkpt lat="45.93987" lon="4.80322">
        <ele>204</ele>
        <time>2018-06-15T08:44:25Z</time>
      </trkpt>
      <trkpt lat="45.9399" lon="4.80333">
        <ele>205</ele>
        <time>2018-06-15T08:44:29Z</time>
      </trkpt>
      <trkpt lat="45.93991" lon="4.80337">
        <ele>206</ele>
        <time>2018-06-15T08:44:30Z</time>
      </trkpt>
      <trkpt lat="45.93993" lon="4.80347">
        <ele>206</ele>
        <time>2018-06-15T08:44:31Z</time>
      </trkpt>
      <trkpt lat="45.93994" lon="4.8035">
        <ele>206</ele>
        <time>2018-06-15T08:44:32Z</time>
      </trkpt>
      <trkpt lat="45.93998" lon="4.80359">
        <ele>207</ele>
        <time>2018-06-15T08:44:35Z</time>
      </trkpt>
      <trkpt lat="45.94" lon="4.80363">
        <ele>207</ele>
        <time>2018-06-15T08:44:36Z</time>
      </trkpt>
      <trkpt lat="45.94004" lon="4.80373">
        <ele>216</ele>
        <time>2018-06-15T08:44:39Z</time>
      </trkpt>
      <trkpt lat="45.94005" lon="4.80377">
        <ele>216</ele>
        <time>2018-06-15T08:44:40Z</time>
      </trkpt>
      <trkpt lat="45.94007" lon="4.80388">
        <ele>217</ele>
        <time>2018-06-15T08:44:43Z</time>
      </trkpt>
      <trkpt lat="45.94008" lon="4.80391">
        <ele>217</ele>
        <time>2018-06-15T08:44:44Z</time>
      </trkpt>
      <trkpt lat="45.94011" lon="4.80402">
        <ele>217</ele>
        <time>2018-06-15T08:44:47Z</time>
      </trkpt>
      <trkpt lat="45.94012" lon="4.80405">
        <ele>217</ele>
        <time>2018-06-15T08:44:48Z</time>
      </trkpt>
      <trkpt lat="45.94015" lon="4.80416">
        <ele>218</ele>
        <time>2018-06-15T08:44:51Z</time>
      </trkpt>
      <trkpt lat="45.94016" lon="4.8042">
        <ele>221</ele>
        <time>2018-06-15T08:44:52Z</time>
      </trkpt>
      <trkpt lat="45.94019" lon="4.8043">
        <ele>222</ele>
        <time>2018-06-15T08:44:55Z</time>
      </trkpt>
      <trkpt lat="45.9402" lon="4.80434">
        <ele>222</ele>
        <time>2018-06-15T08:44:56Z</time>
      </trkpt>
      <trkpt lat="45.94022" lon="4.80444">
        <ele>223</ele>
        <time>2018-06-15T08:44:59Z</time>
      </trkpt>
      <trkpt lat="45.94022" lon="4.80448">
        <ele>223</ele>
        <time>2018-06-15T08:45:00Z</time>
      </trkpt>
      <trkpt lat="45.94023" lon="4.80459">
        <ele>224</ele>
        <time>2018-06-15T08:45:03Z</time>
      </trkpt>
      <trkpt lat="45.94023" lon="4.80463">
        <ele>224</ele>
        <time>2018-06-15T08:45:04Z</time>
      </trkpt>
      <trkpt lat="45.94023" lon="4.80475">
        <ele>223</ele>
        <time>2018-06-15T08:45:07Z</time>
      </trkpt>
      <trkpt lat="45.94023" lon="4.80479">
        <ele>223</ele>
        <time>2018-06-15T08:45:08Z</time>
      </trkpt>
      <trkpt lat="45.94024" lon="4.80491">
        <ele>223</ele>
        <time>2018-06-15T08:45:11Z</time>
      </trkpt>
      <trkpt lat="45.94024" lon="4.80494">
        <ele>223</ele>
        <time>2018-06-15T08:45:12Z</time>
      </trkpt>
      <trkpt lat="45.94025" lon="4.80505">
        <ele>224</ele>
        <time>2018-06-15T08:45:15Z</time>
      </trkpt>
      <trkpt lat="45.94026" lon="4.80509">
        <ele>224</ele>
        <time>2018-06-15T08:45:16Z</time>
      </trkpt>
      <trkpt lat="45.94028" lon="4.80522">
        <ele>225</ele>
        <time>2018-06-15T08:45:19Z</time>
      </trkpt>
      <trkpt lat="45.94028" lon="4.80525">
        <ele>225</ele>
        <time>2018-06-15T08:45:20Z</time>
      </trkpt>
      <trkpt lat="45.94027" lon="4.80537">
        <ele>225</ele>
        <time>2018-06-15T08:45:23Z</time>
      </trkpt>
      <trkpt lat="45.94027" lon="4.8054">
        <ele>225</ele>
        <time>2018-06-15T08:45:24Z</time>
      </trkpt>
      <trkpt lat="45.94026" lon="4.80549">
        <ele>225</ele>
        <time>2018-06-15T08:45:27Z</time>
      </trkpt>
      <trkpt lat="45.94026" lon="4.80553">
        <ele>225</ele>
        <time>2018-06-15T08:45:28Z</time>
      </trkpt>
      <trkpt lat="45.94026" lon="4.80563">
        <ele>225</ele>
        <time>2018-06-15T08:45:31Z</time>
      </trkpt>
      <trkpt lat="45.94026" lon="4.80566">
        <ele>225</ele>
        <time>2018-06-15T08:45:32Z</time>
      </trkpt>
      <trkpt lat="45.94027" lon="4.80577">
        <ele>224</ele>
        <time>2018-06-15T08:45:35Z</time>
      </trkpt>
      <trkpt lat="45.94027" lon="4.8058">
        <ele>224</ele>
        <time>2018-06-15T08:45:36Z</time>
      </trkpt>
      <trkpt lat="45.94027" lon="4.8059">
        <ele>224</ele>
        <time>2018-06-15T08:45:39Z</time>
      </trkpt>
      <trkpt lat="45.94028" lon="4.80593">
        <ele>224</ele>
        <time>2018-06-15T08:45:40Z</time>
      </trkpt>
      <trkpt lat="45.94028" lon="4.80602">
        <ele>225</ele>
        <time>2018-06-15T08:45:43Z</time>
      </trkpt>
      <trkpt lat="45.94028" lon="4.80606">
        <ele>225</ele>
        <time>2018-06-15T08:45:44Z</time>
      </trkpt>
      <trkpt lat="45.94028" lon="4.80616">
        <ele>225</ele>
        <time>2018-06-15T08:45:47Z</time>
      </trkpt>
      <trkpt lat="45.94028" lon="4.80619">
        <ele>225</ele>
        <time>2018-06-15T08:45:48Z</time>
      </trkpt>
      <trkpt lat="45.9403" lon="4.8063">
        <ele>225</ele>
        <time>2018-06-15T08:45:51Z</time>
      </trkpt>
      <trkpt lat="45.9403" lon="4.80634">
        <ele>225</ele>
        <time>2018-06-15T08:45:52Z</time>
      </trkpt>
      <trkpt lat="45.9403" lon="4.80644">
        <ele>225</ele>
        <time>2018-06-15T08:45:55Z</time>
      </trkpt>
      <trkpt lat="45.94031" lon="4.80648">
        <ele>225</ele>
        <time>2018-06-15T08:45:56Z</time>
      </trkpt>
      <trkpt lat="45.94031" lon="4.80658">
        <ele>225</ele>
        <time>2018-06-15T08:45:59Z</time>
      </trkpt>
      <trkpt lat="45.94031" lon="4.80661">
        <ele>225</ele>
        <time>2018-06-15T08:46:00Z</time>
      </trkpt>
      <trkpt lat="45.94032" lon="4.80673">
        <ele>225</ele>
        <time>2018-06-15T08:46:03Z</time>
      </trkpt>
      <trkpt lat="45.94033" lon="4.80677">
        <ele>225</ele>
        <time>2018-06-15T08:46:04Z</time>
      </trkpt>
      <trkpt lat="45.94034" lon="4.8069">
        <ele>225</ele>
        <time>2018-06-15T08:46:07Z</time>
      </trkpt>
      <trkpt lat="45.94034" lon="4.80694">
        <ele>226</ele>
        <time>2018-06-15T08:46:08Z</time>
      </trkpt>
      <trkpt lat="45.94035" lon="4.80703">
        <ele>226</ele>
        <time>2018-06-15T08:46:10Z</time>
      </trkpt>
      <trkpt lat="45.94036" lon="4.80707">
        <ele>226</ele>
        <time>2018-06-15T08:46:11Z</time>
      </trkpt>
      <trkpt lat="45.94037" lon="4.80717">
        <ele>226</ele>
        <time>2018-06-15T08:46:14Z</time>
      </trkpt>
      <trkpt lat="45.94038" lon="4.80721">
        <ele>226</ele>
        <time>2018-06-15T08:46:15Z</time>
      </trkpt>
      <trkpt lat="45.94039" lon="4.80731">
        <ele>226</ele>
        <time>2018-06-15T08:46:18Z</time>
      </trkpt>
      <trkpt lat="45.94039" lon="4.80735">
        <ele>227</ele>
        <time>2018-06-15T08:46:19Z</time>
      </trkpt>
      <trkpt lat="45.9404" lon="4.80746">
        <ele>227</ele>
        <time>2018-06-15T08:46:22Z</time>
      </trkpt>
      <trkpt lat="45.9404" lon="4.8075">
        <ele>227</ele>
        <time>2018-06-15T08:46:23Z</time>
      </trkpt>
      <trkpt lat="45.94041" lon="4.80762">
        <ele>228</ele>
        <time>2018-06-15T08:46:26Z</time>
      </trkpt>
      <trkpt lat="45.94041" lon="4.80767">
        <ele>228</ele>
        <time>2018-06-15T08:46:27Z</time>
      </trkpt>
      <trkpt lat="45.94042" lon="4.80778">
        <ele>228</ele>
        <time>2018-06-15T08:46:30Z</time>
      </trkpt>
      <trkpt lat="45.94043" lon="4.80782">
        <ele>228</ele>
        <time>2018-06-15T08:46:31Z</time>
      </trkpt>
      <trkpt lat="45.94044" lon="4.80793">
        <ele>228</ele>
        <time>2018-06-15T08:46:34Z</time>
      </trkpt>
      <trkpt lat="45.94045" lon="4.80797">
        <ele>228</ele>
        <time>2018-06-15T08:46:35Z</time>
      </trkpt>
      <trkpt lat="45.94047" lon="4.80808">
        <ele>229</ele>
        <time>2018-06-15T08:46:38Z</time>
      </trkpt>
      <trkpt lat="45.94048" lon="4.80812">
        <ele>229</ele>
        <time>2018-06-15T08:46:39Z</time>
      </trkpt>
      <trkpt lat="45.9405" lon="4.80824">
        <ele>230</ele>
        <time>2018-06-15T08:46:42Z</time>
      </trkpt>
      <trkpt lat="45.94051" lon="4.80827">
        <ele>230</ele>
        <time>2018-06-15T08:46:43Z</time>
      </trkpt>
      <trkpt lat="45.94053" lon="4.80839">
        <ele>231</ele>
        <time>2018-06-15T08:46:46Z</time>
      </trkpt>
      <trkpt lat="45.94053" lon="4.80843">
        <ele>231</ele>
        <time>2018-06-15T08:46:47Z</time>
      </trkpt>
      <trkpt lat="45.94055" lon="4.80853">
        <ele>231</ele>
        <time>2018-06-15T08:46:50Z</time>
      </trkpt>
      <trkpt lat="45.94055" lon="4.80857">
        <ele>231</ele>
        <time>2018-06-15T08:46:51Z</time>
      </trkpt>
      <trkpt lat="45.94056" lon="4.80868">
        <ele>230</ele>
        <time>2018-06-15T08:46:54Z</time>
      </trkpt>
      <trkpt lat="45.94057" lon="4.80871">
        <ele>230</ele>
        <time>2018-06-15T08:46:55Z</time>
      </trkpt>
      <trkpt lat="45.94057" lon="4.80882">
        <ele>231</ele>
        <time>2018-06-15T08:46:58Z</time>
      </trkpt>
      <trkpt lat="45.94058" lon="4.80885">
        <ele>231</ele>
        <time>2018-06-15T08:46:59Z</time>
      </trkpt>
      <trkpt lat="45.94059" lon="4.80896">
        <ele>231</ele>
        <time>2018-06-15T08:47:02Z</time>
      </trkpt>
      <trkpt lat="45.9406" lon="4.80899">
        <ele>231</ele>
        <time>2018-06-15T08:47:03Z</time>
      </trkpt>
      <trkpt lat="45.94062" lon="4.80909">
        <ele>232</ele>
        <time>2018-06-15T08:47:06Z</time>
      </trkpt>
      <trkpt lat="45.94063" lon="4.80913">
        <ele>233</ele>
        <time>2018-06-15T08:47:07Z</time>
      </trkpt>
      <trkpt lat="45.94065" lon="4.80924">
        <ele>233</ele>
        <time>2018-06-15T08:47:10Z</time>
      </trkpt>
      <trkpt lat="45.94065" lon="4.80927">
        <ele>233</ele>
        <time>2018-06-15T08:47:11Z</time>
      </trkpt>
      <trkpt lat="45.94067" lon="4.80938">
        <ele>233</ele>
        <time>2018-06-15T08:47:14Z</time>
      </trkpt>
      <trkpt lat="45.94068" lon="4.80941">
        <ele>233</ele>
        <time>2018-06-15T08:47:15Z</time>
      </trkpt>
      <trkpt lat="45.94069" lon="4.80952">
        <ele>232</ele>
        <time>2018-06-15T08:47:18Z</time>
      </trkpt>
      <trkpt lat="45.9407" lon="4.80955">
        <ele>232</ele>
        <time>2018-06-15T08:47:19Z</time>
      </trkpt>
      <trkpt lat="45.94071" lon="4.80965">
        <ele>233</ele>
        <time>2018-06-15T08:47:22Z</time>
      </trkpt>
      <trkpt lat="45.94072" lon="4.80969">
        <ele>233</ele>
        <time>2018-06-15T08:47:23Z</time>
      </trkpt>
      <trkpt lat="45.94073" lon="4.80979">
        <ele>234</ele>
        <time>2018-06-15T08:47:26Z</time>
      </trkpt>
      <trkpt lat="45.94073" lon="4.80982">
        <ele>234</ele>
        <time>2018-06-15T08:47:27Z</time>
      </trkpt>
      <trkpt lat="45.94074" lon="4.80992">
        <ele>236</ele>
        <time>2018-06-15T08:47:30Z</time>
      </trkpt>
      <trkpt lat="45.94075" lon="4.80995">
        <ele>236</ele>
        <time>2018-06-15T08:47:31Z</time>
      </trkpt>
      <trkpt lat="45.94075" lon="4.81005">
        <ele>237</ele>
        <time>2018-06-15T08:47:34Z</time>
      </trkpt>
      <trkpt lat="45.94076" lon="4.81008">
        <ele>236</ele>
        <time>2018-06-15T08:47:35Z</time>
      </trkpt>
      <trkpt lat="45.94077" lon="4.81018">
        <ele>235</ele>
        <time>2018-06-15T08:47:38Z</time>
      </trkpt>
      <trkpt lat="45.94077" lon="4.81021">
        <ele>235</ele>
        <time>2018-06-15T08:47:39Z</time>
      </trkpt>
      <trkpt lat="45.9408" lon="4.81031">
        <ele>234</ele>
        <time>2018-06-15T08:47:42Z</time>
      </trkpt>
      <trkpt lat="45.94081" lon="4.81034">
        <ele>234</ele>
        <time>2018-06-15T08:47:43Z</time>
      </trkpt>
      <trkpt lat="45.94084" lon="4.81043">
        <ele>243</ele>
        <time>2018-06-15T08:47:46Z</time>
      </trkpt>
      <trkpt lat="45.94085" lon="4.81046">
        <ele>243</ele>
        <time>2018-06-15T08:47:47Z</time>
      </trkpt>
      <trkpt lat="45.94088" lon="4.81055">
        <ele>243</ele>
        <time>2018-06-15T08:47:50Z</time>
      </trkpt>
      <trkpt lat="45.9409" lon="4.81058">
        <ele>243</ele>
        <time>2018-06-15T08:47:51Z</time>
      </trkpt>
      <trkpt lat="45.94093" lon="4.81067">
        <ele>242</ele>
        <time>2018-06-15T08:47:54Z</time>
      </trkpt>
      <trkpt lat="45.94094" lon="4.8107">
        <ele>242</ele>
        <time>2018-06-15T08:47:55Z</time>
      </trkpt>
      <trkpt lat="45.94099" lon="4.81078">
        <ele>242</ele>
        <time>2018-06-15T08:47:58Z</time>
      </trkpt>
      <trkpt lat="45.941" lon="4.8108">
        <ele>242</ele>
        <time>2018-06-15T08:47:59Z</time>
      </trkpt>
      <trkpt lat="45.94105" lon="4.81088">
        <ele>241</ele>
        <time>2018-06-15T08:48:03Z</time>
      </trkpt>
      <trkpt lat="45.94107" lon="4.81091">
        <ele>241</ele>
        <time>2018-06-15T08:48:04Z</time>
      </trkpt>
      <trkpt lat="45.94111" lon="4.81099">
        <ele>242</ele>
        <time>2018-06-15T08:48:07Z</time>
      </trkpt>
      <trkpt lat="45.94112" lon="4.81102">
        <ele>242</ele>
        <time>2018-06-15T08:48:08Z</time>
      </trkpt>
      <trkpt lat="45.94116" lon="4.81111">
        <ele>243</ele>
        <time>2018-06-15T08:48:11Z</time>
      </trkpt>
      <trkpt lat="45.94117" lon="4.81113">
        <ele>243</ele>
        <time>2018-06-15T08:48:12Z</time>
      </trkpt>
      <trkpt lat="45.94122" lon="4.81121">
        <ele>243</ele>
        <time>2018-06-15T08:48:15Z</time>
      </trkpt>
      <trkpt lat="45.94123" lon="4.81124">
        <ele>243</ele>
        <time>2018-06-15T08:48:16Z</time>
      </trkpt>
      <trkpt lat="45.94128" lon="4.81133">
        <ele>243</ele>
        <time>2018-06-15T08:48:19Z</time>
      </trkpt>
      <trkpt lat="45.9413" lon="4.81136">
        <ele>243</ele>
        <time>2018-06-15T08:48:20Z</time>
      </trkpt>
      <trkpt lat="45.94134" lon="4.81145">
        <ele>244</ele>
        <time>2018-06-15T08:48:23Z</time>
      </trkpt>
      <trkpt lat="45.94135" lon="4.81149">
        <ele>244</ele>
        <time>2018-06-15T08:48:24Z</time>
      </trkpt>
      <trkpt lat="45.9414" lon="4.81159">
        <ele>244</ele>
        <time>2018-06-15T08:48:27Z</time>
      </trkpt>
      <trkpt lat="45.94141" lon="4.81162">
        <ele>244</ele>
        <time>2018-06-15T08:48:28Z</time>
      </trkpt>
      <trkpt lat="45.94145" lon="4.81172">
        <ele>244</ele>
        <time>2018-06-15T08:48:31Z</time>
      </trkpt>
      <trkpt lat="45.94146" lon="4.81176">
        <ele>244</ele>
        <time>2018-06-15T08:48:32Z</time>
      </trkpt>
      <trkpt lat="45.94149" lon="4.81186">
        <ele>244</ele>
        <time>2018-06-15T08:48:35Z</time>
      </trkpt>
      <trkpt lat="45.9415" lon="4.81189">
        <ele>244</ele>
        <time>2018-06-15T08:48:36Z</time>
      </trkpt>
      <trkpt lat="45.94153" lon="4.81199">
        <ele>244</ele>
        <time>2018-06-15T08:48:39Z</time>
      </trkpt>
      <trkpt lat="45.94154" lon="4.81202">
        <ele>244</ele>
        <time>2018-06-15T08:48:40Z</time>
      </trkpt>
      <trkpt lat="45.94157" lon="4.81214">
        <ele>245</ele>
        <time>2018-06-15T08:48:44Z</time>
      </trkpt>
      <trkpt lat="45.94157" lon="4.81217">
        <ele>245</ele>
        <time>2018-06-15T08:48:45Z</time>
      </trkpt>
      <trkpt lat="45.94158" lon="4.81228">
        <ele>246</ele>
        <time>2018-06-15T08:48:48Z</time>
      </trkpt>
      <trkpt lat="45.94159" lon="4.81231">
        <ele>246</ele>
        <time>2018-06-15T08:48:49Z</time>
      </trkpt>
      <trkpt lat="45.94162" lon="4.81241">
        <ele>247</ele>
        <time>2018-06-15T08:48:52Z</time>
      </trkpt>
      <trkpt lat="45.94163" lon="4.81244">
        <ele>248</ele>
        <time>2018-06-15T08:48:53Z</time>
      </trkpt>
      <trkpt lat="45.94165" lon="4.81254">
        <ele>249</ele>
        <time>2018-06-15T08:48:56Z</time>
      </trkpt>
      <trkpt lat="45.94166" lon="4.81257">
        <ele>249</ele>
        <time>2018-06-15T08:48:57Z</time>
      </trkpt>
      <trkpt lat="45.94168" lon="4.81268">
        <ele>254</ele>
        <time>2018-06-15T08:49:00Z</time>
      </trkpt>
      <trkpt lat="45.94168" lon="4.81272">
        <ele>254</ele>
        <time>2018-06-15T08:49:01Z</time>
      </trkpt>
      <trkpt lat="45.9417" lon="4.81284">
        <ele>255</ele>
        <time>2018-06-15T08:49:04Z</time>
      </trkpt>
      <trkpt lat="45.9417" lon="4.81288">
        <ele>255</ele>
        <time>2018-06-15T08:49:05Z</time>
      </trkpt>
      <trkpt lat="45.94171" lon="4.813">
        <ele>255</ele>
        <time>2018-06-15T08:49:08Z</time>
      </trkpt>
      <trkpt lat="45.94171" lon="4.81303">
        <ele>255</ele>
        <time>2018-06-15T08:49:09Z</time>
      </trkpt>
      <trkpt lat="45.94172" lon="4.81314">
        <ele>255</ele>
        <time>2018-06-15T08:49:12Z</time>
      </trkpt>
      <trkpt lat="45.94171" lon="4.81317">
        <ele>255</ele>
        <time>2018-06-15T08:49:13Z</time>
      </trkpt>
      <trkpt lat="45.94171" lon="4.81327">
        <ele>254</ele>
        <time>2018-06-15T08:49:16Z</time>
      </trkpt>
      <trkpt lat="45.9417" lon="4.81331">
        <ele>253</ele>
        <time>2018-06-15T08:49:17Z</time>
      </trkpt>
      <trkpt lat="45.9417" lon="4.81342">
        <ele>254</ele>
        <time>2018-06-15T08:49:20Z</time>
      </trkpt>
      <trkpt lat="45.9417" lon="4.81346">
        <ele>255</ele>
        <time>2018-06-15T08:49:21Z</time>
      </trkpt>
      <trkpt lat="45.9417" lon="4.81356">
        <ele>256</ele>
        <time>2018-06-15T08:49:24Z</time>
      </trkpt>
      <trkpt lat="45.9417" lon="4.81359">
        <ele>257</ele>
        <time>2018-06-15T08:49:25Z</time>
      </trkpt>
      <trkpt lat="45.94169" lon="4.81369">
        <ele>257</ele>
        <time>2018-06-15T08:49:28Z</time>
      </trkpt>
      <trkpt lat="45.94168" lon="4.8138">
        <ele>258</ele>
        <time>2018-06-15T08:49:29Z</time>
      </trkpt>
      <trkpt lat="45.94167" lon="4.8139">
        <ele>258</ele>
        <time>2018-06-15T08:49:33Z</time>
      </trkpt>
      <trkpt lat="45.94167" lon="4.81393">
        <ele>258</ele>
        <time>2018-06-15T08:49:34Z</time>
      </trkpt>
      <trkpt lat="45.94166" lon="4.81403">
        <ele>253</ele>
        <time>2018-06-15T08:49:37Z</time>
      </trkpt>
      <trkpt lat="45.94166" lon="4.81407">
        <ele>254</ele>
        <time>2018-06-15T08:49:38Z</time>
      </trkpt>
      <trkpt lat="45.94165" lon="4.81416">
        <ele>255</ele>
        <time>2018-06-15T08:49:41Z</time>
      </trkpt>
      <trkpt lat="45.94165" lon="4.81419">
        <ele>256</ele>
        <time>2018-06-15T08:49:42Z</time>
      </trkpt>
      <trkpt lat="45.94164" lon="4.81432">
        <ele>256</ele>
        <time>2018-06-15T08:49:46Z</time>
      </trkpt>
      <trkpt lat="45.94163" lon="4.81435">
        <ele>256</ele>
        <time>2018-06-15T08:49:47Z</time>
      </trkpt>
      <trkpt lat="45.94163" lon="4.81445">
        <ele>257</ele>
        <time>2018-06-15T08:49:50Z</time>
      </trkpt>
      <trkpt lat="45.94162" lon="4.81448">
        <ele>257</ele>
        <time>2018-06-15T08:49:51Z</time>
      </trkpt>
      <trkpt lat="45.94161" lon="4.81461">
        <ele>257</ele>
        <time>2018-06-15T08:49:55Z</time>
      </trkpt>
      <trkpt lat="45.94161" lon="4.81464">
        <ele>258</ele>
        <time>2018-06-15T08:49:56Z</time>
      </trkpt>
      <trkpt lat="45.94159" lon="4.81474">
        <ele>258</ele>
        <time>2018-06-15T08:49:59Z</time>
      </trkpt>
      <trkpt lat="45.94159" lon="4.81478">
        <ele>259</ele>
        <time>2018-06-15T08:50:00Z</time>
      </trkpt>
      <trkpt lat="45.94159" lon="4.81489">
        <ele>260</ele>
        <time>2018-06-15T08:50:03Z</time>
      </trkpt>
      <trkpt lat="45.94158" lon="4.81493">
        <ele>261</ele>
        <time>2018-06-15T08:50:04Z</time>
      </trkpt>
      <trkpt lat="45.94158" lon="4.81503">
        <ele>263</ele>
        <time>2018-06-15T08:50:07Z</time>
      </trkpt>
      <trkpt lat="45.94157" lon="4.81506">
        <ele>263</ele>
        <time>2018-06-15T08:50:08Z</time>
      </trkpt>
      <trkpt lat="45.94157" lon="4.81518">
        <ele>263</ele>
        <time>2018-06-15T08:50:11Z</time>
      </trkpt>
      <trkpt lat="45.94157" lon="4.81521">
        <ele>263</ele>
        <time>2018-06-15T08:50:12Z</time>
      </trkpt>
      <trkpt lat="45.94156" lon="4.81531">
        <ele>264</ele>
        <time>2018-06-15T08:50:15Z</time>
      </trkpt>
      <trkpt lat="45.94155" lon="4.81535">
        <ele>264</ele>
        <time>2018-06-15T08:50:16Z</time>
      </trkpt>
      <trkpt lat="45.94154" lon="4.81544">
        <ele>264</ele>
        <time>2018-06-15T08:50:18Z</time>
      </trkpt>
      <trkpt lat="45.94153" lon="4.81548">
        <ele>264</ele>
        <time>2018-06-15T08:50:19Z</time>
      </trkpt>
      <trkpt lat="45.94153" lon="4.8156">
        <ele>265</ele>
        <time>2018-06-15T08:50:22Z</time>
      </trkpt>
      <trkpt lat="45.94154" lon="4.81564">
        <ele>265</ele>
        <time>2018-06-15T08:50:23Z</time>
      </trkpt>
      <trkpt lat="45.94155" lon="4.81576">
        <ele>266</ele>
        <time>2018-06-15T08:50:26Z</time>
      </trkpt>
      <trkpt lat="45.94155" lon="4.81579">
        <ele>266</ele>
        <time>2018-06-15T08:50:27Z</time>
      </trkpt>
      <trkpt lat="45.94156" lon="4.81591">
        <ele>267</ele>
        <time>2018-06-15T08:50:30Z</time>
      </trkpt>
      <trkpt lat="45.94156" lon="4.81595">
        <ele>267</ele>
        <time>2018-06-15T08:50:31Z</time>
      </trkpt>
      <trkpt lat="45.94157" lon="4.81599">
        <ele>267</ele>
        <time>2018-06-15T08:50:32Z</time>
      </trkpt>
      <trkpt lat="45.94159" lon="4.81612">
        <ele>267</ele>
        <time>2018-06-15T08:50:33Z</time>
      </trkpt>
      <trkpt lat="45.94161" lon="4.81622">
        <ele>268</ele>
        <time>2018-06-15T08:50:35Z</time>
      </trkpt>
      <trkpt lat="45.94162" lon="4.81624">
        <ele>268</ele>
        <time>2018-06-15T08:50:36Z</time>
      </trkpt>
      <trkpt lat="45.94163" lon="4.81634">
        <ele>268</ele>
        <time>2018-06-15T08:50:39Z</time>
      </trkpt>
      <trkpt lat="45.94165" lon="4.81646">
        <ele>268</ele>
        <time>2018-06-15T08:50:40Z</time>
      </trkpt>
      <trkpt lat="45.94167" lon="4.81658">
        <ele>268</ele>
        <time>2018-06-15T08:50:45Z</time>
      </trkpt>
      <trkpt lat="45.94171" lon="4.81667">
        <ele>269</ele>
        <time>2018-06-15T08:50:46Z</time>
      </trkpt>
      <trkpt lat="45.94174" lon="4.81677">
        <ele>268</ele>
        <time>2018-06-15T08:50:50Z</time>
      </trkpt>
      <trkpt lat="45.94175" lon="4.8168">
        <ele>268</ele>
        <time>2018-06-15T08:50:51Z</time>
      </trkpt>
      <trkpt lat="45.94178" lon="4.8169">
        <ele>267</ele>
        <time>2018-06-15T08:50:54Z</time>
      </trkpt>
      <trkpt lat="45.94179" lon="4.81693">
        <ele>267</ele>
        <time>2018-06-15T08:50:55Z</time>
      </trkpt>
      <trkpt lat="45.94182" lon="4.81705">
        <ele>267</ele>
        <time>2018-06-15T08:50:59Z</time>
      </trkpt>
      <trkpt lat="45.94183" lon="4.81708">
        <ele>267</ele>
        <time>2018-06-15T08:51:00Z</time>
      </trkpt>
      <trkpt lat="45.94184" lon="4.81718">
        <ele>267</ele>
        <time>2018-06-15T08:51:03Z</time>
      </trkpt>
      <trkpt lat="45.94184" lon="4.81723">
        <ele>267</ele>
        <time>2018-06-15T08:51:04Z</time>
      </trkpt>
      <trkpt lat="45.94183" lon="4.81727">
        <ele>267</ele>
        <time>2018-06-15T08:51:05Z</time>
      </trkpt>
      <trkpt lat="45.94184" lon="4.81741">
        <ele>267</ele>
        <time>2018-06-15T08:51:06Z</time>
      </trkpt>
      <trkpt lat="45.94185" lon="4.8175">
        <ele>267</ele>
        <time>2018-06-15T08:51:08Z</time>
      </trkpt>
      <trkpt lat="45.94187" lon="4.81757">
        <ele>266</ele>
        <time>2018-06-15T08:51:09Z</time>
      </trkpt>
      <trkpt lat="45.94191" lon="4.81764">
        <ele>266</ele>
        <time>2018-06-15T08:51:11Z</time>
      </trkpt>
      <trkpt lat="45.94194" lon="4.81771">
        <ele>266</ele>
        <time>2018-06-15T08:51:12Z</time>
      </trkpt>
      <trkpt lat="45.94197" lon="4.81782">
        <ele>266</ele>
        <time>2018-06-15T08:51:14Z</time>
      </trkpt>
      <trkpt lat="45.94197" lon="4.81787">
        <ele>266</ele>
        <time>2018-06-15T08:51:15Z</time>
      </trkpt>
      <trkpt lat="45.94198" lon="4.81797">
        <ele>266</ele>
        <time>2018-06-15T08:51:17Z</time>
      </trkpt>
      <trkpt lat="45.94198" lon="4.81802">
        <ele>266</ele>
        <time>2018-06-15T08:51:18Z</time>
      </trkpt>
      <trkpt lat="45.94198" lon="4.81814">
        <ele>266</ele>
        <time>2018-06-15T08:51:20Z</time>
      </trkpt>
      <trkpt lat="45.94199" lon="4.8182">
        <ele>266</ele>
        <time>2018-06-15T08:51:21Z</time>
      </trkpt>
      <trkpt lat="45.942" lon="4.81831">
        <ele>266</ele>
        <time>2018-06-15T08:51:24Z</time>
      </trkpt>
      <trkpt lat="45.94201" lon="4.81835">
        <ele>266</ele>
        <time>2018-06-15T08:51:25Z</time>
      </trkpt>
      <trkpt lat="45.94202" lon="4.81838">
        <ele>266</ele>
        <time>2018-06-15T08:51:26Z</time>
      </trkpt>
      <trkpt lat="45.94204" lon="4.8185">
        <ele>266</ele>
        <time>2018-06-15T08:51:27Z</time>
      </trkpt>
      <trkpt lat="45.94206" lon="4.81861">
        <ele>265</ele>
        <time>2018-06-15T08:51:29Z</time>
      </trkpt>
      <trkpt lat="45.94207" lon="4.81867">
        <ele>265</ele>
        <time>2018-06-15T08:51:30Z</time>
      </trkpt>
      <trkpt lat="45.9421" lon="4.81879">
        <ele>265</ele>
        <time>2018-06-15T08:51:32Z</time>
      </trkpt>
      <trkpt lat="45.94211" lon="4.81885">
        <ele>265</ele>
        <time>2018-06-15T08:51:33Z</time>
      </trkpt>
      <trkpt lat="45.94214" lon="4.81897">
        <ele>265</ele>
        <time>2018-06-15T08:51:35Z</time>
      </trkpt>
      <trkpt lat="45.94215" lon="4.81903">
        <ele>265</ele>
        <time>2018-06-15T08:51:36Z</time>
      </trkpt>
      <trkpt lat="45.94218" lon="4.81914">
        <ele>265</ele>
        <time>2018-06-15T08:51:38Z</time>
      </trkpt>
      <trkpt lat="45.94219" lon="4.8192">
        <ele>264</ele>
        <time>2018-06-15T08:51:39Z</time>
      </trkpt>
      <trkpt lat="45.94221" lon="4.81931">
        <ele>264</ele>
        <time>2018-06-15T08:51:41Z</time>
      </trkpt>
      <trkpt lat="45.94222" lon="4.81936">
        <ele>264</ele>
        <time>2018-06-15T08:51:42Z</time>
      </trkpt>
      <trkpt lat="45.94225" lon="4.81948">
        <ele>264</ele>
        <time>2018-06-15T08:51:44Z</time>
      </trkpt>
      <trkpt lat="45.94226" lon="4.81954">
        <ele>264</ele>
        <time>2018-06-15T08:51:45Z</time>
      </trkpt>
      <trkpt lat="45.94229" lon="4.81961">
        <ele>264</ele>
        <time>2018-06-15T08:51:46Z</time>
      </trkpt>
      <trkpt lat="45.94233" lon="4.81964">
        <ele>264</ele>
        <time>2018-06-15T08:51:47Z</time>
      </trkpt>
      <trkpt lat="45.94234" lon="4.81971">
        <ele>264</ele>
        <time>2018-06-15T08:51:48Z</time>
      </trkpt>
      <trkpt lat="45.94236" lon="4.81978">
        <ele>263</ele>
        <time>2018-06-15T08:51:49Z</time>
      </trkpt>
      <trkpt lat="45.94236" lon="4.81985">
        <ele>263</ele>
        <time>2018-06-15T08:51:50Z</time>
      </trkpt>
      <trkpt lat="45.94237" lon="4.81991">
        <ele>263</ele>
        <time>2018-06-15T08:51:51Z</time>
      </trkpt>
      <trkpt lat="45.94239" lon="4.82002">
        <ele>263</ele>
        <time>2018-06-15T08:51:53Z</time>
      </trkpt>
      <trkpt lat="45.9424" lon="4.82007">
        <ele>263</ele>
        <time>2018-06-15T08:51:54Z</time>
      </trkpt>
      <trkpt lat="45.94242" lon="4.82019">
        <ele>263</ele>
        <time>2018-06-15T08:51:56Z</time>
      </trkpt>
      <trkpt lat="45.94243" lon="4.82025">
        <ele>263</ele>
        <time>2018-06-15T08:51:57Z</time>
      </trkpt>
      <trkpt lat="45.94245" lon="4.82032">
        <ele>263</ele>
        <time>2018-06-15T08:51:58Z</time>
      </trkpt>
      <trkpt lat="45.94246" lon="4.82038">
        <ele>263</ele>
        <time>2018-06-15T08:51:59Z</time>
      </trkpt>
      <trkpt lat="45.94247" lon="4.8205">
        <ele>263</ele>
        <time>2018-06-15T08:52:01Z</time>
      </trkpt>
      <trkpt lat="45.94249" lon="4.82051">
        <ele>263</ele>
        <time>2018-06-15T08:52:02Z</time>
      </trkpt>
      <trkpt lat="45.94251" lon="4.82064">
        <ele>262</ele>
        <time>2018-06-15T08:52:04Z</time>
      </trkpt>
      <trkpt lat="45.94252" lon="4.82069">
        <ele>262</ele>
        <time>2018-06-15T08:52:05Z</time>
      </trkpt>
      <trkpt lat="45.94253" lon="4.82076">
        <ele>262</ele>
        <time>2018-06-15T08:52:06Z</time>
      </trkpt>
      <trkpt lat="45.94255" lon="4.82085">
        <ele>262</ele>
        <time>2018-06-15T08:52:07Z</time>
      </trkpt>
      <trkpt lat="45.94259" lon="4.82093">
        <ele>262</ele>
        <time>2018-06-15T08:52:08Z</time>
      </trkpt>
      <trkpt lat="45.9426" lon="4.82101">
        <ele>262</ele>
        <time>2018-06-15T08:52:09Z</time>
      </trkpt>
      <trkpt lat="45.94261" lon="4.82108">
        <ele>263</ele>
        <time>2018-06-15T08:52:10Z</time>
      </trkpt>
      <trkpt lat="45.94262" lon="4.82116">
        <ele>263</ele>
        <time>2018-06-15T08:52:11Z</time>
      </trkpt>
      <trkpt lat="45.94264" lon="4.82124">
        <ele>263</ele>
        <time>2018-06-15T08:52:12Z</time>
      </trkpt>
      <trkpt lat="45.94265" lon="4.82129">
        <ele>263</ele>
        <time>2018-06-15T08:52:13Z</time>
      </trkpt>
      <trkpt lat="45.94267" lon="4.82136">
        <ele>263</ele>
        <time>2018-06-15T08:52:14Z</time>
      </trkpt>
      <trkpt lat="45.94269" lon="4.82143">
        <ele>263</ele>
        <time>2018-06-15T08:52:15Z</time>
      </trkpt>
      <trkpt lat="45.9427" lon="4.82155">
        <ele>263</ele>
        <time>2018-06-15T08:52:17Z</time>
      </trkpt>
      <trkpt lat="45.94272" lon="4.82161">
        <ele>263</ele>
        <time>2018-06-15T08:52:18Z</time>
      </trkpt>
      <trkpt lat="45.94273" lon="4.82168">
        <ele>264</ele>
        <time>2018-06-15T08:52:19Z</time>
      </trkpt>
      <trkpt lat="45.94274" lon="4.82175">
        <ele>264</ele>
        <time>2018-06-15T08:52:20Z</time>
      </trkpt>
      <trkpt lat="45.94276" lon="4.82181">
        <ele>264</ele>
        <time>2018-06-15T08:52:21Z</time>
      </trkpt>
      <trkpt lat="45.94277" lon="4.82189">
        <ele>264</ele>
        <time>2018-06-15T08:52:22Z</time>
      </trkpt>
      <trkpt lat="45.94278" lon="4.82195">
        <ele>264</ele>
        <time>2018-06-15T08:52:23Z</time>
      </trkpt>
      <trkpt lat="45.9428" lon="4.82203">
        <ele>264</ele>
        <time>2018-06-15T08:52:24Z</time>
      </trkpt>
      <trkpt lat="45.94281" lon="4.8221">
        <ele>264</ele>
        <time>2018-06-15T08:52:25Z</time>
      </trkpt>
      <trkpt lat="45.94281" lon="4.82217">
        <ele>264</ele>
        <time>2018-06-15T08:52:26Z</time>
      </trkpt>
      <trkpt lat="45.94282" lon="4.82223">
        <ele>264</ele>
        <time>2018-06-15T08:52:27Z</time>
      </trkpt>
      <trkpt lat="45.9428" lon="4.82231">
        <ele>264</ele>
        <time>2018-06-15T08:52:28Z</time>
      </trkpt>
      <trkpt lat="45.94281" lon="4.82238">
        <ele>264</ele>
        <time>2018-06-15T08:52:29Z</time>
      </trkpt>
      <trkpt lat="45.94281" lon="4.82244">
        <ele>264</ele>
        <time>2018-06-15T08:52:30Z</time>
      </trkpt>
      <trkpt lat="45.94282" lon="4.82255">
        <ele>265</ele>
        <time>2018-06-15T08:52:32Z</time>
      </trkpt>
      <trkpt lat="45.94282" lon="4.82262">
        <ele>265</ele>
        <time>2018-06-15T08:52:33Z</time>
      </trkpt>
      <trkpt lat="45.94282" lon="4.82269">
        <ele>265</ele>
        <time>2018-06-15T08:52:34Z</time>
      </trkpt>
      <trkpt lat="45.94283" lon="4.82276">
        <ele>265</ele>
        <time>2018-06-15T08:52:35Z</time>
      </trkpt>
      <trkpt lat="45.94283" lon="4.82283">
        <ele>265</ele>
        <time>2018-06-15T08:52:36Z</time>
      </trkpt>
      <trkpt lat="45.94284" lon="4.82291">
        <ele>265</ele>
        <time>2018-06-15T08:52:37Z</time>
      </trkpt>
      <trkpt lat="45.94285" lon="4.82298">
        <ele>265</ele>
        <time>2018-06-15T08:52:38Z</time>
      </trkpt>
      <trkpt lat="45.94285" lon="4.82304">
        <ele>265</ele>
        <time>2018-06-15T08:52:39Z</time>
      </trkpt>
      <trkpt lat="45.94285" lon="4.82313">
        <ele>265</ele>
        <time>2018-06-15T08:52:40Z</time>
      </trkpt>
      <trkpt lat="45.94285" lon="4.82319">
        <ele>265</ele>
        <time>2018-06-15T08:52:41Z</time>
      </trkpt>
      <trkpt lat="45.94285" lon="4.82327">
        <ele>265</ele>
        <time>2018-06-15T08:52:42Z</time>
      </trkpt>
      <trkpt lat="45.94286" lon="4.82333">
        <ele>265</ele>
        <time>2018-06-15T08:52:43Z</time>
      </trkpt>
      <trkpt lat="45.94287" lon="4.82344">
        <ele>264</ele>
        <time>2018-06-15T08:52:45Z</time>
      </trkpt>
      <trkpt lat="45.94287" lon="4.82351">
        <ele>264</ele>
        <time>2018-06-15T08:52:46Z</time>
      </trkpt>
      <trkpt lat="45.94288" lon="4.82363">
        <ele>264</ele>
        <time>2018-06-15T08:52:48Z</time>
      </trkpt>
      <trkpt lat="45.94289" lon="4.82369">
        <ele>264</ele>
        <time>2018-06-15T08:52:49Z</time>
      </trkpt>
      <trkpt lat="45.94289" lon="4.82376">
        <ele>264</ele>
        <time>2018-06-15T08:52:50Z</time>
      </trkpt>
      <trkpt lat="45.94289" lon="4.82384">
        <ele>264</ele>
        <time>2018-06-15T08:52:51Z</time>
      </trkpt>
      <trkpt lat="45.94288" lon="4.82392">
        <ele>264</ele>
        <time>2018-06-15T08:52:52Z</time>
      </trkpt>
      <trkpt lat="45.94289" lon="4.824">
        <ele>264</ele>
        <time>2018-06-15T08:52:53Z</time>
      </trkpt>
      <trkpt lat="45.9429" lon="4.82411">
        <ele>264</ele>
        <time>2018-06-15T08:52:55Z</time>
      </trkpt>
      <trkpt lat="45.9429" lon="4.82417">
        <ele>264</ele>
        <time>2018-06-15T08:52:56Z</time>
      </trkpt>
      <trkpt lat="45.9429" lon="4.82429">
        <ele>264</ele>
        <time>2018-06-15T08:52:58Z</time>
      </trkpt>
      <trkpt lat="45.94291" lon="4.82432">
        <ele>264</ele>
        <time>2018-06-15T08:52:59Z</time>
      </trkpt>
      <trkpt lat="45.94292" lon="4.8244">
        <ele>264</ele>
        <time>2018-06-15T08:53:00Z</time>
      </trkpt>
      <trkpt lat="45.94292" lon="4.82445">
        <ele>264</ele>
        <time>2018-06-15T08:53:01Z</time>
      </trkpt>
      <trkpt lat="45.94292" lon="4.82457">
        <ele>264</ele>
        <time>2018-06-15T08:53:03Z</time>
      </trkpt>
      <trkpt lat="45.94292" lon="4.82463">
        <ele>264</ele>
        <time>2018-06-15T08:53:04Z</time>
      </trkpt>
      <trkpt lat="45.94292" lon="4.82475">
        <ele>264</ele>
        <time>2018-06-15T08:53:06Z</time>
      </trkpt>
      <trkpt lat="45.94293" lon="4.82482">
        <ele>264</ele>
        <time>2018-06-15T08:53:07Z</time>
      </trkpt>
      <trkpt lat="45.94293" lon="4.82494">
        <ele>264</ele>
        <time>2018-06-15T08:53:09Z</time>
      </trkpt>
      <trkpt lat="45.94294" lon="4.825">
        <ele>264</ele>
        <time>2018-06-15T08:53:10Z</time>
      </trkpt>
      <trkpt lat="45.94294" lon="4.8251">
        <ele>264</ele>
        <time>2018-06-15T08:53:12Z</time>
      </trkpt>
      <trkpt lat="45.94294" lon="4.82515">
        <ele>264</ele>
        <time>2018-06-15T08:53:13Z</time>
      </trkpt>
      <trkpt lat="45.94295" lon="4.82528">
        <ele>264</ele>
        <time>2018-06-15T08:53:15Z</time>
      </trkpt>
      <trkpt lat="45.94295" lon="4.82534">
        <ele>264</ele>
        <time>2018-06-15T08:53:16Z</time>
      </trkpt>
      <trkpt lat="45.94295" lon="4.82546">
        <ele>264</ele>
        <time>2018-06-15T08:53:18Z</time>
      </trkpt>
      <trkpt lat="45.94295" lon="4.82553">
        <ele>264</ele>
        <time>2018-06-15T08:53:19Z</time>
      </trkpt>
      <trkpt lat="45.94295" lon="4.82559">
        <ele>264</ele>
        <time>2018-06-15T08:53:20Z</time>
      </trkpt>
      <trkpt lat="45.94294" lon="4.82566">
        <ele>264</ele>
        <time>2018-06-15T08:53:21Z</time>
      </trkpt>
      <trkpt lat="45.94294" lon="4.82573">
        <ele>264</ele>
        <time>2018-06-15T08:53:22Z</time>
      </trkpt>
      <trkpt lat="45.94294" lon="4.82579">
        <ele>264</ele>
        <time>2018-06-15T08:53:23Z</time>
      </trkpt>
      <trkpt lat="45.94294" lon="4.82592">
        <ele>265</ele>
        <time>2018-06-15T08:53:25Z</time>
      </trkpt>
      <trkpt lat="45.94294" lon="4.82597">
        <ele>265</ele>
        <time>2018-06-15T08:53:26Z</time>
      </trkpt>
      <trkpt lat="45.94293" lon="4.82609">
        <ele>265</ele>
        <time>2018-06-15T08:53:28Z</time>
      </trkpt>
      <trkpt lat="45.94293" lon="4.82613">
        <ele>265</ele>
        <time>2018-06-15T08:53:29Z</time>
      </trkpt>
      <trkpt lat="45.94293" lon="4.82625">
        <ele>265</ele>
        <time>2018-06-15T08:53:31Z</time>
      </trkpt>
      <trkpt lat="45.94293" lon="4.82632">
        <ele>265</ele>
        <time>2018-06-15T08:53:32Z</time>
      </trkpt>
      <trkpt lat="45.94292" lon="4.82638">
        <ele>265</ele>
        <time>2018-06-15T08:53:33Z</time>
      </trkpt>
      <trkpt lat="45.94292" lon="4.82645">
        <ele>265</ele>
        <time>2018-06-15T08:53:34Z</time>
      </trkpt>
      <trkpt lat="45.94292" lon="4.82657">
        <ele>265</ele>
        <time>2018-06-15T08:53:36Z</time>
      </trkpt>
      <trkpt lat="45.94291" lon="4.82663">
        <ele>265</ele>
        <time>2018-06-15T08:53:37Z</time>
      </trkpt>
      <trkpt lat="45.94291" lon="4.8267">
        <ele>265</ele>
        <time>2018-06-15T08:53:38Z</time>
      </trkpt>
      <trkpt lat="45.94291" lon="4.82677">
        <ele>265</ele>
        <time>2018-06-15T08:53:39Z</time>
      </trkpt>
      <trkpt lat="45.94291" lon="4.82686">
        <ele>265</ele>
        <time>2018-06-15T08:53:40Z</time>
      </trkpt>
      <trkpt lat="45.94291" lon="4.82693">
        <ele>265</ele>
        <time>2018-06-15T08:53:41Z</time>
      </trkpt>
      <trkpt lat="45.94291" lon="4.82701">
        <ele>265</ele>
        <time>2018-06-15T08:53:42Z</time>
      </trkpt>
      <trkpt lat="45.94291" lon="4.82709">
        <ele>265</ele>
        <time>2018-06-15T08:53:43Z</time>
      </trkpt>
      <trkpt lat="45.9429" lon="4.82715">
        <ele>265</ele>
        <time>2018-06-15T08:53:44Z</time>
      </trkpt>
      <trkpt lat="45.9429" lon="4.82722">
        <ele>265</ele>
        <time>2018-06-15T08:53:45Z</time>
      </trkpt>
      <trkpt lat="45.9429" lon="4.82734">
        <ele>265</ele>
        <time>2018-06-15T08:53:47Z</time>
      </trkpt>
      <trkpt lat="45.9429" lon="4.82741">
        <ele>265</ele>
        <time>2018-06-15T08:53:48Z</time>
      </trkpt>
      <trkpt lat="45.94289" lon="4.82752">
        <ele>265</ele>
        <time>2018-06-15T08:53:50Z</time>
      </trkpt>
      <trkpt lat="45.94289" lon="4.8276">
        <ele>265</ele>
        <time>2018-06-15T08:53:51Z</time>
      </trkpt>
      <trkpt lat="45.94288" lon="4.82772">
        <ele>265</ele>
        <time>2018-06-15T08:53:53Z</time>
      </trkpt>
      <trkpt lat="45.94289" lon="4.82778">
        <ele>265</ele>
        <time>2018-06-15T08:53:54Z</time>
      </trkpt>
      <trkpt lat="45.9429" lon="4.8279">
        <ele>265</ele>
        <time>2018-06-15T08:53:56Z</time>
      </trkpt>
      <trkpt lat="45.94289" lon="4.82796">
        <ele>265</ele>
        <time>2018-06-15T08:53:57Z</time>
      </trkpt>
      <trkpt lat="45.9429" lon="4.82809">
        <ele>265</ele>
        <time>2018-06-15T08:53:59Z</time>
      </trkpt>
      <trkpt lat="45.94289" lon="4.82815">
        <ele>265</ele>
        <time>2018-06-15T08:54:00Z</time>
      </trkpt>
      <trkpt lat="45.94289" lon="4.82828">
        <ele>265</ele>
        <time>2018-06-15T08:54:02Z</time>
      </trkpt>
      <trkpt lat="45.94289" lon="4.82834">
        <ele>265</ele>
        <time>2018-06-15T08:54:03Z</time>
      </trkpt>
      <trkpt lat="45.94289" lon="4.82841">
        <ele>265</ele>
        <time>2018-06-15T08:54:04Z</time>
      </trkpt>
      <trkpt lat="45.94288" lon="4.82848">
        <ele>265</ele>
        <time>2018-06-15T08:54:05Z</time>
      </trkpt>
      <trkpt lat="45.94288" lon="4.82855">
        <ele>265</ele>
        <time>2018-06-15T08:54:06Z</time>
      </trkpt>
      <trkpt lat="45.94288" lon="4.82862">
        <ele>265</ele>
        <time>2018-06-15T08:54:07Z</time>
      </trkpt>
      <trkpt lat="45.94287" lon="4.8287">
        <ele>265</ele>
        <time>2018-06-15T08:54:08Z</time>
      </trkpt>
      <trkpt lat="45.94287" lon="4.82878">
        <ele>265</ele>
        <time>2018-06-15T08:54:09Z</time>
      </trkpt>
      <trkpt lat="45.94287" lon="4.8289">
        <ele>265</ele>
        <time>2018-06-15T08:54:11Z</time>
      </trkpt>
      <trkpt lat="45.94286" lon="4.82899">
        <ele>265</ele>
        <time>2018-06-15T08:54:12Z</time>
      </trkpt>
      <trkpt lat="45.94285" lon="4.82909">
        <ele>265</ele>
        <time>2018-06-15T08:54:14Z</time>
      </trkpt>
      <trkpt lat="45.94284" lon="4.82913">
        <ele>265</ele>
        <time>2018-06-15T08:54:15Z</time>
      </trkpt>
      <trkpt lat="45.94284" lon="4.82921">
        <ele>265</ele>
        <time>2018-06-15T08:54:16Z</time>
      </trkpt>
      <trkpt lat="45.94282" lon="4.82926">
        <ele>265</ele>
        <time>2018-06-15T08:54:17Z</time>
      </trkpt>
      <trkpt lat="45.9428" lon="4.82934">
        <ele>265</ele>
        <time>2018-06-15T08:54:19Z</time>
      </trkpt>
      <trkpt lat="45.94278" lon="4.8294">
        <ele>265</ele>
        <time>2018-06-15T08:54:20Z</time>
      </trkpt>
      <trkpt lat="45.94275" lon="4.82951">
        <ele>265</ele>
        <time>2018-06-15T08:54:22Z</time>
      </trkpt>
      <trkpt lat="45.94275" lon="4.82957">
        <ele>265</ele>
        <time>2018-06-15T08:54:23Z</time>
      </trkpt>
      <trkpt lat="45.94276" lon="4.82967">
        <ele>265</ele>
        <time>2018-06-15T08:54:25Z</time>
      </trkpt>
      <trkpt lat="45.94278" lon="4.82971">
        <ele>265</ele>
        <time>2018-06-15T08:54:26Z</time>
      </trkpt>
      <trkpt lat="45.94282" lon="4.82974">
        <ele>265</ele>
        <time>2018-06-15T08:54:27Z</time>
      </trkpt>
      <trkpt lat="45.94284" lon="4.82981">
        <ele>265</ele>
        <time>2018-06-15T08:54:28Z</time>
      </trkpt>
      <trkpt lat="45.94286" lon="4.82988">
        <ele>265</ele>
        <time>2018-06-15T08:54:29Z</time>
      </trkpt>
      <trkpt lat="45.94289" lon="4.82995">
        <ele>265</ele>
        <time>2018-06-15T08:54:30Z</time>
      </trkpt>
      <trkpt lat="45.94291" lon="4.83002">
        <ele>266</ele>
        <time>2018-06-15T08:54:31Z</time>
      </trkpt>
      <trkpt lat="45.94292" lon="4.83008">
        <ele>266</ele>
        <time>2018-06-15T08:54:32Z</time>
      </trkpt>
      <trkpt lat="45.94294" lon="4.83015">
        <ele>266</ele>
        <time>2018-06-15T08:54:33Z</time>
      </trkpt>
      <trkpt lat="45.94294" lon="4.83022">
        <ele>266</ele>
        <time>2018-06-15T08:54:34Z</time>
      </trkpt>
      <trkpt lat="45.94295" lon="4.83028">
        <ele>266</ele>
        <time>2018-06-15T08:54:35Z</time>
      </trkpt>
      <trkpt lat="45.94297" lon="4.83035">
        <ele>266</ele>
        <time>2018-06-15T08:54:36Z</time>
      </trkpt>
      <trkpt lat="45.94302" lon="4.83045">
        <ele>266</ele>
        <time>2018-06-15T08:54:38Z</time>
      </trkpt>
      <trkpt lat="45.94303" lon="4.83051">
        <ele>266</ele>
        <time>2018-06-15T08:54:39Z</time>
      </trkpt>
      <trkpt lat="45.94305" lon="4.83062">
        <ele>266</ele>
        <time>2018-06-15T08:54:41Z</time>
      </trkpt>
      <trkpt lat="45.94307" lon="4.83069">
        <ele>266</ele>
        <time>2018-06-15T08:54:42Z</time>
      </trkpt>
      <trkpt lat="45.94308" lon="4.83076">
        <ele>266</ele>
        <time>2018-06-15T08:54:43Z</time>
      </trkpt>
      <trkpt lat="45.9431" lon="4.83084">
        <ele>266</ele>
        <time>2018-06-15T08:54:44Z</time>
      </trkpt>
      <trkpt lat="45.94312" lon="4.83091">
        <ele>266</ele>
        <time>2018-06-15T08:54:45Z</time>
      </trkpt>
      <trkpt lat="45.94315" lon="4.83099">
        <ele>266</ele>
        <time>2018-06-15T08:54:46Z</time>
      </trkpt>
      <trkpt lat="45.94317" lon="4.83107">
        <ele>266</ele>
        <time>2018-06-15T08:54:47Z</time>
      </trkpt>
      <trkpt lat="45.94319" lon="4.83115">
        <ele>266</ele>
        <time>2018-06-15T08:54:48Z</time>
      </trkpt>
      <trkpt lat="45.94321" lon="4.83122">
        <ele>266</ele>
        <time>2018-06-15T08:54:49Z</time>
      </trkpt>
      <trkpt lat="45.94324" lon="4.83129">
        <ele>266</ele>
        <time>2018-06-15T08:54:50Z</time>
      </trkpt>
      <trkpt lat="45.94327" lon="4.83135">
        <ele>266</ele>
        <time>2018-06-15T08:54:51Z</time>
      </trkpt>
      <trkpt lat="45.9433" lon="4.83141">
        <ele>266</ele>
        <time>2018-06-15T08:54:52Z</time>
      </trkpt>
      <trkpt lat="45.94331" lon="4.83147">
        <ele>266</ele>
        <time>2018-06-15T08:54:53Z</time>
      </trkpt>
      <trkpt lat="45.94333" lon="4.83154">
        <ele>266</ele>
        <time>2018-06-15T08:54:54Z</time>
      </trkpt>
      <trkpt lat="45.94336" lon="4.8316">
        <ele>266</ele>
        <time>2018-06-15T08:54:55Z</time>
      </trkpt>
      <trkpt lat="45.94337" lon="4.83165">
        <ele>266</ele>
        <time>2018-06-15T08:54:56Z</time>
      </trkpt>
      <trkpt lat="45.94339" lon="4.83172">
        <ele>266</ele>
        <time>2018-06-15T08:54:57Z</time>
      </trkpt>
      <trkpt lat="45.94342" lon="4.83178">
        <ele>266</ele>
        <time>2018-06-15T08:54:58Z</time>
      </trkpt>
      <trkpt lat="45.94344" lon="4.83184">
        <ele>266</ele>
        <time>2018-06-15T08:54:59Z</time>
      </trkpt>
      <trkpt lat="45.94346" lon="4.83191">
        <ele>266</ele>
        <time>2018-06-15T08:55:00Z</time>
      </trkpt>
      <trkpt lat="45.94349" lon="4.83198">
        <ele>266</ele>
        <time>2018-06-15T08:55:01Z</time>
      </trkpt>
      <trkpt lat="45.94351" lon="4.83204">
        <ele>266</ele>
        <time>2018-06-15T08:55:02Z</time>
      </trkpt>
      <trkpt lat="45.94354" lon="4.83212">
        <ele>266</ele>
        <time>2018-06-15T08:55:03Z</time>
      </trkpt>
      <trkpt lat="45.94357" lon="4.83218">
        <ele>266</ele>
        <time>2018-06-15T08:55:04Z</time>
      </trkpt>
      <trkpt lat="45.94359" lon="4.83224">
        <ele>266</ele>
        <time>2018-06-15T08:55:05Z</time>
      </trkpt>
      <trkpt lat="45.94362" lon="4.8323">
        <ele>266</ele>
        <time>2018-06-15T08:55:06Z</time>
      </trkpt>
      <trkpt lat="45.94364" lon="4.83237">
        <ele>265</ele>
        <time>2018-06-15T08:55:07Z</time>
      </trkpt>
      <trkpt lat="45.94366" lon="4.83244">
        <ele>265</ele>
        <time>2018-06-15T08:55:08Z</time>
      </trkpt>
      <trkpt lat="45.94369" lon="4.83249">
        <ele>265</ele>
        <time>2018-06-15T08:55:09Z</time>
      </trkpt>
      <trkpt lat="45.94371" lon="4.83256">
        <ele>265</ele>
        <time>2018-06-15T08:55:10Z</time>
      </trkpt>
      <trkpt lat="45.94373" lon="4.83263">
        <ele>264</ele>
        <time>2018-06-15T08:55:11Z</time>
      </trkpt>
      <trkpt lat="45.94376" lon="4.83269">
        <ele>264</ele>
        <time>2018-06-15T08:55:12Z</time>
      </trkpt>
      <trkpt lat="45.94378" lon="4.83276">
        <ele>264</ele>
        <time>2018-06-15T08:55:13Z</time>
      </trkpt>
      <trkpt lat="45.94381" lon="4.83284">
        <ele>264</ele>
        <time>2018-06-15T08:55:14Z</time>
      </trkpt>
      <trkpt lat="45.94382" lon="4.8329">
        <ele>264</ele>
        <time>2018-06-15T08:55:15Z</time>
      </trkpt>
      <trkpt lat="45.94385" lon="4.83297">
        <ele>264</ele>
        <time>2018-06-15T08:55:16Z</time>
      </trkpt>
      <trkpt lat="45.94387" lon="4.83305">
        <ele>264</ele>
        <time>2018-06-15T08:55:17Z</time>
      </trkpt>
      <trkpt lat="45.9439" lon="4.83313">
        <ele>264</ele>
        <time>2018-06-15T08:55:18Z</time>
      </trkpt>
      <trkpt lat="45.94392" lon="4.83319">
        <ele>264</ele>
        <time>2018-06-15T08:55:19Z</time>
      </trkpt>
      <trkpt lat="45.94394" lon="4.83327">
        <ele>264</ele>
        <time>2018-06-15T08:55:20Z</time>
      </trkpt>
      <trkpt lat="45.94397" lon="4.83333">
        <ele>264</ele>
        <time>2018-06-15T08:55:21Z</time>
      </trkpt>
      <trkpt lat="45.94399" lon="4.83341">
        <ele>263</ele>
        <time>2018-06-15T08:55:22Z</time>
      </trkpt>
      <trkpt lat="45.94402" lon="4.83347">
        <ele>263</ele>
        <time>2018-06-15T08:55:23Z</time>
      </trkpt>
      <trkpt lat="45.94405" lon="4.83355">
        <ele>263</ele>
        <time>2018-06-15T08:55:24Z</time>
      </trkpt>
      <trkpt lat="45.94409" lon="4.83361">
        <ele>264</ele>
        <time>2018-06-15T08:55:25Z</time>
      </trkpt>
      <trkpt lat="45.94413" lon="4.83368">
        <ele>264</ele>
        <time>2018-06-15T08:55:26Z</time>
      </trkpt>
      <trkpt lat="45.94416" lon="4.83375">
        <ele>264</ele>
        <time>2018-06-15T08:55:27Z</time>
      </trkpt>
      <trkpt lat="45.94417" lon="4.83381">
        <ele>264</ele>
        <time>2018-06-15T08:55:28Z</time>
      </trkpt>
      <trkpt lat="45.9442" lon="4.83387">
        <ele>264</ele>
        <time>2018-06-15T08:55:29Z</time>
      </trkpt>
      <trkpt lat="45.94422" lon="4.83394">
        <ele>264</ele>
        <time>2018-06-15T08:55:30Z</time>
      </trkpt>
      <trkpt lat="45.94426" lon="4.834">
        <ele>264</ele>
        <time>2018-06-15T08:55:31Z</time>
      </trkpt>
      <trkpt lat="45.94429" lon="4.83406">
        <ele>264</ele>
        <time>2018-06-15T08:55:32Z</time>
      </trkpt>
      <trkpt lat="45.94432" lon="4.83412">
        <ele>264</ele>
        <time>2018-06-15T08:55:33Z</time>
      </trkpt>
      <trkpt lat="45.94435" lon="4.83418">
        <ele>264</ele>
        <time>2018-06-15T08:55:34Z</time>
      </trkpt>
      <trkpt lat="45.94437" lon="4.83425">
        <ele>264</ele>
        <time>2018-06-15T08:55:35Z</time>
      </trkpt>
      <trkpt lat="45.9444" lon="4.8343">
        <ele>264</ele>
        <time>2018-06-15T08:55:36Z</time>
      </trkpt>
      <trkpt lat="45.94443" lon="4.83436">
        <ele>263</ele>
        <time>2018-06-15T08:55:37Z</time>
      </trkpt>
      <trkpt lat="45.94445" lon="4.83441">
        <ele>263</ele>
        <time>2018-06-15T08:55:38Z</time>
      </trkpt>
      <trkpt lat="45.94449" lon="4.83446">
        <ele>263</ele>
        <time>2018-06-15T08:55:39Z</time>
      </trkpt>
      <trkpt lat="45.94452" lon="4.83453">
        <ele>263</ele>
        <time>2018-06-15T08:55:40Z</time>
      </trkpt>
      <trkpt lat="45.94456" lon="4.83459">
        <ele>263</ele>
        <time>2018-06-15T08:55:41Z</time>
      </trkpt>
      <trkpt lat="45.9446" lon="4.83465">
        <ele>263</ele>
        <time>2018-06-15T08:55:42Z</time>
      </trkpt>
      <trkpt lat="45.94463" lon="4.83471">
        <ele>263</ele>
        <time>2018-06-15T08:55:43Z</time>
      </trkpt>
      <trkpt lat="45.94467" lon="4.83478">
        <ele>263</ele>
        <time>2018-06-15T08:55:44Z</time>
      </trkpt>
      <trkpt lat="45.94471" lon="4.83484">
        <ele>263</ele>
        <time>2018-06-15T08:55:45Z</time>
      </trkpt>
      <trkpt lat="45.94474" lon="4.8349">
        <ele>263</ele>
        <time>2018-06-15T08:55:46Z</time>
      </trkpt>
      <trkpt lat="45.94477" lon="4.83496">
        <ele>263</ele>
        <time>2018-06-15T08:55:47Z</time>
      </trkpt>
      <trkpt lat="45.9448" lon="4.83501">
        <ele>262</ele>
        <time>2018-06-15T08:55:48Z</time>
      </trkpt>
      <trkpt lat="45.94483" lon="4.83506">
        <ele>262</ele>
        <time>2018-06-15T08:55:49Z</time>
      </trkpt>
      <trkpt lat="45.94486" lon="4.83512">
        <ele>262</ele>
        <time>2018-06-15T08:55:50Z</time>
      </trkpt>
      <trkpt lat="45.94491" lon="4.83517">
        <ele>262</ele>
        <time>2018-06-15T08:55:51Z</time>
      </trkpt>
      <trkpt lat="45.94495" lon="4.83523">
        <ele>262</ele>
        <time>2018-06-15T08:55:52Z</time>
      </trkpt>
      <trkpt lat="45.94497" lon="4.83529">
        <ele>262</ele>
        <time>2018-06-15T08:55:53Z</time>
      </trkpt>
      <trkpt lat="45.94501" lon="4.83534">
        <ele>262</ele>
        <time>2018-06-15T08:55:54Z</time>
      </trkpt>
      <trkpt lat="45.94504" lon="4.83542">
        <ele>262</ele>
        <time>2018-06-15T08:55:55Z</time>
      </trkpt>
      <trkpt lat="45.94507" lon="4.83547">
        <ele>261</ele>
        <time>2018-06-15T08:55:56Z</time>
      </trkpt>
      <trkpt lat="45.94511" lon="4.83555">
        <ele>261</ele>
        <time>2018-06-15T08:55:57Z</time>
      </trkpt>
      <trkpt lat="45.94514" lon="4.83562">
        <ele>261</ele>
        <time>2018-06-15T08:55:58Z</time>
      </trkpt>
      <trkpt lat="45.94516" lon="4.83569">
        <ele>261</ele>
        <time>2018-06-15T08:55:59Z</time>
      </trkpt>
      <trkpt lat="45.94519" lon="4.83576">
        <ele>261</ele>
        <time>2018-06-15T08:56:00Z</time>
      </trkpt>
      <trkpt lat="45.94521" lon="4.83583">
        <ele>261</ele>
        <time>2018-06-15T08:56:01Z</time>
      </trkpt>
      <trkpt lat="45.94523" lon="4.83589">
        <ele>261</ele>
        <time>2018-06-15T08:56:02Z</time>
      </trkpt>
      <trkpt lat="45.94525" lon="4.83596">
        <ele>261</ele>
        <time>2018-06-15T08:56:03Z</time>
      </trkpt>
      <trkpt lat="45.94526" lon="4.83603">
        <ele>261</ele>
        <time>2018-06-15T08:56:04Z</time>
      </trkpt>
      <trkpt lat="45.94528" lon="4.8361">
        <ele>261</ele>
        <time>2018-06-15T08:56:05Z</time>
      </trkpt>
      <trkpt lat="45.94528" lon="4.83617">
        <ele>261</ele>
        <time>2018-06-15T08:56:06Z</time>
      </trkpt>
      <trkpt lat="45.9453" lon="4.83624">
        <ele>261</ele>
        <time>2018-06-15T08:56:07Z</time>
      </trkpt>
      <trkpt lat="45.94531" lon="4.83631">
        <ele>261</ele>
        <time>2018-06-15T08:56:08Z</time>
      </trkpt>
      <trkpt lat="45.94532" lon="4.83639">
        <ele>261</ele>
        <time>2018-06-15T08:56:09Z</time>
      </trkpt>
      <trkpt lat="45.94533" lon="4.83647">
        <ele>261</ele>
        <time>2018-06-15T08:56:10Z</time>
      </trkpt>
      <trkpt lat="45.94534" lon="4.83655">
        <ele>261</ele>
        <time>2018-06-15T08:56:11Z</time>
      </trkpt>
      <trkpt lat="45.94535" lon="4.83662">
        <ele>261</ele>
        <time>2018-06-15T08:56:12Z</time>
      </trkpt>
      <trkpt lat="45.94538" lon="4.83674">
        <ele>262</ele>
        <time>2018-06-15T08:56:14Z</time>
      </trkpt>
      <trkpt lat="45.94539" lon="4.83681">
        <ele>262</ele>
        <time>2018-06-15T08:56:15Z</time>
      </trkpt>
      <trkpt lat="45.9454" lon="4.83687">
        <ele>262</ele>
        <time>2018-06-15T08:56:16Z</time>
      </trkpt>
      <trkpt lat="45.9454" lon="4.83694">
        <ele>262</ele>
        <time>2018-06-15T08:56:17Z</time>
      </trkpt>
      <trkpt lat="45.94541" lon="4.837">
        <ele>262</ele>
        <time>2018-06-15T08:56:18Z</time>
      </trkpt>
      <trkpt lat="45.94542" lon="4.83707">
        <ele>262</ele>
        <time>2018-06-15T08:56:19Z</time>
      </trkpt>
      <trkpt lat="45.94544" lon="4.83712">
        <ele>262</ele>
        <time>2018-06-15T08:56:20Z</time>
      </trkpt>
      <trkpt lat="45.94545" lon="4.83719">
        <ele>262</ele>
        <time>2018-06-15T08:56:21Z</time>
      </trkpt>
      <trkpt lat="45.94548" lon="4.83726">
        <ele>262</ele>
        <time>2018-06-15T08:56:22Z</time>
      </trkpt>
      <trkpt lat="45.94549" lon="4.83732">
        <ele>262</ele>
        <time>2018-06-15T08:56:23Z</time>
      </trkpt>
      <trkpt lat="45.94555" lon="4.83736">
        <ele>262</ele>
        <time>2018-06-15T08:56:24Z</time>
      </trkpt>
      <trkpt lat="45.94556" lon="4.83744">
        <ele>262</ele>
        <time>2018-06-15T08:56:25Z</time>
      </trkpt>
      <trkpt lat="45.94555" lon="4.83753">
        <ele>263</ele>
        <time>2018-06-15T08:56:26Z</time>
      </trkpt>
      <trkpt lat="45.94556" lon="4.83761">
        <ele>263</ele>
        <time>2018-06-15T08:56:27Z</time>
      </trkpt>
      <trkpt lat="45.94556" lon="4.83768">
        <ele>263</ele>
        <time>2018-06-15T08:56:28Z</time>
      </trkpt>
      <trkpt lat="45.94557" lon="4.83775">
        <ele>264</ele>
        <time>2018-06-15T08:56:29Z</time>
      </trkpt>
      <trkpt lat="45.94559" lon="4.83782">
        <ele>264</ele>
        <time>2018-06-15T08:56:30Z</time>
      </trkpt>
      <trkpt lat="45.9456" lon="4.83791">
        <ele>264</ele>
        <time>2018-06-15T08:56:31Z</time>
      </trkpt>
      <trkpt lat="45.94561" lon="4.83799">
        <ele>264</ele>
        <time>2018-06-15T08:56:32Z</time>
      </trkpt>
      <trkpt lat="45.94562" lon="4.83806">
        <ele>264</ele>
        <time>2018-06-15T08:56:33Z</time>
      </trkpt>
      <trkpt lat="45.94562" lon="4.83814">
        <ele>264</ele>
        <time>2018-06-15T08:56:34Z</time>
      </trkpt>
      <trkpt lat="45.94563" lon="4.83821">
        <ele>264</ele>
        <time>2018-06-15T08:56:35Z</time>
      </trkpt>
      <trkpt lat="45.94566" lon="4.83826">
        <ele>265</ele>
        <time>2018-06-15T08:56:36Z</time>
      </trkpt>
      <trkpt lat="45.94567" lon="4.83833">
        <ele>265</ele>
        <time>2018-06-15T08:56:37Z</time>
      </trkpt>
      <trkpt lat="45.94569" lon="4.83845">
        <ele>266</ele>
        <time>2018-06-15T08:56:39Z</time>
      </trkpt>
      <trkpt lat="45.9457" lon="4.83852">
        <ele>266</ele>
        <time>2018-06-15T08:56:40Z</time>
      </trkpt>
      <trkpt lat="45.94572" lon="4.83864">
        <ele>267</ele>
        <time>2018-06-15T08:56:42Z</time>
      </trkpt>
      <trkpt lat="45.94572" lon="4.8387">
        <ele>267</ele>
        <time>2018-06-15T08:56:43Z</time>
      </trkpt>
      <trkpt lat="45.94573" lon="4.83883">
        <ele>267</ele>
        <time>2018-06-15T08:56:45Z</time>
      </trkpt>
      <trkpt lat="45.94574" lon="4.83888">
        <ele>267</ele>
        <time>2018-06-15T08:56:46Z</time>
      </trkpt>
      <trkpt lat="45.94576" lon="4.839">
        <ele>268</ele>
        <time>2018-06-15T08:56:48Z</time>
      </trkpt>
      <trkpt lat="45.94577" lon="4.83905">
        <ele>268</ele>
        <time>2018-06-15T08:56:49Z</time>
      </trkpt>
      <trkpt lat="45.94578" lon="4.83917">
        <ele>268</ele>
        <time>2018-06-15T08:56:51Z</time>
      </trkpt>
      <trkpt lat="45.94579" lon="4.83923">
        <ele>268</ele>
        <time>2018-06-15T08:56:52Z</time>
      </trkpt>
      <trkpt lat="45.9458" lon="4.83935">
        <ele>269</ele>
        <time>2018-06-15T08:56:54Z</time>
      </trkpt>
      <trkpt lat="45.94581" lon="4.83941">
        <ele>269</ele>
        <time>2018-06-15T08:56:55Z</time>
      </trkpt>
      <trkpt lat="45.94582" lon="4.83953">
        <ele>269</ele>
        <time>2018-06-15T08:56:58Z</time>
      </trkpt>
      <trkpt lat="45.94583" lon="4.83957">
        <ele>269</ele>
        <time>2018-06-15T08:56:59Z</time>
      </trkpt>
      <trkpt lat="45.94584" lon="4.83961">
        <ele>268</ele>
        <time>2018-06-15T08:57:00Z</time>
      </trkpt>
      <trkpt lat="45.94585" lon="4.83973">
        <ele>268</ele>
        <time>2018-06-15T08:57:01Z</time>
      </trkpt>
      <trkpt lat="45.94587" lon="4.83985">
        <ele>269</ele>
        <time>2018-06-15T08:57:03Z</time>
      </trkpt>
      <trkpt lat="45.94588" lon="4.83991">
        <ele>269</ele>
        <time>2018-06-15T08:57:04Z</time>
      </trkpt>
      <trkpt lat="45.94589" lon="4.83998">
        <ele>269</ele>
        <time>2018-06-15T08:57:05Z</time>
      </trkpt>
      <trkpt lat="45.94591" lon="4.84007">
        <ele>269</ele>
        <time>2018-06-15T08:57:06Z</time>
      </trkpt>
      <trkpt lat="45.94593" lon="4.84013">
        <ele>269</ele>
        <time>2018-06-15T08:57:07Z</time>
      </trkpt>
      <trkpt lat="45.94594" lon="4.8402">
        <ele>269</ele>
        <time>2018-06-15T08:57:08Z</time>
      </trkpt>
      <trkpt lat="45.94595" lon="4.84026">
        <ele>269</ele>
        <time>2018-06-15T08:57:09Z</time>
      </trkpt>
      <trkpt lat="45.94596" lon="4.84033">
        <ele>269</ele>
        <time>2018-06-15T08:57:10Z</time>
      </trkpt>
      <trkpt lat="45.94598" lon="4.84042">
        <ele>269</ele>
        <time>2018-06-15T08:57:11Z</time>
      </trkpt>
      <trkpt lat="45.94599" lon="4.84049">
        <ele>269</ele>
        <time>2018-06-15T08:57:12Z</time>
      </trkpt>
      <trkpt lat="45.946" lon="4.84055">
        <ele>269</ele>
        <time>2018-06-15T08:57:13Z</time>
      </trkpt>
      <trkpt lat="45.94601" lon="4.84062">
        <ele>269</ele>
        <time>2018-06-15T08:57:14Z</time>
      </trkpt>
      <trkpt lat="45.94602" lon="4.84069">
        <ele>269</ele>
        <time>2018-06-15T08:57:15Z</time>
      </trkpt>
      <trkpt lat="45.94603" lon="4.84078">
        <ele>269</ele>
        <time>2018-06-15T08:57:16Z</time>
      </trkpt>
      <trkpt lat="45.94604" lon="4.8409">
        <ele>269</ele>
        <time>2018-06-15T08:57:18Z</time>
      </trkpt>
      <trkpt lat="45.94605" lon="4.84096">
        <ele>269</ele>
        <time>2018-06-15T08:57:19Z</time>
      </trkpt>
      <trkpt lat="45.94606" lon="4.84103">
        <ele>269</ele>
        <time>2018-06-15T08:57:20Z</time>
      </trkpt>
      <trkpt lat="45.94607" lon="4.8411">
        <ele>269</ele>
        <time>2018-06-15T08:57:21Z</time>
      </trkpt>
      <trkpt lat="45.94606" lon="4.84116">
        <ele>269</ele>
        <time>2018-06-15T08:57:22Z</time>
      </trkpt>
      <trkpt lat="45.94616" lon="4.84117">
        <ele>269</ele>
        <time>2018-06-15T08:57:23Z</time>
      </trkpt>
      <trkpt lat="45.94618" lon="4.84122">
        <ele>269</ele>
        <time>2018-06-15T08:57:24Z</time>
      </trkpt>
      <trkpt lat="45.94618" lon="4.84132">
        <ele>269</ele>
        <time>2018-06-15T08:57:25Z</time>
      </trkpt>
      <trkpt lat="45.94618" lon="4.84144">
        <ele>269</ele>
        <time>2018-06-15T08:57:27Z</time>
      </trkpt>
      <trkpt lat="45.94619" lon="4.8415">
        <ele>269</ele>
        <time>2018-06-15T08:57:28Z</time>
      </trkpt>
      <trkpt lat="45.9462" lon="4.84157">
        <ele>269</ele>
        <time>2018-06-15T08:57:29Z</time>
      </trkpt>
      <trkpt lat="45.94618" lon="4.84164">
        <ele>269</ele>
        <time>2018-06-15T08:57:30Z</time>
      </trkpt>
      <trkpt lat="45.94619" lon="4.84172">
        <ele>269</ele>
        <time>2018-06-15T08:57:31Z</time>
      </trkpt>
      <trkpt lat="45.94621" lon="4.84179">
        <ele>269</ele>
        <time>2018-06-15T08:57:32Z</time>
      </trkpt>
      <trkpt lat="45.94619" lon="4.84185">
        <ele>269</ele>
        <time>2018-06-15T08:57:33Z</time>
      </trkpt>
      <trkpt lat="45.94619" lon="4.84192">
        <ele>269</ele>
        <time>2018-06-15T08:57:34Z</time>
      </trkpt>
      <trkpt lat="45.9462" lon="4.84199">
        <ele>269</ele>
        <time>2018-06-15T08:57:35Z</time>
      </trkpt>
      <trkpt lat="45.94621" lon="4.84206">
        <ele>269</ele>
        <time>2018-06-15T08:57:36Z</time>
      </trkpt>
      <trkpt lat="45.94621" lon="4.84212">
        <ele>269</ele>
        <time>2018-06-15T08:57:37Z</time>
      </trkpt>
      <trkpt lat="45.94621" lon="4.84219">
        <ele>269</ele>
        <time>2018-06-15T08:57:38Z</time>
      </trkpt>
      <trkpt lat="45.94626" lon="4.84229">
        <ele>269</ele>
        <time>2018-06-15T08:57:40Z</time>
      </trkpt>
      <trkpt lat="45.94627" lon="4.84234">
        <ele>269</ele>
        <time>2018-06-15T08:57:41Z</time>
      </trkpt>
      <trkpt lat="45.94629" lon="4.84246">
        <ele>269</ele>
        <time>2018-06-15T08:57:43Z</time>
      </trkpt>
      <trkpt lat="45.94629" lon="4.84253">
        <ele>269</ele>
        <time>2018-06-15T08:57:44Z</time>
      </trkpt>
      <trkpt lat="45.94632" lon="4.84264">
        <ele>269</ele>
        <time>2018-06-15T08:57:46Z</time>
      </trkpt>
      <trkpt lat="45.94633" lon="4.84271">
        <ele>269</ele>
        <time>2018-06-15T08:57:47Z</time>
      </trkpt>
      <trkpt lat="45.94634" lon="4.84279">
        <ele>269</ele>
        <time>2018-06-15T08:57:48Z</time>
      </trkpt>
      <trkpt lat="45.94635" lon="4.84287">
        <ele>269</ele>
        <time>2018-06-15T08:57:49Z</time>
      </trkpt>
      <trkpt lat="45.94636" lon="4.84295">
        <ele>269</ele>
        <time>2018-06-15T08:57:50Z</time>
      </trkpt>
      <trkpt lat="45.94637" lon="4.84303">
        <ele>269</ele>
        <time>2018-06-15T08:57:51Z</time>
      </trkpt>
      <trkpt lat="45.94638" lon="4.8431">
        <ele>269</ele>
        <time>2018-06-15T08:57:52Z</time>
      </trkpt>
      <trkpt lat="45.94639" lon="4.84315">
        <ele>269</ele>
        <time>2018-06-15T08:57:53Z</time>
      </trkpt>
      <trkpt lat="45.9464" lon="4.84327">
        <ele>268</ele>
        <time>2018-06-15T08:57:55Z</time>
      </trkpt>
      <trkpt lat="45.94642" lon="4.84333">
        <ele>268</ele>
        <time>2018-06-15T08:57:56Z</time>
      </trkpt>
      <trkpt lat="45.94642" lon="4.84339">
        <ele>268</ele>
        <time>2018-06-15T08:57:57Z</time>
      </trkpt>
      <trkpt lat="45.94644" lon="4.84349">
        <ele>268</ele>
        <time>2018-06-15T08:57:58Z</time>
      </trkpt>
      <trkpt lat="45.94646" lon="4.84356">
        <ele>268</ele>
        <time>2018-06-15T08:57:59Z</time>
      </trkpt>
      <trkpt lat="45.94647" lon="4.84363">
        <ele>268</ele>
        <time>2018-06-15T08:58:00Z</time>
      </trkpt>
      <trkpt lat="45.9465" lon="4.84374">
        <ele>268</ele>
        <time>2018-06-15T08:58:02Z</time>
      </trkpt>
      <trkpt lat="45.9465" lon="4.84381">
        <ele>268</ele>
        <time>2018-06-15T08:58:03Z</time>
      </trkpt>
      <trkpt lat="45.94651" lon="4.84388">
        <ele>268</ele>
        <time>2018-06-15T08:58:04Z</time>
      </trkpt>
      <trkpt lat="45.94655" lon="4.84396">
        <ele>268</ele>
        <time>2018-06-15T08:58:05Z</time>
      </trkpt>
      <trkpt lat="45.94656" lon="4.84403">
        <ele>268</ele>
        <time>2018-06-15T08:58:06Z</time>
      </trkpt>
      <trkpt lat="45.94655" lon="4.84409">
        <ele>268</ele>
        <time>2018-06-15T08:58:07Z</time>
      </trkpt>
      <trkpt lat="45.94655" lon="4.84417">
        <ele>268</ele>
        <time>2018-06-15T08:58:08Z</time>
      </trkpt>
      <trkpt lat="45.94656" lon="4.84424">
        <ele>268</ele>
        <time>2018-06-15T08:58:09Z</time>
      </trkpt>
      <trkpt lat="45.94656" lon="4.84431">
        <ele>268</ele>
        <time>2018-06-15T08:58:10Z</time>
      </trkpt>
      <trkpt lat="45.94657" lon="4.84437">
        <ele>268</ele>
        <time>2018-06-15T08:58:11Z</time>
      </trkpt>
      <trkpt lat="45.94657" lon="4.84444">
        <ele>268</ele>
        <time>2018-06-15T08:58:12Z</time>
      </trkpt>
      <trkpt lat="45.94656" lon="4.84452">
        <ele>268</ele>
        <time>2018-06-15T08:58:13Z</time>
      </trkpt>
      <trkpt lat="45.94656" lon="4.84459">
        <ele>268</ele>
        <time>2018-06-15T08:58:14Z</time>
      </trkpt>
      <trkpt lat="45.94656" lon="4.84465">
        <ele>268</ele>
        <time>2018-06-15T08:58:15Z</time>
      </trkpt>
      <trkpt lat="45.94657" lon="4.84472">
        <ele>268</ele>
        <time>2018-06-15T08:58:16Z</time>
      </trkpt>
      <trkpt lat="45.94658" lon="4.84478">
        <ele>268</ele>
        <time>2018-06-15T08:58:17Z</time>
      </trkpt>
      <trkpt lat="45.94658" lon="4.8449">
        <ele>268</ele>
        <time>2018-06-15T08:58:19Z</time>
      </trkpt>
      <trkpt lat="45.94658" lon="4.84496">
        <ele>268</ele>
        <time>2018-06-15T08:58:20Z</time>
      </trkpt>
      <trkpt lat="45.94658" lon="4.84503">
        <ele>268</ele>
        <time>2018-06-15T08:58:21Z</time>
      </trkpt>
      <trkpt lat="45.94662" lon="4.84511">
        <ele>268</ele>
        <time>2018-06-15T08:58:22Z</time>
      </trkpt>
      <trkpt lat="45.94663" lon="4.84519">
        <ele>268</ele>
        <time>2018-06-15T08:58:23Z</time>
      </trkpt>
      <trkpt lat="45.94665" lon="4.84526">
        <ele>268</ele>
        <time>2018-06-15T08:58:24Z</time>
      </trkpt>
      <trkpt lat="45.94664" lon="4.84534">
        <ele>268</ele>
        <time>2018-06-15T08:58:25Z</time>
      </trkpt>
      <trkpt lat="45.94665" lon="4.84542">
        <ele>268</ele>
        <time>2018-06-15T08:58:26Z</time>
      </trkpt>
      <trkpt lat="45.94665" lon="4.84549">
        <ele>268</ele>
        <time>2018-06-15T08:58:27Z</time>
      </trkpt>
      <trkpt lat="45.94666" lon="4.84557">
        <ele>268</ele>
        <time>2018-06-15T08:58:28Z</time>
      </trkpt>
      <trkpt lat="45.94667" lon="4.84565">
        <ele>268</ele>
        <time>2018-06-15T08:58:29Z</time>
      </trkpt>
      <trkpt lat="45.94667" lon="4.84571">
        <ele>268</ele>
        <time>2018-06-15T08:58:30Z</time>
      </trkpt>
      <trkpt lat="45.94668" lon="4.84578">
        <ele>268</ele>
        <time>2018-06-15T08:58:31Z</time>
      </trkpt>
      <trkpt lat="45.94668" lon="4.84584">
        <ele>268</ele>
        <time>2018-06-15T08:58:32Z</time>
      </trkpt>
      <trkpt lat="45.94668" lon="4.84591">
        <ele>268</ele>
        <time>2018-06-15T08:58:33Z</time>
      </trkpt>
      <trkpt lat="45.94668" lon="4.84599">
        <ele>268</ele>
        <time>2018-06-15T08:58:34Z</time>
      </trkpt>
      <trkpt lat="45.94669" lon="4.84607">
        <ele>268</ele>
        <time>2018-06-15T08:58:35Z</time>
      </trkpt>
      <trkpt lat="45.9467" lon="4.84615">
        <ele>268</ele>
        <time>2018-06-15T08:58:36Z</time>
      </trkpt>
      <trkpt lat="45.9467" lon="4.84622">
        <ele>268</ele>
        <time>2018-06-15T08:58:37Z</time>
      </trkpt>
      <trkpt lat="45.9467" lon="4.8463">
        <ele>268</ele>
        <time>2018-06-15T08:58:38Z</time>
      </trkpt>
      <trkpt lat="45.94671" lon="4.84639">
        <ele>268</ele>
        <time>2018-06-15T08:58:39Z</time>
      </trkpt>
      <trkpt lat="45.9467" lon="4.84646">
        <ele>268</ele>
        <time>2018-06-15T08:58:40Z</time>
      </trkpt>
      <trkpt lat="45.9467" lon="4.84653">
        <ele>268</ele>
        <time>2018-06-15T08:58:41Z</time>
      </trkpt>
      <trkpt lat="45.94671" lon="4.84659">
        <ele>269</ele>
        <time>2018-06-15T08:58:42Z</time>
      </trkpt>
      <trkpt lat="45.94672" lon="4.84666">
        <ele>269</ele>
        <time>2018-06-15T08:58:43Z</time>
      </trkpt>
      <trkpt lat="45.94672" lon="4.84674">
        <ele>269</ele>
        <time>2018-06-15T08:58:44Z</time>
      </trkpt>
      <trkpt lat="45.94673" lon="4.84681">
        <ele>269</ele>
        <time>2018-06-15T08:58:45Z</time>
      </trkpt>
      <trkpt lat="45.94673" lon="4.84687">
        <ele>269</ele>
        <time>2018-06-15T08:58:46Z</time>
      </trkpt>
      <trkpt lat="45.94673" lon="4.847">
        <ele>269</ele>
        <time>2018-06-15T08:58:48Z</time>
      </trkpt>
      <trkpt lat="45.94673" lon="4.84706">
        <ele>269</ele>
        <time>2018-06-15T08:58:49Z</time>
      </trkpt>
      <trkpt lat="45.94674" lon="4.84718">
        <ele>269</ele>
        <time>2018-06-15T08:58:51Z</time>
      </trkpt>
      <trkpt lat="45.94674" lon="4.84725">
        <ele>269</ele>
        <time>2018-06-15T08:58:52Z</time>
      </trkpt>
      <trkpt lat="45.94674" lon="4.84733">
        <ele>269</ele>
        <time>2018-06-15T08:58:53Z</time>
      </trkpt>
      <trkpt lat="45.94674" lon="4.8474">
        <ele>269</ele>
        <time>2018-06-15T08:58:54Z</time>
      </trkpt>
      <trkpt lat="45.94674" lon="4.84746">
        <ele>269</ele>
        <time>2018-06-15T08:58:55Z</time>
      </trkpt>
      <trkpt lat="45.94674" lon="4.84753">
        <ele>269</ele>
        <time>2018-06-15T08:58:56Z</time>
      </trkpt>
      <trkpt lat="45.94673" lon="4.84761">
        <ele>269</ele>
        <time>2018-06-15T08:58:57Z</time>
      </trkpt>
      <trkpt lat="45.94673" lon="4.8477">
        <ele>269</ele>
        <time>2018-06-15T08:58:58Z</time>
      </trkpt>
      <trkpt lat="45.94673" lon="4.84777">
        <ele>269</ele>
        <time>2018-06-15T08:58:59Z</time>
      </trkpt>
      <trkpt lat="45.94674" lon="4.84785">
        <ele>269</ele>
        <time>2018-06-15T08:59:00Z</time>
      </trkpt>
      <trkpt lat="45.94674" lon="4.84792">
        <ele>268</ele>
        <time>2018-06-15T08:59:01Z</time>
      </trkpt>
      <trkpt lat="45.94674" lon="4.84798">
        <ele>268</ele>
        <time>2018-06-15T08:59:02Z</time>
      </trkpt>
      <trkpt lat="45.94675" lon="4.84804">
        <ele>268</ele>
        <time>2018-06-15T08:59:03Z</time>
      </trkpt>
      <trkpt lat="45.94675" lon="4.84811">
        <ele>268</ele>
        <time>2018-06-15T08:59:04Z</time>
      </trkpt>
      <trkpt lat="45.94676" lon="4.84818">
        <ele>268</ele>
        <time>2018-06-15T08:59:05Z</time>
      </trkpt>
      <trkpt lat="45.94677" lon="4.84824">
        <ele>268</ele>
        <time>2018-06-15T08:59:06Z</time>
      </trkpt>
      <trkpt lat="45.94679" lon="4.84831">
        <ele>268</ele>
        <time>2018-06-15T08:59:07Z</time>
      </trkpt>
      <trkpt lat="45.9468" lon="4.84839">
        <ele>268</ele>
        <time>2018-06-15T08:59:08Z</time>
      </trkpt>
      <trkpt lat="45.94681" lon="4.84846">
        <ele>268</ele>
        <time>2018-06-15T08:59:09Z</time>
      </trkpt>
      <trkpt lat="45.94681" lon="4.84852">
        <ele>268</ele>
        <time>2018-06-15T08:59:10Z</time>
      </trkpt>
      <trkpt lat="45.94682" lon="4.84859">
        <ele>268</ele>
        <time>2018-06-15T08:59:11Z</time>
      </trkpt>
      <trkpt lat="45.94682" lon="4.84866">
        <ele>268</ele>
        <time>2018-06-15T08:59:12Z</time>
      </trkpt>
      <trkpt lat="45.94682" lon="4.84873">
        <ele>268</ele>
        <time>2018-06-15T08:59:13Z</time>
      </trkpt>
      <trkpt lat="45.94682" lon="4.84879">
        <ele>268</ele>
        <time>2018-06-15T08:59:14Z</time>
      </trkpt>
      <trkpt lat="45.94683" lon="4.84887">
        <ele>268</ele>
        <time>2018-06-15T08:59:15Z</time>
      </trkpt>
      <trkpt lat="45.94686" lon="4.84897">
        <ele>268</ele>
        <time>2018-06-15T08:59:16Z</time>
      </trkpt>
      <trkpt lat="45.94687" lon="4.84904">
        <ele>269</ele>
        <time>2018-06-15T08:59:17Z</time>
      </trkpt>
      <trkpt lat="45.94687" lon="4.84911">
        <ele>269</ele>
        <time>2018-06-15T08:59:18Z</time>
      </trkpt>
      <trkpt lat="45.94688" lon="4.84918">
        <ele>269</ele>
        <time>2018-06-15T08:59:19Z</time>
      </trkpt>
      <trkpt lat="45.9469" lon="4.84925">
        <ele>269</ele>
        <time>2018-06-15T08:59:20Z</time>
      </trkpt>
      <trkpt lat="45.9469" lon="4.84933">
        <ele>269</ele>
        <time>2018-06-15T08:59:21Z</time>
      </trkpt>
      <trkpt lat="45.9469" lon="4.8494">
        <ele>269</ele>
        <time>2018-06-15T08:59:22Z</time>
      </trkpt>
      <trkpt lat="45.94691" lon="4.84948">
        <ele>269</ele>
        <time>2018-06-15T08:59:23Z</time>
      </trkpt>
      <trkpt lat="45.94692" lon="4.84955">
        <ele>269</ele>
        <time>2018-06-15T08:59:24Z</time>
      </trkpt>
      <trkpt lat="45.94693" lon="4.84961">
        <ele>269</ele>
        <time>2018-06-15T08:59:25Z</time>
      </trkpt>
      <trkpt lat="45.94693" lon="4.84968">
        <ele>269</ele>
        <time>2018-06-15T08:59:26Z</time>
      </trkpt>
      <trkpt lat="45.94694" lon="4.84975">
        <ele>269</ele>
        <time>2018-06-15T08:59:27Z</time>
      </trkpt>
      <trkpt lat="45.94696" lon="4.84981">
        <ele>269</ele>
        <time>2018-06-15T08:59:28Z</time>
      </trkpt>
      <trkpt lat="45.94696" lon="4.8499">
        <ele>269</ele>
        <time>2018-06-15T08:59:29Z</time>
      </trkpt>
      <trkpt lat="45.94697" lon="4.84997">
        <ele>269</ele>
        <time>2018-06-15T08:59:30Z</time>
      </trkpt>
      <trkpt lat="45.94697" lon="4.85004">
        <ele>269</ele>
        <time>2018-06-15T08:59:31Z</time>
      </trkpt>
      <trkpt lat="45.94697" lon="4.85012">
        <ele>269</ele>
        <time>2018-06-15T08:59:32Z</time>
      </trkpt>
      <trkpt lat="45.94698" lon="4.8502">
        <ele>269</ele>
        <time>2018-06-15T08:59:33Z</time>
      </trkpt>
      <trkpt lat="45.94697" lon="4.85026">
        <ele>269</ele>
        <time>2018-06-15T08:59:34Z</time>
      </trkpt>
      <trkpt lat="45.947" lon="4.85033">
        <ele>269</ele>
        <time>2018-06-15T08:59:35Z</time>
      </trkpt>
      <trkpt lat="45.947" lon="4.85041">
        <ele>269</ele>
        <time>2018-06-15T08:59:36Z</time>
      </trkpt>
      <trkpt lat="45.94702" lon="4.85049">
        <ele>269</ele>
        <time>2018-06-15T08:59:37Z</time>
      </trkpt>
      <trkpt lat="45.94703" lon="4.85057">
        <ele>269</ele>
        <time>2018-06-15T08:59:38Z</time>
      </trkpt>
      <trkpt lat="45.94704" lon="4.85064">
        <ele>269</ele>
        <time>2018-06-15T08:59:39Z</time>
      </trkpt>
      <trkpt lat="45.94705" lon="4.8507">
        <ele>269</ele>
        <time>2018-06-15T08:59:40Z</time>
      </trkpt>
      <trkpt lat="45.94706" lon="4.85078">
        <ele>269</ele>
        <time>2018-06-15T08:59:41Z</time>
      </trkpt>
      <trkpt lat="45.94707" lon="4.85085">
        <ele>269</ele>
        <time>2018-06-15T08:59:42Z</time>
      </trkpt>
      <trkpt lat="45.94707" lon="4.85092">
        <ele>269</ele>
        <time>2018-06-15T08:59:43Z</time>
      </trkpt>
      <trkpt lat="45.94709" lon="4.851">
        <ele>269</ele>
        <time>2018-06-15T08:59:44Z</time>
      </trkpt>
      <trkpt lat="45.9471" lon="4.85109">
        <ele>269</ele>
        <time>2018-06-15T08:59:45Z</time>
      </trkpt>
      <trkpt lat="45.94711" lon="4.85116">
        <ele>269</ele>
        <time>2018-06-15T08:59:46Z</time>
      </trkpt>
      <trkpt lat="45.94712" lon="4.85123">
        <ele>269</ele>
        <time>2018-06-15T08:59:47Z</time>
      </trkpt>
      <trkpt lat="45.94712" lon="4.8513">
        <ele>269</ele>
        <time>2018-06-15T08:59:48Z</time>
      </trkpt>
      <trkpt lat="45.94713" lon="4.85137">
        <ele>269</ele>
        <time>2018-06-15T08:59:49Z</time>
      </trkpt>
      <trkpt lat="45.94712" lon="4.85145">
        <ele>269</ele>
        <time>2018-06-15T08:59:50Z</time>
      </trkpt>
      <trkpt lat="45.94716" lon="4.85155">
        <ele>269</ele>
        <time>2018-06-15T08:59:52Z</time>
      </trkpt>
      <trkpt lat="45.94717" lon="4.85162">
        <ele>269</ele>
        <time>2018-06-15T08:59:53Z</time>
      </trkpt>
      <trkpt lat="45.94717" lon="4.85169">
        <ele>269</ele>
        <time>2018-06-15T08:59:54Z</time>
      </trkpt>
      <trkpt lat="45.94718" lon="4.85176">
        <ele>269</ele>
        <time>2018-06-15T08:59:55Z</time>
      </trkpt>
      <trkpt lat="45.94717" lon="4.85181">
        <ele>269</ele>
        <time>2018-06-15T08:59:56Z</time>
      </trkpt>
      <trkpt lat="45.94719" lon="4.85189">
        <ele>269</ele>
        <time>2018-06-15T08:59:57Z</time>
      </trkpt>
      <trkpt lat="45.9472" lon="4.85196">
        <ele>269</ele>
        <time>2018-06-15T08:59:58Z</time>
      </trkpt>
      <trkpt lat="45.9472" lon="4.85203">
        <ele>269</ele>
        <time>2018-06-15T08:59:59Z</time>
      </trkpt>
      <trkpt lat="45.94722" lon="4.85217">
        <ele>269</ele>
        <time>2018-06-15T09:00:01Z</time>
      </trkpt>
      <trkpt lat="45.94724" lon="4.85224">
        <ele>269</ele>
        <time>2018-06-15T09:00:02Z</time>
      </trkpt>
      <trkpt lat="45.94725" lon="4.85232">
        <ele>269</ele>
        <time>2018-06-15T09:00:03Z</time>
      </trkpt>
      <trkpt lat="45.94725" lon="4.85239">
        <ele>269</ele>
        <time>2018-06-15T09:00:04Z</time>
      </trkpt>
      <trkpt lat="45.94726" lon="4.85246">
        <ele>269</ele>
        <time>2018-06-15T09:00:05Z</time>
      </trkpt>
      <trkpt lat="45.94729" lon="4.85253">
        <ele>269</ele>
        <time>2018-06-15T09:00:06Z</time>
      </trkpt>
      <trkpt lat="45.9473" lon="4.85261">
        <ele>269</ele>
        <time>2018-06-15T09:00:07Z</time>
      </trkpt>
      <trkpt lat="45.94729" lon="4.85269">
        <ele>269</ele>
        <time>2018-06-15T09:00:08Z</time>
      </trkpt>
      <trkpt lat="45.94731" lon="4.85276">
        <ele>269</ele>
        <time>2018-06-15T09:00:09Z</time>
      </trkpt>
      <trkpt lat="45.9473" lon="4.85286">
        <ele>269</ele>
        <time>2018-06-15T09:00:10Z</time>
      </trkpt>
      <trkpt lat="45.94733" lon="4.85293">
        <ele>270</ele>
        <time>2018-06-15T09:00:11Z</time>
      </trkpt>
      <trkpt lat="45.94732" lon="4.853">
        <ele>270</ele>
        <time>2018-06-15T09:00:12Z</time>
      </trkpt>
      <trkpt lat="45.94733" lon="4.8531">
        <ele>270</ele>
        <time>2018-06-15T09:00:13Z</time>
      </trkpt>
      <trkpt lat="45.94735" lon="4.85318">
        <ele>270</ele>
        <time>2018-06-15T09:00:14Z</time>
      </trkpt>
      <trkpt lat="45.94737" lon="4.85322">
        <ele>270</ele>
        <time>2018-06-15T09:00:15Z</time>
      </trkpt>
      <trkpt lat="45.94738" lon="4.85329">
        <ele>270</ele>
        <time>2018-06-15T09:00:16Z</time>
      </trkpt>
      <trkpt lat="45.94737" lon="4.85335">
        <ele>270</ele>
        <time>2018-06-15T09:00:17Z</time>
      </trkpt>
      <trkpt lat="45.94739" lon="4.85345">
        <ele>271</ele>
        <time>2018-06-15T09:00:19Z</time>
      </trkpt>
      <trkpt lat="45.9474" lon="4.85353">
        <ele>271</ele>
        <time>2018-06-15T09:00:20Z</time>
      </trkpt>
      <trkpt lat="45.9474" lon="4.8536">
        <ele>271</ele>
        <time>2018-06-15T09:00:21Z</time>
      </trkpt>
      <trkpt lat="45.9474" lon="4.85367">
        <ele>271</ele>
        <time>2018-06-15T09:00:22Z</time>
      </trkpt>
      <trkpt lat="45.9474" lon="4.85374">
        <ele>271</ele>
        <time>2018-06-15T09:00:23Z</time>
      </trkpt>
      <trkpt lat="45.94741" lon="4.85381">
        <ele>271</ele>
        <time>2018-06-15T09:00:24Z</time>
      </trkpt>
      <trkpt lat="45.94741" lon="4.85389">
        <ele>272</ele>
        <time>2018-06-15T09:00:25Z</time>
      </trkpt>
      <trkpt lat="45.94741" lon="4.85397">
        <ele>272</ele>
        <time>2018-06-15T09:00:26Z</time>
      </trkpt>
      <trkpt lat="45.94743" lon="4.85404">
        <ele>272</ele>
        <time>2018-06-15T09:00:27Z</time>
      </trkpt>
      <trkpt lat="45.94744" lon="4.85411">
        <ele>272</ele>
        <time>2018-06-15T09:00:28Z</time>
      </trkpt>
      <trkpt lat="45.94744" lon="4.85423">
        <ele>273</ele>
        <time>2018-06-15T09:00:30Z</time>
      </trkpt>
      <trkpt lat="45.94745" lon="4.85429">
        <ele>273</ele>
        <time>2018-06-15T09:00:31Z</time>
      </trkpt>
      <trkpt lat="45.94746" lon="4.85441">
        <ele>274</ele>
        <time>2018-06-15T09:00:33Z</time>
      </trkpt>
      <trkpt lat="45.94743" lon="4.85448">
        <ele>274</ele>
        <time>2018-06-15T09:00:34Z</time>
      </trkpt>
      <trkpt lat="45.94744" lon="4.85459">
        <ele>274</ele>
        <time>2018-06-15T09:00:36Z</time>
      </trkpt>
      <trkpt lat="45.94745" lon="4.85464">
        <ele>274</ele>
        <time>2018-06-15T09:00:37Z</time>
      </trkpt>
      <trkpt lat="45.94748" lon="4.85475">
        <ele>275</ele>
        <time>2018-06-15T09:00:39Z</time>
      </trkpt>
      <trkpt lat="45.94748" lon="4.8548">
        <ele>275</ele>
        <time>2018-06-15T09:00:40Z</time>
      </trkpt>
      <trkpt lat="45.94749" lon="4.85491">
        <ele>275</ele>
        <time>2018-06-15T09:00:43Z</time>
      </trkpt>
      <trkpt lat="45.9475" lon="4.85495">
        <ele>276</ele>
        <time>2018-06-15T09:00:44Z</time>
      </trkpt>
      <trkpt lat="45.94751" lon="4.85504">
        <ele>276</ele>
        <time>2018-06-15T09:00:46Z</time>
      </trkpt>
      <trkpt lat="45.94752" lon="4.85509">
        <ele>277</ele>
        <time>2018-06-15T09:00:47Z</time>
      </trkpt>
      <trkpt lat="45.94753" lon="4.85517">
        <ele>277</ele>
        <time>2018-06-15T09:00:49Z</time>
      </trkpt>
      <trkpt lat="45.94754" lon="4.85521">
        <ele>277</ele>
        <time>2018-06-15T09:00:50Z</time>
      </trkpt>
      <trkpt lat="45.94755" lon="4.85531">
        <ele>278</ele>
        <time>2018-06-15T09:00:52Z</time>
      </trkpt>
      <trkpt lat="45.94756" lon="4.85535">
        <ele>278</ele>
        <time>2018-06-15T09:00:53Z</time>
      </trkpt>
      <trkpt lat="45.94758" lon="4.85545">
        <ele>278</ele>
        <time>2018-06-15T09:00:55Z</time>
      </trkpt>
      <trkpt lat="45.94759" lon="4.85549">
        <ele>278</ele>
        <time>2018-06-15T09:00:56Z</time>
      </trkpt>
      <trkpt lat="45.9476" lon="4.85558">
        <ele>278</ele>
        <time>2018-06-15T09:00:58Z</time>
      </trkpt>
      <trkpt lat="45.94761" lon="4.85562">
        <ele>278</ele>
        <time>2018-06-15T09:00:59Z</time>
      </trkpt>
      <trkpt lat="45.94763" lon="4.85571">
        <ele>279</ele>
        <time>2018-06-15T09:01:01Z</time>
      </trkpt>
      <trkpt lat="45.94763" lon="4.85576">
        <ele>279</ele>
        <time>2018-06-15T09:01:02Z</time>
      </trkpt>
      <trkpt lat="45.94765" lon="4.85585">
        <ele>280</ele>
        <time>2018-06-15T09:01:04Z</time>
      </trkpt>
      <trkpt lat="45.94766" lon="4.85589">
        <ele>280</ele>
        <time>2018-06-15T09:01:05Z</time>
      </trkpt>
      <trkpt lat="45.94768" lon="4.85599">
        <ele>280</ele>
        <time>2018-06-15T09:01:07Z</time>
      </trkpt>
      <trkpt lat="45.94769" lon="4.85604">
        <ele>280</ele>
        <time>2018-06-15T09:01:08Z</time>
      </trkpt>
      <trkpt lat="45.94772" lon="4.85615">
        <ele>280</ele>
        <time>2018-06-15T09:01:09Z</time>
      </trkpt>
      <trkpt lat="45.94773" lon="4.8562">
        <ele>280</ele>
        <time>2018-06-15T09:01:10Z</time>
      </trkpt>
      <trkpt lat="45.94776" lon="4.8563">
        <ele>280</ele>
        <time>2018-06-15T09:01:12Z</time>
      </trkpt>
      <trkpt lat="45.94777" lon="4.85635">
        <ele>281</ele>
        <time>2018-06-15T09:01:13Z</time>
      </trkpt>
      <trkpt lat="45.94779" lon="4.85645">
        <ele>281</ele>
        <time>2018-06-15T09:01:15Z</time>
      </trkpt>
      <trkpt lat="45.94781" lon="4.8565">
        <ele>281</ele>
        <time>2018-06-15T09:01:16Z</time>
      </trkpt>
      <trkpt lat="45.94783" lon="4.85661">
        <ele>281</ele>
        <time>2018-06-15T09:01:18Z</time>
      </trkpt>
      <trkpt lat="45.94784" lon="4.85666">
        <ele>281</ele>
        <time>2018-06-15T09:01:19Z</time>
      </trkpt>
      <trkpt lat="45.94787" lon="4.85676">
        <ele>280</ele>
        <time>2018-06-15T09:01:21Z</time>
      </trkpt>
      <trkpt lat="45.94788" lon="4.85682">
        <ele>280</ele>
        <time>2018-06-15T09:01:22Z</time>
      </trkpt>
      <trkpt lat="45.94791" lon="4.85692">
        <ele>280</ele>
        <time>2018-06-15T09:01:24Z</time>
      </trkpt>
      <trkpt lat="45.94792" lon="4.85698">
        <ele>280</ele>
        <time>2018-06-15T09:01:25Z</time>
      </trkpt>
      <trkpt lat="45.94794" lon="4.85708">
        <ele>280</ele>
        <time>2018-06-15T09:01:27Z</time>
      </trkpt>
      <trkpt lat="45.94796" lon="4.85714">
        <ele>280</ele>
        <time>2018-06-15T09:01:28Z</time>
      </trkpt>
      <trkpt lat="45.94798" lon="4.85726">
        <ele>280</ele>
        <time>2018-06-15T09:01:30Z</time>
      </trkpt>
      <trkpt lat="45.948" lon="4.85732">
        <ele>280</ele>
        <time>2018-06-15T09:01:31Z</time>
      </trkpt>
      <trkpt lat="45.94801" lon="4.85738">
        <ele>280</ele>
        <time>2018-06-15T09:01:32Z</time>
      </trkpt>
      <trkpt lat="45.94803" lon="4.85744">
        <ele>279</ele>
        <time>2018-06-15T09:01:33Z</time>
      </trkpt>
      <trkpt lat="45.94805" lon="4.85751">
        <ele>278</ele>
        <time>2018-06-15T09:01:34Z</time>
      </trkpt>
      <trkpt lat="45.94807" lon="4.85758">
        <ele>278</ele>
        <time>2018-06-15T09:01:35Z</time>
      </trkpt>
      <trkpt lat="45.94807" lon="4.85765">
        <ele>278</ele>
        <time>2018-06-15T09:01:36Z</time>
      </trkpt>
      <trkpt lat="45.9481" lon="4.85771">
        <ele>278</ele>
        <time>2018-06-15T09:01:37Z</time>
      </trkpt>
      <trkpt lat="45.94811" lon="4.85778">
        <ele>278</ele>
        <time>2018-06-15T09:01:38Z</time>
      </trkpt>
      <trkpt lat="45.94812" lon="4.85785">
        <ele>278</ele>
        <time>2018-06-15T09:01:39Z</time>
      </trkpt>
      <trkpt lat="45.94819" lon="4.85789">
        <ele>278</ele>
        <time>2018-06-15T09:01:40Z</time>
      </trkpt>
      <trkpt lat="45.94821" lon="4.85798">
        <ele>278</ele>
        <time>2018-06-15T09:01:41Z</time>
      </trkpt>
      <trkpt lat="45.94823" lon="4.85805">
        <ele>278</ele>
        <time>2018-06-15T09:01:42Z</time>
      </trkpt>
      <trkpt lat="45.94825" lon="4.85813">
        <ele>278</ele>
        <time>2018-06-15T09:01:43Z</time>
      </trkpt>
      <trkpt lat="45.94828" lon="4.85822">
        <ele>277</ele>
        <time>2018-06-15T09:01:44Z</time>
      </trkpt>
      <trkpt lat="45.9483" lon="4.85829">
        <ele>277</ele>
        <time>2018-06-15T09:01:45Z</time>
      </trkpt>
      <trkpt lat="45.94832" lon="4.85836">
        <ele>277</ele>
        <time>2018-06-15T09:01:46Z</time>
      </trkpt>
      <trkpt lat="45.94834" lon="4.85844">
        <ele>277</ele>
        <time>2018-06-15T09:01:47Z</time>
      </trkpt>
      <trkpt lat="45.94836" lon="4.85851">
        <ele>276</ele>
        <time>2018-06-15T09:01:48Z</time>
      </trkpt>
      <trkpt lat="45.94838" lon="4.85859">
        <ele>276</ele>
        <time>2018-06-15T09:01:49Z</time>
      </trkpt>
      <trkpt lat="45.94839" lon="4.85866">
        <ele>276</ele>
        <time>2018-06-15T09:01:50Z</time>
      </trkpt>
      <trkpt lat="45.9484" lon="4.85873">
        <ele>276</ele>
        <time>2018-06-15T09:01:51Z</time>
      </trkpt>
      <trkpt lat="45.94843" lon="4.85881">
        <ele>276</ele>
        <time>2018-06-15T09:01:52Z</time>
      </trkpt>
      <trkpt lat="45.94844" lon="4.85889">
        <ele>276</ele>
        <time>2018-06-15T09:01:53Z</time>
      </trkpt>
      <trkpt lat="45.94846" lon="4.85896">
        <ele>276</ele>
        <time>2018-06-15T09:01:54Z</time>
      </trkpt>
      <trkpt lat="45.94851" lon="4.85902">
        <ele>276</ele>
        <time>2018-06-15T09:01:55Z</time>
      </trkpt>
      <trkpt lat="45.94852" lon="4.85912">
        <ele>275</ele>
        <time>2018-06-15T09:01:56Z</time>
      </trkpt>
      <trkpt lat="45.94854" lon="4.85919">
        <ele>275</ele>
        <time>2018-06-15T09:01:57Z</time>
      </trkpt>
      <trkpt lat="45.94856" lon="4.85927">
        <ele>275</ele>
        <time>2018-06-15T09:01:58Z</time>
      </trkpt>
      <trkpt lat="45.94859" lon="4.85934">
        <ele>275</ele>
        <time>2018-06-15T09:01:59Z</time>
      </trkpt>
      <trkpt lat="45.94861" lon="4.85942">
        <ele>275</ele>
        <time>2018-06-15T09:02:00Z</time>
      </trkpt>
      <trkpt lat="45.94863" lon="4.85948">
        <ele>275</ele>
        <time>2018-06-15T09:02:01Z</time>
      </trkpt>
      <trkpt lat="45.94866" lon="4.85955">
        <ele>275</ele>
        <time>2018-06-15T09:02:02Z</time>
      </trkpt>
      <trkpt lat="45.94869" lon="4.85962">
        <ele>275</ele>
        <time>2018-06-15T09:02:03Z</time>
      </trkpt>
      <trkpt lat="45.94873" lon="4.85968">
        <ele>275</ele>
        <time>2018-06-15T09:02:04Z</time>
      </trkpt>
      <trkpt lat="45.94875" lon="4.85975">
        <ele>275</ele>
        <time>2018-06-15T09:02:05Z</time>
      </trkpt>
      <trkpt lat="45.94876" lon="4.85982">
        <ele>275</ele>
        <time>2018-06-15T09:02:06Z</time>
      </trkpt>
      <trkpt lat="45.94877" lon="4.85988">
        <ele>275</ele>
        <time>2018-06-15T09:02:07Z</time>
      </trkpt>
      <trkpt lat="45.94877" lon="4.85998">
        <ele>275</ele>
        <time>2018-06-15T09:02:09Z</time>
      </trkpt>
      <trkpt lat="45.94874" lon="4.86013">
        <ele>274</ele>
        <time>2018-06-15T09:02:10Z</time>
      </trkpt>
      <trkpt lat="45.94875" lon="4.86019">
        <ele>274</ele>
        <time>2018-06-15T09:02:11Z</time>
      </trkpt>
      <trkpt lat="45.94878" lon="4.86026">
        <ele>274</ele>
        <time>2018-06-15T09:02:12Z</time>
      </trkpt>
      <trkpt lat="45.9488" lon="4.86033">
        <ele>274</ele>
        <time>2018-06-15T09:02:13Z</time>
      </trkpt>
      <trkpt lat="45.94882" lon="4.8604">
        <ele>274</ele>
        <time>2018-06-15T09:02:14Z</time>
      </trkpt>
      <trkpt lat="45.94883" lon="4.86047">
        <ele>274</ele>
        <time>2018-06-15T09:02:15Z</time>
      </trkpt>
      <trkpt lat="45.94886" lon="4.86056">
        <ele>274</ele>
        <time>2018-06-15T09:02:16Z</time>
      </trkpt>
      <trkpt lat="45.94888" lon="4.86064">
        <ele>274</ele>
        <time>2018-06-15T09:02:17Z</time>
      </trkpt>
      <trkpt lat="45.9489" lon="4.86072">
        <ele>274</ele>
        <time>2018-06-15T09:02:18Z</time>
      </trkpt>
      <trkpt lat="45.94892" lon="4.8608">
        <ele>274</ele>
        <time>2018-06-15T09:02:19Z</time>
      </trkpt>
      <trkpt lat="45.94896" lon="4.86088">
        <ele>274</ele>
        <time>2018-06-15T09:02:20Z</time>
      </trkpt>
      <trkpt lat="45.94899" lon="4.86096">
        <ele>274</ele>
        <time>2018-06-15T09:02:21Z</time>
      </trkpt>
      <trkpt lat="45.94901" lon="4.86102">
        <ele>274</ele>
        <time>2018-06-15T09:02:22Z</time>
      </trkpt>
      <trkpt lat="45.94903" lon="4.8611">
        <ele>274</ele>
        <time>2018-06-15T09:02:23Z</time>
      </trkpt>
      <trkpt lat="45.94906" lon="4.86118">
        <ele>274</ele>
        <time>2018-06-15T09:02:24Z</time>
      </trkpt>
      <trkpt lat="45.94909" lon="4.86125">
        <ele>274</ele>
        <time>2018-06-15T09:02:25Z</time>
      </trkpt>
      <trkpt lat="45.94919" lon="4.86127">
        <ele>273</ele>
        <time>2018-06-15T09:02:26Z</time>
      </trkpt>
      <trkpt lat="45.94923" lon="4.86133">
        <ele>273</ele>
        <time>2018-06-15T09:02:27Z</time>
      </trkpt>
      <trkpt lat="45.94927" lon="4.86139">
        <ele>273</ele>
        <time>2018-06-15T09:02:28Z</time>
      </trkpt>
      <trkpt lat="45.94931" lon="4.86145">
        <ele>273</ele>
        <time>2018-06-15T09:02:29Z</time>
      </trkpt>
      <trkpt lat="45.94935" lon="4.86151">
        <ele>273</ele>
        <time>2018-06-15T09:02:30Z</time>
      </trkpt>
      <trkpt lat="45.94939" lon="4.86157">
        <ele>273</ele>
        <time>2018-06-15T09:02:31Z</time>
      </trkpt>
      <trkpt lat="45.94943" lon="4.86163">
        <ele>273</ele>
        <time>2018-06-15T09:02:32Z</time>
      </trkpt>
      <trkpt lat="45.94946" lon="4.86168">
        <ele>273</ele>
        <time>2018-06-15T09:02:33Z</time>
      </trkpt>
      <trkpt lat="45.9495" lon="4.86174">
        <ele>273</ele>
        <time>2018-06-15T09:02:34Z</time>
      </trkpt>
      <trkpt lat="45.94955" lon="4.86184">
        <ele>273</ele>
        <time>2018-06-15T09:02:36Z</time>
      </trkpt>
      <trkpt lat="45.9496" lon="4.8619">
        <ele>272</ele>
        <time>2018-06-15T09:02:37Z</time>
      </trkpt>
      <trkpt lat="45.94964" lon="4.86195">
        <ele>272</ele>
        <time>2018-06-15T09:02:38Z</time>
      </trkpt>
      <trkpt lat="45.94969" lon="4.86202">
        <ele>272</ele>
        <time>2018-06-15T09:02:39Z</time>
      </trkpt>
      <trkpt lat="45.94973" lon="4.86207">
        <ele>272</ele>
        <time>2018-06-15T09:02:40Z</time>
      </trkpt>
      <trkpt lat="45.94977" lon="4.86213">
        <ele>272</ele>
        <time>2018-06-15T09:02:41Z</time>
      </trkpt>
      <trkpt lat="45.94982" lon="4.86218">
        <ele>272</ele>
        <time>2018-06-15T09:02:42Z</time>
      </trkpt>
      <trkpt lat="45.94987" lon="4.86226">
        <ele>272</ele>
        <time>2018-06-15T09:02:43Z</time>
      </trkpt>
      <trkpt lat="45.94991" lon="4.86232">
        <ele>272</ele>
        <time>2018-06-15T09:02:44Z</time>
      </trkpt>
      <trkpt lat="45.94996" lon="4.86237">
        <ele>272</ele>
        <time>2018-06-15T09:02:45Z</time>
      </trkpt>
      <trkpt lat="45.94999" lon="4.86242">
        <ele>272</ele>
        <time>2018-06-15T09:02:46Z</time>
      </trkpt>
      <trkpt lat="45.95004" lon="4.86247">
        <ele>272</ele>
        <time>2018-06-15T09:02:47Z</time>
      </trkpt>
      <trkpt lat="45.95009" lon="4.86254">
        <ele>272</ele>
        <time>2018-06-15T09:02:48Z</time>
      </trkpt>
      <trkpt lat="45.95014" lon="4.8626">
        <ele>272</ele>
        <time>2018-06-15T09:02:49Z</time>
      </trkpt>
      <trkpt lat="45.95018" lon="4.86265">
        <ele>271</ele>
        <time>2018-06-15T09:02:50Z</time>
      </trkpt>
      <trkpt lat="45.95023" lon="4.8627">
        <ele>271</ele>
        <time>2018-06-15T09:02:51Z</time>
      </trkpt>
      <trkpt lat="45.95028" lon="4.86276">
        <ele>271</ele>
        <time>2018-06-15T09:02:52Z</time>
      </trkpt>
      <trkpt lat="45.95032" lon="4.86282">
        <ele>271</ele>
        <time>2018-06-15T09:02:53Z</time>
      </trkpt>
      <trkpt lat="45.95037" lon="4.86287">
        <ele>271</ele>
        <time>2018-06-15T09:02:54Z</time>
      </trkpt>
      <trkpt lat="45.9504" lon="4.86293">
        <ele>271</ele>
        <time>2018-06-15T09:02:55Z</time>
      </trkpt>
      <trkpt lat="45.95045" lon="4.86298">
        <ele>271</ele>
        <time>2018-06-15T09:02:56Z</time>
      </trkpt>
      <trkpt lat="45.9505" lon="4.86305">
        <ele>271</ele>
        <time>2018-06-15T09:02:57Z</time>
      </trkpt>
      <trkpt lat="45.95054" lon="4.86312">
        <ele>271</ele>
        <time>2018-06-15T09:02:58Z</time>
      </trkpt>
      <trkpt lat="45.9506" lon="4.86317">
        <ele>270</ele>
        <time>2018-06-15T09:02:59Z</time>
      </trkpt>
      <trkpt lat="45.95065" lon="4.86323">
        <ele>270</ele>
        <time>2018-06-15T09:03:00Z</time>
      </trkpt>
      <trkpt lat="45.9507" lon="4.86329">
        <ele>270</ele>
        <time>2018-06-15T09:03:01Z</time>
      </trkpt>
      <trkpt lat="45.95075" lon="4.86336">
        <ele>270</ele>
        <time>2018-06-15T09:03:02Z</time>
      </trkpt>
      <trkpt lat="45.95079" lon="4.86343">
        <ele>270</ele>
        <time>2018-06-15T09:03:03Z</time>
      </trkpt>
      <trkpt lat="45.95085" lon="4.86349">
        <ele>269</ele>
        <time>2018-06-15T09:03:04Z</time>
      </trkpt>
      <trkpt lat="45.9509" lon="4.86356">
        <ele>269</ele>
        <time>2018-06-15T09:03:05Z</time>
      </trkpt>
      <trkpt lat="45.95095" lon="4.86362">
        <ele>269</ele>
        <time>2018-06-15T09:03:06Z</time>
      </trkpt>
      <trkpt lat="45.951" lon="4.86367">
        <ele>269</ele>
        <time>2018-06-15T09:03:07Z</time>
      </trkpt>
      <trkpt lat="45.95105" lon="4.86373">
        <ele>269</ele>
        <time>2018-06-15T09:03:08Z</time>
      </trkpt>
      <trkpt lat="45.95109" lon="4.86379">
        <ele>269</ele>
        <time>2018-06-15T09:03:09Z</time>
      </trkpt>
      <trkpt lat="45.95114" lon="4.86385">
        <ele>269</ele>
        <time>2018-06-15T09:03:10Z</time>
      </trkpt>
      <trkpt lat="45.95119" lon="4.8639">
        <ele>269</ele>
        <time>2018-06-15T09:03:11Z</time>
      </trkpt>
      <trkpt lat="45.95123" lon="4.86396">
        <ele>269</ele>
        <time>2018-06-15T09:03:12Z</time>
      </trkpt>
      <trkpt lat="45.95128" lon="4.86402">
        <ele>268</ele>
        <time>2018-06-15T09:03:13Z</time>
      </trkpt>
      <trkpt lat="45.95132" lon="4.86407">
        <ele>268</ele>
        <time>2018-06-15T09:03:14Z</time>
      </trkpt>
      <trkpt lat="45.95136" lon="4.86412">
        <ele>268</ele>
        <time>2018-06-15T09:03:15Z</time>
      </trkpt>
      <trkpt lat="45.95139" lon="4.86416">
        <ele>268</ele>
        <time>2018-06-15T09:03:16Z</time>
      </trkpt>
      <trkpt lat="45.95144" lon="4.86421">
        <ele>268</ele>
        <time>2018-06-15T09:03:17Z</time>
      </trkpt>
      <trkpt lat="45.95147" lon="4.86425">
        <ele>268</ele>
        <time>2018-06-15T09:03:18Z</time>
      </trkpt>
      <trkpt lat="45.95151" lon="4.8643">
        <ele>268</ele>
        <time>2018-06-15T09:03:19Z</time>
      </trkpt>
      <trkpt lat="45.95157" lon="4.86438">
        <ele>268</ele>
        <time>2018-06-15T09:03:21Z</time>
      </trkpt>
      <trkpt lat="45.95161" lon="4.86443">
        <ele>268</ele>
        <time>2018-06-15T09:03:22Z</time>
      </trkpt>
      <trkpt lat="45.95165" lon="4.86449">
        <ele>269</ele>
        <time>2018-06-15T09:03:23Z</time>
      </trkpt>
      <trkpt lat="45.9517" lon="4.86456">
        <ele>268</ele>
        <time>2018-06-15T09:03:24Z</time>
      </trkpt>
      <trkpt lat="45.95174" lon="4.86461">
        <ele>268</ele>
        <time>2018-06-15T09:03:25Z</time>
      </trkpt>
      <trkpt lat="45.95178" lon="4.86467">
        <ele>268</ele>
        <time>2018-06-15T09:03:26Z</time>
      </trkpt>
      <trkpt lat="45.95183" lon="4.86473">
        <ele>268</ele>
        <time>2018-06-15T09:03:27Z</time>
      </trkpt>
      <trkpt lat="45.95187" lon="4.86477">
        <ele>268</ele>
        <time>2018-06-15T09:03:28Z</time>
      </trkpt>
      <trkpt lat="45.95192" lon="4.86483">
        <ele>268</ele>
        <time>2018-06-15T09:03:29Z</time>
      </trkpt>
      <trkpt lat="45.95197" lon="4.86488">
        <ele>268</ele>
        <time>2018-06-15T09:03:30Z</time>
      </trkpt>
      <trkpt lat="45.95202" lon="4.86494">
        <ele>268</ele>
        <time>2018-06-15T09:03:31Z</time>
      </trkpt>
      <trkpt lat="45.95207" lon="4.865">
        <ele>268</ele>
        <time>2018-06-15T09:03:32Z</time>
      </trkpt>
      <trkpt lat="45.95212" lon="4.86506">
        <ele>268</ele>
        <time>2018-06-15T09:03:33Z</time>
      </trkpt>
      <trkpt lat="45.95218" lon="4.86513">
        <ele>268</ele>
        <time>2018-06-15T09:03:34Z</time>
      </trkpt>
      <trkpt lat="45.95222" lon="4.86519">
        <ele>268</ele>
        <time>2018-06-15T09:03:35Z</time>
      </trkpt>
      <trkpt lat="45.95228" lon="4.86524">
        <ele>268</ele>
        <time>2018-06-15T09:03:36Z</time>
      </trkpt>
      <trkpt lat="45.95233" lon="4.86529">
        <ele>268</ele>
        <time>2018-06-15T09:03:37Z</time>
      </trkpt>
      <trkpt lat="45.95239" lon="4.86532">
        <ele>268</ele>
        <time>2018-06-15T09:03:38Z</time>
      </trkpt>
      <trkpt lat="45.95245" lon="4.86539">
        <ele>268</ele>
        <time>2018-06-15T09:03:39Z</time>
      </trkpt>
      <trkpt lat="45.95249" lon="4.86549">
        <ele>268</ele>
        <time>2018-06-15T09:03:40Z</time>
      </trkpt>
      <trkpt lat="45.95254" lon="4.86557">
        <ele>267</ele>
        <time>2018-06-15T09:03:41Z</time>
      </trkpt>
      <trkpt lat="45.95255" lon="4.86559">
        <ele>267</ele>
        <time>2018-06-15T09:03:42Z</time>
      </trkpt>
      <trkpt lat="45.95258" lon="4.86566">
        <ele>267</ele>
        <time>2018-06-15T09:03:43Z</time>
      </trkpt>
      <trkpt lat="45.95256" lon="4.86572">
        <ele>267</ele>
        <time>2018-06-15T09:03:44Z</time>
      </trkpt>
      <trkpt lat="45.95254" lon="4.86584">
        <ele>268</ele>
        <time>2018-06-15T09:03:46Z</time>
      </trkpt>
      <trkpt lat="45.9525" lon="4.86587">
        <ele>268</ele>
        <time>2018-06-15T09:03:47Z</time>
      </trkpt>
      <trkpt lat="45.95246" lon="4.8659">
        <ele>268</ele>
        <time>2018-06-15T09:03:48Z</time>
      </trkpt>
      <trkpt lat="45.95241" lon="4.86588">
        <ele>268</ele>
        <time>2018-06-15T09:03:49Z</time>
      </trkpt>
      <trkpt lat="45.95236" lon="4.86587">
        <ele>269</ele>
        <time>2018-06-15T09:03:50Z</time>
      </trkpt>
      <trkpt lat="45.95231" lon="4.86586">
        <ele>269</ele>
        <time>2018-06-15T09:03:51Z</time>
      </trkpt>
      <trkpt lat="45.95227" lon="4.86584">
        <ele>269</ele>
        <time>2018-06-15T09:03:52Z</time>
      </trkpt>
      <trkpt lat="45.95222" lon="4.86582">
        <ele>268</ele>
        <time>2018-06-15T09:03:53Z</time>
      </trkpt>
      <trkpt lat="45.95214" lon="4.86581">
        <ele>268</ele>
        <time>2018-06-15T09:03:55Z</time>
      </trkpt>
      <trkpt lat="45.9521" lon="4.86579">
        <ele>268</ele>
        <time>2018-06-15T09:03:56Z</time>
      </trkpt>
      <trkpt lat="45.95202" lon="4.86578">
        <ele>268</ele>
        <time>2018-06-15T09:03:58Z</time>
      </trkpt>
      <trkpt lat="45.95197" lon="4.86577">
        <ele>268</ele>
        <time>2018-06-15T09:03:59Z</time>
      </trkpt>
      <trkpt lat="45.9519" lon="4.86577">
        <ele>269</ele>
        <time>2018-06-15T09:04:01Z</time>
      </trkpt>
      <trkpt lat="45.95186" lon="4.86577">
        <ele>269</ele>
        <time>2018-06-15T09:04:02Z</time>
      </trkpt>
      <trkpt lat="45.95178" lon="4.86577">
        <ele>269</ele>
        <time>2018-06-15T09:04:04Z</time>
      </trkpt>
      <trkpt lat="45.95174" lon="4.86577">
        <ele>269</ele>
        <time>2018-06-15T09:04:05Z</time>
      </trkpt>
      <trkpt lat="45.95166" lon="4.86579">
        <ele>269</ele>
        <time>2018-06-15T09:04:07Z</time>
      </trkpt>
      <trkpt lat="45.95161" lon="4.86578">
        <ele>269</ele>
        <time>2018-06-15T09:04:08Z</time>
      </trkpt>
      <trkpt lat="45.95156" lon="4.86579">
        <ele>269</ele>
        <time>2018-06-15T09:04:09Z</time>
      </trkpt>
      <trkpt lat="45.95151" lon="4.86579">
        <ele>269</ele>
        <time>2018-06-15T09:04:10Z</time>
      </trkpt>
      <trkpt lat="45.95147" lon="4.8658">
        <ele>270</ele>
        <time>2018-06-15T09:04:11Z</time>
      </trkpt>
      <trkpt lat="45.95142" lon="4.86581">
        <ele>270</ele>
        <time>2018-06-15T09:04:12Z</time>
      </trkpt>
      <trkpt lat="45.95138" lon="4.86582">
        <ele>270</ele>
        <time>2018-06-15T09:04:13Z</time>
      </trkpt>
      <trkpt lat="45.95132" lon="4.86583">
        <ele>270</ele>
        <time>2018-06-15T09:04:14Z</time>
      </trkpt>
      <trkpt lat="45.95127" lon="4.86585">
        <ele>270</ele>
        <time>2018-06-15T09:04:15Z</time>
      </trkpt>
      <trkpt lat="45.95122" lon="4.86585">
        <ele>270</ele>
        <time>2018-06-15T09:04:16Z</time>
      </trkpt>
      <trkpt lat="45.95114" lon="4.86588">
        <ele>270</ele>
        <time>2018-06-15T09:04:18Z</time>
      </trkpt>
      <trkpt lat="45.95109" lon="4.86588">
        <ele>271</ele>
        <time>2018-06-15T09:04:19Z</time>
      </trkpt>
      <trkpt lat="45.95105" lon="4.86589">
        <ele>271</ele>
        <time>2018-06-15T09:04:20Z</time>
      </trkpt>
      <trkpt lat="45.951" lon="4.86591">
        <ele>271</ele>
        <time>2018-06-15T09:04:21Z</time>
      </trkpt>
      <trkpt lat="45.95092" lon="4.86591">
        <ele>271</ele>
        <time>2018-06-15T09:04:23Z</time>
      </trkpt>
      <trkpt lat="45.95087" lon="4.86592">
        <ele>271</ele>
        <time>2018-06-15T09:04:24Z</time>
      </trkpt>
      <trkpt lat="45.95079" lon="4.86593">
        <ele>272</ele>
        <time>2018-06-15T09:04:26Z</time>
      </trkpt>
      <trkpt lat="45.95074" lon="4.86593">
        <ele>272</ele>
        <time>2018-06-15T09:04:27Z</time>
      </trkpt>
      <trkpt lat="45.95065" lon="4.86596">
        <ele>272</ele>
        <time>2018-06-15T09:04:29Z</time>
      </trkpt>
      <trkpt lat="45.95062" lon="4.86597">
        <ele>272</ele>
        <time>2018-06-15T09:04:30Z</time>
      </trkpt>
      <trkpt lat="45.95055" lon="4.86597">
        <ele>272</ele>
        <time>2018-06-15T09:04:32Z</time>
      </trkpt>
      <trkpt lat="45.95051" lon="4.86598">
        <ele>272</ele>
        <time>2018-06-15T09:04:33Z</time>
      </trkpt>
      <trkpt lat="45.95043" lon="4.86601">
        <ele>272</ele>
        <time>2018-06-15T09:04:35Z</time>
      </trkpt>
      <trkpt lat="45.95039" lon="4.86603">
        <ele>273</ele>
        <time>2018-06-15T09:04:36Z</time>
      </trkpt>
      <trkpt lat="45.95031" lon="4.86605">
        <ele>273</ele>
        <time>2018-06-15T09:04:38Z</time>
      </trkpt>
      <trkpt lat="45.95027" lon="4.86606">
        <ele>273</ele>
        <time>2018-06-15T09:04:39Z</time>
      </trkpt>
      <trkpt lat="45.95018" lon="4.86608">
        <ele>273</ele>
        <time>2018-06-15T09:04:41Z</time>
      </trkpt>
      <trkpt lat="45.95014" lon="4.86609">
        <ele>273</ele>
        <time>2018-06-15T09:04:42Z</time>
      </trkpt>
      <trkpt lat="45.95005" lon="4.86612">
        <ele>273</ele>
        <time>2018-06-15T09:04:44Z</time>
      </trkpt>
      <trkpt lat="45.95001" lon="4.86613">
        <ele>273</ele>
        <time>2018-06-15T09:04:45Z</time>
      </trkpt>
      <trkpt lat="45.94995" lon="4.86613">
        <ele>275</ele>
        <time>2018-06-15T09:04:46Z</time>
      </trkpt>
      <trkpt lat="45.9499" lon="4.86616">
        <ele>275</ele>
        <time>2018-06-15T09:04:47Z</time>
      </trkpt>
      <trkpt lat="45.94982" lon="4.86619">
        <ele>275</ele>
        <time>2018-06-15T09:04:49Z</time>
      </trkpt>
      <trkpt lat="45.94977" lon="4.86619">
        <ele>275</ele>
        <time>2018-06-15T09:04:50Z</time>
      </trkpt>
      <trkpt lat="45.94973" lon="4.86619">
        <ele>275</ele>
        <time>2018-06-15T09:04:51Z</time>
      </trkpt>
      <trkpt lat="45.94968" lon="4.8662">
        <ele>275</ele>
        <time>2018-06-15T09:04:52Z</time>
      </trkpt>
      <trkpt lat="45.94962" lon="4.86626">
        <ele>275</ele>
        <time>2018-06-15T09:04:54Z</time>
      </trkpt>
      <trkpt lat="45.94958" lon="4.86631">
        <ele>276</ele>
        <time>2018-06-15T09:04:55Z</time>
      </trkpt>
      <trkpt lat="45.94955" lon="4.86635">
        <ele>276</ele>
        <time>2018-06-15T09:04:56Z</time>
      </trkpt>
      <trkpt lat="45.94952" lon="4.86641">
        <ele>276</ele>
        <time>2018-06-15T09:04:57Z</time>
      </trkpt>
      <trkpt lat="45.9495" lon="4.86648">
        <ele>276</ele>
        <time>2018-06-15T09:04:58Z</time>
      </trkpt>
      <trkpt lat="45.94947" lon="4.86655">
        <ele>276</ele>
        <time>2018-06-15T09:04:59Z</time>
      </trkpt>
      <trkpt lat="45.94946" lon="4.86662">
        <ele>276</ele>
        <time>2018-06-15T09:05:00Z</time>
      </trkpt>
      <trkpt lat="45.94945" lon="4.86669">
        <ele>276</ele>
        <time>2018-06-15T09:05:01Z</time>
      </trkpt>
      <trkpt lat="45.94945" lon="4.86677">
        <ele>276</ele>
        <time>2018-06-15T09:05:02Z</time>
      </trkpt>
      <trkpt lat="45.94945" lon="4.86684">
        <ele>276</ele>
        <time>2018-06-15T09:05:03Z</time>
      </trkpt>
      <trkpt lat="45.94948" lon="4.86696">
        <ele>275</ele>
        <time>2018-06-15T09:05:05Z</time>
      </trkpt>
      <trkpt lat="45.94948" lon="4.86703">
        <ele>275</ele>
        <time>2018-06-15T09:05:06Z</time>
      </trkpt>
      <trkpt lat="45.94949" lon="4.86709">
        <ele>275</ele>
        <time>2018-06-15T09:05:07Z</time>
      </trkpt>
      <trkpt lat="45.94952" lon="4.86718">
        <ele>275</ele>
        <time>2018-06-15T09:05:08Z</time>
      </trkpt>
      <trkpt lat="45.94955" lon="4.86725">
        <ele>275</ele>
        <time>2018-06-15T09:05:09Z</time>
      </trkpt>
      <trkpt lat="45.94957" lon="4.86732">
        <ele>275</ele>
        <time>2018-06-15T09:05:10Z</time>
      </trkpt>
      <trkpt lat="45.94961" lon="4.86744">
        <ele>275</ele>
        <time>2018-06-15T09:05:12Z</time>
      </trkpt>
      <trkpt lat="45.94963" lon="4.8675">
        <ele>275</ele>
        <time>2018-06-15T09:05:13Z</time>
      </trkpt>
      <trkpt lat="45.94968" lon="4.86755">
        <ele>275</ele>
        <time>2018-06-15T09:05:14Z</time>
      </trkpt>
      <trkpt lat="45.94972" lon="4.86759">
        <ele>275</ele>
        <time>2018-06-15T09:05:15Z</time>
      </trkpt>
      <trkpt lat="45.94979" lon="4.86765">
        <ele>275</ele>
        <time>2018-06-15T09:05:17Z</time>
      </trkpt>
      <trkpt lat="45.9498" lon="4.8677">
        <ele>275</ele>
        <time>2018-06-15T09:05:18Z</time>
      </trkpt>
      <trkpt lat="45.94986" lon="4.8678">
        <ele>275</ele>
        <time>2018-06-15T09:05:20Z</time>
      </trkpt>
      <trkpt lat="45.94988" lon="4.86785">
        <ele>275</ele>
        <time>2018-06-15T09:05:21Z</time>
      </trkpt>
      <trkpt lat="45.94991" lon="4.86791">
        <ele>275</ele>
        <time>2018-06-15T09:05:22Z</time>
      </trkpt>
      <trkpt lat="45.94995" lon="4.86798">
        <ele>276</ele>
        <time>2018-06-15T09:05:23Z</time>
      </trkpt>
      <trkpt lat="45.94997" lon="4.86803">
        <ele>276</ele>
        <time>2018-06-15T09:05:24Z</time>
      </trkpt>
      <trkpt lat="45.95" lon="4.8681">
        <ele>276</ele>
        <time>2018-06-15T09:05:25Z</time>
      </trkpt>
      <trkpt lat="45.95003" lon="4.86816">
        <ele>275</ele>
        <time>2018-06-15T09:05:26Z</time>
      </trkpt>
      <trkpt lat="45.95005" lon="4.86822">
        <ele>275</ele>
        <time>2018-06-15T09:05:27Z</time>
      </trkpt>
      <trkpt lat="45.95008" lon="4.86828">
        <ele>275</ele>
        <time>2018-06-15T09:05:28Z</time>
      </trkpt>
      <trkpt lat="45.9501" lon="4.86835">
        <ele>276</ele>
        <time>2018-06-15T09:05:29Z</time>
      </trkpt>
      <trkpt lat="45.95012" lon="4.86843">
        <ele>276</ele>
        <time>2018-06-15T09:05:30Z</time>
      </trkpt>
      <trkpt lat="45.95013" lon="4.86849">
        <ele>275</ele>
        <time>2018-06-15T09:05:31Z</time>
      </trkpt>
      <trkpt lat="45.95014" lon="4.86856">
        <ele>275</ele>
        <time>2018-06-15T09:05:32Z</time>
      </trkpt>
      <trkpt lat="45.95016" lon="4.86863">
        <ele>275</ele>
        <time>2018-06-15T09:05:33Z</time>
      </trkpt>
      <trkpt lat="45.95018" lon="4.8687">
        <ele>275</ele>
        <time>2018-06-15T09:05:34Z</time>
      </trkpt>
      <trkpt lat="45.95022" lon="4.86875">
        <ele>275</ele>
        <time>2018-06-15T09:05:35Z</time>
      </trkpt>
      <trkpt lat="45.95024" lon="4.86882">
        <ele>275</ele>
        <time>2018-06-15T09:05:36Z</time>
      </trkpt>
      <trkpt lat="45.95026" lon="4.86887">
        <ele>275</ele>
        <time>2018-06-15T09:05:37Z</time>
      </trkpt>
      <trkpt lat="45.95027" lon="4.86894">
        <ele>275</ele>
        <time>2018-06-15T09:05:38Z</time>
      </trkpt>
      <trkpt lat="45.95028" lon="4.869">
        <ele>275</ele>
        <time>2018-06-15T09:05:39Z</time>
      </trkpt>
      <trkpt lat="45.95031" lon="4.86907">
        <ele>275</ele>
        <time>2018-06-15T09:05:40Z</time>
      </trkpt>
      <trkpt lat="45.95032" lon="4.86914">
        <ele>275</ele>
        <time>2018-06-15T09:05:41Z</time>
      </trkpt>
      <trkpt lat="45.95035" lon="4.86922">
        <ele>276</ele>
        <time>2018-06-15T09:05:42Z</time>
      </trkpt>
      <trkpt lat="45.95038" lon="4.86928">
        <ele>276</ele>
        <time>2018-06-15T09:05:43Z</time>
      </trkpt>
      <trkpt lat="45.95039" lon="4.86935">
        <ele>276</ele>
        <time>2018-06-15T09:05:44Z</time>
      </trkpt>
      <trkpt lat="45.95041" lon="4.86943">
        <ele>276</ele>
        <time>2018-06-15T09:05:45Z</time>
      </trkpt>
      <trkpt lat="45.95043" lon="4.86949">
        <ele>276</ele>
        <time>2018-06-15T09:05:46Z</time>
      </trkpt>
      <trkpt lat="45.95046" lon="4.86956">
        <ele>276</ele>
        <time>2018-06-15T09:05:47Z</time>
      </trkpt>
      <trkpt lat="45.95048" lon="4.86962">
        <ele>276</ele>
        <time>2018-06-15T09:05:48Z</time>
      </trkpt>
      <trkpt lat="45.9505" lon="4.86969">
        <ele>276</ele>
        <time>2018-06-15T09:05:49Z</time>
      </trkpt>
      <trkpt lat="45.9505" lon="4.86976">
        <ele>276</ele>
        <time>2018-06-15T09:05:50Z</time>
      </trkpt>
      <trkpt lat="45.95053" lon="4.86982">
        <ele>276</ele>
        <time>2018-06-15T09:05:51Z</time>
      </trkpt>
      <trkpt lat="45.95055" lon="4.86988">
        <ele>276</ele>
        <time>2018-06-15T09:05:52Z</time>
      </trkpt>
      <trkpt lat="45.95057" lon="4.86995">
        <ele>276</ele>
        <time>2018-06-15T09:05:53Z</time>
      </trkpt>
      <trkpt lat="45.95059" lon="4.87004">
        <ele>277</ele>
        <time>2018-06-15T09:05:54Z</time>
      </trkpt>
      <trkpt lat="45.95062" lon="4.87009">
        <ele>277</ele>
        <time>2018-06-15T09:05:55Z</time>
      </trkpt>
      <trkpt lat="45.95067" lon="4.8702">
        <ele>277</ele>
        <time>2018-06-15T09:05:57Z</time>
      </trkpt>
      <trkpt lat="45.9507" lon="4.87025">
        <ele>277</ele>
        <time>2018-06-15T09:05:58Z</time>
      </trkpt>
      <trkpt lat="45.95075" lon="4.87034">
        <ele>277</ele>
        <time>2018-06-15T09:06:00Z</time>
      </trkpt>
      <trkpt lat="45.95079" lon="4.8704">
        <ele>277</ele>
        <time>2018-06-15T09:06:01Z</time>
      </trkpt>
      <trkpt lat="45.95081" lon="4.87044">
        <ele>277</ele>
        <time>2018-06-15T09:06:02Z</time>
      </trkpt>
      <trkpt lat="45.95085" lon="4.8705">
        <ele>277</ele>
        <time>2018-06-15T09:06:03Z</time>
      </trkpt>
      <trkpt lat="45.95087" lon="4.87054">
        <ele>277</ele>
        <time>2018-06-15T09:06:04Z</time>
      </trkpt>
      <trkpt lat="45.95091" lon="4.87058">
        <ele>277</ele>
        <time>2018-06-15T09:06:05Z</time>
      </trkpt>
      <trkpt lat="45.95095" lon="4.87069">
        <ele>277</ele>
        <time>2018-06-15T09:06:07Z</time>
      </trkpt>
      <trkpt lat="45.95097" lon="4.87075">
        <ele>277</ele>
        <time>2018-06-15T09:06:08Z</time>
      </trkpt>
      <trkpt lat="45.95099" lon="4.87081">
        <ele>277</ele>
        <time>2018-06-15T09:06:09Z</time>
      </trkpt>
      <trkpt lat="45.95102" lon="4.87088">
        <ele>277</ele>
        <time>2018-06-15T09:06:10Z</time>
      </trkpt>
      <trkpt lat="45.95102" lon="4.87094">
        <ele>277</ele>
        <time>2018-06-15T09:06:11Z</time>
      </trkpt>
      <trkpt lat="45.95104" lon="4.87102">
        <ele>277</ele>
        <time>2018-06-15T09:06:12Z</time>
      </trkpt>
      <trkpt lat="45.95107" lon="4.87112">
        <ele>277</ele>
        <time>2018-06-15T09:06:14Z</time>
      </trkpt>
      <trkpt lat="45.95108" lon="4.87121">
        <ele>277</ele>
        <time>2018-06-15T09:06:15Z</time>
      </trkpt>
      <trkpt lat="45.95111" lon="4.87128">
        <ele>277</ele>
        <time>2018-06-15T09:06:16Z</time>
      </trkpt>
      <trkpt lat="45.95112" lon="4.87136">
        <ele>277</ele>
        <time>2018-06-15T09:06:17Z</time>
      </trkpt>
      <trkpt lat="45.95113" lon="4.87143">
        <ele>277</ele>
        <time>2018-06-15T09:06:18Z</time>
      </trkpt>
      <trkpt lat="45.95114" lon="4.87149">
        <ele>277</ele>
        <time>2018-06-15T09:06:19Z</time>
      </trkpt>
      <trkpt lat="45.95118" lon="4.87161">
        <ele>277</ele>
        <time>2018-06-15T09:06:21Z</time>
      </trkpt>
      <trkpt lat="45.95119" lon="4.87171">
        <ele>277</ele>
        <time>2018-06-15T09:06:22Z</time>
      </trkpt>
      <trkpt lat="45.95122" lon="4.87179">
        <ele>276</ele>
        <time>2018-06-15T09:06:23Z</time>
      </trkpt>
      <trkpt lat="45.95125" lon="4.87188">
        <ele>276</ele>
        <time>2018-06-15T09:06:24Z</time>
      </trkpt>
      <trkpt lat="45.95127" lon="4.87197">
        <ele>276</ele>
        <time>2018-06-15T09:06:25Z</time>
      </trkpt>
      <trkpt lat="45.95129" lon="4.87206">
        <ele>276</ele>
        <time>2018-06-15T09:06:26Z</time>
      </trkpt>
      <trkpt lat="45.9513" lon="4.87216">
        <ele>276</ele>
        <time>2018-06-15T09:06:27Z</time>
      </trkpt>
      <trkpt lat="45.95131" lon="4.87224">
        <ele>276</ele>
        <time>2018-06-15T09:06:28Z</time>
      </trkpt>
      <trkpt lat="45.95134" lon="4.87231">
        <ele>276</ele>
        <time>2018-06-15T09:06:29Z</time>
      </trkpt>
      <trkpt lat="45.95138" lon="4.87242">
        <ele>276</ele>
        <time>2018-06-15T09:06:30Z</time>
      </trkpt>
      <trkpt lat="45.9514" lon="4.87251">
        <ele>274</ele>
        <time>2018-06-15T09:06:31Z</time>
      </trkpt>
      <trkpt lat="45.95142" lon="4.87261">
        <ele>274</ele>
        <time>2018-06-15T09:06:32Z</time>
      </trkpt>
      <trkpt lat="45.95144" lon="4.87269">
        <ele>274</ele>
        <time>2018-06-15T09:06:33Z</time>
      </trkpt>
      <trkpt lat="45.95149" lon="4.87282">
        <ele>274</ele>
        <time>2018-06-15T09:06:34Z</time>
      </trkpt>
      <trkpt lat="45.95151" lon="4.87292">
        <ele>274</ele>
        <time>2018-06-15T09:06:35Z</time>
      </trkpt>
      <trkpt lat="45.95153" lon="4.87303">
        <ele>274</ele>
        <time>2018-06-15T09:06:36Z</time>
      </trkpt>
      <trkpt lat="45.95155" lon="4.87314">
        <ele>273</ele>
        <time>2018-06-15T09:06:37Z</time>
      </trkpt>
      <trkpt lat="45.95158" lon="4.87326">
        <ele>272</ele>
        <time>2018-06-15T09:06:38Z</time>
      </trkpt>
      <trkpt lat="45.95159" lon="4.87335">
        <ele>272</ele>
        <time>2018-06-15T09:06:39Z</time>
      </trkpt>
      <trkpt lat="45.95161" lon="4.87345">
        <ele>272</ele>
        <time>2018-06-15T09:06:40Z</time>
      </trkpt>
      <trkpt lat="45.95163" lon="4.87354">
        <ele>272</ele>
        <time>2018-06-15T09:06:41Z</time>
      </trkpt>
      <trkpt lat="45.95165" lon="4.87364">
        <ele>272</ele>
        <time>2018-06-15T09:06:42Z</time>
      </trkpt>
      <trkpt lat="45.95167" lon="4.87374">
        <ele>271</ele>
        <time>2018-06-15T09:06:43Z</time>
      </trkpt>
      <trkpt lat="45.95169" lon="4.87385">
        <ele>271</ele>
        <time>2018-06-15T09:06:44Z</time>
      </trkpt>
      <trkpt lat="45.95169" lon="4.87393">
        <ele>271</ele>
        <time>2018-06-15T09:06:45Z</time>
      </trkpt>
      <trkpt lat="45.95172" lon="4.87405">
        <ele>271</ele>
        <time>2018-06-15T09:06:46Z</time>
      </trkpt>
      <trkpt lat="45.95175" lon="4.87414">
        <ele>271</ele>
        <time>2018-06-15T09:06:47Z</time>
      </trkpt>
      <trkpt lat="45.95177" lon="4.87424">
        <ele>271</ele>
        <time>2018-06-15T09:06:48Z</time>
      </trkpt>
      <trkpt lat="45.95178" lon="4.87432">
        <ele>271</ele>
        <time>2018-06-15T09:06:49Z</time>
      </trkpt>
      <trkpt lat="45.9518" lon="4.8744">
        <ele>272</ele>
        <time>2018-06-15T09:06:50Z</time>
      </trkpt>
      <trkpt lat="45.95182" lon="4.87449">
        <ele>272</ele>
        <time>2018-06-15T09:06:51Z</time>
      </trkpt>
      <trkpt lat="45.95183" lon="4.87458">
        <ele>272</ele>
        <time>2018-06-15T09:06:52Z</time>
      </trkpt>
      <trkpt lat="45.95186" lon="4.87466">
        <ele>272</ele>
        <time>2018-06-15T09:06:53Z</time>
      </trkpt>
      <trkpt lat="45.95188" lon="4.87474">
        <ele>272</ele>
        <time>2018-06-15T09:06:54Z</time>
      </trkpt>
      <trkpt lat="45.95191" lon="4.87483">
        <ele>272</ele>
        <time>2018-06-15T09:06:55Z</time>
      </trkpt>
      <trkpt lat="45.95192" lon="4.87491">
        <ele>272</ele>
        <time>2018-06-15T09:06:56Z</time>
      </trkpt>
      <trkpt lat="45.95193" lon="4.87498">
        <ele>272</ele>
        <time>2018-06-15T09:06:57Z</time>
      </trkpt>
      <trkpt lat="45.95194" lon="4.87506">
        <ele>273</ele>
        <time>2018-06-15T09:06:58Z</time>
      </trkpt>
      <trkpt lat="45.95196" lon="4.87513">
        <ele>273</ele>
        <time>2018-06-15T09:06:59Z</time>
      </trkpt>
      <trkpt lat="45.95198" lon="4.87521">
        <ele>274</ele>
        <time>2018-06-15T09:07:00Z</time>
      </trkpt>
      <trkpt lat="45.95201" lon="4.8753">
        <ele>274</ele>
        <time>2018-06-15T09:07:01Z</time>
      </trkpt>
      <trkpt lat="45.95204" lon="4.87536">
        <ele>274</ele>
        <time>2018-06-15T09:07:02Z</time>
      </trkpt>
      <trkpt lat="45.95207" lon="4.87545">
        <ele>274</ele>
        <time>2018-06-15T09:07:03Z</time>
      </trkpt>
      <trkpt lat="45.95208" lon="4.87553">
        <ele>274</ele>
        <time>2018-06-15T09:07:04Z</time>
      </trkpt>
      <trkpt lat="45.95209" lon="4.87565">
        <ele>274</ele>
        <time>2018-06-15T09:07:06Z</time>
      </trkpt>
      <trkpt lat="45.95209" lon="4.87572">
        <ele>274</ele>
        <time>2018-06-15T09:07:07Z</time>
      </trkpt>
      <trkpt lat="45.9521" lon="4.87579">
        <ele>274</ele>
        <time>2018-06-15T09:07:08Z</time>
      </trkpt>
      <trkpt lat="45.95211" lon="4.87588">
        <ele>276</ele>
        <time>2018-06-15T09:07:09Z</time>
      </trkpt>
      <trkpt lat="45.95213" lon="4.87592">
        <ele>276</ele>
        <time>2018-06-15T09:07:10Z</time>
      </trkpt>
      <trkpt lat="45.95214" lon="4.87601">
        <ele>276</ele>
        <time>2018-06-15T09:07:11Z</time>
      </trkpt>
      <trkpt lat="45.95216" lon="4.87611">
        <ele>276</ele>
        <time>2018-06-15T09:07:13Z</time>
      </trkpt>
      <trkpt lat="45.95215" lon="4.87616">
        <ele>276</ele>
        <time>2018-06-15T09:07:14Z</time>
      </trkpt>
      <trkpt lat="45.95215" lon="4.87626">
        <ele>276</ele>
        <time>2018-06-15T09:07:17Z</time>
      </trkpt>
      <trkpt lat="45.95215" lon="4.87635">
        <ele>276</ele>
        <time>2018-06-15T09:07:18Z</time>
      </trkpt>
      <trkpt lat="45.95218" lon="4.87646">
        <ele>276</ele>
        <time>2018-06-15T09:07:20Z</time>
      </trkpt>
      <trkpt lat="45.95219" lon="4.87652">
        <ele>276</ele>
        <time>2018-06-15T09:07:21Z</time>
      </trkpt>
      <trkpt lat="45.9522" lon="4.87661">
        <ele>276</ele>
        <time>2018-06-15T09:07:24Z</time>
      </trkpt>
      <trkpt lat="45.95221" lon="4.87673">
        <ele>278</ele>
        <time>2018-06-15T09:07:25Z</time>
      </trkpt>
      <trkpt lat="45.95224" lon="4.87684">
        <ele>279</ele>
        <time>2018-06-15T09:07:27Z</time>
      </trkpt>
      <trkpt lat="45.95225" lon="4.8769">
        <ele>279</ele>
        <time>2018-06-15T09:07:28Z</time>
      </trkpt>
      <trkpt lat="45.95225" lon="4.877">
        <ele>279</ele>
        <time>2018-06-15T09:07:31Z</time>
      </trkpt>
      <trkpt lat="45.95225" lon="4.87703">
        <ele>279</ele>
        <time>2018-06-15T09:07:32Z</time>
      </trkpt>
      <trkpt lat="45.95227" lon="4.87715">
        <ele>279</ele>
        <time>2018-06-15T09:07:33Z</time>
      </trkpt>
      <trkpt lat="45.95228" lon="4.87717">
        <ele>279</ele>
        <time>2018-06-15T09:07:34Z</time>
      </trkpt>
      <trkpt lat="45.95231" lon="4.87726">
        <ele>280</ele>
        <time>2018-06-15T09:07:35Z</time>
      </trkpt>
      <trkpt lat="45.95231" lon="4.87735">
        <ele>280</ele>
        <time>2018-06-15T09:07:36Z</time>
      </trkpt>
      <trkpt lat="45.95232" lon="4.87746">
        <ele>280</ele>
        <time>2018-06-15T09:07:38Z</time>
      </trkpt>
      <trkpt lat="45.95234" lon="4.8775">
        <ele>280</ele>
        <time>2018-06-15T09:07:39Z</time>
      </trkpt>
      <trkpt lat="45.95237" lon="4.8776">
        <ele>281</ele>
        <time>2018-06-15T09:07:41Z</time>
      </trkpt>
      <trkpt lat="45.95238" lon="4.87766">
        <ele>281</ele>
        <time>2018-06-15T09:07:42Z</time>
      </trkpt>
      <trkpt lat="45.95239" lon="4.87776">
        <ele>282</ele>
        <time>2018-06-15T09:07:44Z</time>
      </trkpt>
      <trkpt lat="45.9524" lon="4.87782">
        <ele>282</ele>
        <time>2018-06-15T09:07:45Z</time>
      </trkpt>
      <trkpt lat="45.95241" lon="4.87789">
        <ele>282</ele>
        <time>2018-06-15T09:07:46Z</time>
      </trkpt>
      <trkpt lat="45.95241" lon="4.87797">
        <ele>282</ele>
        <time>2018-06-15T09:07:47Z</time>
      </trkpt>
      <trkpt lat="45.95241" lon="4.87804">
        <ele>282</ele>
        <time>2018-06-15T09:07:48Z</time>
      </trkpt>
      <trkpt lat="45.95242" lon="4.8781">
        <ele>282</ele>
        <time>2018-06-15T09:07:49Z</time>
      </trkpt>
      <trkpt lat="45.95245" lon="4.87819">
        <ele>282</ele>
        <time>2018-06-15T09:07:51Z</time>
      </trkpt>
      <trkpt lat="45.95246" lon="4.87829">
        <ele>282</ele>
        <time>2018-06-15T09:07:52Z</time>
      </trkpt>
      <trkpt lat="45.95248" lon="4.8784">
        <ele>283</ele>
        <time>2018-06-15T09:07:54Z</time>
      </trkpt>
      <trkpt lat="45.95249" lon="4.87844">
        <ele>283</ele>
        <time>2018-06-15T09:07:55Z</time>
      </trkpt>
      <trkpt lat="45.95249" lon="4.87855">
        <ele>283</ele>
        <time>2018-06-15T09:07:57Z</time>
      </trkpt>
      <trkpt lat="45.9525" lon="4.8786">
        <ele>281</ele>
        <time>2018-06-15T09:07:58Z</time>
      </trkpt>
      <trkpt lat="45.95251" lon="4.87869">
        <ele>281</ele>
        <time>2018-06-15T09:07:59Z</time>
      </trkpt>
      <trkpt lat="45.95253" lon="4.87875">
        <ele>281</ele>
        <time>2018-06-15T09:08:00Z</time>
      </trkpt>
      <trkpt lat="45.95254" lon="4.87881">
        <ele>281</ele>
        <time>2018-06-15T09:08:01Z</time>
      </trkpt>
      <trkpt lat="45.95255" lon="4.87889">
        <ele>281</ele>
        <time>2018-06-15T09:08:02Z</time>
      </trkpt>
      <trkpt lat="45.95258" lon="4.87901">
        <ele>281</ele>
        <time>2018-06-15T09:08:04Z</time>
      </trkpt>
      <trkpt lat="45.95259" lon="4.87906">
        <ele>282</ele>
        <time>2018-06-15T09:08:05Z</time>
      </trkpt>
      <trkpt lat="45.95261" lon="4.87918">
        <ele>281</ele>
        <time>2018-06-15T09:08:07Z</time>
      </trkpt>
      <trkpt lat="45.9526" lon="4.87924">
        <ele>281</ele>
        <time>2018-06-15T09:08:08Z</time>
      </trkpt>
      <trkpt lat="45.95261" lon="4.87935">
        <ele>281</ele>
        <time>2018-06-15T09:08:10Z</time>
      </trkpt>
      <trkpt lat="45.95259" lon="4.87941">
        <ele>280</ele>
        <time>2018-06-15T09:08:11Z</time>
      </trkpt>
      <trkpt lat="45.95255" lon="4.87952">
        <ele>280</ele>
        <time>2018-06-15T09:08:13Z</time>
      </trkpt>
      <trkpt lat="45.95253" lon="4.87957">
        <ele>280</ele>
        <time>2018-06-15T09:08:14Z</time>
      </trkpt>
      <trkpt lat="45.95248" lon="4.87967">
        <ele>282</ele>
        <time>2018-06-15T09:08:16Z</time>
      </trkpt>
      <trkpt lat="45.95246" lon="4.87972">
        <ele>282</ele>
        <time>2018-06-15T09:08:17Z</time>
      </trkpt>
      <trkpt lat="45.95243" lon="4.87977">
        <ele>282</ele>
        <time>2018-06-15T09:08:18Z</time>
      </trkpt>
      <trkpt lat="45.95239" lon="4.87981">
        <ele>281</ele>
        <time>2018-06-15T09:08:19Z</time>
      </trkpt>
      <trkpt lat="45.95236" lon="4.87986">
        <ele>281</ele>
        <time>2018-06-15T09:08:20Z</time>
      </trkpt>
      <trkpt lat="45.95234" lon="4.87991">
        <ele>281</ele>
        <time>2018-06-15T09:08:21Z</time>
      </trkpt>
      <trkpt lat="45.9523" lon="4.87996">
        <ele>281</ele>
        <time>2018-06-15T09:08:22Z</time>
      </trkpt>
      <trkpt lat="45.95226" lon="4.88">
        <ele>281</ele>
        <time>2018-06-15T09:08:23Z</time>
      </trkpt>
      <trkpt lat="45.95223" lon="4.88006">
        <ele>281</ele>
        <time>2018-06-15T09:08:24Z</time>
      </trkpt>
      <trkpt lat="45.95219" lon="4.88009">
        <ele>281</ele>
        <time>2018-06-15T09:08:25Z</time>
      </trkpt>
      <trkpt lat="45.95216" lon="4.88015">
        <ele>281</ele>
        <time>2018-06-15T09:08:26Z</time>
      </trkpt>
      <trkpt lat="45.95212" lon="4.8802">
        <ele>281</ele>
        <time>2018-06-15T09:08:27Z</time>
      </trkpt>
      <trkpt lat="45.95208" lon="4.88025">
        <ele>281</ele>
        <time>2018-06-15T09:08:28Z</time>
      </trkpt>
      <trkpt lat="45.95205" lon="4.8803">
        <ele>281</ele>
        <time>2018-06-15T09:08:29Z</time>
      </trkpt>
      <trkpt lat="45.95202" lon="4.88037">
        <ele>281</ele>
        <time>2018-06-15T09:08:30Z</time>
      </trkpt>
      <trkpt lat="45.952" lon="4.88042">
        <ele>281</ele>
        <time>2018-06-15T09:08:31Z</time>
      </trkpt>
      <trkpt lat="45.95197" lon="4.88051">
        <ele>281</ele>
        <time>2018-06-15T09:08:32Z</time>
      </trkpt>
      <trkpt lat="45.95194" lon="4.88057">
        <ele>281</ele>
        <time>2018-06-15T09:08:33Z</time>
      </trkpt>
      <trkpt lat="45.95192" lon="4.88063">
        <ele>281</ele>
        <time>2018-06-15T09:08:34Z</time>
      </trkpt>
      <trkpt lat="45.9519" lon="4.8807">
        <ele>281</ele>
        <time>2018-06-15T09:08:35Z</time>
      </trkpt>
      <trkpt lat="45.95188" lon="4.88078">
        <ele>281</ele>
        <time>2018-06-15T09:08:36Z</time>
      </trkpt>
      <trkpt lat="45.95186" lon="4.88085">
        <ele>282</ele>
        <time>2018-06-15T09:08:37Z</time>
      </trkpt>
      <trkpt lat="45.95185" lon="4.88093">
        <ele>282</ele>
        <time>2018-06-15T09:08:38Z</time>
      </trkpt>
      <trkpt lat="45.95183" lon="4.88099">
        <ele>282</ele>
        <time>2018-06-15T09:08:39Z</time>
      </trkpt>
      <trkpt lat="45.95181" lon="4.88111">
        <ele>282</ele>
        <time>2018-06-15T09:08:41Z</time>
      </trkpt>
      <trkpt lat="45.9518" lon="4.88117">
        <ele>282</ele>
        <time>2018-06-15T09:08:42Z</time>
      </trkpt>
      <trkpt lat="45.95177" lon="4.88127">
        <ele>282</ele>
        <time>2018-06-15T09:08:44Z</time>
      </trkpt>
      <trkpt lat="45.95176" lon="4.88133">
        <ele>283</ele>
        <time>2018-06-15T09:08:45Z</time>
      </trkpt>
      <trkpt lat="45.95172" lon="4.88143">
        <ele>283</ele>
        <time>2018-06-15T09:08:47Z</time>
      </trkpt>
      <trkpt lat="45.95171" lon="4.88148">
        <ele>283</ele>
        <time>2018-06-15T09:08:48Z</time>
      </trkpt>
      <trkpt lat="45.95167" lon="4.88158">
        <ele>284</ele>
        <time>2018-06-15T09:08:50Z</time>
      </trkpt>
      <trkpt lat="45.95167" lon="4.88163">
        <ele>285</ele>
        <time>2018-06-15T09:08:51Z</time>
      </trkpt>
      <trkpt lat="45.95171" lon="4.88174">
        <ele>285</ele>
        <time>2018-06-15T09:08:53Z</time>
      </trkpt>
      <trkpt lat="45.95175" lon="4.88177">
        <ele>285</ele>
        <time>2018-06-15T09:08:54Z</time>
      </trkpt>
      <trkpt lat="45.95182" lon="4.88179">
        <ele>285</ele>
        <time>2018-06-15T09:08:56Z</time>
      </trkpt>
      <trkpt lat="45.95187" lon="4.88177">
        <ele>285</ele>
        <time>2018-06-15T09:08:57Z</time>
      </trkpt>
      <trkpt lat="45.95193" lon="4.88177">
        <ele>285</ele>
        <time>2018-06-15T09:08:58Z</time>
      </trkpt>
      <trkpt lat="45.95198" lon="4.88176">
        <ele>285</ele>
        <time>2018-06-15T09:08:59Z</time>
      </trkpt>
      <trkpt lat="45.95202" lon="4.88175">
        <ele>285</ele>
        <time>2018-06-15T09:09:00Z</time>
      </trkpt>
      <trkpt lat="45.95207" lon="4.88174">
        <ele>285</ele>
        <time>2018-06-15T09:09:01Z</time>
      </trkpt>
      <trkpt lat="45.95213" lon="4.88173">
        <ele>284</ele>
        <time>2018-06-15T09:09:02Z</time>
      </trkpt>
      <trkpt lat="45.95218" lon="4.88174">
        <ele>284</ele>
        <time>2018-06-15T09:09:03Z</time>
      </trkpt>
      <trkpt lat="45.95224" lon="4.88175">
        <ele>284</ele>
        <time>2018-06-15T09:09:04Z</time>
      </trkpt>
      <trkpt lat="45.9523" lon="4.88175">
        <ele>283</ele>
        <time>2018-06-15T09:09:05Z</time>
      </trkpt>
      <trkpt lat="45.95236" lon="4.88173">
        <ele>283</ele>
        <time>2018-06-15T09:09:06Z</time>
      </trkpt>
      <trkpt lat="45.95244" lon="4.88169">
        <ele>282</ele>
        <time>2018-06-15T09:09:07Z</time>
      </trkpt>
      <trkpt lat="45.9525" lon="4.8817">
        <ele>281</ele>
        <time>2018-06-15T09:09:08Z</time>
      </trkpt>
      <trkpt lat="45.95257" lon="4.88171">
        <ele>281</ele>
        <time>2018-06-15T09:09:09Z</time>
      </trkpt>
      <trkpt lat="45.95264" lon="4.88171">
        <ele>281</ele>
        <time>2018-06-15T09:09:10Z</time>
      </trkpt>
      <trkpt lat="45.95271" lon="4.8817">
        <ele>281</ele>
        <time>2018-06-15T09:09:11Z</time>
      </trkpt>
      <trkpt lat="45.95277" lon="4.88171">
        <ele>281</ele>
        <time>2018-06-15T09:09:12Z</time>
      </trkpt>
      <trkpt lat="45.95286" lon="4.88171">
        <ele>281</ele>
        <time>2018-06-15T09:09:13Z</time>
      </trkpt>
      <trkpt lat="45.95292" lon="4.88171">
        <ele>281</ele>
        <time>2018-06-15T09:09:14Z</time>
      </trkpt>
      <trkpt lat="45.95299" lon="4.88173">
        <ele>281</ele>
        <time>2018-06-15T09:09:15Z</time>
      </trkpt>
      <trkpt lat="45.95305" lon="4.88173">
        <ele>280</ele>
        <time>2018-06-15T09:09:16Z</time>
      </trkpt>
      <trkpt lat="45.95313" lon="4.88173">
        <ele>280</ele>
        <time>2018-06-15T09:09:17Z</time>
      </trkpt>
      <trkpt lat="45.95321" lon="4.88174">
        <ele>280</ele>
        <time>2018-06-15T09:09:18Z</time>
      </trkpt>
      <trkpt lat="45.95328" lon="4.88175">
        <ele>279</ele>
        <time>2018-06-15T09:09:19Z</time>
      </trkpt>
      <trkpt lat="45.95336" lon="4.88174">
        <ele>278</ele>
        <time>2018-06-15T09:09:20Z</time>
      </trkpt>
      <trkpt lat="45.95344" lon="4.88175">
        <ele>278</ele>
        <time>2018-06-15T09:09:21Z</time>
      </trkpt>
      <trkpt lat="45.95351" lon="4.88175">
        <ele>278</ele>
        <time>2018-06-15T09:09:22Z</time>
      </trkpt>
      <trkpt lat="45.95358" lon="4.88173">
        <ele>278</ele>
        <time>2018-06-15T09:09:23Z</time>
      </trkpt>
      <trkpt lat="45.95366" lon="4.88171">
        <ele>278</ele>
        <time>2018-06-15T09:09:24Z</time>
      </trkpt>
      <trkpt lat="45.95372" lon="4.88169">
        <ele>278</ele>
        <time>2018-06-15T09:09:25Z</time>
      </trkpt>
      <trkpt lat="45.95378" lon="4.88167">
        <ele>276</ele>
        <time>2018-06-15T09:09:26Z</time>
      </trkpt>
      <trkpt lat="45.95386" lon="4.88166">
        <ele>276</ele>
        <time>2018-06-15T09:09:27Z</time>
      </trkpt>
      <trkpt lat="45.95391" lon="4.88162">
        <ele>276</ele>
        <time>2018-06-15T09:09:28Z</time>
      </trkpt>
      <trkpt lat="45.95397" lon="4.88159">
        <ele>276</ele>
        <time>2018-06-15T09:09:29Z</time>
      </trkpt>
      <trkpt lat="45.95402" lon="4.88159">
        <ele>276</ele>
        <time>2018-06-15T09:09:30Z</time>
      </trkpt>
      <trkpt lat="45.95409" lon="4.88156">
        <ele>276</ele>
        <time>2018-06-15T09:09:31Z</time>
      </trkpt>
      <trkpt lat="45.95414" lon="4.88154">
        <ele>276</ele>
        <time>2018-06-15T09:09:32Z</time>
      </trkpt>
      <trkpt lat="45.95418" lon="4.88152">
        <ele>276</ele>
        <time>2018-06-15T09:09:33Z</time>
      </trkpt>
      <trkpt lat="45.95423" lon="4.88149">
        <ele>276</ele>
        <time>2018-06-15T09:09:34Z</time>
      </trkpt>
      <trkpt lat="45.95428" lon="4.88147">
        <ele>276</ele>
        <time>2018-06-15T09:09:35Z</time>
      </trkpt>
      <trkpt lat="45.95434" lon="4.88145">
        <ele>276</ele>
        <time>2018-06-15T09:09:36Z</time>
      </trkpt>
      <trkpt lat="45.95438" lon="4.88144">
        <ele>276</ele>
        <time>2018-06-15T09:09:37Z</time>
      </trkpt>
      <trkpt lat="45.95444" lon="4.88141">
        <ele>276</ele>
        <time>2018-06-15T09:09:38Z</time>
      </trkpt>
      <trkpt lat="45.95447" lon="4.88138">
        <ele>276</ele>
        <time>2018-06-15T09:09:39Z</time>
      </trkpt>
      <trkpt lat="45.95452" lon="4.88135">
        <ele>276</ele>
        <time>2018-06-15T09:09:40Z</time>
      </trkpt>
      <trkpt lat="45.95457" lon="4.88134">
        <ele>276</ele>
        <time>2018-06-15T09:09:41Z</time>
      </trkpt>
      <trkpt lat="45.95464" lon="4.88132">
        <ele>276</ele>
        <time>2018-06-15T09:09:42Z</time>
      </trkpt>
      <trkpt lat="45.95468" lon="4.88131">
        <ele>276</ele>
        <time>2018-06-15T09:09:43Z</time>
      </trkpt>
      <trkpt lat="45.95476" lon="4.88126">
        <ele>276</ele>
        <time>2018-06-15T09:09:45Z</time>
      </trkpt>
      <trkpt lat="45.9548" lon="4.88124">
        <ele>276</ele>
        <time>2018-06-15T09:09:46Z</time>
      </trkpt>
      <trkpt lat="45.95485" lon="4.88122">
        <ele>276</ele>
        <time>2018-06-15T09:09:47Z</time>
      </trkpt>
      <trkpt lat="45.95489" lon="4.88119">
        <ele>276</ele>
        <time>2018-06-15T09:09:48Z</time>
      </trkpt>
      <trkpt lat="45.95495" lon="4.88115">
        <ele>276</ele>
        <time>2018-06-15T09:09:49Z</time>
      </trkpt>
      <trkpt lat="45.95501" lon="4.88113">
        <ele>276</ele>
        <time>2018-06-15T09:09:50Z</time>
      </trkpt>
      <trkpt lat="45.95506" lon="4.88111">
        <ele>276</ele>
        <time>2018-06-15T09:09:51Z</time>
      </trkpt>
      <trkpt lat="45.95511" lon="4.88107">
        <ele>276</ele>
        <time>2018-06-15T09:09:52Z</time>
      </trkpt>
      <trkpt lat="45.95515" lon="4.88105">
        <ele>276</ele>
        <time>2018-06-15T09:09:53Z</time>
      </trkpt>
      <trkpt lat="45.95521" lon="4.88101">
        <ele>276</ele>
        <time>2018-06-15T09:09:54Z</time>
      </trkpt>
      <trkpt lat="45.95525" lon="4.88101">
        <ele>277</ele>
        <time>2018-06-15T09:09:55Z</time>
      </trkpt>
      <trkpt lat="45.9553" lon="4.88099">
        <ele>277</ele>
        <time>2018-06-15T09:09:56Z</time>
      </trkpt>
      <trkpt lat="45.95534" lon="4.88097">
        <ele>277</ele>
        <time>2018-06-15T09:09:57Z</time>
      </trkpt>
      <trkpt lat="45.95539" lon="4.88095">
        <ele>277</ele>
        <time>2018-06-15T09:09:58Z</time>
      </trkpt>
      <trkpt lat="45.95543" lon="4.88094">
        <ele>277</ele>
        <time>2018-06-15T09:09:59Z</time>
      </trkpt>
      <trkpt lat="45.95548" lon="4.88091">
        <ele>277</ele>
        <time>2018-06-15T09:10:00Z</time>
      </trkpt>
      <trkpt lat="45.95552" lon="4.88089">
        <ele>277</ele>
        <time>2018-06-15T09:10:01Z</time>
      </trkpt>
      <trkpt lat="45.95557" lon="4.88087">
        <ele>277</ele>
        <time>2018-06-15T09:10:02Z</time>
      </trkpt>
      <trkpt lat="45.95564" lon="4.88083">
        <ele>276</ele>
        <time>2018-06-15T09:10:04Z</time>
      </trkpt>
      <trkpt lat="45.95569" lon="4.88082">
        <ele>276</ele>
        <time>2018-06-15T09:10:05Z</time>
      </trkpt>
      <trkpt lat="45.95574" lon="4.88078">
        <ele>277</ele>
        <time>2018-06-15T09:10:06Z</time>
      </trkpt>
      <trkpt lat="45.95578" lon="4.88076">
        <ele>277</ele>
        <time>2018-06-15T09:10:07Z</time>
      </trkpt>
      <trkpt lat="45.95586" lon="4.88071">
        <ele>278</ele>
        <time>2018-06-15T09:10:09Z</time>
      </trkpt>
      <trkpt lat="45.9559" lon="4.88067">
        <ele>278</ele>
        <time>2018-06-15T09:10:10Z</time>
      </trkpt>
      <trkpt lat="45.95596" lon="4.88059">
        <ele>278</ele>
        <time>2018-06-15T09:10:12Z</time>
      </trkpt>
      <trkpt lat="45.95599" lon="4.88054">
        <ele>278</ele>
        <time>2018-06-15T09:10:13Z</time>
      </trkpt>
      <trkpt lat="45.95606" lon="4.88047">
        <ele>278</ele>
        <time>2018-06-15T09:10:15Z</time>
      </trkpt>
      <trkpt lat="45.95611" lon="4.88045">
        <ele>278</ele>
        <time>2018-06-15T09:10:16Z</time>
      </trkpt>
      <trkpt lat="45.95618" lon="4.88038">
        <ele>278</ele>
        <time>2018-06-15T09:10:18Z</time>
      </trkpt>
      <trkpt lat="45.95622" lon="4.88034">
        <ele>278</ele>
        <time>2018-06-15T09:10:19Z</time>
      </trkpt>
      <trkpt lat="45.95627" lon="4.88027">
        <ele>279</ele>
        <time>2018-06-15T09:10:20Z</time>
      </trkpt>
      <trkpt lat="45.9563" lon="4.88024">
        <ele>279</ele>
        <time>2018-06-15T09:10:21Z</time>
      </trkpt>
      <trkpt lat="45.95637" lon="4.8802">
        <ele>279</ele>
        <time>2018-06-15T09:10:23Z</time>
      </trkpt>
      <trkpt lat="45.95641" lon="4.88016">
        <ele>279</ele>
        <time>2018-06-15T09:10:24Z</time>
      </trkpt>
      <trkpt lat="45.95648" lon="4.88009">
        <ele>279</ele>
        <time>2018-06-15T09:10:26Z</time>
      </trkpt>
      <trkpt lat="45.95649" lon="4.88008">
        <ele>280</ele>
        <time>2018-06-15T09:10:27Z</time>
      </trkpt>
      <trkpt lat="45.95656" lon="4.88001">
        <ele>280</ele>
        <time>2018-06-15T09:10:29Z</time>
      </trkpt>
      <trkpt lat="45.95658" lon="4.87999">
        <ele>280</ele>
        <time>2018-06-15T09:10:30Z</time>
      </trkpt>
      <trkpt lat="45.95665" lon="4.87992">
        <ele>280</ele>
        <time>2018-06-15T09:10:33Z</time>
      </trkpt>
      <trkpt lat="45.95667" lon="4.8799">
        <ele>282</ele>
        <time>2018-06-15T09:10:34Z</time>
      </trkpt>
      <trkpt lat="45.95672" lon="4.87984">
        <ele>282</ele>
        <time>2018-06-15T09:10:36Z</time>
      </trkpt>
      <trkpt lat="45.95675" lon="4.87982">
        <ele>282</ele>
        <time>2018-06-15T09:10:37Z</time>
      </trkpt>
      <trkpt lat="45.95681" lon="4.87976">
        <ele>282</ele>
        <time>2018-06-15T09:10:39Z</time>
      </trkpt>
      <trkpt lat="45.95684" lon="4.87974">
        <ele>282</ele>
        <time>2018-06-15T09:10:40Z</time>
      </trkpt>
      <trkpt lat="45.95689" lon="4.8797">
        <ele>282</ele>
        <time>2018-06-15T09:10:42Z</time>
      </trkpt>
      <trkpt lat="45.95692" lon="4.87968">
        <ele>282</ele>
        <time>2018-06-15T09:10:43Z</time>
      </trkpt>
      <trkpt lat="45.95698" lon="4.87963">
        <ele>282</ele>
        <time>2018-06-15T09:10:45Z</time>
      </trkpt>
      <trkpt lat="45.95701" lon="4.87961">
        <ele>283</ele>
        <time>2018-06-15T09:10:46Z</time>
      </trkpt>
      <trkpt lat="45.95709" lon="4.87955">
        <ele>283</ele>
        <time>2018-06-15T09:10:49Z</time>
      </trkpt>
      <trkpt lat="45.95711" lon="4.87953">
        <ele>283</ele>
        <time>2018-06-15T09:10:50Z</time>
      </trkpt>
      <trkpt lat="45.95718" lon="4.87947">
        <ele>283</ele>
        <time>2018-06-15T09:10:53Z</time>
      </trkpt>
      <trkpt lat="45.95721" lon="4.87945">
        <ele>283</ele>
        <time>2018-06-15T09:10:54Z</time>
      </trkpt>
      <trkpt lat="45.95728" lon="4.87938">
        <ele>283</ele>
        <time>2018-06-15T09:10:57Z</time>
      </trkpt>
      <trkpt lat="45.95731" lon="4.87936">
        <ele>283</ele>
        <time>2018-06-15T09:10:58Z</time>
      </trkpt>
      <trkpt lat="45.95734" lon="4.87934">
        <ele>284</ele>
        <time>2018-06-15T09:10:59Z</time>
      </trkpt>
      <trkpt lat="45.95741" lon="4.87929">
        <ele>284</ele>
        <time>2018-06-15T09:11:00Z</time>
      </trkpt>
      <trkpt lat="45.95748" lon="4.87923">
        <ele>284</ele>
        <time>2018-06-15T09:11:04Z</time>
      </trkpt>
      <trkpt lat="45.9575" lon="4.87921">
        <ele>285</ele>
        <time>2018-06-15T09:11:05Z</time>
      </trkpt>
      <trkpt lat="45.95757" lon="4.87915">
        <ele>285</ele>
        <time>2018-06-15T09:11:08Z</time>
      </trkpt>
      <trkpt lat="45.9576" lon="4.87913">
        <ele>285</ele>
        <time>2018-06-15T09:11:09Z</time>
      </trkpt>
      <trkpt lat="45.95765" lon="4.87909">
        <ele>286</ele>
        <time>2018-06-15T09:11:11Z</time>
      </trkpt>
      <trkpt lat="45.95768" lon="4.87907">
        <ele>286</ele>
        <time>2018-06-15T09:11:12Z</time>
      </trkpt>
      <trkpt lat="45.95776" lon="4.87902">
        <ele>286</ele>
        <time>2018-06-15T09:11:15Z</time>
      </trkpt>
      <trkpt lat="45.95779" lon="4.879">
        <ele>286</ele>
        <time>2018-06-15T09:11:16Z</time>
      </trkpt>
      <trkpt lat="45.95784" lon="4.87896">
        <ele>286</ele>
        <time>2018-06-15T09:11:18Z</time>
      </trkpt>
      <trkpt lat="45.95787" lon="4.87894">
        <ele>286</ele>
        <time>2018-06-15T09:11:19Z</time>
      </trkpt>
      <trkpt lat="45.95793" lon="4.87891">
        <ele>286</ele>
        <time>2018-06-15T09:11:21Z</time>
      </trkpt>
      <trkpt lat="45.958" lon="4.87887">
        <ele>287</ele>
        <time>2018-06-15T09:11:22Z</time>
      </trkpt>
      <trkpt lat="45.95807" lon="4.87885">
        <ele>287</ele>
        <time>2018-06-15T09:11:26Z</time>
      </trkpt>
      <trkpt lat="45.95809" lon="4.87884">
        <ele>287</ele>
        <time>2018-06-15T09:11:27Z</time>
      </trkpt>
      <trkpt lat="45.95817" lon="4.87881">
        <ele>287</ele>
        <time>2018-06-15T09:11:30Z</time>
      </trkpt>
      <trkpt lat="45.9582" lon="4.87881">
        <ele>287</ele>
        <time>2018-06-15T09:11:31Z</time>
      </trkpt>
      <trkpt lat="45.95827" lon="4.87878">
        <ele>287</ele>
        <time>2018-06-15T09:11:34Z</time>
      </trkpt>
      <trkpt lat="45.9583" lon="4.87877">
        <ele>287</ele>
        <time>2018-06-15T09:11:35Z</time>
      </trkpt>
      <trkpt lat="45.95835" lon="4.87874">
        <ele>289</ele>
        <time>2018-06-15T09:11:37Z</time>
      </trkpt>
      <trkpt lat="45.95838" lon="4.87872">
        <ele>289</ele>
        <time>2018-06-15T09:11:38Z</time>
      </trkpt>
      <trkpt lat="45.9584" lon="4.87869">
        <ele>289</ele>
        <time>2018-06-15T09:11:39Z</time>
      </trkpt>
      <trkpt lat="45.95847" lon="4.8786">
        <ele>289</ele>
        <time>2018-06-15T09:11:40Z</time>
      </trkpt>
      <trkpt lat="45.95853" lon="4.87852">
        <ele>289</ele>
        <time>2018-06-15T09:11:42Z</time>
      </trkpt>
      <trkpt lat="45.95856" lon="4.87848">
        <ele>289</ele>
        <time>2018-06-15T09:11:43Z</time>
      </trkpt>
      <trkpt lat="45.95864" lon="4.87841">
        <ele>289</ele>
        <time>2018-06-15T09:11:45Z</time>
      </trkpt>
      <trkpt lat="45.95867" lon="4.87838">
        <ele>289</ele>
        <time>2018-06-15T09:11:46Z</time>
      </trkpt>
      <trkpt lat="45.95872" lon="4.87833">
        <ele>288</ele>
        <time>2018-06-15T09:11:47Z</time>
      </trkpt>
      <trkpt lat="45.95876" lon="4.87828">
        <ele>288</ele>
        <time>2018-06-15T09:11:48Z</time>
      </trkpt>
      <trkpt lat="45.9588" lon="4.87825">
        <ele>288</ele>
        <time>2018-06-15T09:11:49Z</time>
      </trkpt>
      <trkpt lat="45.95884" lon="4.87821">
        <ele>288</ele>
        <time>2018-06-15T09:11:50Z</time>
      </trkpt>
      <trkpt lat="45.95888" lon="4.87816">
        <ele>288</ele>
        <time>2018-06-15T09:11:51Z</time>
      </trkpt>
      <trkpt lat="45.95892" lon="4.87812">
        <ele>288</ele>
        <time>2018-06-15T09:11:52Z</time>
      </trkpt>
      <trkpt lat="45.95898" lon="4.87802">
        <ele>288</ele>
        <time>2018-06-15T09:11:54Z</time>
      </trkpt>
      <trkpt lat="45.959" lon="4.87798">
        <ele>288</ele>
        <time>2018-06-15T09:11:55Z</time>
      </trkpt>
      <trkpt lat="45.95905" lon="4.87788">
        <ele>288</ele>
        <time>2018-06-15T09:11:57Z</time>
      </trkpt>
      <trkpt lat="45.95908" lon="4.87783">
        <ele>288</ele>
        <time>2018-06-15T09:11:58Z</time>
      </trkpt>
      <trkpt lat="45.95913" lon="4.87775">
        <ele>288</ele>
        <time>2018-06-15T09:12:00Z</time>
      </trkpt>
      <trkpt lat="45.95916" lon="4.8777">
        <ele>288</ele>
        <time>2018-06-15T09:12:01Z</time>
      </trkpt>
      <trkpt lat="45.95921" lon="4.87764">
        <ele>288</ele>
        <time>2018-06-15T09:12:03Z</time>
      </trkpt>
      <trkpt lat="45.95925" lon="4.87761">
        <ele>288</ele>
        <time>2018-06-15T09:12:04Z</time>
      </trkpt>
      <trkpt lat="45.95931" lon="4.87753">
        <ele>288</ele>
        <time>2018-06-15T09:12:06Z</time>
      </trkpt>
      <trkpt lat="45.95934" lon="4.87749">
        <ele>288</ele>
        <time>2018-06-15T09:12:07Z</time>
      </trkpt>
      <trkpt lat="45.95939" lon="4.87741">
        <ele>288</ele>
        <time>2018-06-15T09:12:09Z</time>
      </trkpt>
      <trkpt lat="45.95942" lon="4.87737">
        <ele>289</ele>
        <time>2018-06-15T09:12:10Z</time>
      </trkpt>
      <trkpt lat="45.95947" lon="4.87728">
        <ele>289</ele>
        <time>2018-06-15T09:12:12Z</time>
      </trkpt>
      <trkpt lat="45.9595" lon="4.87724">
        <ele>289</ele>
        <time>2018-06-15T09:12:13Z</time>
      </trkpt>
      <trkpt lat="45.95956" lon="4.87716">
        <ele>289</ele>
        <time>2018-06-15T09:12:15Z</time>
      </trkpt>
      <trkpt lat="45.95958" lon="4.87712">
        <ele>289</ele>
        <time>2018-06-15T09:12:16Z</time>
      </trkpt>
      <trkpt lat="45.95964" lon="4.87705">
        <ele>289</ele>
        <time>2018-06-15T09:12:18Z</time>
      </trkpt>
      <trkpt lat="45.95968" lon="4.87699">
        <ele>289</ele>
        <time>2018-06-15T09:12:19Z</time>
      </trkpt>
      <trkpt lat="45.95972" lon="4.87695">
        <ele>289</ele>
        <time>2018-06-15T09:12:20Z</time>
      </trkpt>
      <trkpt lat="45.95976" lon="4.8769">
        <ele>289</ele>
        <time>2018-06-15T09:12:21Z</time>
      </trkpt>
      <trkpt lat="45.95981" lon="4.87685">
        <ele>289</ele>
        <time>2018-06-15T09:12:22Z</time>
      </trkpt>
      <trkpt lat="45.95983" lon="4.87682">
        <ele>289</ele>
        <time>2018-06-15T09:12:23Z</time>
      </trkpt>
      <trkpt lat="45.95987" lon="4.87677">
        <ele>289</ele>
        <time>2018-06-15T09:12:24Z</time>
      </trkpt>
      <trkpt lat="45.9599" lon="4.87673">
        <ele>290</ele>
        <time>2018-06-15T09:12:25Z</time>
      </trkpt>
      <trkpt lat="45.95994" lon="4.87669">
        <ele>290</ele>
        <time>2018-06-15T09:12:26Z</time>
      </trkpt>
      <trkpt lat="45.95998" lon="4.87667">
        <ele>290</ele>
        <time>2018-06-15T09:12:27Z</time>
      </trkpt>
      <trkpt lat="45.96002" lon="4.87662">
        <ele>290</ele>
        <time>2018-06-15T09:12:28Z</time>
      </trkpt>
      <trkpt lat="45.96005" lon="4.87657">
        <ele>290</ele>
        <time>2018-06-15T09:12:29Z</time>
      </trkpt>
      <trkpt lat="45.96008" lon="4.87654">
        <ele>289</ele>
        <time>2018-06-15T09:12:30Z</time>
      </trkpt>
      <trkpt lat="45.96012" lon="4.87648">
        <ele>289</ele>
        <time>2018-06-15T09:12:31Z</time>
      </trkpt>
      <trkpt lat="45.96015" lon="4.87643">
        <ele>289</ele>
        <time>2018-06-15T09:12:32Z</time>
      </trkpt>
      <trkpt lat="45.96019" lon="4.87639">
        <ele>289</ele>
        <time>2018-06-15T09:12:33Z</time>
      </trkpt>
      <trkpt lat="45.96026" lon="4.87632">
        <ele>289</ele>
        <time>2018-06-15T09:12:35Z</time>
      </trkpt>
      <trkpt lat="45.96029" lon="4.87627">
        <ele>289</ele>
        <time>2018-06-15T09:12:36Z</time>
      </trkpt>
      <trkpt lat="45.96031" lon="4.87625">
        <ele>289</ele>
        <time>2018-06-15T09:12:37Z</time>
      </trkpt>
      <trkpt lat="45.96037" lon="4.87621">
        <ele>289</ele>
        <time>2018-06-15T09:12:38Z</time>
      </trkpt>
      <trkpt lat="45.96041" lon="4.87616">
        <ele>289</ele>
        <time>2018-06-15T09:12:39Z</time>
      </trkpt>
      <trkpt lat="45.96045" lon="4.87608">
        <ele>289</ele>
        <time>2018-06-15T09:12:40Z</time>
      </trkpt>
      <trkpt lat="45.96049" lon="4.87603">
        <ele>289</ele>
        <time>2018-06-15T09:12:41Z</time>
      </trkpt>
      <trkpt lat="45.96053" lon="4.87599">
        <ele>289</ele>
        <time>2018-06-15T09:12:42Z</time>
      </trkpt>
      <trkpt lat="45.96057" lon="4.87595">
        <ele>288</ele>
        <time>2018-06-15T09:12:43Z</time>
      </trkpt>
      <trkpt lat="45.96062" lon="4.87589">
        <ele>288</ele>
        <time>2018-06-15T09:12:44Z</time>
      </trkpt>
      <trkpt lat="45.96069" lon="4.87582">
        <ele>288</ele>
        <time>2018-06-15T09:12:46Z</time>
      </trkpt>
      <trkpt lat="45.96072" lon="4.87578">
        <ele>288</ele>
        <time>2018-06-15T09:12:47Z</time>
      </trkpt>
      <trkpt lat="45.96076" lon="4.87574">
        <ele>288</ele>
        <time>2018-06-15T09:12:48Z</time>
      </trkpt>
      <trkpt lat="45.9608" lon="4.87571">
        <ele>288</ele>
        <time>2018-06-15T09:12:49Z</time>
      </trkpt>
      <trkpt lat="45.96087" lon="4.87563">
        <ele>287</ele>
        <time>2018-06-15T09:12:51Z</time>
      </trkpt>
      <trkpt lat="45.96091" lon="4.87559">
        <ele>287</ele>
        <time>2018-06-15T09:12:52Z</time>
      </trkpt>
      <trkpt lat="45.96096" lon="4.87554">
        <ele>287</ele>
        <time>2018-06-15T09:12:53Z</time>
      </trkpt>
      <trkpt lat="45.96099" lon="4.87551">
        <ele>287</ele>
        <time>2018-06-15T09:12:54Z</time>
      </trkpt>
      <trkpt lat="45.96104" lon="4.87547">
        <ele>287</ele>
        <time>2018-06-15T09:12:55Z</time>
      </trkpt>
      <trkpt lat="45.96108" lon="4.8754">
        <ele>287</ele>
        <time>2018-06-15T09:12:56Z</time>
      </trkpt>
      <trkpt lat="45.96111" lon="4.87536">
        <ele>287</ele>
        <time>2018-06-15T09:12:57Z</time>
      </trkpt>
      <trkpt lat="45.96116" lon="4.87532">
        <ele>287</ele>
        <time>2018-06-15T09:12:58Z</time>
      </trkpt>
      <trkpt lat="45.9612" lon="4.87528">
        <ele>286</ele>
        <time>2018-06-15T09:12:59Z</time>
      </trkpt>
      <trkpt lat="45.96125" lon="4.87524">
        <ele>286</ele>
        <time>2018-06-15T09:13:00Z</time>
      </trkpt>
      <trkpt lat="45.96128" lon="4.87519">
        <ele>286</ele>
        <time>2018-06-15T09:13:01Z</time>
      </trkpt>
      <trkpt lat="45.96132" lon="4.87513">
        <ele>286</ele>
        <time>2018-06-15T09:13:02Z</time>
      </trkpt>
      <trkpt lat="45.96137" lon="4.87508">
        <ele>286</ele>
        <time>2018-06-15T09:13:03Z</time>
      </trkpt>
      <trkpt lat="45.96141" lon="4.87503">
        <ele>286</ele>
        <time>2018-06-15T09:13:04Z</time>
      </trkpt>
      <trkpt lat="45.96146" lon="4.87498">
        <ele>285</ele>
        <time>2018-06-15T09:13:05Z</time>
      </trkpt>
      <trkpt lat="45.96151" lon="4.87491">
        <ele>285</ele>
        <time>2018-06-15T09:13:06Z</time>
      </trkpt>
      <trkpt lat="45.96155" lon="4.87485">
        <ele>285</ele>
        <time>2018-06-15T09:13:07Z</time>
      </trkpt>
      <trkpt lat="45.9616" lon="4.87481">
        <ele>285</ele>
        <time>2018-06-15T09:13:08Z</time>
      </trkpt>
      <trkpt lat="45.96163" lon="4.87476">
        <ele>285</ele>
        <time>2018-06-15T09:13:09Z</time>
      </trkpt>
      <trkpt lat="45.96167" lon="4.87471">
        <ele>284</ele>
        <time>2018-06-15T09:13:10Z</time>
      </trkpt>
      <trkpt lat="45.96173" lon="4.87465">
        <ele>284</ele>
        <time>2018-06-15T09:13:11Z</time>
      </trkpt>
      <trkpt lat="45.96178" lon="4.8746">
        <ele>284</ele>
        <time>2018-06-15T09:13:12Z</time>
      </trkpt>
      <trkpt lat="45.96182" lon="4.87455">
        <ele>284</ele>
        <time>2018-06-15T09:13:13Z</time>
      </trkpt>
      <trkpt lat="45.96186" lon="4.87451">
        <ele>284</ele>
        <time>2018-06-15T09:13:14Z</time>
      </trkpt>
      <trkpt lat="45.96191" lon="4.87449">
        <ele>284</ele>
        <time>2018-06-15T09:13:16Z</time>
      </trkpt>
      <trkpt lat="45.96196" lon="4.87444">
        <ele>284</ele>
        <time>2018-06-15T09:13:17Z</time>
      </trkpt>
      <trkpt lat="45.962" lon="4.87439">
        <ele>284</ele>
        <time>2018-06-15T09:13:18Z</time>
      </trkpt>
      <trkpt lat="45.96204" lon="4.87435">
        <ele>284</ele>
        <time>2018-06-15T09:13:19Z</time>
      </trkpt>
      <trkpt lat="45.96209" lon="4.87427">
        <ele>284</ele>
        <time>2018-06-15T09:13:20Z</time>
      </trkpt>
      <trkpt lat="45.96212" lon="4.87424">
        <ele>284</ele>
        <time>2018-06-15T09:13:21Z</time>
      </trkpt>
      <trkpt lat="45.96216" lon="4.8742">
        <ele>284</ele>
        <time>2018-06-15T09:13:22Z</time>
      </trkpt>
      <trkpt lat="45.96221" lon="4.87415">
        <ele>283</ele>
        <time>2018-06-15T09:13:23Z</time>
      </trkpt>
      <trkpt lat="45.96225" lon="4.87409">
        <ele>283</ele>
        <time>2018-06-15T09:13:24Z</time>
      </trkpt>
      <trkpt lat="45.96229" lon="4.87403">
        <ele>283</ele>
        <time>2018-06-15T09:13:25Z</time>
      </trkpt>
      <trkpt lat="45.96235" lon="4.87398">
        <ele>283</ele>
        <time>2018-06-15T09:13:26Z</time>
      </trkpt>
      <trkpt lat="45.96238" lon="4.87392">
        <ele>283</ele>
        <time>2018-06-15T09:13:27Z</time>
      </trkpt>
      <trkpt lat="45.96245" lon="4.87384">
        <ele>283</ele>
        <time>2018-06-15T09:13:29Z</time>
      </trkpt>
      <trkpt lat="45.96248" lon="4.8738">
        <ele>283</ele>
        <time>2018-06-15T09:13:30Z</time>
      </trkpt>
      <trkpt lat="45.96252" lon="4.87375">
        <ele>283</ele>
        <time>2018-06-15T09:13:31Z</time>
      </trkpt>
      <trkpt lat="45.96256" lon="4.87371">
        <ele>283</ele>
        <time>2018-06-15T09:13:32Z</time>
      </trkpt>
      <trkpt lat="45.9626" lon="4.87366">
        <ele>283</ele>
        <time>2018-06-15T09:13:33Z</time>
      </trkpt>
      <trkpt lat="45.96265" lon="4.87358">
        <ele>283</ele>
        <time>2018-06-15T09:13:34Z</time>
      </trkpt>
      <trkpt lat="45.96272" lon="4.87351">
        <ele>283</ele>
        <time>2018-06-15T09:13:36Z</time>
      </trkpt>
      <trkpt lat="45.96275" lon="4.87344">
        <ele>283</ele>
        <time>2018-06-15T09:13:37Z</time>
      </trkpt>
      <trkpt lat="45.96279" lon="4.8734">
        <ele>284</ele>
        <time>2018-06-15T09:13:38Z</time>
      </trkpt>
      <trkpt lat="45.96284" lon="4.87334">
        <ele>284</ele>
        <time>2018-06-15T09:13:39Z</time>
      </trkpt>
      <trkpt lat="45.96288" lon="4.87329">
        <ele>283</ele>
        <time>2018-06-15T09:13:40Z</time>
      </trkpt>
      <trkpt lat="45.96292" lon="4.87324">
        <ele>283</ele>
        <time>2018-06-15T09:13:41Z</time>
      </trkpt>
      <trkpt lat="45.96296" lon="4.87319">
        <ele>283</ele>
        <time>2018-06-15T09:13:42Z</time>
      </trkpt>
      <trkpt lat="45.963" lon="4.87314">
        <ele>283</ele>
        <time>2018-06-15T09:13:43Z</time>
      </trkpt>
      <trkpt lat="45.96304" lon="4.8731">
        <ele>283</ele>
        <time>2018-06-15T09:13:44Z</time>
      </trkpt>
      <trkpt lat="45.96308" lon="4.87304">
        <ele>283</ele>
        <time>2018-06-15T09:13:45Z</time>
      </trkpt>
      <trkpt lat="45.96311" lon="4.87299">
        <ele>283</ele>
        <time>2018-06-15T09:13:46Z</time>
      </trkpt>
      <trkpt lat="45.96315" lon="4.87294">
        <ele>283</ele>
        <time>2018-06-15T09:13:47Z</time>
      </trkpt>
      <trkpt lat="45.9632" lon="4.8729">
        <ele>283</ele>
        <time>2018-06-15T09:13:48Z</time>
      </trkpt>
      <trkpt lat="45.96324" lon="4.87283">
        <ele>283</ele>
        <time>2018-06-15T09:13:49Z</time>
      </trkpt>
      <trkpt lat="45.96329" lon="4.87276">
        <ele>283</ele>
        <time>2018-06-15T09:13:50Z</time>
      </trkpt>
      <trkpt lat="45.96333" lon="4.87269">
        <ele>283</ele>
        <time>2018-06-15T09:13:51Z</time>
      </trkpt>
      <trkpt lat="45.96338" lon="4.87263">
        <ele>283</ele>
        <time>2018-06-15T09:13:52Z</time>
      </trkpt>
      <trkpt lat="45.96342" lon="4.87258">
        <ele>283</ele>
        <time>2018-06-15T09:13:53Z</time>
      </trkpt>
      <trkpt lat="45.96345" lon="4.87253">
        <ele>283</ele>
        <time>2018-06-15T09:13:54Z</time>
      </trkpt>
      <trkpt lat="45.9635" lon="4.87248">
        <ele>283</ele>
        <time>2018-06-15T09:13:55Z</time>
      </trkpt>
      <trkpt lat="45.96353" lon="4.87243">
        <ele>282</ele>
        <time>2018-06-15T09:13:56Z</time>
      </trkpt>
      <trkpt lat="45.96357" lon="4.87238">
        <ele>282</ele>
        <time>2018-06-15T09:13:57Z</time>
      </trkpt>
      <trkpt lat="45.96364" lon="4.87231">
        <ele>282</ele>
        <time>2018-06-15T09:13:59Z</time>
      </trkpt>
      <trkpt lat="45.96367" lon="4.87226">
        <ele>282</ele>
        <time>2018-06-15T09:14:00Z</time>
      </trkpt>
      <trkpt lat="45.96373" lon="4.87214">
        <ele>282</ele>
        <time>2018-06-15T09:14:01Z</time>
      </trkpt>
      <trkpt lat="45.96378" lon="4.87208">
        <ele>282</ele>
        <time>2018-06-15T09:14:02Z</time>
      </trkpt>
      <trkpt lat="45.96382" lon="4.87202">
        <ele>282</ele>
        <time>2018-06-15T09:14:03Z</time>
      </trkpt>
      <trkpt lat="45.96387" lon="4.87196">
        <ele>282</ele>
        <time>2018-06-15T09:14:04Z</time>
      </trkpt>
      <trkpt lat="45.96392" lon="4.8719">
        <ele>282</ele>
        <time>2018-06-15T09:14:05Z</time>
      </trkpt>
      <trkpt lat="45.96396" lon="4.87185">
        <ele>282</ele>
        <time>2018-06-15T09:14:06Z</time>
      </trkpt>
      <trkpt lat="45.964" lon="4.87179">
        <ele>282</ele>
        <time>2018-06-15T09:14:07Z</time>
      </trkpt>
      <trkpt lat="45.96404" lon="4.87174">
        <ele>281</ele>
        <time>2018-06-15T09:14:08Z</time>
      </trkpt>
      <trkpt lat="45.96408" lon="4.87169">
        <ele>281</ele>
        <time>2018-06-15T09:14:09Z</time>
      </trkpt>
      <trkpt lat="45.96412" lon="4.87163">
        <ele>281</ele>
        <time>2018-06-15T09:14:10Z</time>
      </trkpt>
      <trkpt lat="45.96415" lon="4.8716">
        <ele>281</ele>
        <time>2018-06-15T09:14:11Z</time>
      </trkpt>
      <trkpt lat="45.96419" lon="4.87156">
        <ele>281</ele>
        <time>2018-06-15T09:14:12Z</time>
      </trkpt>
      <trkpt lat="45.96422" lon="4.87152">
        <ele>281</ele>
        <time>2018-06-15T09:14:13Z</time>
      </trkpt>
      <trkpt lat="45.96425" lon="4.87147">
        <ele>281</ele>
        <time>2018-06-15T09:14:14Z</time>
      </trkpt>
      <trkpt lat="45.96429" lon="4.87142">
        <ele>281</ele>
        <time>2018-06-15T09:14:15Z</time>
      </trkpt>
      <trkpt lat="45.96434" lon="4.87135">
        <ele>281</ele>
        <time>2018-06-15T09:14:17Z</time>
      </trkpt>
      <trkpt lat="45.96438" lon="4.87132">
        <ele>281</ele>
        <time>2018-06-15T09:14:18Z</time>
      </trkpt>
      <trkpt lat="45.96441" lon="4.87127">
        <ele>281</ele>
        <time>2018-06-15T09:14:19Z</time>
      </trkpt>
      <trkpt lat="45.96444" lon="4.87122">
        <ele>281</ele>
        <time>2018-06-15T09:14:20Z</time>
      </trkpt>
      <trkpt lat="45.96447" lon="4.87116">
        <ele>281</ele>
        <time>2018-06-15T09:14:21Z</time>
      </trkpt>
      <trkpt lat="45.96451" lon="4.8711">
        <ele>281</ele>
        <time>2018-06-15T09:14:22Z</time>
      </trkpt>
      <trkpt lat="45.96458" lon="4.87102">
        <ele>281</ele>
        <time>2018-06-15T09:14:24Z</time>
      </trkpt>
      <trkpt lat="45.96462" lon="4.87098">
        <ele>282</ele>
        <time>2018-06-15T09:14:25Z</time>
      </trkpt>
      <trkpt lat="45.96468" lon="4.87091">
        <ele>282</ele>
        <time>2018-06-15T09:14:27Z</time>
      </trkpt>
      <trkpt lat="45.96471" lon="4.87085">
        <ele>282</ele>
        <time>2018-06-15T09:14:28Z</time>
      </trkpt>
      <trkpt lat="45.96478" lon="4.87078">
        <ele>282</ele>
        <time>2018-06-15T09:14:30Z</time>
      </trkpt>
      <trkpt lat="45.9648" lon="4.87073">
        <ele>282</ele>
        <time>2018-06-15T09:14:31Z</time>
      </trkpt>
      <trkpt lat="45.96485" lon="4.87065">
        <ele>282</ele>
        <time>2018-06-15T09:14:33Z</time>
      </trkpt>
      <trkpt lat="45.96488" lon="4.87061">
        <ele>281</ele>
        <time>2018-06-15T09:14:34Z</time>
      </trkpt>
      <trkpt lat="45.96491" lon="4.87057">
        <ele>281</ele>
        <time>2018-06-15T09:14:35Z</time>
      </trkpt>
      <trkpt lat="45.96495" lon="4.87052">
        <ele>281</ele>
        <time>2018-06-15T09:14:36Z</time>
      </trkpt>
      <trkpt lat="45.96501" lon="4.87047">
        <ele>282</ele>
        <time>2018-06-15T09:14:39Z</time>
      </trkpt>
      <trkpt lat="45.96504" lon="4.87047">
        <ele>282</ele>
        <time>2018-06-15T09:14:40Z</time>
      </trkpt>
      <trkpt lat="45.9651" lon="4.87051">
        <ele>283</ele>
        <time>2018-06-15T09:14:43Z</time>
      </trkpt>
      <trkpt lat="45.96512" lon="4.87053">
        <ele>283</ele>
        <time>2018-06-15T09:14:44Z</time>
      </trkpt>
      <trkpt lat="45.96517" lon="4.87061">
        <ele>283</ele>
        <time>2018-06-15T09:14:47Z</time>
      </trkpt>
      <trkpt lat="45.96519" lon="4.87063">
        <ele>283</ele>
        <time>2018-06-15T09:14:48Z</time>
      </trkpt>
      <trkpt lat="45.96526" lon="4.87067">
        <ele>283</ele>
        <time>2018-06-15T09:14:51Z</time>
      </trkpt>
      <trkpt lat="45.96527" lon="4.87067">
        <ele>283</ele>
        <time>2018-06-15T09:14:52Z</time>
      </trkpt>
      <trkpt lat="45.96534" lon="4.87061">
        <ele>283</ele>
        <time>2018-06-15T09:14:57Z</time>
      </trkpt>
      <trkpt lat="45.96535" lon="4.87059">
        <ele>283</ele>
        <time>2018-06-15T09:14:58Z</time>
      </trkpt>
      <trkpt lat="45.9654" lon="4.87068">
        <ele>283</ele>
        <time>2018-06-15T09:15:06Z</time>
      </trkpt>
      <trkpt lat="45.96541" lon="4.8707">
        <ele>283</ele>
        <time>2018-06-15T09:15:07Z</time>
      </trkpt>
      <trkpt lat="45.96549" lon="4.87071">
        <ele>283</ele>
        <time>2018-06-15T09:15:11Z</time>
      </trkpt>
      <trkpt lat="45.96552" lon="4.87071">
        <ele>283</ele>
        <time>2018-06-15T09:15:12Z</time>
      </trkpt>
      <trkpt lat="45.96559" lon="4.87068">
        <ele>283</ele>
        <time>2018-06-15T09:15:15Z</time>
      </trkpt>
      <trkpt lat="45.9656" lon="4.87066">
        <ele>283</ele>
        <time>2018-06-15T09:15:16Z</time>
      </trkpt>
      <trkpt lat="45.96559" lon="4.87055">
        <ele>283</ele>
        <time>2018-06-15T09:15:19Z</time>
      </trkpt>
      <trkpt lat="45.96558" lon="4.8705">
        <ele>283</ele>
        <time>2018-06-15T09:15:20Z</time>
      </trkpt>
      <trkpt lat="45.96556" lon="4.8704">
        <ele>283</ele>
        <time>2018-06-15T09:15:22Z</time>
      </trkpt>
      <trkpt lat="45.96554" lon="4.87036">
        <ele>283</ele>
        <time>2018-06-15T09:15:23Z</time>
      </trkpt>
      <trkpt lat="45.96548" lon="4.87027">
        <ele>283</ele>
        <time>2018-06-15T09:15:26Z</time>
      </trkpt>
      <trkpt lat="45.96546" lon="4.87026">
        <ele>283</ele>
        <time>2018-06-15T09:15:27Z</time>
      </trkpt>
      <trkpt lat="45.96538" lon="4.87026">
        <ele>283</ele>
        <time>2018-06-15T09:15:31Z</time>
      </trkpt>
      <trkpt lat="45.96537" lon="4.87027">
        <ele>283</ele>
        <time>2018-06-15T09:15:32Z</time>
      </trkpt>
      <trkpt lat="45.96529" lon="4.87029">
        <ele>283</ele>
        <time>2018-06-15T09:21:35.596Z</time>
      </trkpt>
      <trkpt lat="45.96527" lon="4.8703">
        <ele>283</ele>
        <time>2018-06-15T09:21:42.947Z</time>
      </trkpt>
      <trkpt lat="45.96534" lon="4.87025">
        <ele>283</ele>
        <time>2018-06-15T09:24:57Z</time>
      </trkpt>
      <trkpt lat="45.96535" lon="4.87024">
        <ele>283</ele>
        <time>2018-06-15T09:24:58Z</time>
      </trkpt>
      <trkpt lat="45.9654" lon="4.87015">
        <ele>283</ele>
        <time>2018-06-15T09:25:02Z</time>
      </trkpt>
      <trkpt lat="45.9654" lon="4.87011">
        <ele>283</ele>
        <time>2018-06-15T09:25:03Z</time>
      </trkpt>
      <trkpt lat="45.96541" lon="4.87">
        <ele>283</ele>
        <time>2018-06-15T09:25:04Z</time>
      </trkpt>
      <trkpt lat="45.96541" lon="4.86998">
        <ele>283</ele>
        <time>2018-06-15T09:25:05Z</time>
      </trkpt>
      <trkpt lat="45.96543" lon="4.86988">
        <ele>283</ele>
        <time>2018-06-15T09:25:10Z</time>
      </trkpt>
      <trkpt lat="45.96544" lon="4.86986">
        <ele>283</ele>
        <time>2018-06-15T09:25:11Z</time>
      </trkpt>
      <trkpt lat="45.9655" lon="4.86978">
        <ele>283</ele>
        <time>2018-06-15T09:25:14Z</time>
      </trkpt>
      <trkpt lat="45.96551" lon="4.86975">
        <ele>283</ele>
        <time>2018-06-15T09:25:15Z</time>
      </trkpt>
      <trkpt lat="45.96556" lon="4.86968">
        <ele>283</ele>
        <time>2018-06-15T09:25:18Z</time>
      </trkpt>
      <trkpt lat="45.96558" lon="4.86965">
        <ele>283</ele>
        <time>2018-06-15T09:25:19Z</time>
      </trkpt>
      <trkpt lat="45.96564" lon="4.86956">
        <ele>283</ele>
        <time>2018-06-15T09:25:22Z</time>
      </trkpt>
      <trkpt lat="45.96566" lon="4.86953">
        <ele>284</ele>
        <time>2018-06-15T09:25:23Z</time>
      </trkpt>
      <trkpt lat="45.9657" lon="4.86946">
        <ele>284</ele>
        <time>2018-06-15T09:25:25Z</time>
      </trkpt>
      <trkpt lat="45.96573" lon="4.86942">
        <ele>284</ele>
        <time>2018-06-15T09:25:26Z</time>
      </trkpt>
      <trkpt lat="45.96577" lon="4.86935">
        <ele>284</ele>
        <time>2018-06-15T09:25:28Z</time>
      </trkpt>
      <trkpt lat="45.96579" lon="4.86932">
        <ele>284</ele>
        <time>2018-06-15T09:25:29Z</time>
      </trkpt>
      <trkpt lat="45.96584" lon="4.86924">
        <ele>285</ele>
        <time>2018-06-15T09:25:31Z</time>
      </trkpt>
      <trkpt lat="45.96586" lon="4.86921">
        <ele>285</ele>
        <time>2018-06-15T09:25:32Z</time>
      </trkpt>
      <trkpt lat="45.96592" lon="4.86911">
        <ele>286</ele>
        <time>2018-06-15T09:25:33Z</time>
      </trkpt>
      <trkpt lat="45.96597" lon="4.86903">
        <ele>286</ele>
        <time>2018-06-15T09:25:36Z</time>
      </trkpt>
      <trkpt lat="45.96598" lon="4.86901">
        <ele>286</ele>
        <time>2018-06-15T09:25:37Z</time>
      </trkpt>
      <trkpt lat="45.96603" lon="4.86892">
        <ele>287</ele>
        <time>2018-06-15T09:25:40Z</time>
      </trkpt>
      <trkpt lat="45.96605" lon="4.86888">
        <ele>287</ele>
        <time>2018-06-15T09:25:41Z</time>
      </trkpt>
      <trkpt lat="45.96611" lon="4.86879">
        <ele>287</ele>
        <time>2018-06-15T09:25:42Z</time>
      </trkpt>
      <trkpt lat="45.96613" lon="4.86874">
        <ele>287</ele>
        <time>2018-06-15T09:25:43Z</time>
      </trkpt>
      <trkpt lat="45.96618" lon="4.86868">
        <ele>287</ele>
        <time>2018-06-15T09:25:46Z</time>
      </trkpt>
      <trkpt lat="45.9662" lon="4.86865">
        <ele>287</ele>
        <time>2018-06-15T09:25:47Z</time>
      </trkpt>
      <trkpt lat="45.96626" lon="4.86856">
        <ele>287</ele>
        <time>2018-06-15T09:25:48Z</time>
      </trkpt>
      <trkpt lat="45.96628" lon="4.86853">
        <ele>287</ele>
        <time>2018-06-15T09:25:49Z</time>
      </trkpt>
      <trkpt lat="45.96632" lon="4.86847">
        <ele>287</ele>
        <time>2018-06-15T09:25:50Z</time>
      </trkpt>
      <trkpt lat="45.96635" lon="4.86842">
        <ele>287</ele>
        <time>2018-06-15T09:25:51Z</time>
      </trkpt>
      <trkpt lat="45.96639" lon="4.86833">
        <ele>287</ele>
        <time>2018-06-15T09:25:53Z</time>
      </trkpt>
      <trkpt lat="45.96642" lon="4.86829">
        <ele>288</ele>
        <time>2018-06-15T09:25:54Z</time>
      </trkpt>
      <trkpt lat="45.96647" lon="4.86819">
        <ele>288</ele>
        <time>2018-06-15T09:25:56Z</time>
      </trkpt>
      <trkpt lat="45.9665" lon="4.86814">
        <ele>288</ele>
        <time>2018-06-15T09:25:57Z</time>
      </trkpt>
      <trkpt lat="45.96655" lon="4.86804">
        <ele>288</ele>
        <time>2018-06-15T09:25:59Z</time>
      </trkpt>
      <trkpt lat="45.96657" lon="4.868">
        <ele>288</ele>
        <time>2018-06-15T09:26:00Z</time>
      </trkpt>
      <trkpt lat="45.96662" lon="4.8679">
        <ele>288</ele>
        <time>2018-06-15T09:26:02Z</time>
      </trkpt>
      <trkpt lat="45.96665" lon="4.86786">
        <ele>288</ele>
        <time>2018-06-15T09:26:03Z</time>
      </trkpt>
      <trkpt lat="45.96671" lon="4.86778">
        <ele>289</ele>
        <time>2018-06-15T09:26:05Z</time>
      </trkpt>
      <trkpt lat="45.96672" lon="4.86776">
        <ele>289</ele>
        <time>2018-06-15T09:26:06Z</time>
      </trkpt>
      <trkpt lat="45.96676" lon="4.86771">
        <ele>289</ele>
        <time>2018-06-15T09:26:07Z</time>
      </trkpt>
      <trkpt lat="45.96679" lon="4.86767">
        <ele>289</ele>
        <time>2018-06-15T09:26:08Z</time>
      </trkpt>
      <trkpt lat="45.96684" lon="4.86758">
        <ele>289</ele>
        <time>2018-06-15T09:26:10Z</time>
      </trkpt>
      <trkpt lat="45.96687" lon="4.86753">
        <ele>289</ele>
        <time>2018-06-15T09:26:11Z</time>
      </trkpt>
      <trkpt lat="45.96692" lon="4.86745">
        <ele>289</ele>
        <time>2018-06-15T09:26:13Z</time>
      </trkpt>
      <trkpt lat="45.96695" lon="4.8674">
        <ele>289</ele>
        <time>2018-06-15T09:26:14Z</time>
      </trkpt>
      <trkpt lat="45.96698" lon="4.86736">
        <ele>289</ele>
        <time>2018-06-15T09:26:15Z</time>
      </trkpt>
      <trkpt lat="45.96701" lon="4.8673">
        <ele>289</ele>
        <time>2018-06-15T09:26:16Z</time>
      </trkpt>
      <trkpt lat="45.96704" lon="4.86725">
        <ele>289</ele>
        <time>2018-06-15T09:26:17Z</time>
      </trkpt>
      <trkpt lat="45.96707" lon="4.8672">
        <ele>289</ele>
        <time>2018-06-15T09:26:18Z</time>
      </trkpt>
      <trkpt lat="45.96712" lon="4.8671">
        <ele>289</ele>
        <time>2018-06-15T09:26:20Z</time>
      </trkpt>
      <trkpt lat="45.96715" lon="4.86705">
        <ele>289</ele>
        <time>2018-06-15T09:26:21Z</time>
      </trkpt>
      <trkpt lat="45.9672" lon="4.86696">
        <ele>289</ele>
        <time>2018-06-15T09:26:23Z</time>
      </trkpt>
      <trkpt lat="45.96723" lon="4.86692">
        <ele>289</ele>
        <time>2018-06-15T09:26:24Z</time>
      </trkpt>
      <trkpt lat="45.96728" lon="4.86683">
        <ele>289</ele>
        <time>2018-06-15T09:26:26Z</time>
      </trkpt>
      <trkpt lat="45.96731" lon="4.86679">
        <ele>290</ele>
        <time>2018-06-15T09:26:27Z</time>
      </trkpt>
      <trkpt lat="45.96737" lon="4.8667">
        <ele>290</ele>
        <time>2018-06-15T09:26:29Z</time>
      </trkpt>
      <trkpt lat="45.9674" lon="4.86666">
        <ele>290</ele>
        <time>2018-06-15T09:26:30Z</time>
      </trkpt>
      <trkpt lat="45.96745" lon="4.86657">
        <ele>290</ele>
        <time>2018-06-15T09:26:33Z</time>
      </trkpt>
      <trkpt lat="45.96747" lon="4.86655">
        <ele>290</ele>
        <time>2018-06-15T09:26:34Z</time>
      </trkpt>
      <trkpt lat="45.96752" lon="4.86647">
        <ele>290</ele>
        <time>2018-06-15T09:26:35Z</time>
      </trkpt>
      <trkpt lat="45.96755" lon="4.86643">
        <ele>290</ele>
        <time>2018-06-15T09:26:36Z</time>
      </trkpt>
      <trkpt lat="45.9676" lon="4.86634">
        <ele>290</ele>
        <time>2018-06-15T09:26:38Z</time>
      </trkpt>
      <trkpt lat="45.96762" lon="4.8663">
        <ele>289</ele>
        <time>2018-06-15T09:26:39Z</time>
      </trkpt>
      <trkpt lat="45.96767" lon="4.8662">
        <ele>289</ele>
        <time>2018-06-15T09:26:41Z</time>
      </trkpt>
      <trkpt lat="45.9677" lon="4.86615">
        <ele>289</ele>
        <time>2018-06-15T09:26:42Z</time>
      </trkpt>
      <trkpt lat="45.96773" lon="4.86609">
        <ele>289</ele>
        <time>2018-06-15T09:26:43Z</time>
      </trkpt>
      <trkpt lat="45.96776" lon="4.86603">
        <ele>289</ele>
        <time>2018-06-15T09:26:44Z</time>
      </trkpt>
      <trkpt lat="45.9678" lon="4.86598">
        <ele>289</ele>
        <time>2018-06-15T09:26:45Z</time>
      </trkpt>
      <trkpt lat="45.96783" lon="4.86593">
        <ele>289</ele>
        <time>2018-06-15T09:26:46Z</time>
      </trkpt>
      <trkpt lat="45.96786" lon="4.86588">
        <ele>289</ele>
        <time>2018-06-15T09:26:47Z</time>
      </trkpt>
      <trkpt lat="45.96789" lon="4.86583">
        <ele>290</ele>
        <time>2018-06-15T09:26:48Z</time>
      </trkpt>
      <trkpt lat="45.96792" lon="4.86578">
        <ele>290</ele>
        <time>2018-06-15T09:26:49Z</time>
      </trkpt>
      <trkpt lat="45.96795" lon="4.86573">
        <ele>290</ele>
        <time>2018-06-15T09:26:50Z</time>
      </trkpt>
      <trkpt lat="45.968" lon="4.86563">
        <ele>290</ele>
        <time>2018-06-15T09:26:53Z</time>
      </trkpt>
      <trkpt lat="45.96803" lon="4.86558">
        <ele>290</ele>
        <time>2018-06-15T09:26:54Z</time>
      </trkpt>
      <trkpt lat="45.96806" lon="4.86554">
        <ele>290</ele>
        <time>2018-06-15T09:26:55Z</time>
      </trkpt>
      <trkpt lat="45.9681" lon="4.86547">
        <ele>290</ele>
        <time>2018-06-15T09:26:56Z</time>
      </trkpt>
      <trkpt lat="45.96815" lon="4.86538">
        <ele>290</ele>
        <time>2018-06-15T09:26:58Z</time>
      </trkpt>
      <trkpt lat="45.96817" lon="4.86534">
        <ele>290</ele>
        <time>2018-06-15T09:26:59Z</time>
      </trkpt>
      <trkpt lat="45.96822" lon="4.86525">
        <ele>289</ele>
        <time>2018-06-15T09:27:01Z</time>
      </trkpt>
      <trkpt lat="45.96825" lon="4.86521">
        <ele>289</ele>
        <time>2018-06-15T09:27:02Z</time>
      </trkpt>
      <trkpt lat="45.9683" lon="4.86512">
        <ele>289</ele>
        <time>2018-06-15T09:27:04Z</time>
      </trkpt>
      <trkpt lat="45.96833" lon="4.86505">
        <ele>289</ele>
        <time>2018-06-15T09:27:05Z</time>
      </trkpt>
      <trkpt lat="45.96837" lon="4.86494">
        <ele>289</ele>
        <time>2018-06-15T09:27:07Z</time>
      </trkpt>
      <trkpt lat="45.96839" lon="4.86489">
        <ele>289</ele>
        <time>2018-06-15T09:27:08Z</time>
      </trkpt>
      <trkpt lat="45.96844" lon="4.86478">
        <ele>289</ele>
        <time>2018-06-15T09:27:10Z</time>
      </trkpt>
      <trkpt lat="45.96847" lon="4.86473">
        <ele>289</ele>
        <time>2018-06-15T09:27:11Z</time>
      </trkpt>
      <trkpt lat="45.96849" lon="4.86463">
        <ele>289</ele>
        <time>2018-06-15T09:27:12Z</time>
      </trkpt>
      <trkpt lat="45.96851" lon="4.86455">
        <ele>289</ele>
        <time>2018-06-15T09:27:13Z</time>
      </trkpt>
      <trkpt lat="45.96852" lon="4.86448">
        <ele>289</ele>
        <time>2018-06-15T09:27:14Z</time>
      </trkpt>
      <trkpt lat="45.96854" lon="4.86442">
        <ele>290</ele>
        <time>2018-06-15T09:27:15Z</time>
      </trkpt>
      <trkpt lat="45.96855" lon="4.86436">
        <ele>290</ele>
        <time>2018-06-15T09:27:16Z</time>
      </trkpt>
      <trkpt lat="45.96857" lon="4.8643">
        <ele>290</ele>
        <time>2018-06-15T09:27:17Z</time>
      </trkpt>
      <trkpt lat="45.96857" lon="4.86418">
        <ele>290</ele>
        <time>2018-06-15T09:27:20Z</time>
      </trkpt>
      <trkpt lat="45.96858" lon="4.8641">
        <ele>290</ele>
        <time>2018-06-15T09:27:21Z</time>
      </trkpt>
      <trkpt lat="45.9686" lon="4.86401">
        <ele>290</ele>
        <time>2018-06-15T09:27:22Z</time>
      </trkpt>
      <trkpt lat="45.96861" lon="4.86395">
        <ele>290</ele>
        <time>2018-06-15T09:27:23Z</time>
      </trkpt>
      <trkpt lat="45.96862" lon="4.86389">
        <ele>290</ele>
        <time>2018-06-15T09:27:24Z</time>
      </trkpt>
      <trkpt lat="45.96863" lon="4.86381">
        <ele>290</ele>
        <time>2018-06-15T09:27:25Z</time>
      </trkpt>
      <trkpt lat="45.96865" lon="4.8637">
        <ele>290</ele>
        <time>2018-06-15T09:27:27Z</time>
      </trkpt>
      <trkpt lat="45.96866" lon="4.86365">
        <ele>290</ele>
        <time>2018-06-15T09:27:28Z</time>
      </trkpt>
      <trkpt lat="45.96867" lon="4.86354">
        <ele>290</ele>
        <time>2018-06-15T09:27:30Z</time>
      </trkpt>
      <trkpt lat="45.96868" lon="4.86349">
        <ele>290</ele>
        <time>2018-06-15T09:27:31Z</time>
      </trkpt>
      <trkpt lat="45.96868" lon="4.86339">
        <ele>290</ele>
        <time>2018-06-15T09:27:33Z</time>
      </trkpt>
      <trkpt lat="45.96869" lon="4.86333">
        <ele>289</ele>
        <time>2018-06-15T09:27:34Z</time>
      </trkpt>
      <trkpt lat="45.96871" lon="4.86322">
        <ele>289</ele>
        <time>2018-06-15T09:27:36Z</time>
      </trkpt>
      <trkpt lat="45.96872" lon="4.86316">
        <ele>289</ele>
        <time>2018-06-15T09:27:37Z</time>
      </trkpt>
      <trkpt lat="45.96873" lon="4.86305">
        <ele>289</ele>
        <time>2018-06-15T09:27:40Z</time>
      </trkpt>
      <trkpt lat="45.96874" lon="4.86301">
        <ele>289</ele>
        <time>2018-06-15T09:27:41Z</time>
      </trkpt>
      <trkpt lat="45.96875" lon="4.8629">
        <ele>289</ele>
        <time>2018-06-15T09:27:44Z</time>
      </trkpt>
      <trkpt lat="45.96876" lon="4.86286">
        <ele>289</ele>
        <time>2018-06-15T09:27:45Z</time>
      </trkpt>
      <trkpt lat="45.96877" lon="4.86275">
        <ele>289</ele>
        <time>2018-06-15T09:27:48Z</time>
      </trkpt>
      <trkpt lat="45.96877" lon="4.86272">
        <ele>289</ele>
        <time>2018-06-15T09:27:49Z</time>
      </trkpt>
      <trkpt lat="45.96879" lon="4.8626">
        <ele>288</ele>
        <time>2018-06-15T09:27:53Z</time>
      </trkpt>
      <trkpt lat="45.9688" lon="4.86257">
        <ele>288</ele>
        <time>2018-06-15T09:27:54Z</time>
      </trkpt>
      <trkpt lat="45.96883" lon="4.86245">
        <ele>288</ele>
        <time>2018-06-15T09:28:03Z</time>
      </trkpt>
      <trkpt lat="45.96883" lon="4.86244">
        <ele>288</ele>
        <time>2018-06-15T09:28:04Z</time>
      </trkpt>
      <trkpt lat="45.96886" lon="4.86233">
        <ele>288</ele>
        <time>2018-06-15T09:28:10Z</time>
      </trkpt>
      <trkpt lat="45.96886" lon="4.86231">
        <ele>289</ele>
        <time>2018-06-15T09:28:11Z</time>
      </trkpt>
      <trkpt lat="45.96891" lon="4.86221">
        <ele>289</ele>
        <time>2018-06-15T09:28:25Z</time>
      </trkpt>
      <trkpt lat="45.96892" lon="4.86219">
        <ele>289</ele>
        <time>2018-06-15T09:28:26Z</time>
      </trkpt>
      <trkpt lat="45.969" lon="4.86218">
        <ele>288</ele>
        <time>2018-06-15T09:28:30Z</time>
      </trkpt>
      <trkpt lat="45.96903" lon="4.86219">
        <ele>288</ele>
        <time>2018-06-15T09:28:31Z</time>
      </trkpt>
      <trkpt lat="45.96911" lon="4.86221">
        <ele>288</ele>
        <time>2018-06-15T09:28:34Z</time>
      </trkpt>
      <trkpt lat="45.96913" lon="4.86222">
        <ele>288</ele>
        <time>2018-06-15T09:28:35Z</time>
      </trkpt>
      <trkpt lat="45.96921" lon="4.86224">
        <ele>287</ele>
        <time>2018-06-15T09:28:38Z</time>
      </trkpt>
      <trkpt lat="45.96923" lon="4.86225">
        <ele>287</ele>
        <time>2018-06-15T09:28:39Z</time>
      </trkpt>
      <trkpt lat="45.96932" lon="4.86228">
        <ele>287</ele>
        <time>2018-06-15T09:28:46Z</time>
      </trkpt>
      <trkpt lat="45.96932" lon="4.86228">
        <ele>287</ele>
        <time>2018-06-15T09:28:47Z</time>
      </trkpt>
      <trkpt lat="45.96923" lon="4.86228">
        <ele>287</ele>
        <time>2018-06-15T09:37:20Z</time>
      </trkpt>
      <trkpt lat="45.96923" lon="4.86228">
        <ele>287</ele>
        <time>2018-06-15T09:37:21Z</time>
      </trkpt>
      <trkpt lat="45.96914" lon="4.86228">
        <ele>288</ele>
        <time>2018-06-15T09:37:31Z</time>
      </trkpt>
      <trkpt lat="45.96913" lon="4.86228">
        <ele>288</ele>
        <time>2018-06-15T09:37:32Z</time>
      </trkpt>
      <trkpt lat="45.96905" lon="4.86226">
        <ele>288</ele>
        <time>2018-06-15T09:37:41Z</time>
      </trkpt>
      <trkpt lat="45.96904" lon="4.86226">
        <ele>288</ele>
        <time>2018-06-15T09:37:42Z</time>
      </trkpt>
      <trkpt lat="45.96895" lon="4.86224">
        <ele>288</ele>
        <time>2018-06-15T09:37:51Z</time>
      </trkpt>
      <trkpt lat="45.96894" lon="4.86223">
        <ele>288</ele>
        <time>2018-06-15T09:37:52Z</time>
      </trkpt>
      <trkpt lat="45.96887" lon="4.86216">
        <ele>289</ele>
        <time>2018-06-15T09:38:05Z</time>
      </trkpt>
      <trkpt lat="45.96887" lon="4.86216">
        <ele>289</ele>
        <time>2018-06-15T09:38:06Z</time>
      </trkpt>
      <trkpt lat="45.96887" lon="4.86205">
        <ele>289</ele>
        <time>2018-06-15T09:38:11Z</time>
      </trkpt>
      <trkpt lat="45.96888" lon="4.86202">
        <ele>289</ele>
        <time>2018-06-15T09:38:12Z</time>
      </trkpt>
      <trkpt lat="45.96888" lon="4.86197">
        <ele>289</ele>
        <time>2018-06-15T09:38:13Z</time>
      </trkpt>
      <trkpt lat="45.96889" lon="4.86186">
        <ele>289</ele>
        <time>2018-06-15T09:38:14Z</time>
      </trkpt>
      <trkpt lat="45.96891" lon="4.86174">
        <ele>289</ele>
        <time>2018-06-15T09:38:16Z</time>
      </trkpt>
      <trkpt lat="45.96891" lon="4.86167">
        <ele>289</ele>
        <time>2018-06-15T09:38:17Z</time>
      </trkpt>
      <trkpt lat="45.96893" lon="4.8616">
        <ele>289</ele>
        <time>2018-06-15T09:38:18Z</time>
      </trkpt>
      <trkpt lat="45.96894" lon="4.86153">
        <ele>289</ele>
        <time>2018-06-15T09:38:19Z</time>
      </trkpt>
      <trkpt lat="45.96896" lon="4.86145">
        <ele>289</ele>
        <time>2018-06-15T09:38:20Z</time>
      </trkpt>
      <trkpt lat="45.96897" lon="4.86137">
        <ele>289</ele>
        <time>2018-06-15T09:38:21Z</time>
      </trkpt>
      <trkpt lat="45.96898" lon="4.86128">
        <ele>289</ele>
        <time>2018-06-15T09:38:22Z</time>
      </trkpt>
      <trkpt lat="45.96899" lon="4.8612">
        <ele>289</ele>
        <time>2018-06-15T09:38:23Z</time>
      </trkpt>
      <trkpt lat="45.96899" lon="4.86112">
        <ele>289</ele>
        <time>2018-06-15T09:38:24Z</time>
      </trkpt>
      <trkpt lat="45.96899" lon="4.86103">
        <ele>289</ele>
        <time>2018-06-15T09:38:25Z</time>
      </trkpt>
      <trkpt lat="45.969" lon="4.86096">
        <ele>288</ele>
        <time>2018-06-15T09:38:26Z</time>
      </trkpt>
      <trkpt lat="45.96901" lon="4.86087">
        <ele>288</ele>
        <time>2018-06-15T09:38:27Z</time>
      </trkpt>
      <trkpt lat="45.96903" lon="4.86078">
        <ele>288</ele>
        <time>2018-06-15T09:38:28Z</time>
      </trkpt>
      <trkpt lat="45.96903" lon="4.8607">
        <ele>288</ele>
        <time>2018-06-15T09:38:29Z</time>
      </trkpt>
      <trkpt lat="45.96904" lon="4.86061">
        <ele>288</ele>
        <time>2018-06-15T09:38:30Z</time>
      </trkpt>
      <trkpt lat="45.96905" lon="4.86052">
        <ele>289</ele>
        <time>2018-06-15T09:38:31Z</time>
      </trkpt>
      <trkpt lat="45.96906" lon="4.86044">
        <ele>289</ele>
        <time>2018-06-15T09:38:32Z</time>
      </trkpt>
      <trkpt lat="45.96908" lon="4.86035">
        <ele>289</ele>
        <time>2018-06-15T09:38:33Z</time>
      </trkpt>
      <trkpt lat="45.96908" lon="4.86028">
        <ele>289</ele>
        <time>2018-06-15T09:38:34Z</time>
      </trkpt>
      <trkpt lat="45.9691" lon="4.86021">
        <ele>289</ele>
        <time>2018-06-15T09:38:35Z</time>
      </trkpt>
      <trkpt lat="45.96911" lon="4.86012">
        <ele>288</ele>
        <time>2018-06-15T09:38:36Z</time>
      </trkpt>
      <trkpt lat="45.96913" lon="4.86005">
        <ele>288</ele>
        <time>2018-06-15T09:38:37Z</time>
      </trkpt>
      <trkpt lat="45.96915" lon="4.85998">
        <ele>288</ele>
        <time>2018-06-15T09:38:38Z</time>
      </trkpt>
      <trkpt lat="45.96916" lon="4.85987">
        <ele>288</ele>
        <time>2018-06-15T09:38:39Z</time>
      </trkpt>
      <trkpt lat="45.96919" lon="4.85977">
        <ele>287</ele>
        <time>2018-06-15T09:38:40Z</time>
      </trkpt>
      <trkpt lat="45.96921" lon="4.85969">
        <ele>287</ele>
        <time>2018-06-15T09:38:41Z</time>
      </trkpt>
      <trkpt lat="45.96923" lon="4.8596">
        <ele>287</ele>
        <time>2018-06-15T09:38:42Z</time>
      </trkpt>
      <trkpt lat="45.96925" lon="4.85952">
        <ele>287</ele>
        <time>2018-06-15T09:38:43Z</time>
      </trkpt>
      <trkpt lat="45.96926" lon="4.85943">
        <ele>286</ele>
        <time>2018-06-15T09:38:44Z</time>
      </trkpt>
      <trkpt lat="45.96928" lon="4.85935">
        <ele>286</ele>
        <time>2018-06-15T09:38:45Z</time>
      </trkpt>
      <trkpt lat="45.96931" lon="4.85927">
        <ele>286</ele>
        <time>2018-06-15T09:38:46Z</time>
      </trkpt>
      <trkpt lat="45.96933" lon="4.85919">
        <ele>286</ele>
        <time>2018-06-15T09:38:47Z</time>
      </trkpt>
      <trkpt lat="45.96934" lon="4.85911">
        <ele>286</ele>
        <time>2018-06-15T09:38:48Z</time>
      </trkpt>
      <trkpt lat="45.96936" lon="4.85903">
        <ele>286</ele>
        <time>2018-06-15T09:38:49Z</time>
      </trkpt>
      <trkpt lat="45.96938" lon="4.85895">
        <ele>285</ele>
        <time>2018-06-15T09:38:50Z</time>
      </trkpt>
      <trkpt lat="45.9694" lon="4.85885">
        <ele>285</ele>
        <time>2018-06-15T09:38:51Z</time>
      </trkpt>
      <trkpt lat="45.96943" lon="4.85875">
        <ele>285</ele>
        <time>2018-06-15T09:38:52Z</time>
      </trkpt>
      <trkpt lat="45.96944" lon="4.85867">
        <ele>285</ele>
        <time>2018-06-15T09:38:53Z</time>
      </trkpt>
      <trkpt lat="45.96946" lon="4.8586">
        <ele>285</ele>
        <time>2018-06-15T09:38:54Z</time>
      </trkpt>
      <trkpt lat="45.96949" lon="4.85852">
        <ele>285</ele>
        <time>2018-06-15T09:38:55Z</time>
      </trkpt>
      <trkpt lat="45.96952" lon="4.85844">
        <ele>285</ele>
        <time>2018-06-15T09:38:56Z</time>
      </trkpt>
      <trkpt lat="45.96954" lon="4.85837">
        <ele>285</ele>
        <time>2018-06-15T09:38:57Z</time>
      </trkpt>
      <trkpt lat="45.96956" lon="4.8583">
        <ele>285</ele>
        <time>2018-06-15T09:38:58Z</time>
      </trkpt>
      <trkpt lat="45.96958" lon="4.85822">
        <ele>285</ele>
        <time>2018-06-15T09:38:59Z</time>
      </trkpt>
      <trkpt lat="45.9696" lon="4.85815">
        <ele>285</ele>
        <time>2018-06-15T09:39:00Z</time>
      </trkpt>
      <trkpt lat="45.96962" lon="4.85808">
        <ele>285</ele>
        <time>2018-06-15T09:39:01Z</time>
      </trkpt>
      <trkpt lat="45.96965" lon="4.85796">
        <ele>285</ele>
        <time>2018-06-15T09:39:02Z</time>
      </trkpt>
      <trkpt lat="45.96967" lon="4.85789">
        <ele>285</ele>
        <time>2018-06-15T09:39:03Z</time>
      </trkpt>
      <trkpt lat="45.96969" lon="4.85782">
        <ele>285</ele>
        <time>2018-06-15T09:39:04Z</time>
      </trkpt>
      <trkpt lat="45.96971" lon="4.85775">
        <ele>285</ele>
        <time>2018-06-15T09:39:05Z</time>
      </trkpt>
      <trkpt lat="45.96973" lon="4.85768">
        <ele>285</ele>
        <time>2018-06-15T09:39:06Z</time>
      </trkpt>
      <trkpt lat="45.96975" lon="4.85761">
        <ele>285</ele>
        <time>2018-06-15T09:39:07Z</time>
      </trkpt>
      <trkpt lat="45.96976" lon="4.85753">
        <ele>285</ele>
        <time>2018-06-15T09:39:08Z</time>
      </trkpt>
      <trkpt lat="45.96978" lon="4.85745">
        <ele>285</ele>
        <time>2018-06-15T09:39:09Z</time>
      </trkpt>
      <trkpt lat="45.96981" lon="4.85736">
        <ele>285</ele>
        <time>2018-06-15T09:39:10Z</time>
      </trkpt>
      <trkpt lat="45.96983" lon="4.85728">
        <ele>285</ele>
        <time>2018-06-15T09:39:11Z</time>
      </trkpt>
      <trkpt lat="45.96985" lon="4.8572">
        <ele>285</ele>
        <time>2018-06-15T09:39:12Z</time>
      </trkpt>
      <trkpt lat="45.96988" lon="4.85712">
        <ele>285</ele>
        <time>2018-06-15T09:39:13Z</time>
      </trkpt>
      <trkpt lat="45.96991" lon="4.85703">
        <ele>285</ele>
        <time>2018-06-15T09:39:14Z</time>
      </trkpt>
      <trkpt lat="45.96993" lon="4.85695">
        <ele>285</ele>
        <time>2018-06-15T09:39:15Z</time>
      </trkpt>
      <trkpt lat="45.96995" lon="4.85687">
        <ele>285</ele>
        <time>2018-06-15T09:39:16Z</time>
      </trkpt>
      <trkpt lat="45.96997" lon="4.8568">
        <ele>286</ele>
        <time>2018-06-15T09:39:17Z</time>
      </trkpt>
      <trkpt lat="45.96998" lon="4.85672">
        <ele>286</ele>
        <time>2018-06-15T09:39:18Z</time>
      </trkpt>
      <trkpt lat="45.97" lon="4.85665">
        <ele>286</ele>
        <time>2018-06-15T09:39:19Z</time>
      </trkpt>
      <trkpt lat="45.97002" lon="4.85656">
        <ele>285</ele>
        <time>2018-06-15T09:39:20Z</time>
      </trkpt>
      <trkpt lat="45.97005" lon="4.85649">
        <ele>285</ele>
        <time>2018-06-15T09:39:21Z</time>
      </trkpt>
      <trkpt lat="45.97007" lon="4.85641">
        <ele>284</ele>
        <time>2018-06-15T09:39:22Z</time>
      </trkpt>
      <trkpt lat="45.97008" lon="4.85634">
        <ele>284</ele>
        <time>2018-06-15T09:39:23Z</time>
      </trkpt>
      <trkpt lat="45.9701" lon="4.85626">
        <ele>284</ele>
        <time>2018-06-15T09:39:24Z</time>
      </trkpt>
      <trkpt lat="45.97012" lon="4.85618">
        <ele>284</ele>
        <time>2018-06-15T09:39:25Z</time>
      </trkpt>
      <trkpt lat="45.97014" lon="4.85611">
        <ele>284</ele>
        <time>2018-06-15T09:39:26Z</time>
      </trkpt>
      <trkpt lat="45.97016" lon="4.85604">
        <ele>284</ele>
        <time>2018-06-15T09:39:27Z</time>
      </trkpt>
      <trkpt lat="45.97018" lon="4.85596">
        <ele>284</ele>
        <time>2018-06-15T09:39:28Z</time>
      </trkpt>
      <trkpt lat="45.97021" lon="4.85588">
        <ele>284</ele>
        <time>2018-06-15T09:39:29Z</time>
      </trkpt>
      <trkpt lat="45.97021" lon="4.8558">
        <ele>283</ele>
        <time>2018-06-15T09:39:30Z</time>
      </trkpt>
      <trkpt lat="45.97024" lon="4.85571">
        <ele>283</ele>
        <time>2018-06-15T09:39:31Z</time>
      </trkpt>
      <trkpt lat="45.97026" lon="4.85563">
        <ele>283</ele>
        <time>2018-06-15T09:39:32Z</time>
      </trkpt>
      <trkpt lat="45.9703" lon="4.85553">
        <ele>283</ele>
        <time>2018-06-15T09:39:33Z</time>
      </trkpt>
      <trkpt lat="45.97032" lon="4.85545">
        <ele>283</ele>
        <time>2018-06-15T09:39:34Z</time>
      </trkpt>
      <trkpt lat="45.97034" lon="4.85536">
        <ele>282</ele>
        <time>2018-06-15T09:39:35Z</time>
      </trkpt>
      <trkpt lat="45.97037" lon="4.85528">
        <ele>282</ele>
        <time>2018-06-15T09:39:36Z</time>
      </trkpt>
      <trkpt lat="45.97039" lon="4.85519">
        <ele>282</ele>
        <time>2018-06-15T09:39:37Z</time>
      </trkpt>
      <trkpt lat="45.97041" lon="4.8551">
        <ele>282</ele>
        <time>2018-06-15T09:39:38Z</time>
      </trkpt>
      <trkpt lat="45.97044" lon="4.85502">
        <ele>282</ele>
        <time>2018-06-15T09:39:39Z</time>
      </trkpt>
      <trkpt lat="45.97047" lon="4.85494">
        <ele>281</ele>
        <time>2018-06-15T09:39:40Z</time>
      </trkpt>
      <trkpt lat="45.9705" lon="4.85485">
        <ele>281</ele>
        <time>2018-06-15T09:39:41Z</time>
      </trkpt>
      <trkpt lat="45.97052" lon="4.85477">
        <ele>281</ele>
        <time>2018-06-15T09:39:42Z</time>
      </trkpt>
      <trkpt lat="45.97054" lon="4.8547">
        <ele>281</ele>
        <time>2018-06-15T09:39:43Z</time>
      </trkpt>
      <trkpt lat="45.97057" lon="4.85463">
        <ele>281</ele>
        <time>2018-06-15T09:39:44Z</time>
      </trkpt>
      <trkpt lat="45.9706" lon="4.85454">
        <ele>281</ele>
        <time>2018-06-15T09:39:45Z</time>
      </trkpt>
      <trkpt lat="45.97062" lon="4.85447">
        <ele>281</ele>
        <time>2018-06-15T09:39:46Z</time>
      </trkpt>
      <trkpt lat="45.97066" lon="4.85439">
        <ele>281</ele>
        <time>2018-06-15T09:39:47Z</time>
      </trkpt>
      <trkpt lat="45.97068" lon="4.85431">
        <ele>281</ele>
        <time>2018-06-15T09:39:48Z</time>
      </trkpt>
      <trkpt lat="45.9707" lon="4.85421">
        <ele>281</ele>
        <time>2018-06-15T09:39:49Z</time>
      </trkpt>
      <trkpt lat="45.97073" lon="4.85413">
        <ele>281</ele>
        <time>2018-06-15T09:39:50Z</time>
      </trkpt>
      <trkpt lat="45.97075" lon="4.85405">
        <ele>281</ele>
        <time>2018-06-15T09:39:51Z</time>
      </trkpt>
      <trkpt lat="45.97078" lon="4.85395">
        <ele>281</ele>
        <time>2018-06-15T09:39:52Z</time>
      </trkpt>
      <trkpt lat="45.97081" lon="4.85387">
        <ele>281</ele>
        <time>2018-06-15T09:39:53Z</time>
      </trkpt>
      <trkpt lat="45.97083" lon="4.85381">
        <ele>281</ele>
        <time>2018-06-15T09:39:54Z</time>
      </trkpt>
      <trkpt lat="45.97086" lon="4.85372">
        <ele>280</ele>
        <time>2018-06-15T09:39:55Z</time>
      </trkpt>
      <trkpt lat="45.97089" lon="4.85364">
        <ele>280</ele>
        <time>2018-06-15T09:39:56Z</time>
      </trkpt>
      <trkpt lat="45.97091" lon="4.85355">
        <ele>280</ele>
        <time>2018-06-15T09:39:57Z</time>
      </trkpt>
      <trkpt lat="45.97094" lon="4.85347">
        <ele>280</ele>
        <time>2018-06-15T09:39:58Z</time>
      </trkpt>
      <trkpt lat="45.97097" lon="4.85339">
        <ele>280</ele>
        <time>2018-06-15T09:39:59Z</time>
      </trkpt>
      <trkpt lat="45.971" lon="4.8533">
        <ele>280</ele>
        <time>2018-06-15T09:40:00Z</time>
      </trkpt>
      <trkpt lat="45.97102" lon="4.85323">
        <ele>280</ele>
        <time>2018-06-15T09:40:01Z</time>
      </trkpt>
      <trkpt lat="45.97105" lon="4.85315">
        <ele>280</ele>
        <time>2018-06-15T09:40:02Z</time>
      </trkpt>
      <trkpt lat="45.97107" lon="4.85308">
        <ele>280</ele>
        <time>2018-06-15T09:40:03Z</time>
      </trkpt>
      <trkpt lat="45.9711" lon="4.85303">
        <ele>280</ele>
        <time>2018-06-15T09:40:04Z</time>
      </trkpt>
      <trkpt lat="45.97114" lon="4.85296">
        <ele>280</ele>
        <time>2018-06-15T09:40:05Z</time>
      </trkpt>
      <trkpt lat="45.97117" lon="4.85289">
        <ele>280</ele>
        <time>2018-06-15T09:40:06Z</time>
      </trkpt>
      <trkpt lat="45.97119" lon="4.85285">
        <ele>280</ele>
        <time>2018-06-15T09:40:07Z</time>
      </trkpt>
      <trkpt lat="45.97122" lon="4.85277">
        <ele>280</ele>
        <time>2018-06-15T09:40:08Z</time>
      </trkpt>
      <trkpt lat="45.97125" lon="4.85269">
        <ele>280</ele>
        <time>2018-06-15T09:40:09Z</time>
      </trkpt>
      <trkpt lat="45.97129" lon="4.85264">
        <ele>279</ele>
        <time>2018-06-15T09:40:10Z</time>
      </trkpt>
      <trkpt lat="45.97133" lon="4.85255">
        <ele>279</ele>
        <time>2018-06-15T09:40:11Z</time>
      </trkpt>
      <trkpt lat="45.97137" lon="4.85245">
        <ele>279</ele>
        <time>2018-06-15T09:40:12Z</time>
      </trkpt>
      <trkpt lat="45.9714" lon="4.85238">
        <ele>279</ele>
        <time>2018-06-15T09:40:13Z</time>
      </trkpt>
      <trkpt lat="45.97143" lon="4.85231">
        <ele>279</ele>
        <time>2018-06-15T09:40:14Z</time>
      </trkpt>
      <trkpt lat="45.97146" lon="4.85223">
        <ele>279</ele>
        <time>2018-06-15T09:40:15Z</time>
      </trkpt>
      <trkpt lat="45.9715" lon="4.85218">
        <ele>279</ele>
        <time>2018-06-15T09:40:16Z</time>
      </trkpt>
      <trkpt lat="45.97153" lon="4.85212">
        <ele>279</ele>
        <time>2018-06-15T09:40:17Z</time>
      </trkpt>
      <trkpt lat="45.97157" lon="4.85206">
        <ele>279</ele>
        <time>2018-06-15T09:40:18Z</time>
      </trkpt>
      <trkpt lat="45.9716" lon="4.85199">
        <ele>279</ele>
        <time>2018-06-15T09:40:19Z</time>
      </trkpt>
      <trkpt lat="45.97163" lon="4.85193">
        <ele>279</ele>
        <time>2018-06-15T09:40:20Z</time>
      </trkpt>
      <trkpt lat="45.97166" lon="4.85186">
        <ele>279</ele>
        <time>2018-06-15T09:40:21Z</time>
      </trkpt>
      <trkpt lat="45.9717" lon="4.85175">
        <ele>278</ele>
        <time>2018-06-15T09:40:22Z</time>
      </trkpt>
      <trkpt lat="45.97173" lon="4.85168">
        <ele>278</ele>
        <time>2018-06-15T09:40:23Z</time>
      </trkpt>
      <trkpt lat="45.97177" lon="4.85161">
        <ele>278</ele>
        <time>2018-06-15T09:40:24Z</time>
      </trkpt>
      <trkpt lat="45.97181" lon="4.85154">
        <ele>278</ele>
        <time>2018-06-15T09:40:25Z</time>
      </trkpt>
      <trkpt lat="45.97185" lon="4.85147">
        <ele>278</ele>
        <time>2018-06-15T09:40:26Z</time>
      </trkpt>
      <trkpt lat="45.97189" lon="4.8514">
        <ele>278</ele>
        <time>2018-06-15T09:40:27Z</time>
      </trkpt>
      <trkpt lat="45.97193" lon="4.85134">
        <ele>278</ele>
        <time>2018-06-15T09:40:28Z</time>
      </trkpt>
      <trkpt lat="45.97197" lon="4.85127">
        <ele>278</ele>
        <time>2018-06-15T09:40:29Z</time>
      </trkpt>
      <trkpt lat="45.972" lon="4.8512">
        <ele>278</ele>
        <time>2018-06-15T09:40:30Z</time>
      </trkpt>
      <trkpt lat="45.97203" lon="4.85113">
        <ele>278</ele>
        <time>2018-06-15T09:40:31Z</time>
      </trkpt>
      <trkpt lat="45.97206" lon="4.85105">
        <ele>278</ele>
        <time>2018-06-15T09:40:32Z</time>
      </trkpt>
      <trkpt lat="45.9721" lon="4.85098">
        <ele>278</ele>
        <time>2018-06-15T09:40:33Z</time>
      </trkpt>
      <trkpt lat="45.97212" lon="4.8509">
        <ele>278</ele>
        <time>2018-06-15T09:40:34Z</time>
      </trkpt>
      <trkpt lat="45.97216" lon="4.85078">
        <ele>278</ele>
        <time>2018-06-15T09:40:35Z</time>
      </trkpt>
      <trkpt lat="45.97219" lon="4.85073">
        <ele>278</ele>
        <time>2018-06-15T09:40:36Z</time>
      </trkpt>
      <trkpt lat="45.97222" lon="4.85067">
        <ele>278</ele>
        <time>2018-06-15T09:40:37Z</time>
      </trkpt>
      <trkpt lat="45.97226" lon="4.85062">
        <ele>279</ele>
        <time>2018-06-15T09:40:38Z</time>
      </trkpt>
      <trkpt lat="45.97229" lon="4.85055">
        <ele>279</ele>
        <time>2018-06-15T09:40:39Z</time>
      </trkpt>
      <trkpt lat="45.97232" lon="4.85048">
        <ele>279</ele>
        <time>2018-06-15T09:40:40Z</time>
      </trkpt>
      <trkpt lat="45.97235" lon="4.85041">
        <ele>279</ele>
        <time>2018-06-15T09:40:41Z</time>
      </trkpt>
      <trkpt lat="45.97239" lon="4.85035">
        <ele>279</ele>
        <time>2018-06-15T09:40:42Z</time>
      </trkpt>
      <trkpt lat="45.97242" lon="4.85029">
        <ele>279</ele>
        <time>2018-06-15T09:40:43Z</time>
      </trkpt>
      <trkpt lat="45.97245" lon="4.85021">
        <ele>279</ele>
        <time>2018-06-15T09:40:44Z</time>
      </trkpt>
      <trkpt lat="45.97249" lon="4.85015">
        <ele>279</ele>
        <time>2018-06-15T09:40:45Z</time>
      </trkpt>
      <trkpt lat="45.97252" lon="4.85009">
        <ele>279</ele>
        <time>2018-06-15T09:40:46Z</time>
      </trkpt>
      <trkpt lat="45.97255" lon="4.85003">
        <ele>279</ele>
        <time>2018-06-15T09:40:47Z</time>
      </trkpt>
      <trkpt lat="45.97258" lon="4.84997">
        <ele>279</ele>
        <time>2018-06-15T09:40:48Z</time>
      </trkpt>
      <trkpt lat="45.97262" lon="4.84986">
        <ele>279</ele>
        <time>2018-06-15T09:40:49Z</time>
      </trkpt>
      <trkpt lat="45.97265" lon="4.84977">
        <ele>279</ele>
        <time>2018-06-15T09:40:50Z</time>
      </trkpt>
      <trkpt lat="45.97268" lon="4.84972">
        <ele>279</ele>
        <time>2018-06-15T09:40:51Z</time>
      </trkpt>
      <trkpt lat="45.97272" lon="4.84961">
        <ele>279</ele>
        <time>2018-06-15T09:40:52Z</time>
      </trkpt>
      <trkpt lat="45.97275" lon="4.84955">
        <ele>279</ele>
        <time>2018-06-15T09:40:53Z</time>
      </trkpt>
      <trkpt lat="45.97278" lon="4.84949">
        <ele>279</ele>
        <time>2018-06-15T09:40:54Z</time>
      </trkpt>
      <trkpt lat="45.97282" lon="4.84943">
        <ele>278</ele>
        <time>2018-06-15T09:40:55Z</time>
      </trkpt>
      <trkpt lat="45.97286" lon="4.84938">
        <ele>278</ele>
        <time>2018-06-15T09:40:56Z</time>
      </trkpt>
      <trkpt lat="45.9729" lon="4.84931">
        <ele>278</ele>
        <time>2018-06-15T09:40:57Z</time>
      </trkpt>
      <trkpt lat="45.97293" lon="4.84924">
        <ele>278</ele>
        <time>2018-06-15T09:40:58Z</time>
      </trkpt>
      <trkpt lat="45.97297" lon="4.84919">
        <ele>278</ele>
        <time>2018-06-15T09:40:59Z</time>
      </trkpt>
      <trkpt lat="45.97301" lon="4.84913">
        <ele>278</ele>
        <time>2018-06-15T09:41:00Z</time>
      </trkpt>
      <trkpt lat="45.97304" lon="4.84906">
        <ele>278</ele>
        <time>2018-06-15T09:41:01Z</time>
      </trkpt>
      <trkpt lat="45.97308" lon="4.849">
        <ele>278</ele>
        <time>2018-06-15T09:41:02Z</time>
      </trkpt>
      <trkpt lat="45.97312" lon="4.84895">
        <ele>278</ele>
        <time>2018-06-15T09:41:03Z</time>
      </trkpt>
      <trkpt lat="45.97316" lon="4.8489">
        <ele>278</ele>
        <time>2018-06-15T09:41:04Z</time>
      </trkpt>
      <trkpt lat="45.97319" lon="4.84885">
        <ele>278</ele>
        <time>2018-06-15T09:41:05Z</time>
      </trkpt>
      <trkpt lat="45.97323" lon="4.84879">
        <ele>278</ele>
        <time>2018-06-15T09:41:06Z</time>
      </trkpt>
      <trkpt lat="45.97326" lon="4.84876">
        <ele>278</ele>
        <time>2018-06-15T09:41:07Z</time>
      </trkpt>
      <trkpt lat="45.97328" lon="4.84869">
        <ele>278</ele>
        <time>2018-06-15T09:41:08Z</time>
      </trkpt>
      <trkpt lat="45.97331" lon="4.84863">
        <ele>278</ele>
        <time>2018-06-15T09:41:09Z</time>
      </trkpt>
      <trkpt lat="45.97334" lon="4.84856">
        <ele>277</ele>
        <time>2018-06-15T09:41:10Z</time>
      </trkpt>
      <trkpt lat="45.97335" lon="4.84848">
        <ele>277</ele>
        <time>2018-06-15T09:41:11Z</time>
      </trkpt>
      <trkpt lat="45.97339" lon="4.84841">
        <ele>278</ele>
        <time>2018-06-15T09:41:12Z</time>
      </trkpt>
      <trkpt lat="45.97343" lon="4.84834">
        <ele>278</ele>
        <time>2018-06-15T09:41:13Z</time>
      </trkpt>
      <trkpt lat="45.97346" lon="4.84827">
        <ele>278</ele>
        <time>2018-06-15T09:41:14Z</time>
      </trkpt>
      <trkpt lat="45.9735" lon="4.84822">
        <ele>278</ele>
        <time>2018-06-15T09:41:15Z</time>
      </trkpt>
      <trkpt lat="45.97353" lon="4.84815">
        <ele>278</ele>
        <time>2018-06-15T09:41:16Z</time>
      </trkpt>
      <trkpt lat="45.97356" lon="4.84807">
        <ele>278</ele>
        <time>2018-06-15T09:41:17Z</time>
      </trkpt>
      <trkpt lat="45.97359" lon="4.848">
        <ele>278</ele>
        <time>2018-06-15T09:41:18Z</time>
      </trkpt>
      <trkpt lat="45.97361" lon="4.84793">
        <ele>278</ele>
        <time>2018-06-15T09:41:19Z</time>
      </trkpt>
      <trkpt lat="45.97363" lon="4.84786">
        <ele>278</ele>
        <time>2018-06-15T09:41:20Z</time>
      </trkpt>
      <trkpt lat="45.97366" lon="4.8478">
        <ele>278</ele>
        <time>2018-06-15T09:41:21Z</time>
      </trkpt>
      <trkpt lat="45.9737" lon="4.84774">
        <ele>278</ele>
        <time>2018-06-15T09:41:22Z</time>
      </trkpt>
      <trkpt lat="45.97374" lon="4.84767">
        <ele>278</ele>
        <time>2018-06-15T09:41:23Z</time>
      </trkpt>
      <trkpt lat="45.97377" lon="4.84761">
        <ele>278</ele>
        <time>2018-06-15T09:41:24Z</time>
      </trkpt>
      <trkpt lat="45.97379" lon="4.84754">
        <ele>278</ele>
        <time>2018-06-15T09:41:25Z</time>
      </trkpt>
      <trkpt lat="45.97382" lon="4.84747">
        <ele>278</ele>
        <time>2018-06-15T09:41:26Z</time>
      </trkpt>
      <trkpt lat="45.97386" lon="4.84739">
        <ele>278</ele>
        <time>2018-06-15T09:41:27Z</time>
      </trkpt>
      <trkpt lat="45.97389" lon="4.84734">
        <ele>278</ele>
        <time>2018-06-15T09:41:28Z</time>
      </trkpt>
      <trkpt lat="45.97393" lon="4.84728">
        <ele>278</ele>
        <time>2018-06-15T09:41:29Z</time>
      </trkpt>
      <trkpt lat="45.97397" lon="4.84723">
        <ele>278</ele>
        <time>2018-06-15T09:41:30Z</time>
      </trkpt>
      <trkpt lat="45.97401" lon="4.8472">
        <ele>278</ele>
        <time>2018-06-15T09:41:31Z</time>
      </trkpt>
      <trkpt lat="45.97406" lon="4.84717">
        <ele>278</ele>
        <time>2018-06-15T09:41:32Z</time>
      </trkpt>
      <trkpt lat="45.97411" lon="4.84713">
        <ele>278</ele>
        <time>2018-06-15T09:41:33Z</time>
      </trkpt>
      <trkpt lat="45.97417" lon="4.84709">
        <ele>276</ele>
        <time>2018-06-15T09:41:34Z</time>
      </trkpt>
      <trkpt lat="45.97422" lon="4.84706">
        <ele>276</ele>
        <time>2018-06-15T09:41:35Z</time>
      </trkpt>
      <trkpt lat="45.97427" lon="4.84702">
        <ele>276</ele>
        <time>2018-06-15T09:41:36Z</time>
      </trkpt>
      <trkpt lat="45.97432" lon="4.84699">
        <ele>276</ele>
        <time>2018-06-15T09:41:37Z</time>
      </trkpt>
      <trkpt lat="45.97437" lon="4.84695">
        <ele>276</ele>
        <time>2018-06-15T09:41:38Z</time>
      </trkpt>
      <trkpt lat="45.97442" lon="4.84692">
        <ele>276</ele>
        <time>2018-06-15T09:41:39Z</time>
      </trkpt>
      <trkpt lat="45.97447" lon="4.84689">
        <ele>276</ele>
        <time>2018-06-15T09:41:40Z</time>
      </trkpt>
      <trkpt lat="45.9745" lon="4.84687">
        <ele>276</ele>
        <time>2018-06-15T09:41:41Z</time>
      </trkpt>
      <trkpt lat="45.97455" lon="4.84682">
        <ele>276</ele>
        <time>2018-06-15T09:41:42Z</time>
      </trkpt>
      <trkpt lat="45.97461" lon="4.84678">
        <ele>276</ele>
        <time>2018-06-15T09:41:43Z</time>
      </trkpt>
      <trkpt lat="45.97465" lon="4.84674">
        <ele>276</ele>
        <time>2018-06-15T09:41:44Z</time>
      </trkpt>
      <trkpt lat="45.9747" lon="4.8467">
        <ele>276</ele>
        <time>2018-06-15T09:41:45Z</time>
      </trkpt>
      <trkpt lat="45.97475" lon="4.84668">
        <ele>276</ele>
        <time>2018-06-15T09:41:46Z</time>
      </trkpt>
      <trkpt lat="45.9748" lon="4.84665">
        <ele>276</ele>
        <time>2018-06-15T09:41:47Z</time>
      </trkpt>
      <trkpt lat="45.97485" lon="4.84662">
        <ele>275</ele>
        <time>2018-06-15T09:41:48Z</time>
      </trkpt>
      <trkpt lat="45.9749" lon="4.84659">
        <ele>275</ele>
        <time>2018-06-15T09:41:49Z</time>
      </trkpt>
      <trkpt lat="45.97492" lon="4.84655">
        <ele>275</ele>
        <time>2018-06-15T09:41:50Z</time>
      </trkpt>
      <trkpt lat="45.97498" lon="4.84649">
        <ele>275</ele>
        <time>2018-06-15T09:41:51Z</time>
      </trkpt>
      <trkpt lat="45.97503" lon="4.84645">
        <ele>275</ele>
        <time>2018-06-15T09:41:52Z</time>
      </trkpt>
      <trkpt lat="45.97508" lon="4.84641">
        <ele>275</ele>
        <time>2018-06-15T09:41:53Z</time>
      </trkpt>
      <trkpt lat="45.97514" lon="4.84638">
        <ele>275</ele>
        <time>2018-06-15T09:41:54Z</time>
      </trkpt>
      <trkpt lat="45.97519" lon="4.84635">
        <ele>275</ele>
        <time>2018-06-15T09:41:55Z</time>
      </trkpt>
      <trkpt lat="45.97525" lon="4.84631">
        <ele>275</ele>
        <time>2018-06-15T09:41:56Z</time>
      </trkpt>
      <trkpt lat="45.9753" lon="4.84626">
        <ele>275</ele>
        <time>2018-06-15T09:41:57Z</time>
      </trkpt>
      <trkpt lat="45.97536" lon="4.84622">
        <ele>275</ele>
        <time>2018-06-15T09:41:58Z</time>
      </trkpt>
      <trkpt lat="45.9754" lon="4.84616">
        <ele>275</ele>
        <time>2018-06-15T09:41:59Z</time>
      </trkpt>
      <trkpt lat="45.97547" lon="4.84611">
        <ele>274</ele>
        <time>2018-06-15T09:42:00Z</time>
      </trkpt>
      <trkpt lat="45.97552" lon="4.84608">
        <ele>274</ele>
        <time>2018-06-15T09:42:01Z</time>
      </trkpt>
      <trkpt lat="45.97556" lon="4.84603">
        <ele>274</ele>
        <time>2018-06-15T09:42:02Z</time>
      </trkpt>
      <trkpt lat="45.97561" lon="4.84598">
        <ele>274</ele>
        <time>2018-06-15T09:42:03Z</time>
      </trkpt>
      <trkpt lat="45.97567" lon="4.84592">
        <ele>274</ele>
        <time>2018-06-15T09:42:04Z</time>
      </trkpt>
      <trkpt lat="45.97571" lon="4.84588">
        <ele>274</ele>
        <time>2018-06-15T09:42:05Z</time>
      </trkpt>
      <trkpt lat="45.97576" lon="4.84583">
        <ele>274</ele>
        <time>2018-06-15T09:42:06Z</time>
      </trkpt>
      <trkpt lat="45.9758" lon="4.84577">
        <ele>274</ele>
        <time>2018-06-15T09:42:07Z</time>
      </trkpt>
      <trkpt lat="45.97584" lon="4.84572">
        <ele>274</ele>
        <time>2018-06-15T09:42:08Z</time>
      </trkpt>
      <trkpt lat="45.97588" lon="4.84567">
        <ele>274</ele>
        <time>2018-06-15T09:42:09Z</time>
      </trkpt>
      <trkpt lat="45.97594" lon="4.84559">
        <ele>275</ele>
        <time>2018-06-15T09:42:11Z</time>
      </trkpt>
      <trkpt lat="45.97598" lon="4.84553">
        <ele>275</ele>
        <time>2018-06-15T09:42:12Z</time>
      </trkpt>
      <trkpt lat="45.97602" lon="4.84549">
        <ele>275</ele>
        <time>2018-06-15T09:42:13Z</time>
      </trkpt>
      <trkpt lat="45.97606" lon="4.84544">
        <ele>275</ele>
        <time>2018-06-15T09:42:14Z</time>
      </trkpt>
      <trkpt lat="45.9761" lon="4.84538">
        <ele>275</ele>
        <time>2018-06-15T09:42:15Z</time>
      </trkpt>
      <trkpt lat="45.97614" lon="4.84532">
        <ele>275</ele>
        <time>2018-06-15T09:42:16Z</time>
      </trkpt>
      <trkpt lat="45.97618" lon="4.84528">
        <ele>275</ele>
        <time>2018-06-15T09:42:17Z</time>
      </trkpt>
      <trkpt lat="45.97622" lon="4.84523">
        <ele>275</ele>
        <time>2018-06-15T09:42:18Z</time>
      </trkpt>
      <trkpt lat="45.97626" lon="4.84517">
        <ele>275</ele>
        <time>2018-06-15T09:42:19Z</time>
      </trkpt>
      <trkpt lat="45.97631" lon="4.84512">
        <ele>275</ele>
        <time>2018-06-15T09:42:20Z</time>
      </trkpt>
      <trkpt lat="45.97635" lon="4.84507">
        <ele>275</ele>
        <time>2018-06-15T09:42:21Z</time>
      </trkpt>
      <trkpt lat="45.9764" lon="4.84501">
        <ele>275</ele>
        <time>2018-06-15T09:42:22Z</time>
      </trkpt>
      <trkpt lat="45.97644" lon="4.84497">
        <ele>275</ele>
        <time>2018-06-15T09:42:23Z</time>
      </trkpt>
      <trkpt lat="45.97649" lon="4.84491">
        <ele>275</ele>
        <time>2018-06-15T09:42:24Z</time>
      </trkpt>
      <trkpt lat="45.97654" lon="4.84485">
        <ele>275</ele>
        <time>2018-06-15T09:42:25Z</time>
      </trkpt>
      <trkpt lat="45.97658" lon="4.8448">
        <ele>276</ele>
        <time>2018-06-15T09:42:26Z</time>
      </trkpt>
      <trkpt lat="45.97664" lon="4.84476">
        <ele>276</ele>
        <time>2018-06-15T09:42:27Z</time>
      </trkpt>
      <trkpt lat="45.97667" lon="4.84474">
        <ele>276</ele>
        <time>2018-06-15T09:42:28Z</time>
      </trkpt>
      <trkpt lat="45.97671" lon="4.84471">
        <ele>276</ele>
        <time>2018-06-15T09:42:29Z</time>
      </trkpt>
      <trkpt lat="45.97676" lon="4.84468">
        <ele>277</ele>
        <time>2018-06-15T09:42:30Z</time>
      </trkpt>
      <trkpt lat="45.9768" lon="4.84468">
        <ele>277</ele>
        <time>2018-06-15T09:42:31Z</time>
      </trkpt>
      <trkpt lat="45.97686" lon="4.84464">
        <ele>277</ele>
        <time>2018-06-15T09:42:32Z</time>
      </trkpt>
      <trkpt lat="45.97691" lon="4.84462">
        <ele>277</ele>
        <time>2018-06-15T09:42:33Z</time>
      </trkpt>
      <trkpt lat="45.97696" lon="4.84458">
        <ele>277</ele>
        <time>2018-06-15T09:42:34Z</time>
      </trkpt>
      <trkpt lat="45.97701" lon="4.84455">
        <ele>277</ele>
        <time>2018-06-15T09:42:35Z</time>
      </trkpt>
      <trkpt lat="45.9771" lon="4.84453">
        <ele>277</ele>
        <time>2018-06-15T09:42:36Z</time>
      </trkpt>
      <trkpt lat="45.97714" lon="4.84452">
        <ele>277</ele>
        <time>2018-06-15T09:42:37Z</time>
      </trkpt>
      <trkpt lat="45.97719" lon="4.8445">
        <ele>277</ele>
        <time>2018-06-15T09:42:38Z</time>
      </trkpt>
      <trkpt lat="45.97724" lon="4.84448">
        <ele>277</ele>
        <time>2018-06-15T09:42:39Z</time>
      </trkpt>
      <trkpt lat="45.9773" lon="4.84447">
        <ele>277</ele>
        <time>2018-06-15T09:42:40Z</time>
      </trkpt>
      <trkpt lat="45.97735" lon="4.84445">
        <ele>277</ele>
        <time>2018-06-15T09:42:41Z</time>
      </trkpt>
      <trkpt lat="45.9774" lon="4.84443">
        <ele>277</ele>
        <time>2018-06-15T09:42:42Z</time>
      </trkpt>
      <trkpt lat="45.97745" lon="4.84441">
        <ele>277</ele>
        <time>2018-06-15T09:42:43Z</time>
      </trkpt>
      <trkpt lat="45.97751" lon="4.8444">
        <ele>277</ele>
        <time>2018-06-15T09:42:44Z</time>
      </trkpt>
      <trkpt lat="45.97756" lon="4.8444">
        <ele>277</ele>
        <time>2018-06-15T09:42:45Z</time>
      </trkpt>
      <trkpt lat="45.97761" lon="4.84437">
        <ele>277</ele>
        <time>2018-06-15T09:42:46Z</time>
      </trkpt>
      <trkpt lat="45.97766" lon="4.84435">
        <ele>277</ele>
        <time>2018-06-15T09:42:47Z</time>
      </trkpt>
      <trkpt lat="45.97771" lon="4.84434">
        <ele>277</ele>
        <time>2018-06-15T09:42:48Z</time>
      </trkpt>
      <trkpt lat="45.97777" lon="4.84432">
        <ele>277</ele>
        <time>2018-06-15T09:42:49Z</time>
      </trkpt>
      <trkpt lat="45.97781" lon="4.84429">
        <ele>277</ele>
        <time>2018-06-15T09:42:50Z</time>
      </trkpt>
      <trkpt lat="45.97786" lon="4.84427">
        <ele>277</ele>
        <time>2018-06-15T09:42:51Z</time>
      </trkpt>
      <trkpt lat="45.97793" lon="4.84424">
        <ele>277</ele>
        <time>2018-06-15T09:42:52Z</time>
      </trkpt>
      <trkpt lat="45.97798" lon="4.84422">
        <ele>277</ele>
        <time>2018-06-15T09:42:53Z</time>
      </trkpt>
      <trkpt lat="45.97803" lon="4.84418">
        <ele>277</ele>
        <time>2018-06-15T09:42:54Z</time>
      </trkpt>
      <trkpt lat="45.97806" lon="4.84415">
        <ele>277</ele>
        <time>2018-06-15T09:42:55Z</time>
      </trkpt>
      <trkpt lat="45.97814" lon="4.84409">
        <ele>276</ele>
        <time>2018-06-15T09:42:56Z</time>
      </trkpt>
      <trkpt lat="45.97818" lon="4.84407">
        <ele>276</ele>
        <time>2018-06-15T09:42:57Z</time>
      </trkpt>
      <trkpt lat="45.97823" lon="4.84404">
        <ele>276</ele>
        <time>2018-06-15T09:42:58Z</time>
      </trkpt>
      <trkpt lat="45.9783" lon="4.84397">
        <ele>276</ele>
        <time>2018-06-15T09:42:59Z</time>
      </trkpt>
      <trkpt lat="45.97834" lon="4.84394">
        <ele>276</ele>
        <time>2018-06-15T09:43:00Z</time>
      </trkpt>
      <trkpt lat="45.97839" lon="4.8439">
        <ele>276</ele>
        <time>2018-06-15T09:43:01Z</time>
      </trkpt>
      <trkpt lat="45.97844" lon="4.84386">
        <ele>276</ele>
        <time>2018-06-15T09:43:02Z</time>
      </trkpt>
      <trkpt lat="45.97848" lon="4.84381">
        <ele>276</ele>
        <time>2018-06-15T09:43:03Z</time>
      </trkpt>
      <trkpt lat="45.97851" lon="4.84377">
        <ele>276</ele>
        <time>2018-06-15T09:43:04Z</time>
      </trkpt>
      <trkpt lat="45.97855" lon="4.84372">
        <ele>276</ele>
        <time>2018-06-15T09:43:05Z</time>
      </trkpt>
      <trkpt lat="45.97857" lon="4.84368">
        <ele>276</ele>
        <time>2018-06-15T09:43:06Z</time>
      </trkpt>
      <trkpt lat="45.97859" lon="4.84363">
        <ele>276</ele>
        <time>2018-06-15T09:43:07Z</time>
      </trkpt>
      <trkpt lat="45.97862" lon="4.84357">
        <ele>276</ele>
        <time>2018-06-15T09:43:08Z</time>
      </trkpt>
      <trkpt lat="45.97866" lon="4.84352">
        <ele>276</ele>
        <time>2018-06-15T09:43:09Z</time>
      </trkpt>
      <trkpt lat="45.9787" lon="4.84347">
        <ele>276</ele>
        <time>2018-06-15T09:43:10Z</time>
      </trkpt>
      <trkpt lat="45.97874" lon="4.8434">
        <ele>276</ele>
        <time>2018-06-15T09:43:11Z</time>
      </trkpt>
      <trkpt lat="45.97878" lon="4.84335">
        <ele>275</ele>
        <time>2018-06-15T09:43:12Z</time>
      </trkpt>
      <trkpt lat="45.97881" lon="4.8433">
        <ele>275</ele>
        <time>2018-06-15T09:43:13Z</time>
      </trkpt>
      <trkpt lat="45.97884" lon="4.84325">
        <ele>275</ele>
        <time>2018-06-15T09:43:14Z</time>
      </trkpt>
      <trkpt lat="45.97888" lon="4.84319">
        <ele>275</ele>
        <time>2018-06-15T09:43:15Z</time>
      </trkpt>
      <trkpt lat="45.97891" lon="4.84314">
        <ele>275</ele>
        <time>2018-06-15T09:43:16Z</time>
      </trkpt>
      <trkpt lat="45.97895" lon="4.84308">
        <ele>275</ele>
        <time>2018-06-15T09:43:17Z</time>
      </trkpt>
      <trkpt lat="45.97898" lon="4.84303">
        <ele>275</ele>
        <time>2018-06-15T09:43:18Z</time>
      </trkpt>
      <trkpt lat="45.97901" lon="4.84299">
        <ele>275</ele>
        <time>2018-06-15T09:43:19Z</time>
      </trkpt>
      <trkpt lat="45.97905" lon="4.84294">
        <ele>275</ele>
        <time>2018-06-15T09:43:20Z</time>
      </trkpt>
      <trkpt lat="45.97909" lon="4.84289">
        <ele>275</ele>
        <time>2018-06-15T09:43:21Z</time>
      </trkpt>
      <trkpt lat="45.97913" lon="4.84285">
        <ele>275</ele>
        <time>2018-06-15T09:43:22Z</time>
      </trkpt>
      <trkpt lat="45.97917" lon="4.8428">
        <ele>275</ele>
        <time>2018-06-15T09:43:23Z</time>
      </trkpt>
      <trkpt lat="45.97921" lon="4.84275">
        <ele>275</ele>
        <time>2018-06-15T09:43:24Z</time>
      </trkpt>
      <trkpt lat="45.97927" lon="4.84268">
        <ele>275</ele>
        <time>2018-06-15T09:43:25Z</time>
      </trkpt>
      <trkpt lat="45.97931" lon="4.84264">
        <ele>275</ele>
        <time>2018-06-15T09:43:26Z</time>
      </trkpt>
      <trkpt lat="45.97936" lon="4.8426">
        <ele>275</ele>
        <time>2018-06-15T09:43:27Z</time>
      </trkpt>
      <trkpt lat="45.9794" lon="4.84255">
        <ele>275</ele>
        <time>2018-06-15T09:43:28Z</time>
      </trkpt>
      <trkpt lat="45.97944" lon="4.84252">
        <ele>275</ele>
        <time>2018-06-15T09:43:29Z</time>
      </trkpt>
      <trkpt lat="45.97948" lon="4.84247">
        <ele>275</ele>
        <time>2018-06-15T09:43:30Z</time>
      </trkpt>
      <trkpt lat="45.97952" lon="4.84244">
        <ele>275</ele>
        <time>2018-06-15T09:43:31Z</time>
      </trkpt>
      <trkpt lat="45.97957" lon="4.84242">
        <ele>275</ele>
        <time>2018-06-15T09:43:32Z</time>
      </trkpt>
      <trkpt lat="45.9796" lon="4.84237">
        <ele>274</ele>
        <time>2018-06-15T09:43:33Z</time>
      </trkpt>
      <trkpt lat="45.97964" lon="4.84234">
        <ele>274</ele>
        <time>2018-06-15T09:43:34Z</time>
      </trkpt>
      <trkpt lat="45.97968" lon="4.8423">
        <ele>274</ele>
        <time>2018-06-15T09:43:35Z</time>
      </trkpt>
      <trkpt lat="45.97972" lon="4.84225">
        <ele>274</ele>
        <time>2018-06-15T09:43:36Z</time>
      </trkpt>
      <trkpt lat="45.97976" lon="4.8422">
        <ele>274</ele>
        <time>2018-06-15T09:43:37Z</time>
      </trkpt>
      <trkpt lat="45.9798" lon="4.84216">
        <ele>274</ele>
        <time>2018-06-15T09:43:38Z</time>
      </trkpt>
      <trkpt lat="45.97984" lon="4.84213">
        <ele>274</ele>
        <time>2018-06-15T09:43:39Z</time>
      </trkpt>
      <trkpt lat="45.97989" lon="4.84207">
        <ele>274</ele>
        <time>2018-06-15T09:43:40Z</time>
      </trkpt>
      <trkpt lat="45.97993" lon="4.84205">
        <ele>274</ele>
        <time>2018-06-15T09:43:41Z</time>
      </trkpt>
      <trkpt lat="45.97998" lon="4.842">
        <ele>274</ele>
        <time>2018-06-15T09:43:42Z</time>
      </trkpt>
      <trkpt lat="45.98002" lon="4.84197">
        <ele>274</ele>
        <time>2018-06-15T09:43:43Z</time>
      </trkpt>
      <trkpt lat="45.98007" lon="4.84192">
        <ele>274</ele>
        <time>2018-06-15T09:43:44Z</time>
      </trkpt>
      <trkpt lat="45.98011" lon="4.84188">
        <ele>274</ele>
        <time>2018-06-15T09:43:45Z</time>
      </trkpt>
      <trkpt lat="45.98016" lon="4.84184">
        <ele>274</ele>
        <time>2018-06-15T09:43:46Z</time>
      </trkpt>
      <trkpt lat="45.9802" lon="4.8418">
        <ele>274</ele>
        <time>2018-06-15T09:43:47Z</time>
      </trkpt>
      <trkpt lat="45.98024" lon="4.84176">
        <ele>274</ele>
        <time>2018-06-15T09:43:48Z</time>
      </trkpt>
      <trkpt lat="45.98029" lon="4.84173">
        <ele>274</ele>
        <time>2018-06-15T09:43:49Z</time>
      </trkpt>
      <trkpt lat="45.98032" lon="4.84169">
        <ele>273</ele>
        <time>2018-06-15T09:43:50Z</time>
      </trkpt>
      <trkpt lat="45.98036" lon="4.84166">
        <ele>273</ele>
        <time>2018-06-15T09:43:51Z</time>
      </trkpt>
      <trkpt lat="45.9804" lon="4.84162">
        <ele>273</ele>
        <time>2018-06-15T09:43:52Z</time>
      </trkpt>
      <trkpt lat="45.98044" lon="4.84158">
        <ele>273</ele>
        <time>2018-06-15T09:43:53Z</time>
      </trkpt>
      <trkpt lat="45.98048" lon="4.84154">
        <ele>273</ele>
        <time>2018-06-15T09:43:54Z</time>
      </trkpt>
      <trkpt lat="45.98053" lon="4.84149">
        <ele>273</ele>
        <time>2018-06-15T09:43:55Z</time>
      </trkpt>
      <trkpt lat="45.98057" lon="4.84145">
        <ele>273</ele>
        <time>2018-06-15T09:43:56Z</time>
      </trkpt>
      <trkpt lat="45.98062" lon="4.84141">
        <ele>273</ele>
        <time>2018-06-15T09:43:57Z</time>
      </trkpt>
      <trkpt lat="45.98066" lon="4.84137">
        <ele>273</ele>
        <time>2018-06-15T09:43:58Z</time>
      </trkpt>
      <trkpt lat="45.9807" lon="4.84134">
        <ele>273</ele>
        <time>2018-06-15T09:43:59Z</time>
      </trkpt>
      <trkpt lat="45.98076" lon="4.8413">
        <ele>273</ele>
        <time>2018-06-15T09:44:00Z</time>
      </trkpt>
      <trkpt lat="45.9808" lon="4.84127">
        <ele>273</ele>
        <time>2018-06-15T09:44:01Z</time>
      </trkpt>
      <trkpt lat="45.98084" lon="4.84122">
        <ele>273</ele>
        <time>2018-06-15T09:44:02Z</time>
      </trkpt>
      <trkpt lat="45.98088" lon="4.84119">
        <ele>273</ele>
        <time>2018-06-15T09:44:03Z</time>
      </trkpt>
      <trkpt lat="45.98092" lon="4.84114">
        <ele>273</ele>
        <time>2018-06-15T09:44:04Z</time>
      </trkpt>
      <trkpt lat="45.98096" lon="4.84111">
        <ele>273</ele>
        <time>2018-06-15T09:44:05Z</time>
      </trkpt>
      <trkpt lat="45.981" lon="4.84107">
        <ele>273</ele>
        <time>2018-06-15T09:44:06Z</time>
      </trkpt>
      <trkpt lat="45.98104" lon="4.84103">
        <ele>273</ele>
        <time>2018-06-15T09:44:07Z</time>
      </trkpt>
      <trkpt lat="45.98109" lon="4.84099">
        <ele>273</ele>
        <time>2018-06-15T09:44:08Z</time>
      </trkpt>
      <trkpt lat="45.98112" lon="4.84094">
        <ele>273</ele>
        <time>2018-06-15T09:44:09Z</time>
      </trkpt>
      <trkpt lat="45.98117" lon="4.8409">
        <ele>273</ele>
        <time>2018-06-15T09:44:10Z</time>
      </trkpt>
      <trkpt lat="45.98121" lon="4.84084">
        <ele>273</ele>
        <time>2018-06-15T09:44:11Z</time>
      </trkpt>
      <trkpt lat="45.98124" lon="4.8408">
        <ele>273</ele>
        <time>2018-06-15T09:44:12Z</time>
      </trkpt>
      <trkpt lat="45.98132" lon="4.84075">
        <ele>273</ele>
        <time>2018-06-15T09:44:14Z</time>
      </trkpt>
      <trkpt lat="45.98137" lon="4.84072">
        <ele>273</ele>
        <time>2018-06-15T09:44:15Z</time>
      </trkpt>
      <trkpt lat="45.9814" lon="4.84067">
        <ele>273</ele>
        <time>2018-06-15T09:44:16Z</time>
      </trkpt>
      <trkpt lat="45.98143" lon="4.8406">
        <ele>273</ele>
        <time>2018-06-15T09:44:17Z</time>
      </trkpt>
      <trkpt lat="45.98148" lon="4.84052">
        <ele>273</ele>
        <time>2018-06-15T09:44:19Z</time>
      </trkpt>
      <trkpt lat="45.98152" lon="4.84046">
        <ele>273</ele>
        <time>2018-06-15T09:44:20Z</time>
      </trkpt>
      <trkpt lat="45.98157" lon="4.84038">
        <ele>273</ele>
        <time>2018-06-15T09:44:22Z</time>
      </trkpt>
      <trkpt lat="45.9816" lon="4.84033">
        <ele>273</ele>
        <time>2018-06-15T09:44:23Z</time>
      </trkpt>
      <trkpt lat="45.98164" lon="4.84027">
        <ele>273</ele>
        <time>2018-06-15T09:44:24Z</time>
      </trkpt>
      <trkpt lat="45.98167" lon="4.84021">
        <ele>273</ele>
        <time>2018-06-15T09:44:25Z</time>
      </trkpt>
      <trkpt lat="45.98169" lon="4.84014">
        <ele>273</ele>
        <time>2018-06-15T09:44:26Z</time>
      </trkpt>
      <trkpt lat="45.98173" lon="4.84007">
        <ele>273</ele>
        <time>2018-06-15T09:44:27Z</time>
      </trkpt>
      <trkpt lat="45.98176" lon="4.84">
        <ele>273</ele>
        <time>2018-06-15T09:44:28Z</time>
      </trkpt>
      <trkpt lat="45.98179" lon="4.83993">
        <ele>273</ele>
        <time>2018-06-15T09:44:29Z</time>
      </trkpt>
      <trkpt lat="45.98181" lon="4.83985">
        <ele>273</ele>
        <time>2018-06-15T09:44:30Z</time>
      </trkpt>
      <trkpt lat="45.98184" lon="4.83977">
        <ele>273</ele>
        <time>2018-06-15T09:44:31Z</time>
      </trkpt>
      <trkpt lat="45.98187" lon="4.8397">
        <ele>273</ele>
        <time>2018-06-15T09:44:32Z</time>
      </trkpt>
      <trkpt lat="45.9819" lon="4.83963">
        <ele>273</ele>
        <time>2018-06-15T09:44:33Z</time>
      </trkpt>
      <trkpt lat="45.98193" lon="4.83956">
        <ele>273</ele>
        <time>2018-06-15T09:44:34Z</time>
      </trkpt>
      <trkpt lat="45.98196" lon="4.83948">
        <ele>273</ele>
        <time>2018-06-15T09:44:35Z</time>
      </trkpt>
      <trkpt lat="45.98199" lon="4.83942">
        <ele>273</ele>
        <time>2018-06-15T09:44:36Z</time>
      </trkpt>
      <trkpt lat="45.98202" lon="4.83931">
        <ele>273</ele>
        <time>2018-06-15T09:44:37Z</time>
      </trkpt>
      <trkpt lat="45.98205" lon="4.83922">
        <ele>273</ele>
        <time>2018-06-15T09:44:38Z</time>
      </trkpt>
      <trkpt lat="45.98207" lon="4.83915">
        <ele>273</ele>
        <time>2018-06-15T09:44:39Z</time>
      </trkpt>
      <trkpt lat="45.98211" lon="4.83907">
        <ele>273</ele>
        <time>2018-06-15T09:44:40Z</time>
      </trkpt>
      <trkpt lat="45.98212" lon="4.83899">
        <ele>273</ele>
        <time>2018-06-15T09:44:41Z</time>
      </trkpt>
      <trkpt lat="45.98214" lon="4.83892">
        <ele>273</ele>
        <time>2018-06-15T09:44:42Z</time>
      </trkpt>
      <trkpt lat="45.98217" lon="4.83884">
        <ele>272</ele>
        <time>2018-06-15T09:44:43Z</time>
      </trkpt>
      <trkpt lat="45.9822" lon="4.83876">
        <ele>272</ele>
        <time>2018-06-15T09:44:44Z</time>
      </trkpt>
      <trkpt lat="45.98222" lon="4.83869">
        <ele>272</ele>
        <time>2018-06-15T09:44:45Z</time>
      </trkpt>
      <trkpt lat="45.98224" lon="4.83862">
        <ele>272</ele>
        <time>2018-06-15T09:44:46Z</time>
      </trkpt>
      <trkpt lat="45.98227" lon="4.83855">
        <ele>272</ele>
        <time>2018-06-15T09:44:47Z</time>
      </trkpt>
      <trkpt lat="45.9823" lon="4.83847">
        <ele>272</ele>
        <time>2018-06-15T09:44:48Z</time>
      </trkpt>
      <trkpt lat="45.98233" lon="4.83839">
        <ele>272</ele>
        <time>2018-06-15T09:44:49Z</time>
      </trkpt>
      <trkpt lat="45.98236" lon="4.83832">
        <ele>272</ele>
        <time>2018-06-15T09:44:50Z</time>
      </trkpt>
      <trkpt lat="45.98239" lon="4.83824">
        <ele>272</ele>
        <time>2018-06-15T09:44:51Z</time>
      </trkpt>
      <trkpt lat="45.98242" lon="4.83815">
        <ele>272</ele>
        <time>2018-06-15T09:44:52Z</time>
      </trkpt>
      <trkpt lat="45.98244" lon="4.83807">
        <ele>272</ele>
        <time>2018-06-15T09:44:53Z</time>
      </trkpt>
      <trkpt lat="45.98246" lon="4.83798">
        <ele>272</ele>
        <time>2018-06-15T09:44:54Z</time>
      </trkpt>
      <trkpt lat="45.98249" lon="4.8379">
        <ele>272</ele>
        <time>2018-06-15T09:44:55Z</time>
      </trkpt>
      <trkpt lat="45.98252" lon="4.83782">
        <ele>272</ele>
        <time>2018-06-15T09:44:56Z</time>
      </trkpt>
      <trkpt lat="45.98255" lon="4.83774">
        <ele>272</ele>
        <time>2018-06-15T09:44:57Z</time>
      </trkpt>
      <trkpt lat="45.98258" lon="4.83766">
        <ele>272</ele>
        <time>2018-06-15T09:44:58Z</time>
      </trkpt>
      <trkpt lat="45.98261" lon="4.83758">
        <ele>272</ele>
        <time>2018-06-15T09:44:59Z</time>
      </trkpt>
      <trkpt lat="45.98263" lon="4.8375">
        <ele>272</ele>
        <time>2018-06-15T09:45:00Z</time>
      </trkpt>
      <trkpt lat="45.98266" lon="4.83742">
        <ele>272</ele>
        <time>2018-06-15T09:45:01Z</time>
      </trkpt>
      <trkpt lat="45.98268" lon="4.83733">
        <ele>272</ele>
        <time>2018-06-15T09:45:02Z</time>
      </trkpt>
      <trkpt lat="45.98272" lon="4.83727">
        <ele>272</ele>
        <time>2018-06-15T09:45:03Z</time>
      </trkpt>
      <trkpt lat="45.98277" lon="4.8372">
        <ele>272</ele>
        <time>2018-06-15T09:45:04Z</time>
      </trkpt>
      <trkpt lat="45.9828" lon="4.83711">
        <ele>272</ele>
        <time>2018-06-15T09:45:05Z</time>
      </trkpt>
      <trkpt lat="45.98284" lon="4.83704">
        <ele>272</ele>
        <time>2018-06-15T09:45:06Z</time>
      </trkpt>
      <trkpt lat="45.98287" lon="4.83696">
        <ele>272</ele>
        <time>2018-06-15T09:45:07Z</time>
      </trkpt>
      <trkpt lat="45.98289" lon="4.83687">
        <ele>272</ele>
        <time>2018-06-15T09:45:08Z</time>
      </trkpt>
      <trkpt lat="45.98292" lon="4.83681">
        <ele>272</ele>
        <time>2018-06-15T09:45:09Z</time>
      </trkpt>
      <trkpt lat="45.98294" lon="4.83673">
        <ele>272</ele>
        <time>2018-06-15T09:45:10Z</time>
      </trkpt>
      <trkpt lat="45.98298" lon="4.83665">
        <ele>271</ele>
        <time>2018-06-15T09:45:11Z</time>
      </trkpt>
      <trkpt lat="45.983" lon="4.83655">
        <ele>271</ele>
        <time>2018-06-15T09:45:12Z</time>
      </trkpt>
      <trkpt lat="45.98302" lon="4.83646">
        <ele>271</ele>
        <time>2018-06-15T09:45:13Z</time>
      </trkpt>
      <trkpt lat="45.98305" lon="4.83639">
        <ele>271</ele>
        <time>2018-06-15T09:45:14Z</time>
      </trkpt>
      <trkpt lat="45.98309" lon="4.83631">
        <ele>271</ele>
        <time>2018-06-15T09:45:15Z</time>
      </trkpt>
      <trkpt lat="45.98313" lon="4.83624">
        <ele>271</ele>
        <time>2018-06-15T09:45:16Z</time>
      </trkpt>
      <trkpt lat="45.98316" lon="4.83618">
        <ele>271</ele>
        <time>2018-06-15T09:45:17Z</time>
      </trkpt>
      <trkpt lat="45.98319" lon="4.83611">
        <ele>271</ele>
        <time>2018-06-15T09:45:18Z</time>
      </trkpt>
      <trkpt lat="45.98323" lon="4.83605">
        <ele>271</ele>
        <time>2018-06-15T09:45:19Z</time>
      </trkpt>
      <trkpt lat="45.98327" lon="4.83599">
        <ele>271</ele>
        <time>2018-06-15T09:45:20Z</time>
      </trkpt>
      <trkpt lat="45.98331" lon="4.83595">
        <ele>270</ele>
        <time>2018-06-15T09:45:21Z</time>
      </trkpt>
      <trkpt lat="45.98335" lon="4.83589">
        <ele>270</ele>
        <time>2018-06-15T09:45:22Z</time>
      </trkpt>
      <trkpt lat="45.9834" lon="4.83584">
        <ele>270</ele>
        <time>2018-06-15T09:45:23Z</time>
      </trkpt>
      <trkpt lat="45.98343" lon="4.83579">
        <ele>270</ele>
        <time>2018-06-15T09:45:24Z</time>
      </trkpt>
      <trkpt lat="45.98348" lon="4.83571">
        <ele>269</ele>
        <time>2018-06-15T09:45:25Z</time>
      </trkpt>
      <trkpt lat="45.98352" lon="4.83564">
        <ele>269</ele>
        <time>2018-06-15T09:45:26Z</time>
      </trkpt>
      <trkpt lat="45.98356" lon="4.83559">
        <ele>269</ele>
        <time>2018-06-15T09:45:27Z</time>
      </trkpt>
      <trkpt lat="45.98361" lon="4.83553">
        <ele>269</ele>
        <time>2018-06-15T09:45:28Z</time>
      </trkpt>
      <trkpt lat="45.98365" lon="4.83547">
        <ele>269</ele>
        <time>2018-06-15T09:45:29Z</time>
      </trkpt>
      <trkpt lat="45.98369" lon="4.83541">
        <ele>269</ele>
        <time>2018-06-15T09:45:30Z</time>
      </trkpt>
      <trkpt lat="45.98373" lon="4.83536">
        <ele>269</ele>
        <time>2018-06-15T09:45:31Z</time>
      </trkpt>
      <trkpt lat="45.98377" lon="4.8353">
        <ele>269</ele>
        <time>2018-06-15T09:45:32Z</time>
      </trkpt>
      <trkpt lat="45.9838" lon="4.83524">
        <ele>269</ele>
        <time>2018-06-15T09:45:33Z</time>
      </trkpt>
      <trkpt lat="45.98384" lon="4.83518">
        <ele>269</ele>
        <time>2018-06-15T09:45:34Z</time>
      </trkpt>
      <trkpt lat="45.98389" lon="4.83512">
        <ele>269</ele>
        <time>2018-06-15T09:45:35Z</time>
      </trkpt>
      <trkpt lat="45.98393" lon="4.83507">
        <ele>269</ele>
        <time>2018-06-15T09:45:36Z</time>
      </trkpt>
      <trkpt lat="45.98397" lon="4.83502">
        <ele>269</ele>
        <time>2018-06-15T09:45:37Z</time>
      </trkpt>
      <trkpt lat="45.98401" lon="4.83497">
        <ele>269</ele>
        <time>2018-06-15T09:45:38Z</time>
      </trkpt>
      <trkpt lat="45.98405" lon="4.83491">
        <ele>269</ele>
        <time>2018-06-15T09:45:39Z</time>
      </trkpt>
      <trkpt lat="45.9841" lon="4.83487">
        <ele>269</ele>
        <time>2018-06-15T09:45:40Z</time>
      </trkpt>
      <trkpt lat="45.98414" lon="4.83482">
        <ele>269</ele>
        <time>2018-06-15T09:45:41Z</time>
      </trkpt>
      <trkpt lat="45.98419" lon="4.83478">
        <ele>268</ele>
        <time>2018-06-15T09:45:42Z</time>
      </trkpt>
      <trkpt lat="45.98423" lon="4.83473">
        <ele>268</ele>
        <time>2018-06-15T09:45:43Z</time>
      </trkpt>
      <trkpt lat="45.9843" lon="4.83465">
        <ele>268</ele>
        <time>2018-06-15T09:45:45Z</time>
      </trkpt>
      <trkpt lat="45.98434" lon="4.8346">
        <ele>268</ele>
        <time>2018-06-15T09:45:46Z</time>
      </trkpt>
      <trkpt lat="45.98438" lon="4.83455">
        <ele>268</ele>
        <time>2018-06-15T09:45:47Z</time>
      </trkpt>
      <trkpt lat="45.98441" lon="4.83449">
        <ele>268</ele>
        <time>2018-06-15T09:45:48Z</time>
      </trkpt>
      <trkpt lat="45.98445" lon="4.83444">
        <ele>268</ele>
        <time>2018-06-15T09:45:49Z</time>
      </trkpt>
      <trkpt lat="45.98448" lon="4.83439">
        <ele>268</ele>
        <time>2018-06-15T09:45:50Z</time>
      </trkpt>
      <trkpt lat="45.98452" lon="4.83434">
        <ele>268</ele>
        <time>2018-06-15T09:45:51Z</time>
      </trkpt>
      <trkpt lat="45.98455" lon="4.83427">
        <ele>268</ele>
        <time>2018-06-15T09:45:52Z</time>
      </trkpt>
      <trkpt lat="45.98458" lon="4.83422">
        <ele>269</ele>
        <time>2018-06-15T09:45:53Z</time>
      </trkpt>
      <trkpt lat="45.98462" lon="4.83419">
        <ele>269</ele>
        <time>2018-06-15T09:45:54Z</time>
      </trkpt>
      <trkpt lat="45.98466" lon="4.83412">
        <ele>269</ele>
        <time>2018-06-15T09:45:55Z</time>
      </trkpt>
      <trkpt lat="45.9847" lon="4.83407">
        <ele>269</ele>
        <time>2018-06-15T09:45:56Z</time>
      </trkpt>
      <trkpt lat="45.98473" lon="4.83403">
        <ele>269</ele>
        <time>2018-06-15T09:45:57Z</time>
      </trkpt>
      <trkpt lat="45.98477" lon="4.83398">
        <ele>269</ele>
        <time>2018-06-15T09:45:58Z</time>
      </trkpt>
      <trkpt lat="45.98484" lon="4.8339">
        <ele>269</ele>
        <time>2018-06-15T09:46:00Z</time>
      </trkpt>
      <trkpt lat="45.98488" lon="4.83385">
        <ele>269</ele>
        <time>2018-06-15T09:46:01Z</time>
      </trkpt>
      <trkpt lat="45.98492" lon="4.83379">
        <ele>269</ele>
        <time>2018-06-15T09:46:02Z</time>
      </trkpt>
      <trkpt lat="45.98497" lon="4.83375">
        <ele>270</ele>
        <time>2018-06-15T09:46:03Z</time>
      </trkpt>
      <trkpt lat="45.985" lon="4.83369">
        <ele>269</ele>
        <time>2018-06-15T09:46:04Z</time>
      </trkpt>
      <trkpt lat="45.98503" lon="4.83364">
        <ele>269</ele>
        <time>2018-06-15T09:46:05Z</time>
      </trkpt>
      <trkpt lat="45.98508" lon="4.8336">
        <ele>269</ele>
        <time>2018-06-15T09:46:06Z</time>
      </trkpt>
      <trkpt lat="45.98511" lon="4.83356">
        <ele>269</ele>
        <time>2018-06-15T09:46:07Z</time>
      </trkpt>
      <trkpt lat="45.98514" lon="4.83351">
        <ele>270</ele>
        <time>2018-06-15T09:46:08Z</time>
      </trkpt>
      <trkpt lat="45.98518" lon="4.83346">
        <ele>270</ele>
        <time>2018-06-15T09:46:09Z</time>
      </trkpt>
      <trkpt lat="45.98521" lon="4.83342">
        <ele>270</ele>
        <time>2018-06-15T09:46:10Z</time>
      </trkpt>
      <trkpt lat="45.98525" lon="4.83337">
        <ele>269</ele>
        <time>2018-06-15T09:46:11Z</time>
      </trkpt>
      <trkpt lat="45.98532" lon="4.83328">
        <ele>269</ele>
        <time>2018-06-15T09:46:13Z</time>
      </trkpt>
      <trkpt lat="45.98534" lon="4.83323">
        <ele>269</ele>
        <time>2018-06-15T09:46:14Z</time>
      </trkpt>
      <trkpt lat="45.9854" lon="4.83316">
        <ele>269</ele>
        <time>2018-06-15T09:46:16Z</time>
      </trkpt>
      <trkpt lat="45.98541" lon="4.83312">
        <ele>269</ele>
        <time>2018-06-15T09:46:17Z</time>
      </trkpt>
      <trkpt lat="45.98544" lon="4.83308">
        <ele>269</ele>
        <time>2018-06-15T09:46:18Z</time>
      </trkpt>
      <trkpt lat="45.98548" lon="4.83303">
        <ele>269</ele>
        <time>2018-06-15T09:46:19Z</time>
      </trkpt>
      <trkpt lat="45.98551" lon="4.83299">
        <ele>269</ele>
        <time>2018-06-15T09:46:20Z</time>
      </trkpt>
      <trkpt lat="45.98555" lon="4.83294">
        <ele>269</ele>
        <time>2018-06-15T09:46:21Z</time>
      </trkpt>
      <trkpt lat="45.98558" lon="4.83288">
        <ele>269</ele>
        <time>2018-06-15T09:46:22Z</time>
      </trkpt>
      <trkpt lat="45.98562" lon="4.83283">
        <ele>269</ele>
        <time>2018-06-15T09:46:23Z</time>
      </trkpt>
      <trkpt lat="45.98566" lon="4.83276">
        <ele>269</ele>
        <time>2018-06-15T09:46:24Z</time>
      </trkpt>
      <trkpt lat="45.98568" lon="4.83273">
        <ele>269</ele>
        <time>2018-06-15T09:46:25Z</time>
      </trkpt>
      <trkpt lat="45.98571" lon="4.83267">
        <ele>269</ele>
        <time>2018-06-15T09:46:26Z</time>
      </trkpt>
      <trkpt lat="45.98575" lon="4.83262">
        <ele>269</ele>
        <time>2018-06-15T09:46:27Z</time>
      </trkpt>
      <trkpt lat="45.98579" lon="4.83256">
        <ele>268</ele>
        <time>2018-06-15T09:46:28Z</time>
      </trkpt>
      <trkpt lat="45.98583" lon="4.83251">
        <ele>268</ele>
        <time>2018-06-15T09:46:29Z</time>
      </trkpt>
      <trkpt lat="45.98586" lon="4.83248">
        <ele>268</ele>
        <time>2018-06-15T09:46:30Z</time>
      </trkpt>
      <trkpt lat="45.9859" lon="4.83244">
        <ele>268</ele>
        <time>2018-06-15T09:46:31Z</time>
      </trkpt>
      <trkpt lat="45.98594" lon="4.83239">
        <ele>268</ele>
        <time>2018-06-15T09:46:32Z</time>
      </trkpt>
      <trkpt lat="45.98598" lon="4.83235">
        <ele>268</ele>
        <time>2018-06-15T09:46:33Z</time>
      </trkpt>
      <trkpt lat="45.98602" lon="4.8323">
        <ele>268</ele>
        <time>2018-06-15T09:46:34Z</time>
      </trkpt>
      <trkpt lat="45.98606" lon="4.83226">
        <ele>267</ele>
        <time>2018-06-15T09:46:35Z</time>
      </trkpt>
      <trkpt lat="45.9861" lon="4.83221">
        <ele>267</ele>
        <time>2018-06-15T09:46:36Z</time>
      </trkpt>
      <trkpt lat="45.98615" lon="4.83215">
        <ele>267</ele>
        <time>2018-06-15T09:46:37Z</time>
      </trkpt>
      <trkpt lat="45.98619" lon="4.83209">
        <ele>267</ele>
        <time>2018-06-15T09:46:38Z</time>
      </trkpt>
      <trkpt lat="45.98623" lon="4.83203">
        <ele>267</ele>
        <time>2018-06-15T09:46:39Z</time>
      </trkpt>
      <trkpt lat="45.98627" lon="4.83197">
        <ele>267</ele>
        <time>2018-06-15T09:46:40Z</time>
      </trkpt>
      <trkpt lat="45.98631" lon="4.83192">
        <ele>267</ele>
        <time>2018-06-15T09:46:41Z</time>
      </trkpt>
      <trkpt lat="45.98636" lon="4.83188">
        <ele>267</ele>
        <time>2018-06-15T09:46:42Z</time>
      </trkpt>
      <trkpt lat="45.98639" lon="4.83183">
        <ele>267</ele>
        <time>2018-06-15T09:46:43Z</time>
      </trkpt>
      <trkpt lat="45.98645" lon="4.83179">
        <ele>267</ele>
        <time>2018-06-15T09:46:44Z</time>
      </trkpt>
      <trkpt lat="45.9865" lon="4.83175">
        <ele>267</ele>
        <time>2018-06-15T09:46:45Z</time>
      </trkpt>
      <trkpt lat="45.98654" lon="4.8317">
        <ele>267</ele>
        <time>2018-06-15T09:46:46Z</time>
      </trkpt>
      <trkpt lat="45.9866" lon="4.83166">
        <ele>266</ele>
        <time>2018-06-15T09:46:47Z</time>
      </trkpt>
      <trkpt lat="45.98665" lon="4.83161">
        <ele>266</ele>
        <time>2018-06-15T09:46:48Z</time>
      </trkpt>
      <trkpt lat="45.9867" lon="4.83158">
        <ele>266</ele>
        <time>2018-06-15T09:46:49Z</time>
      </trkpt>
      <trkpt lat="45.98675" lon="4.83154">
        <ele>266</ele>
        <time>2018-06-15T09:46:50Z</time>
      </trkpt>
      <trkpt lat="45.9868" lon="4.83151">
        <ele>266</ele>
        <time>2018-06-15T09:46:51Z</time>
      </trkpt>
      <trkpt lat="45.98685" lon="4.83148">
        <ele>266</ele>
        <time>2018-06-15T09:46:52Z</time>
      </trkpt>
      <trkpt lat="45.98689" lon="4.83145">
        <ele>266</ele>
        <time>2018-06-15T09:46:53Z</time>
      </trkpt>
      <trkpt lat="45.98694" lon="4.83142">
        <ele>266</ele>
        <time>2018-06-15T09:46:54Z</time>
      </trkpt>
      <trkpt lat="45.98698" lon="4.83138">
        <ele>266</ele>
        <time>2018-06-15T09:46:55Z</time>
      </trkpt>
      <trkpt lat="45.98702" lon="4.83133">
        <ele>266</ele>
        <time>2018-06-15T09:46:56Z</time>
      </trkpt>
      <trkpt lat="45.98706" lon="4.8313">
        <ele>266</ele>
        <time>2018-06-15T09:46:57Z</time>
      </trkpt>
      <trkpt lat="45.98711" lon="4.83126">
        <ele>266</ele>
        <time>2018-06-15T09:46:58Z</time>
      </trkpt>
      <trkpt lat="45.98718" lon="4.83124">
        <ele>266</ele>
        <time>2018-06-15T09:46:59Z</time>
      </trkpt>
      <trkpt lat="45.98722" lon="4.83121">
        <ele>266</ele>
        <time>2018-06-15T09:47:00Z</time>
      </trkpt>
      <trkpt lat="45.98726" lon="4.83116">
        <ele>267</ele>
        <time>2018-06-15T09:47:01Z</time>
      </trkpt>
      <trkpt lat="45.98731" lon="4.83112">
        <ele>267</ele>
        <time>2018-06-15T09:47:02Z</time>
      </trkpt>
      <trkpt lat="45.98736" lon="4.83108">
        <ele>267</ele>
        <time>2018-06-15T09:47:03Z</time>
      </trkpt>
      <trkpt lat="45.9874" lon="4.83103">
        <ele>267</ele>
        <time>2018-06-15T09:47:04Z</time>
      </trkpt>
      <trkpt lat="45.98745" lon="4.83099">
        <ele>267</ele>
        <time>2018-06-15T09:47:05Z</time>
      </trkpt>
      <trkpt lat="45.98752" lon="4.83092">
        <ele>266</ele>
        <time>2018-06-15T09:47:07Z</time>
      </trkpt>
      <trkpt lat="45.98757" lon="4.83087">
        <ele>266</ele>
        <time>2018-06-15T09:47:08Z</time>
      </trkpt>
      <trkpt lat="45.98763" lon="4.83083">
        <ele>266</ele>
        <time>2018-06-15T09:47:09Z</time>
      </trkpt>
      <trkpt lat="45.98768" lon="4.83078">
        <ele>266</ele>
        <time>2018-06-15T09:47:10Z</time>
      </trkpt>
      <trkpt lat="45.98773" lon="4.83075">
        <ele>265</ele>
        <time>2018-06-15T09:47:11Z</time>
      </trkpt>
      <trkpt lat="45.98777" lon="4.83071">
        <ele>265</ele>
        <time>2018-06-15T09:47:12Z</time>
      </trkpt>
      <trkpt lat="45.98783" lon="4.83067">
        <ele>265</ele>
        <time>2018-06-15T09:47:13Z</time>
      </trkpt>
      <trkpt lat="45.98789" lon="4.83064">
        <ele>265</ele>
        <time>2018-06-15T09:47:14Z</time>
      </trkpt>
      <trkpt lat="45.98794" lon="4.83059">
        <ele>265</ele>
        <time>2018-06-15T09:47:15Z</time>
      </trkpt>
      <trkpt lat="45.98798" lon="4.83055">
        <ele>264</ele>
        <time>2018-06-15T09:47:16Z</time>
      </trkpt>
      <trkpt lat="45.98803" lon="4.8305">
        <ele>264</ele>
        <time>2018-06-15T09:47:17Z</time>
      </trkpt>
      <trkpt lat="45.98808" lon="4.83045">
        <ele>264</ele>
        <time>2018-06-15T09:47:18Z</time>
      </trkpt>
      <trkpt lat="45.98814" lon="4.83041">
        <ele>264</ele>
        <time>2018-06-15T09:47:19Z</time>
      </trkpt>
      <trkpt lat="45.98818" lon="4.83037">
        <ele>264</ele>
        <time>2018-06-15T09:47:20Z</time>
      </trkpt>
      <trkpt lat="45.98824" lon="4.83033">
        <ele>264</ele>
        <time>2018-06-15T09:47:21Z</time>
      </trkpt>
      <trkpt lat="45.98831" lon="4.83028">
        <ele>264</ele>
        <time>2018-06-15T09:47:22Z</time>
      </trkpt>
      <trkpt lat="45.98835" lon="4.83024">
        <ele>261</ele>
        <time>2018-06-15T09:47:23Z</time>
      </trkpt>
      <trkpt lat="45.98841" lon="4.8302">
        <ele>261</ele>
        <time>2018-06-15T09:47:24Z</time>
      </trkpt>
      <trkpt lat="45.98847" lon="4.83018">
        <ele>261</ele>
        <time>2018-06-15T09:47:25Z</time>
      </trkpt>
      <trkpt lat="45.98855" lon="4.83011">
        <ele>261</ele>
        <time>2018-06-15T09:47:26Z</time>
      </trkpt>
      <trkpt lat="45.98863" lon="4.83006">
        <ele>260</ele>
        <time>2018-06-15T09:47:27Z</time>
      </trkpt>
      <trkpt lat="45.98869" lon="4.83001">
        <ele>260</ele>
        <time>2018-06-15T09:47:28Z</time>
      </trkpt>
      <trkpt lat="45.98874" lon="4.82996">
        <ele>260</ele>
        <time>2018-06-15T09:47:29Z</time>
      </trkpt>
      <trkpt lat="45.98881" lon="4.8299">
        <ele>260</ele>
        <time>2018-06-15T09:47:30Z</time>
      </trkpt>
      <trkpt lat="45.98889" lon="4.82985">
        <ele>259</ele>
        <time>2018-06-15T09:47:31Z</time>
      </trkpt>
      <trkpt lat="45.98896" lon="4.82976">
        <ele>259</ele>
        <time>2018-06-15T09:47:32Z</time>
      </trkpt>
      <trkpt lat="45.98903" lon="4.82969">
        <ele>259</ele>
        <time>2018-06-15T09:47:33Z</time>
      </trkpt>
      <trkpt lat="45.9891" lon="4.82961">
        <ele>258</ele>
        <time>2018-06-15T09:47:34Z</time>
      </trkpt>
      <trkpt lat="45.98915" lon="4.82952">
        <ele>258</ele>
        <time>2018-06-15T09:47:35Z</time>
      </trkpt>
      <trkpt lat="45.98922" lon="4.82936">
        <ele>255</ele>
        <time>2018-06-15T09:47:36Z</time>
      </trkpt>
      <trkpt lat="45.98929" lon="4.82921">
        <ele>255</ele>
        <time>2018-06-15T09:47:37Z</time>
      </trkpt>
      <trkpt lat="45.98935" lon="4.82909">
        <ele>254</ele>
        <time>2018-06-15T09:47:38Z</time>
      </trkpt>
      <trkpt lat="45.9894" lon="4.82897">
        <ele>253</ele>
        <time>2018-06-15T09:47:39Z</time>
      </trkpt>
      <trkpt lat="45.98947" lon="4.82884">
        <ele>253</ele>
        <time>2018-06-15T09:47:40Z</time>
      </trkpt>
      <trkpt lat="45.98953" lon="4.8287">
        <ele>253</ele>
        <time>2018-06-15T09:47:41Z</time>
      </trkpt>
      <trkpt lat="45.98959" lon="4.82858">
        <ele>252</ele>
        <time>2018-06-15T09:47:42Z</time>
      </trkpt>
      <trkpt lat="45.98965" lon="4.82844">
        <ele>252</ele>
        <time>2018-06-15T09:47:43Z</time>
      </trkpt>
      <trkpt lat="45.98972" lon="4.82831">
        <ele>249</ele>
        <time>2018-06-15T09:47:44Z</time>
      </trkpt>
      <trkpt lat="45.98979" lon="4.82816">
        <ele>248</ele>
        <time>2018-06-15T09:47:45Z</time>
      </trkpt>
      <trkpt lat="45.98985" lon="4.82802">
        <ele>248</ele>
        <time>2018-06-15T09:47:46Z</time>
      </trkpt>
      <trkpt lat="45.98991" lon="4.82787">
        <ele>247</ele>
        <time>2018-06-15T09:47:47Z</time>
      </trkpt>
      <trkpt lat="45.98998" lon="4.82772">
        <ele>245</ele>
        <time>2018-06-15T09:47:48Z</time>
      </trkpt>
      <trkpt lat="45.99004" lon="4.82757">
        <ele>241</ele>
        <time>2018-06-15T09:47:49Z</time>
      </trkpt>
      <trkpt lat="45.99012" lon="4.82742">
        <ele>240</ele>
        <time>2018-06-15T09:47:50Z</time>
      </trkpt>
      <trkpt lat="45.99018" lon="4.82727">
        <ele>239</ele>
        <time>2018-06-15T09:47:51Z</time>
      </trkpt>
      <trkpt lat="45.99026" lon="4.82712">
        <ele>238</ele>
        <time>2018-06-15T09:47:52Z</time>
      </trkpt>
      <trkpt lat="45.99034" lon="4.82698">
        <ele>238</ele>
        <time>2018-06-15T09:47:53Z</time>
      </trkpt>
      <trkpt lat="45.9904" lon="4.82684">
        <ele>238</ele>
        <time>2018-06-15T09:47:54Z</time>
      </trkpt>
      <trkpt lat="45.99046" lon="4.82669">
        <ele>237</ele>
        <time>2018-06-15T09:47:55Z</time>
      </trkpt>
      <trkpt lat="45.99052" lon="4.82656">
        <ele>236</ele>
        <time>2018-06-15T09:47:56Z</time>
      </trkpt>
      <trkpt lat="45.99057" lon="4.82643">
        <ele>236</ele>
        <time>2018-06-15T09:47:57Z</time>
      </trkpt>
      <trkpt lat="45.99061" lon="4.82632">
        <ele>236</ele>
        <time>2018-06-15T09:47:58Z</time>
      </trkpt>
      <trkpt lat="45.99063" lon="4.82621">
        <ele>236</ele>
        <time>2018-06-15T09:47:59Z</time>
      </trkpt>
      <trkpt lat="45.99067" lon="4.82611">
        <ele>236</ele>
        <time>2018-06-15T09:48:00Z</time>
      </trkpt>
      <trkpt lat="45.99071" lon="4.82604">
        <ele>236</ele>
        <time>2018-06-15T09:48:01Z</time>
      </trkpt>
      <trkpt lat="45.99072" lon="4.82596">
        <ele>235</ele>
        <time>2018-06-15T09:48:02Z</time>
      </trkpt>
      <trkpt lat="45.99075" lon="4.8259">
        <ele>235</ele>
        <time>2018-06-15T09:48:03Z</time>
      </trkpt>
      <trkpt lat="45.99075" lon="4.82583">
        <ele>235</ele>
        <time>2018-06-15T09:48:04Z</time>
      </trkpt>
      <trkpt lat="45.99074" lon="4.82577">
        <ele>235</ele>
        <time>2018-06-15T09:48:05Z</time>
      </trkpt>
      <trkpt lat="45.99072" lon="4.82572">
        <ele>235</ele>
        <time>2018-06-15T09:48:06Z</time>
      </trkpt>
      <trkpt lat="45.99068" lon="4.82567">
        <ele>235</ele>
        <time>2018-06-15T09:48:07Z</time>
      </trkpt>
      <trkpt lat="45.99063" lon="4.82564">
        <ele>235</ele>
        <time>2018-06-15T09:48:08Z</time>
      </trkpt>
      <trkpt lat="45.99058" lon="4.82563">
        <ele>235</ele>
        <time>2018-06-15T09:48:09Z</time>
      </trkpt>
      <trkpt lat="45.99052" lon="4.82562">
        <ele>235</ele>
        <time>2018-06-15T09:48:10Z</time>
      </trkpt>
      <trkpt lat="45.99047" lon="4.8256">
        <ele>235</ele>
        <time>2018-06-15T09:48:11Z</time>
      </trkpt>
      <trkpt lat="45.99039" lon="4.82554">
        <ele>235</ele>
        <time>2018-06-15T09:48:13Z</time>
      </trkpt>
      <trkpt lat="45.99034" lon="4.82551">
        <ele>235</ele>
        <time>2018-06-15T09:48:14Z</time>
      </trkpt>
      <trkpt lat="45.9903" lon="4.82547">
        <ele>235</ele>
        <time>2018-06-15T09:48:15Z</time>
      </trkpt>
      <trkpt lat="45.99026" lon="4.82544">
        <ele>235</ele>
        <time>2018-06-15T09:48:16Z</time>
      </trkpt>
      <trkpt lat="45.99018" lon="4.82538">
        <ele>235</ele>
        <time>2018-06-15T09:48:18Z</time>
      </trkpt>
      <trkpt lat="45.99015" lon="4.82533">
        <ele>235</ele>
        <time>2018-06-15T09:48:19Z</time>
      </trkpt>
      <trkpt lat="45.9901" lon="4.82523">
        <ele>235</ele>
        <time>2018-06-15T09:48:21Z</time>
      </trkpt>
      <trkpt lat="45.99008" lon="4.82518">
        <ele>235</ele>
        <time>2018-06-15T09:48:22Z</time>
      </trkpt>
      <trkpt lat="45.99008" lon="4.8251">
        <ele>235</ele>
        <time>2018-06-15T09:48:23Z</time>
      </trkpt>
      <trkpt lat="45.99004" lon="4.82506">
        <ele>235</ele>
        <time>2018-06-15T09:48:24Z</time>
      </trkpt>
      <trkpt lat="45.99001" lon="4.82501">
        <ele>235</ele>
        <time>2018-06-15T09:48:25Z</time>
      </trkpt>
      <trkpt lat="45.98998" lon="4.82495">
        <ele>235</ele>
        <time>2018-06-15T09:48:26Z</time>
      </trkpt>
      <trkpt lat="45.98995" lon="4.82489">
        <ele>236</ele>
        <time>2018-06-15T09:48:27Z</time>
      </trkpt>
      <trkpt lat="45.98993" lon="4.82481">
        <ele>236</ele>
        <time>2018-06-15T09:48:28Z</time>
      </trkpt>
      <trkpt lat="45.98991" lon="4.82475">
        <ele>236</ele>
        <time>2018-06-15T09:48:29Z</time>
      </trkpt>
      <trkpt lat="45.98989" lon="4.82467">
        <ele>236</ele>
        <time>2018-06-15T09:48:30Z</time>
      </trkpt>
      <trkpt lat="45.98986" lon="4.82458">
        <ele>236</ele>
        <time>2018-06-15T09:48:31Z</time>
      </trkpt>
      <trkpt lat="45.98983" lon="4.8245">
        <ele>236</ele>
        <time>2018-06-15T09:48:32Z</time>
      </trkpt>
      <trkpt lat="45.98982" lon="4.82442">
        <ele>236</ele>
        <time>2018-06-15T09:48:33Z</time>
      </trkpt>
      <trkpt lat="45.9898" lon="4.82434">
        <ele>236</ele>
        <time>2018-06-15T09:48:34Z</time>
      </trkpt>
      <trkpt lat="45.98978" lon="4.82426">
        <ele>236</ele>
        <time>2018-06-15T09:48:35Z</time>
      </trkpt>
      <trkpt lat="45.98976" lon="4.82419">
        <ele>236</ele>
        <time>2018-06-15T09:48:36Z</time>
      </trkpt>
      <trkpt lat="45.98974" lon="4.82412">
        <ele>235</ele>
        <time>2018-06-15T09:48:37Z</time>
      </trkpt>
      <trkpt lat="45.98973" lon="4.82406">
        <ele>235</ele>
        <time>2018-06-15T09:48:38Z</time>
      </trkpt>
      <trkpt lat="45.98971" lon="4.824">
        <ele>235</ele>
        <time>2018-06-15T09:48:39Z</time>
      </trkpt>
      <trkpt lat="45.9897" lon="4.82394">
        <ele>235</ele>
        <time>2018-06-15T09:48:40Z</time>
      </trkpt>
      <trkpt lat="45.98968" lon="4.82388">
        <ele>235</ele>
        <time>2018-06-15T09:48:41Z</time>
      </trkpt>
      <trkpt lat="45.98966" lon="4.82382">
        <ele>235</ele>
        <time>2018-06-15T09:48:42Z</time>
      </trkpt>
      <trkpt lat="45.98965" lon="4.82375">
        <ele>235</ele>
        <time>2018-06-15T09:48:43Z</time>
      </trkpt>
      <trkpt lat="45.98963" lon="4.82368">
        <ele>235</ele>
        <time>2018-06-15T09:48:44Z</time>
      </trkpt>
      <trkpt lat="45.98961" lon="4.8236">
        <ele>235</ele>
        <time>2018-06-15T09:48:45Z</time>
      </trkpt>
      <trkpt lat="45.98959" lon="4.82354">
        <ele>235</ele>
        <time>2018-06-15T09:48:46Z</time>
      </trkpt>
      <trkpt lat="45.98955" lon="4.82347">
        <ele>235</ele>
        <time>2018-06-15T09:48:47Z</time>
      </trkpt>
      <trkpt lat="45.98953" lon="4.82341">
        <ele>235</ele>
        <time>2018-06-15T09:48:48Z</time>
      </trkpt>
      <trkpt lat="45.98949" lon="4.82336">
        <ele>235</ele>
        <time>2018-06-15T09:48:49Z</time>
      </trkpt>
      <trkpt lat="45.98946" lon="4.82328">
        <ele>234</ele>
        <time>2018-06-15T09:48:50Z</time>
      </trkpt>
      <trkpt lat="45.98941" lon="4.82323">
        <ele>234</ele>
        <time>2018-06-15T09:48:51Z</time>
      </trkpt>
      <trkpt lat="45.98937" lon="4.82318">
        <ele>234</ele>
        <time>2018-06-15T09:48:52Z</time>
      </trkpt>
      <trkpt lat="45.98933" lon="4.82313">
        <ele>234</ele>
        <time>2018-06-15T09:48:53Z</time>
      </trkpt>
      <trkpt lat="45.98928" lon="4.82309">
        <ele>234</ele>
        <time>2018-06-15T09:48:54Z</time>
      </trkpt>
      <trkpt lat="45.98924" lon="4.82304">
        <ele>234</ele>
        <time>2018-06-15T09:48:55Z</time>
      </trkpt>
      <trkpt lat="45.98921" lon="4.82299">
        <ele>234</ele>
        <time>2018-06-15T09:48:56Z</time>
      </trkpt>
      <trkpt lat="45.98917" lon="4.82294">
        <ele>234</ele>
        <time>2018-06-15T09:48:57Z</time>
      </trkpt>
      <trkpt lat="45.98913" lon="4.82289">
        <ele>236</ele>
        <time>2018-06-15T09:48:58Z</time>
      </trkpt>
      <trkpt lat="45.98908" lon="4.82285">
        <ele>236</ele>
        <time>2018-06-15T09:48:59Z</time>
      </trkpt>
      <trkpt lat="45.98905" lon="4.8228">
        <ele>236</ele>
        <time>2018-06-15T09:49:00Z</time>
      </trkpt>
      <trkpt lat="45.98901" lon="4.82275">
        <ele>236</ele>
        <time>2018-06-15T09:49:01Z</time>
      </trkpt>
      <trkpt lat="45.98897" lon="4.82271">
        <ele>236</ele>
        <time>2018-06-15T09:49:02Z</time>
      </trkpt>
      <trkpt lat="45.98894" lon="4.82265">
        <ele>236</ele>
        <time>2018-06-15T09:49:03Z</time>
      </trkpt>
      <trkpt lat="45.98891" lon="4.82259">
        <ele>236</ele>
        <time>2018-06-15T09:49:04Z</time>
      </trkpt>
      <trkpt lat="45.98889" lon="4.82253">
        <ele>236</ele>
        <time>2018-06-15T09:49:05Z</time>
      </trkpt>
      <trkpt lat="45.98887" lon="4.82246">
        <ele>235</ele>
        <time>2018-06-15T09:49:06Z</time>
      </trkpt>
      <trkpt lat="45.98884" lon="4.8224">
        <ele>236</ele>
        <time>2018-06-15T09:49:07Z</time>
      </trkpt>
      <trkpt lat="45.98881" lon="4.82233">
        <ele>236</ele>
        <time>2018-06-15T09:49:08Z</time>
      </trkpt>
      <trkpt lat="45.98876" lon="4.82226">
        <ele>236</ele>
        <time>2018-06-15T09:49:09Z</time>
      </trkpt>
      <trkpt lat="45.98873" lon="4.82219">
        <ele>236</ele>
        <time>2018-06-15T09:49:10Z</time>
      </trkpt>
      <trkpt lat="45.98869" lon="4.82212">
        <ele>236</ele>
        <time>2018-06-15T09:49:11Z</time>
      </trkpt>
      <trkpt lat="45.98866" lon="4.82206">
        <ele>236</ele>
        <time>2018-06-15T09:49:12Z</time>
      </trkpt>
      <trkpt lat="45.98864" lon="4.82199">
        <ele>236</ele>
        <time>2018-06-15T09:49:13Z</time>
      </trkpt>
      <trkpt lat="45.98862" lon="4.82192">
        <ele>236</ele>
        <time>2018-06-15T09:49:14Z</time>
      </trkpt>
      <trkpt lat="45.98858" lon="4.82186">
        <ele>236</ele>
        <time>2018-06-15T09:49:15Z</time>
      </trkpt>
      <trkpt lat="45.98855" lon="4.8218">
        <ele>236</ele>
        <time>2018-06-15T09:49:16Z</time>
      </trkpt>
      <trkpt lat="45.98854" lon="4.82173">
        <ele>236</ele>
        <time>2018-06-15T09:49:17Z</time>
      </trkpt>
      <trkpt lat="45.98852" lon="4.82166">
        <ele>236</ele>
        <time>2018-06-15T09:49:18Z</time>
      </trkpt>
      <trkpt lat="45.98849" lon="4.8216">
        <ele>236</ele>
        <time>2018-06-15T09:49:19Z</time>
      </trkpt>
      <trkpt lat="45.98848" lon="4.82153">
        <ele>236</ele>
        <time>2018-06-15T09:49:20Z</time>
      </trkpt>
      <trkpt lat="45.98847" lon="4.82146">
        <ele>236</ele>
        <time>2018-06-15T09:49:21Z</time>
      </trkpt>
      <trkpt lat="45.98844" lon="4.82139">
        <ele>236</ele>
        <time>2018-06-15T09:49:22Z</time>
      </trkpt>
      <trkpt lat="45.98842" lon="4.8213">
        <ele>236</ele>
        <time>2018-06-15T09:49:23Z</time>
      </trkpt>
      <trkpt lat="45.98841" lon="4.82122">
        <ele>235</ele>
        <time>2018-06-15T09:49:24Z</time>
      </trkpt>
      <trkpt lat="45.98838" lon="4.82114">
        <ele>235</ele>
        <time>2018-06-15T09:49:25Z</time>
      </trkpt>
      <trkpt lat="45.98837" lon="4.82105">
        <ele>236</ele>
        <time>2018-06-15T09:49:26Z</time>
      </trkpt>
      <trkpt lat="45.98836" lon="4.82096">
        <ele>236</ele>
        <time>2018-06-15T09:49:27Z</time>
      </trkpt>
      <trkpt lat="45.98833" lon="4.82089">
        <ele>236</ele>
        <time>2018-06-15T09:49:28Z</time>
      </trkpt>
      <trkpt lat="45.98831" lon="4.82081">
        <ele>236</ele>
        <time>2018-06-15T09:49:29Z</time>
      </trkpt>
      <trkpt lat="45.98831" lon="4.82073">
        <ele>237</ele>
        <time>2018-06-15T09:49:30Z</time>
      </trkpt>
      <trkpt lat="45.98829" lon="4.82065">
        <ele>237</ele>
        <time>2018-06-15T09:49:31Z</time>
      </trkpt>
      <trkpt lat="45.98829" lon="4.82059">
        <ele>237</ele>
        <time>2018-06-15T09:49:32Z</time>
      </trkpt>
      <trkpt lat="45.98828" lon="4.82052">
        <ele>237</ele>
        <time>2018-06-15T09:49:33Z</time>
      </trkpt>
      <trkpt lat="45.98827" lon="4.82045">
        <ele>238</ele>
        <time>2018-06-15T09:49:34Z</time>
      </trkpt>
      <trkpt lat="45.98826" lon="4.82038">
        <ele>238</ele>
        <time>2018-06-15T09:49:35Z</time>
      </trkpt>
      <trkpt lat="45.98825" lon="4.82031">
        <ele>238</ele>
        <time>2018-06-15T09:49:36Z</time>
      </trkpt>
      <trkpt lat="45.98824" lon="4.82024">
        <ele>238</ele>
        <time>2018-06-15T09:49:37Z</time>
      </trkpt>
      <trkpt lat="45.98823" lon="4.82016">
        <ele>238</ele>
        <time>2018-06-15T09:49:38Z</time>
      </trkpt>
      <trkpt lat="45.98823" lon="4.82009">
        <ele>238</ele>
        <time>2018-06-15T09:49:39Z</time>
      </trkpt>
      <trkpt lat="45.98824" lon="4.82002">
        <ele>238</ele>
        <time>2018-06-15T09:49:40Z</time>
      </trkpt>
      <trkpt lat="45.98822" lon="4.81995">
        <ele>238</ele>
        <time>2018-06-15T09:49:41Z</time>
      </trkpt>
      <trkpt lat="45.98821" lon="4.81989">
        <ele>238</ele>
        <time>2018-06-15T09:49:42Z</time>
      </trkpt>
      <trkpt lat="45.98818" lon="4.81982">
        <ele>238</ele>
        <time>2018-06-15T09:49:43Z</time>
      </trkpt>
      <trkpt lat="45.98817" lon="4.81973">
        <ele>239</ele>
        <time>2018-06-15T09:49:44Z</time>
      </trkpt>
      <trkpt lat="45.98815" lon="4.81966">
        <ele>239</ele>
        <time>2018-06-15T09:49:45Z</time>
      </trkpt>
      <trkpt lat="45.98814" lon="4.81958">
        <ele>239</ele>
        <time>2018-06-15T09:49:46Z</time>
      </trkpt>
      <trkpt lat="45.98813" lon="4.81947">
        <ele>239</ele>
        <time>2018-06-15T09:49:48Z</time>
      </trkpt>
      <trkpt lat="45.98814" lon="4.8194">
        <ele>239</ele>
        <time>2018-06-15T09:49:49Z</time>
      </trkpt>
      <trkpt lat="45.98814" lon="4.81933">
        <ele>239</ele>
        <time>2018-06-15T09:49:50Z</time>
      </trkpt>
      <trkpt lat="45.98813" lon="4.81926">
        <ele>239</ele>
        <time>2018-06-15T09:49:51Z</time>
      </trkpt>
      <trkpt lat="45.98809" lon="4.8192">
        <ele>239</ele>
        <time>2018-06-15T09:49:52Z</time>
      </trkpt>
      <trkpt lat="45.98806" lon="4.81911">
        <ele>239</ele>
        <time>2018-06-15T09:49:53Z</time>
      </trkpt>
      <trkpt lat="45.98805" lon="4.81905">
        <ele>239</ele>
        <time>2018-06-15T09:49:54Z</time>
      </trkpt>
      <trkpt lat="45.98804" lon="4.81897">
        <ele>239</ele>
        <time>2018-06-15T09:49:55Z</time>
      </trkpt>
      <trkpt lat="45.98801" lon="4.81889">
        <ele>239</ele>
        <time>2018-06-15T09:49:56Z</time>
      </trkpt>
      <trkpt lat="45.988" lon="4.81881">
        <ele>239</ele>
        <time>2018-06-15T09:49:57Z</time>
      </trkpt>
      <trkpt lat="45.98798" lon="4.81874">
        <ele>239</ele>
        <time>2018-06-15T09:49:58Z</time>
      </trkpt>
      <trkpt lat="45.98796" lon="4.81868">
        <ele>239</ele>
        <time>2018-06-15T09:49:59Z</time>
      </trkpt>
      <trkpt lat="45.98791" lon="4.81858">
        <ele>239</ele>
        <time>2018-06-15T09:50:01Z</time>
      </trkpt>
      <trkpt lat="45.9879" lon="4.81851">
        <ele>239</ele>
        <time>2018-06-15T09:50:02Z</time>
      </trkpt>
      <trkpt lat="45.98785" lon="4.81843">
        <ele>239</ele>
        <time>2018-06-15T09:50:04Z</time>
      </trkpt>
      <trkpt lat="45.98783" lon="4.81835">
        <ele>239</ele>
        <time>2018-06-15T09:50:05Z</time>
      </trkpt>
      <trkpt lat="45.98777" lon="4.81826">
        <ele>240</ele>
        <time>2018-06-15T09:50:07Z</time>
      </trkpt>
      <trkpt lat="45.98775" lon="4.81821">
        <ele>240</ele>
        <time>2018-06-15T09:50:08Z</time>
      </trkpt>
      <trkpt lat="45.98772" lon="4.81815">
        <ele>240</ele>
        <time>2018-06-15T09:50:09Z</time>
      </trkpt>
      <trkpt lat="45.98769" lon="4.81811">
        <ele>240</ele>
        <time>2018-06-15T09:50:10Z</time>
      </trkpt>
      <trkpt lat="45.98763" lon="4.81801">
        <ele>240</ele>
        <time>2018-06-15T09:50:12Z</time>
      </trkpt>
      <trkpt lat="45.98761" lon="4.81795">
        <ele>240</ele>
        <time>2018-06-15T09:50:13Z</time>
      </trkpt>
      <trkpt lat="45.98757" lon="4.81789">
        <ele>241</ele>
        <time>2018-06-15T09:50:15Z</time>
      </trkpt>
      <trkpt lat="45.98753" lon="4.81781">
        <ele>241</ele>
        <time>2018-06-15T09:50:16Z</time>
      </trkpt>
      <trkpt lat="45.98748" lon="4.81771">
        <ele>240</ele>
        <time>2018-06-15T09:50:18Z</time>
      </trkpt>
      <trkpt lat="45.98746" lon="4.81765">
        <ele>240</ele>
        <time>2018-06-15T09:50:19Z</time>
      </trkpt>
      <trkpt lat="45.98743" lon="4.81759">
        <ele>240</ele>
        <time>2018-06-15T09:50:20Z</time>
      </trkpt>
      <trkpt lat="45.98741" lon="4.81752">
        <ele>240</ele>
        <time>2018-06-15T09:50:21Z</time>
      </trkpt>
      <trkpt lat="45.98737" lon="4.81747">
        <ele>240</ele>
        <time>2018-06-15T09:50:22Z</time>
      </trkpt>
      <trkpt lat="45.98734" lon="4.81741">
        <ele>240</ele>
        <time>2018-06-15T09:50:23Z</time>
      </trkpt>
      <trkpt lat="45.98729" lon="4.81734">
        <ele>239</ele>
        <time>2018-06-15T09:50:25Z</time>
      </trkpt>
      <trkpt lat="45.98725" lon="4.81731">
        <ele>239</ele>
        <time>2018-06-15T09:50:26Z</time>
      </trkpt>
      <trkpt lat="45.98721" lon="4.8173">
        <ele>239</ele>
        <time>2018-06-15T09:50:27Z</time>
      </trkpt>
      <trkpt lat="45.98715" lon="4.81728">
        <ele>239</ele>
        <time>2018-06-15T09:50:28Z</time>
      </trkpt>
      <trkpt lat="45.9871" lon="4.81728">
        <ele>239</ele>
        <time>2018-06-15T09:50:29Z</time>
      </trkpt>
      <trkpt lat="45.98706" lon="4.81729">
        <ele>239</ele>
        <time>2018-06-15T09:50:30Z</time>
      </trkpt>
      <trkpt lat="45.987" lon="4.81731">
        <ele>239</ele>
        <time>2018-06-15T09:50:31Z</time>
      </trkpt>
      <trkpt lat="45.98696" lon="4.81732">
        <ele>238</ele>
        <time>2018-06-15T09:50:32Z</time>
      </trkpt>
      <trkpt lat="45.98691" lon="4.81734">
        <ele>238</ele>
        <time>2018-06-15T09:50:33Z</time>
      </trkpt>
      <trkpt lat="45.98685" lon="4.81734">
        <ele>238</ele>
        <time>2018-06-15T09:50:34Z</time>
      </trkpt>
      <trkpt lat="45.9868" lon="4.81737">
        <ele>238</ele>
        <time>2018-06-15T09:50:35Z</time>
      </trkpt>
      <trkpt lat="45.98675" lon="4.81737">
        <ele>238</ele>
        <time>2018-06-15T09:50:36Z</time>
      </trkpt>
      <trkpt lat="45.9867" lon="4.81739">
        <ele>238</ele>
        <time>2018-06-15T09:50:37Z</time>
      </trkpt>
      <trkpt lat="45.98666" lon="4.8174">
        <ele>238</ele>
        <time>2018-06-15T09:50:38Z</time>
      </trkpt>
      <trkpt lat="45.98658" lon="4.81745">
        <ele>237</ele>
        <time>2018-06-15T09:50:40Z</time>
      </trkpt>
      <trkpt lat="45.98654" lon="4.81746">
        <ele>237</ele>
        <time>2018-06-15T09:50:41Z</time>
      </trkpt>
      <trkpt lat="45.9865" lon="4.81747">
        <ele>237</ele>
        <time>2018-06-15T09:50:42Z</time>
      </trkpt>
      <trkpt lat="45.98645" lon="4.81749">
        <ele>237</ele>
        <time>2018-06-15T09:50:43Z</time>
      </trkpt>
      <trkpt lat="45.98641" lon="4.81751">
        <ele>238</ele>
        <time>2018-06-15T09:50:44Z</time>
      </trkpt>
      <trkpt lat="45.98636" lon="4.81751">
        <ele>238</ele>
        <time>2018-06-15T09:50:45Z</time>
      </trkpt>
      <trkpt lat="45.98631" lon="4.81752">
        <ele>238</ele>
        <time>2018-06-15T09:50:46Z</time>
      </trkpt>
      <trkpt lat="45.98625" lon="4.81754">
        <ele>238</ele>
        <time>2018-06-15T09:50:47Z</time>
      </trkpt>
      <trkpt lat="45.9862" lon="4.81757">
        <ele>238</ele>
        <time>2018-06-15T09:50:48Z</time>
      </trkpt>
      <trkpt lat="45.98614" lon="4.81759">
        <ele>238</ele>
        <time>2018-06-15T09:50:49Z</time>
      </trkpt>
      <trkpt lat="45.98609" lon="4.8176">
        <ele>238</ele>
        <time>2018-06-15T09:50:50Z</time>
      </trkpt>
      <trkpt lat="45.98603" lon="4.81762">
        <ele>238</ele>
        <time>2018-06-15T09:50:51Z</time>
      </trkpt>
      <trkpt lat="45.98598" lon="4.81763">
        <ele>238</ele>
        <time>2018-06-15T09:50:52Z</time>
      </trkpt>
      <trkpt lat="45.98593" lon="4.81764">
        <ele>237</ele>
        <time>2018-06-15T09:50:53Z</time>
      </trkpt>
      <trkpt lat="45.98587" lon="4.81767">
        <ele>237</ele>
        <time>2018-06-15T09:50:54Z</time>
      </trkpt>
      <trkpt lat="45.98581" lon="4.81772">
        <ele>237</ele>
        <time>2018-06-15T09:50:55Z</time>
      </trkpt>
      <trkpt lat="45.98577" lon="4.81777">
        <ele>238</ele>
        <time>2018-06-15T09:50:56Z</time>
      </trkpt>
      <trkpt lat="45.98573" lon="4.81783">
        <ele>238</ele>
        <time>2018-06-15T09:50:57Z</time>
      </trkpt>
      <trkpt lat="45.98569" lon="4.81788">
        <ele>238</ele>
        <time>2018-06-15T09:50:58Z</time>
      </trkpt>
      <trkpt lat="45.98562" lon="4.81795">
        <ele>238</ele>
        <time>2018-06-15T09:50:59Z</time>
      </trkpt>
      <trkpt lat="45.98555" lon="4.81802">
        <ele>238</ele>
        <time>2018-06-15T09:51:01Z</time>
      </trkpt>
      <trkpt lat="45.98551" lon="4.81807">
        <ele>238</ele>
        <time>2018-06-15T09:51:02Z</time>
      </trkpt>
      <trkpt lat="45.98542" lon="4.81808">
        <ele>238</ele>
        <time>2018-06-15T09:51:04Z</time>
      </trkpt>
      <trkpt lat="45.98538" lon="4.81804">
        <ele>238</ele>
        <time>2018-06-15T09:51:05Z</time>
      </trkpt>
      <trkpt lat="45.98535" lon="4.81799">
        <ele>238</ele>
        <time>2018-06-15T09:51:06Z</time>
      </trkpt>
      <trkpt lat="45.98531" lon="4.81795">
        <ele>238</ele>
        <time>2018-06-15T09:51:07Z</time>
      </trkpt>
      <trkpt lat="45.98526" lon="4.81791">
        <ele>238</ele>
        <time>2018-06-15T09:51:08Z</time>
      </trkpt>
      <trkpt lat="45.98523" lon="4.81786">
        <ele>238</ele>
        <time>2018-06-15T09:51:09Z</time>
      </trkpt>
      <trkpt lat="45.98519" lon="4.81781">
        <ele>238</ele>
        <time>2018-06-15T09:51:10Z</time>
      </trkpt>
      <trkpt lat="45.98516" lon="4.81776">
        <ele>238</ele>
        <time>2018-06-15T09:51:11Z</time>
      </trkpt>
      <trkpt lat="45.98513" lon="4.81771">
        <ele>238</ele>
        <time>2018-06-15T09:51:12Z</time>
      </trkpt>
      <trkpt lat="45.9851" lon="4.81766">
        <ele>237</ele>
        <time>2018-06-15T09:51:13Z</time>
      </trkpt>
      <trkpt lat="45.98505" lon="4.81758">
        <ele>237</ele>
        <time>2018-06-15T09:51:15Z</time>
      </trkpt>
      <trkpt lat="45.98502" lon="4.81754">
        <ele>237</ele>
        <time>2018-06-15T09:51:16Z</time>
      </trkpt>
      <trkpt lat="45.98496" lon="4.81748">
        <ele>237</ele>
        <time>2018-06-15T09:51:18Z</time>
      </trkpt>
      <trkpt lat="45.98492" lon="4.81744">
        <ele>238</ele>
        <time>2018-06-15T09:51:19Z</time>
      </trkpt>
      <trkpt lat="45.98487" lon="4.81738">
        <ele>238</ele>
        <time>2018-06-15T09:51:21Z</time>
      </trkpt>
      <trkpt lat="45.98483" lon="4.81734">
        <ele>238</ele>
        <time>2018-06-15T09:51:22Z</time>
      </trkpt>
      <trkpt lat="45.98476" lon="4.81728">
        <ele>239</ele>
        <time>2018-06-15T09:51:24Z</time>
      </trkpt>
      <trkpt lat="45.98473" lon="4.81725">
        <ele>239</ele>
        <time>2018-06-15T09:51:25Z</time>
      </trkpt>
      <trkpt lat="45.98467" lon="4.81718">
        <ele>239</ele>
        <time>2018-06-15T09:51:27Z</time>
      </trkpt>
      <trkpt lat="45.98464" lon="4.81714">
        <ele>239</ele>
        <time>2018-06-15T09:51:28Z</time>
      </trkpt>
      <trkpt lat="45.98459" lon="4.81706">
        <ele>239</ele>
        <time>2018-06-15T09:51:30Z</time>
      </trkpt>
      <trkpt lat="45.98458" lon="4.81704">
        <ele>239</ele>
        <time>2018-06-15T09:51:31Z</time>
      </trkpt>
      <trkpt lat="45.98452" lon="4.81694">
        <ele>239</ele>
        <time>2018-06-15T09:51:33Z</time>
      </trkpt>
      <trkpt lat="45.9845" lon="4.8169">
        <ele>239</ele>
        <time>2018-06-15T09:51:34Z</time>
      </trkpt>
      <trkpt lat="45.98444" lon="4.81681">
        <ele>239</ele>
        <time>2018-06-15T09:51:36Z</time>
      </trkpt>
      <trkpt lat="45.98441" lon="4.81678">
        <ele>240</ele>
        <time>2018-06-15T09:51:37Z</time>
      </trkpt>
      <trkpt lat="45.98435" lon="4.8167">
        <ele>240</ele>
        <time>2018-06-15T09:51:39Z</time>
      </trkpt>
      <trkpt lat="45.98431" lon="4.81668">
        <ele>240</ele>
        <time>2018-06-15T09:51:40Z</time>
      </trkpt>
      <trkpt lat="45.98426" lon="4.81666">
        <ele>240</ele>
        <time>2018-06-15T09:51:41Z</time>
      </trkpt>
      <trkpt lat="45.9842" lon="4.81665">
        <ele>240</ele>
        <time>2018-06-15T09:51:42Z</time>
      </trkpt>
      <trkpt lat="45.98415" lon="4.81664">
        <ele>241</ele>
        <time>2018-06-15T09:51:43Z</time>
      </trkpt>
      <trkpt lat="45.98409" lon="4.81665">
        <ele>241</ele>
        <time>2018-06-15T09:51:44Z</time>
      </trkpt>
      <trkpt lat="45.98404" lon="4.81666">
        <ele>241</ele>
        <time>2018-06-15T09:51:45Z</time>
      </trkpt>
      <trkpt lat="45.98399" lon="4.81667">
        <ele>242</ele>
        <time>2018-06-15T09:51:46Z</time>
      </trkpt>
      <trkpt lat="45.98394" lon="4.81668">
        <ele>243</ele>
        <time>2018-06-15T09:51:47Z</time>
      </trkpt>
      <trkpt lat="45.9839" lon="4.81669">
        <ele>243</ele>
        <time>2018-06-15T09:51:48Z</time>
      </trkpt>
      <trkpt lat="45.98386" lon="4.81671">
        <ele>243</ele>
        <time>2018-06-15T09:51:49Z</time>
      </trkpt>
      <trkpt lat="45.98381" lon="4.81672">
        <ele>244</ele>
        <time>2018-06-15T09:51:50Z</time>
      </trkpt>
      <trkpt lat="45.98376" lon="4.81672">
        <ele>244</ele>
        <time>2018-06-15T09:51:51Z</time>
      </trkpt>
      <trkpt lat="45.98371" lon="4.81673">
        <ele>244</ele>
        <time>2018-06-15T09:51:52Z</time>
      </trkpt>
      <trkpt lat="45.98366" lon="4.81673">
        <ele>244</ele>
        <time>2018-06-15T09:51:53Z</time>
      </trkpt>
      <trkpt lat="45.98361" lon="4.81674">
        <ele>244</ele>
        <time>2018-06-15T09:51:54Z</time>
      </trkpt>
      <trkpt lat="45.98356" lon="4.81675">
        <ele>245</ele>
        <time>2018-06-15T09:51:55Z</time>
      </trkpt>
      <trkpt lat="45.98351" lon="4.81674">
        <ele>245</ele>
        <time>2018-06-15T09:51:56Z</time>
      </trkpt>
      <trkpt lat="45.98345" lon="4.81674">
        <ele>245</ele>
        <time>2018-06-15T09:51:57Z</time>
      </trkpt>
      <trkpt lat="45.9834" lon="4.81672">
        <ele>245</ele>
        <time>2018-06-15T09:51:58Z</time>
      </trkpt>
      <trkpt lat="45.98331" lon="4.81668">
        <ele>246</ele>
        <time>2018-06-15T09:52:00Z</time>
      </trkpt>
      <trkpt lat="45.98327" lon="4.81666">
        <ele>246</ele>
        <time>2018-06-15T09:52:01Z</time>
      </trkpt>
      <trkpt lat="45.98323" lon="4.81663">
        <ele>246</ele>
        <time>2018-06-15T09:52:02Z</time>
      </trkpt>
      <trkpt lat="45.98318" lon="4.8166">
        <ele>246</ele>
        <time>2018-06-15T09:52:03Z</time>
      </trkpt>
      <trkpt lat="45.98314" lon="4.81657">
        <ele>246</ele>
        <time>2018-06-15T09:52:04Z</time>
      </trkpt>
      <trkpt lat="45.9831" lon="4.81653">
        <ele>246</ele>
        <time>2018-06-15T09:52:05Z</time>
      </trkpt>
      <trkpt lat="45.98304" lon="4.81645">
        <ele>246</ele>
        <time>2018-06-15T09:52:07Z</time>
      </trkpt>
      <trkpt lat="45.983" lon="4.81642">
        <ele>247</ele>
        <time>2018-06-15T09:52:08Z</time>
      </trkpt>
      <trkpt lat="45.98293" lon="4.81635">
        <ele>247</ele>
        <time>2018-06-15T09:52:10Z</time>
      </trkpt>
      <trkpt lat="45.9829" lon="4.8163">
        <ele>247</ele>
        <time>2018-06-15T09:52:11Z</time>
      </trkpt>
      <trkpt lat="45.98287" lon="4.81626">
        <ele>247</ele>
        <time>2018-06-15T09:52:12Z</time>
      </trkpt>
      <trkpt lat="45.98283" lon="4.8162">
        <ele>247</ele>
        <time>2018-06-15T09:52:13Z</time>
      </trkpt>
      <trkpt lat="45.9828" lon="4.81615">
        <ele>247</ele>
        <time>2018-06-15T09:52:14Z</time>
      </trkpt>
      <trkpt lat="45.98278" lon="4.81608">
        <ele>247</ele>
        <time>2018-06-15T09:52:15Z</time>
      </trkpt>
      <trkpt lat="45.98276" lon="4.81602">
        <ele>247</ele>
        <time>2018-06-15T09:52:16Z</time>
      </trkpt>
      <trkpt lat="45.98273" lon="4.81596">
        <ele>247</ele>
        <time>2018-06-15T09:52:17Z</time>
      </trkpt>
      <trkpt lat="45.98271" lon="4.8159">
        <ele>247</ele>
        <time>2018-06-15T09:52:18Z</time>
      </trkpt>
      <trkpt lat="45.98269" lon="4.81584">
        <ele>247</ele>
        <time>2018-06-15T09:52:19Z</time>
      </trkpt>
      <trkpt lat="45.98265" lon="4.81573">
        <ele>247</ele>
        <time>2018-06-15T09:52:21Z</time>
      </trkpt>
      <trkpt lat="45.98263" lon="4.81567">
        <ele>247</ele>
        <time>2018-06-15T09:52:22Z</time>
      </trkpt>
      <trkpt lat="45.98259" lon="4.81555">
        <ele>247</ele>
        <time>2018-06-15T09:52:24Z</time>
      </trkpt>
      <trkpt lat="45.98257" lon="4.81549">
        <ele>247</ele>
        <time>2018-06-15T09:52:25Z</time>
      </trkpt>
      <trkpt lat="45.98256" lon="4.81542">
        <ele>247</ele>
        <time>2018-06-15T09:52:26Z</time>
      </trkpt>
      <trkpt lat="45.98254" lon="4.81536">
        <ele>247</ele>
        <time>2018-06-15T09:52:27Z</time>
      </trkpt>
      <trkpt lat="45.98252" lon="4.8153">
        <ele>247</ele>
        <time>2018-06-15T09:52:28Z</time>
      </trkpt>
      <trkpt lat="45.9825" lon="4.81524">
        <ele>249</ele>
        <time>2018-06-15T09:52:29Z</time>
      </trkpt>
      <trkpt lat="45.98248" lon="4.81518">
        <ele>249</ele>
        <time>2018-06-15T09:52:30Z</time>
      </trkpt>
      <trkpt lat="45.98245" lon="4.81512">
        <ele>249</ele>
        <time>2018-06-15T09:52:31Z</time>
      </trkpt>
      <trkpt lat="45.98243" lon="4.81505">
        <ele>249</ele>
        <time>2018-06-15T09:52:32Z</time>
      </trkpt>
      <trkpt lat="45.9824" lon="4.81499">
        <ele>249</ele>
        <time>2018-06-15T09:52:33Z</time>
      </trkpt>
      <trkpt lat="45.98238" lon="4.81493">
        <ele>249</ele>
        <time>2018-06-15T09:52:34Z</time>
      </trkpt>
      <trkpt lat="45.98236" lon="4.81486">
        <ele>249</ele>
        <time>2018-06-15T09:52:35Z</time>
      </trkpt>
      <trkpt lat="45.98234" lon="4.81479">
        <ele>249</ele>
        <time>2018-06-15T09:52:36Z</time>
      </trkpt>
      <trkpt lat="45.98232" lon="4.81472">
        <ele>249</ele>
        <time>2018-06-15T09:52:37Z</time>
      </trkpt>
      <trkpt lat="45.9823" lon="4.81465">
        <ele>249</ele>
        <time>2018-06-15T09:52:38Z</time>
      </trkpt>
      <trkpt lat="45.98228" lon="4.81459">
        <ele>249</ele>
        <time>2018-06-15T09:52:39Z</time>
      </trkpt>
      <trkpt lat="45.98226" lon="4.81452">
        <ele>249</ele>
        <time>2018-06-15T09:52:40Z</time>
      </trkpt>
      <trkpt lat="45.98224" lon="4.81446">
        <ele>249</ele>
        <time>2018-06-15T09:52:41Z</time>
      </trkpt>
      <trkpt lat="45.98222" lon="4.8144">
        <ele>249</ele>
        <time>2018-06-15T09:52:42Z</time>
      </trkpt>
      <trkpt lat="45.9822" lon="4.81434">
        <ele>249</ele>
        <time>2018-06-15T09:52:43Z</time>
      </trkpt>
      <trkpt lat="45.98217" lon="4.81428">
        <ele>249</ele>
        <time>2018-06-15T09:52:44Z</time>
      </trkpt>
      <trkpt lat="45.98213" lon="4.81421">
        <ele>249</ele>
        <time>2018-06-15T09:52:45Z</time>
      </trkpt>
      <trkpt lat="45.98212" lon="4.81414">
        <ele>248</ele>
        <time>2018-06-15T09:52:46Z</time>
      </trkpt>
      <trkpt lat="45.98211" lon="4.81408">
        <ele>248</ele>
        <time>2018-06-15T09:52:47Z</time>
      </trkpt>
      <trkpt lat="45.98208" lon="4.81402">
        <ele>248</ele>
        <time>2018-06-15T09:52:48Z</time>
      </trkpt>
      <trkpt lat="45.98206" lon="4.81395">
        <ele>248</ele>
        <time>2018-06-15T09:52:49Z</time>
      </trkpt>
      <trkpt lat="45.98205" lon="4.81389">
        <ele>248</ele>
        <time>2018-06-15T09:52:50Z</time>
      </trkpt>
      <trkpt lat="45.98204" lon="4.81383">
        <ele>248</ele>
        <time>2018-06-15T09:52:51Z</time>
      </trkpt>
      <trkpt lat="45.98202" lon="4.81376">
        <ele>248</ele>
        <time>2018-06-15T09:52:52Z</time>
      </trkpt>
      <trkpt lat="45.98199" lon="4.81369">
        <ele>248</ele>
        <time>2018-06-15T09:52:53Z</time>
      </trkpt>
      <trkpt lat="45.98197" lon="4.81362">
        <ele>248</ele>
        <time>2018-06-15T09:52:54Z</time>
      </trkpt>
      <trkpt lat="45.98195" lon="4.81354">
        <ele>248</ele>
        <time>2018-06-15T09:52:55Z</time>
      </trkpt>
      <trkpt lat="45.98193" lon="4.81346">
        <ele>248</ele>
        <time>2018-06-15T09:52:56Z</time>
      </trkpt>
      <trkpt lat="45.98193" lon="4.81337">
        <ele>248</ele>
        <time>2018-06-15T09:52:57Z</time>
      </trkpt>
      <trkpt lat="45.98192" lon="4.81328">
        <ele>247</ele>
        <time>2018-06-15T09:52:58Z</time>
      </trkpt>
      <trkpt lat="45.98191" lon="4.81319">
        <ele>247</ele>
        <time>2018-06-15T09:52:59Z</time>
      </trkpt>
      <trkpt lat="45.98189" lon="4.81312">
        <ele>247</ele>
        <time>2018-06-15T09:53:00Z</time>
      </trkpt>
      <trkpt lat="45.98187" lon="4.81304">
        <ele>247</ele>
        <time>2018-06-15T09:53:01Z</time>
      </trkpt>
      <trkpt lat="45.98186" lon="4.81296">
        <ele>247</ele>
        <time>2018-06-15T09:53:02Z</time>
      </trkpt>
      <trkpt lat="45.98185" lon="4.81289">
        <ele>247</ele>
        <time>2018-06-15T09:53:03Z</time>
      </trkpt>
      <trkpt lat="45.98182" lon="4.8128">
        <ele>247</ele>
        <time>2018-06-15T09:53:04Z</time>
      </trkpt>
      <trkpt lat="45.98181" lon="4.81273">
        <ele>247</ele>
        <time>2018-06-15T09:53:05Z</time>
      </trkpt>
      <trkpt lat="45.98179" lon="4.81266">
        <ele>247</ele>
        <time>2018-06-15T09:53:06Z</time>
      </trkpt>
      <trkpt lat="45.98178" lon="4.81259">
        <ele>247</ele>
        <time>2018-06-15T09:53:07Z</time>
      </trkpt>
      <trkpt lat="45.98175" lon="4.81251">
        <ele>248</ele>
        <time>2018-06-15T09:53:08Z</time>
      </trkpt>
      <trkpt lat="45.98173" lon="4.81244">
        <ele>247</ele>
        <time>2018-06-15T09:53:09Z</time>
      </trkpt>
      <trkpt lat="45.98173" lon="4.81237">
        <ele>247</ele>
        <time>2018-06-15T09:53:10Z</time>
      </trkpt>
      <trkpt lat="45.98173" lon="4.81229">
        <ele>246</ele>
        <time>2018-06-15T09:53:11Z</time>
      </trkpt>
      <trkpt lat="45.98172" lon="4.81222">
        <ele>246</ele>
        <time>2018-06-15T09:53:12Z</time>
      </trkpt>
      <trkpt lat="45.98171" lon="4.81215">
        <ele>246</ele>
        <time>2018-06-15T09:53:13Z</time>
      </trkpt>
      <trkpt lat="45.9817" lon="4.81208">
        <ele>246</ele>
        <time>2018-06-15T09:53:14Z</time>
      </trkpt>
      <trkpt lat="45.98169" lon="4.81201">
        <ele>245</ele>
        <time>2018-06-15T09:53:15Z</time>
      </trkpt>
      <trkpt lat="45.98168" lon="4.81193">
        <ele>245</ele>
        <time>2018-06-15T09:53:16Z</time>
      </trkpt>
      <trkpt lat="45.98167" lon="4.81185">
        <ele>245</ele>
        <time>2018-06-15T09:53:17Z</time>
      </trkpt>
      <trkpt lat="45.98166" lon="4.81176">
        <ele>246</ele>
        <time>2018-06-15T09:53:18Z</time>
      </trkpt>
      <trkpt lat="45.98164" lon="4.81168">
        <ele>245</ele>
        <time>2018-06-15T09:53:19Z</time>
      </trkpt>
      <trkpt lat="45.98162" lon="4.81162">
        <ele>245</ele>
        <time>2018-06-15T09:53:20Z</time>
      </trkpt>
      <trkpt lat="45.98159" lon="4.81154">
        <ele>245</ele>
        <time>2018-06-15T09:53:21Z</time>
      </trkpt>
      <trkpt lat="45.98156" lon="4.81147">
        <ele>245</ele>
        <time>2018-06-15T09:53:22Z</time>
      </trkpt>
      <trkpt lat="45.9815" lon="4.81137">
        <ele>245</ele>
        <time>2018-06-15T09:53:23Z</time>
      </trkpt>
      <trkpt lat="45.98148" lon="4.81129">
        <ele>245</ele>
        <time>2018-06-15T09:53:24Z</time>
      </trkpt>
      <trkpt lat="45.98146" lon="4.81122">
        <ele>245</ele>
        <time>2018-06-15T09:53:25Z</time>
      </trkpt>
      <trkpt lat="45.98142" lon="4.81115">
        <ele>245</ele>
        <time>2018-06-15T09:53:26Z</time>
      </trkpt>
      <trkpt lat="45.98139" lon="4.81107">
        <ele>245</ele>
        <time>2018-06-15T09:53:27Z</time>
      </trkpt>
      <trkpt lat="45.98137" lon="4.811">
        <ele>245</ele>
        <time>2018-06-15T09:53:28Z</time>
      </trkpt>
      <trkpt lat="45.98135" lon="4.81093">
        <ele>245</ele>
        <time>2018-06-15T09:53:29Z</time>
      </trkpt>
      <trkpt lat="45.98132" lon="4.81086">
        <ele>245</ele>
        <time>2018-06-15T09:53:30Z</time>
      </trkpt>
      <trkpt lat="45.98128" lon="4.81079">
        <ele>243</ele>
        <time>2018-06-15T09:53:31Z</time>
      </trkpt>
      <trkpt lat="45.98123" lon="4.81071">
        <ele>243</ele>
        <time>2018-06-15T09:53:32Z</time>
      </trkpt>
      <trkpt lat="45.98121" lon="4.81064">
        <ele>243</ele>
        <time>2018-06-15T09:53:33Z</time>
      </trkpt>
      <trkpt lat="45.98119" lon="4.81056">
        <ele>243</ele>
        <time>2018-06-15T09:53:34Z</time>
      </trkpt>
      <trkpt lat="45.98118" lon="4.81048">
        <ele>243</ele>
        <time>2018-06-15T09:53:35Z</time>
      </trkpt>
      <trkpt lat="45.98116" lon="4.8104">
        <ele>242</ele>
        <time>2018-06-15T09:53:36Z</time>
      </trkpt>
      <trkpt lat="45.98114" lon="4.81032">
        <ele>242</ele>
        <time>2018-06-15T09:53:37Z</time>
      </trkpt>
      <trkpt lat="45.98112" lon="4.81025">
        <ele>242</ele>
        <time>2018-06-15T09:53:38Z</time>
      </trkpt>
      <trkpt lat="45.9811" lon="4.81018">
        <ele>242</ele>
        <time>2018-06-15T09:53:39Z</time>
      </trkpt>
      <trkpt lat="45.98107" lon="4.81012">
        <ele>242</ele>
        <time>2018-06-15T09:53:40Z</time>
      </trkpt>
      <trkpt lat="45.98105" lon="4.81006">
        <ele>242</ele>
        <time>2018-06-15T09:53:41Z</time>
      </trkpt>
      <trkpt lat="45.98102" lon="4.80999">
        <ele>240</ele>
        <time>2018-06-15T09:53:42Z</time>
      </trkpt>
      <trkpt lat="45.98101" lon="4.80993">
        <ele>240</ele>
        <time>2018-06-15T09:53:43Z</time>
      </trkpt>
      <trkpt lat="45.98098" lon="4.80981">
        <ele>239</ele>
        <time>2018-06-15T09:53:45Z</time>
      </trkpt>
      <trkpt lat="45.98096" lon="4.80975">
        <ele>239</ele>
        <time>2018-06-15T09:53:46Z</time>
      </trkpt>
      <trkpt lat="45.98094" lon="4.80968">
        <ele>239</ele>
        <time>2018-06-15T09:53:47Z</time>
      </trkpt>
      <trkpt lat="45.98091" lon="4.8096">
        <ele>239</ele>
        <time>2018-06-15T09:53:48Z</time>
      </trkpt>
      <trkpt lat="45.98089" lon="4.80952">
        <ele>238</ele>
        <time>2018-06-15T09:53:49Z</time>
      </trkpt>
      <trkpt lat="45.98087" lon="4.80943">
        <ele>238</ele>
        <time>2018-06-15T09:53:50Z</time>
      </trkpt>
      <trkpt lat="45.98084" lon="4.80933">
        <ele>238</ele>
        <time>2018-06-15T09:53:51Z</time>
      </trkpt>
      <trkpt lat="45.98081" lon="4.80922">
        <ele>239</ele>
        <time>2018-06-15T09:53:52Z</time>
      </trkpt>
      <trkpt lat="45.98079" lon="4.80911">
        <ele>239</ele>
        <time>2018-06-15T09:53:53Z</time>
      </trkpt>
      <trkpt lat="45.98076" lon="4.809">
        <ele>238</ele>
        <time>2018-06-15T09:53:54Z</time>
      </trkpt>
      <trkpt lat="45.98073" lon="4.80889">
        <ele>238</ele>
        <time>2018-06-15T09:53:55Z</time>
      </trkpt>
      <trkpt lat="45.9807" lon="4.80877">
        <ele>237</ele>
        <time>2018-06-15T09:53:56Z</time>
      </trkpt>
      <trkpt lat="45.98068" lon="4.80866">
        <ele>237</ele>
        <time>2018-06-15T09:53:57Z</time>
      </trkpt>
      <trkpt lat="45.98066" lon="4.80854">
        <ele>236</ele>
        <time>2018-06-15T09:53:58Z</time>
      </trkpt>
      <trkpt lat="45.98063" lon="4.80842">
        <ele>236</ele>
        <time>2018-06-15T09:53:59Z</time>
      </trkpt>
      <trkpt lat="45.9806" lon="4.80831">
        <ele>234</ele>
        <time>2018-06-15T09:54:00Z</time>
      </trkpt>
      <trkpt lat="45.98058" lon="4.8082">
        <ele>234</ele>
        <time>2018-06-15T09:54:01Z</time>
      </trkpt>
      <trkpt lat="45.98054" lon="4.8081">
        <ele>234</ele>
        <time>2018-06-15T09:54:02Z</time>
      </trkpt>
      <trkpt lat="45.98052" lon="4.80799">
        <ele>234</ele>
        <time>2018-06-15T09:54:03Z</time>
      </trkpt>
      <trkpt lat="45.98049" lon="4.80789">
        <ele>233</ele>
        <time>2018-06-15T09:54:04Z</time>
      </trkpt>
      <trkpt lat="45.98048" lon="4.8078">
        <ele>233</ele>
        <time>2018-06-15T09:54:05Z</time>
      </trkpt>
      <trkpt lat="45.98045" lon="4.80771">
        <ele>233</ele>
        <time>2018-06-15T09:54:06Z</time>
      </trkpt>
      <trkpt lat="45.98043" lon="4.80762">
        <ele>233</ele>
        <time>2018-06-15T09:54:07Z</time>
      </trkpt>
      <trkpt lat="45.98041" lon="4.80754">
        <ele>233</ele>
        <time>2018-06-15T09:54:08Z</time>
      </trkpt>
      <trkpt lat="45.98039" lon="4.80745">
        <ele>231</ele>
        <time>2018-06-15T09:54:09Z</time>
      </trkpt>
      <trkpt lat="45.98037" lon="4.80737">
        <ele>231</ele>
        <time>2018-06-15T09:54:10Z</time>
      </trkpt>
      <trkpt lat="45.98034" lon="4.80729">
        <ele>231</ele>
        <time>2018-06-15T09:54:11Z</time>
      </trkpt>
      <trkpt lat="45.98032" lon="4.80722">
        <ele>231</ele>
        <time>2018-06-15T09:54:12Z</time>
      </trkpt>
      <trkpt lat="45.9803" lon="4.80711">
        <ele>231</ele>
        <time>2018-06-15T09:54:14Z</time>
      </trkpt>
      <trkpt lat="45.9803" lon="4.80705">
        <ele>231</ele>
        <time>2018-06-15T09:54:15Z</time>
      </trkpt>
      <trkpt lat="45.98036" lon="4.80699">
        <ele>230</ele>
        <time>2018-06-15T09:54:17Z</time>
      </trkpt>
      <trkpt lat="45.9804" lon="4.80698">
        <ele>230</ele>
        <time>2018-06-15T09:54:18Z</time>
      </trkpt>
      <trkpt lat="45.98047" lon="4.80697">
        <ele>230</ele>
        <time>2018-06-15T09:54:20Z</time>
      </trkpt>
      <trkpt lat="45.98053" lon="4.80696">
        <ele>230</ele>
        <time>2018-06-15T09:54:21Z</time>
      </trkpt>
      <trkpt lat="45.98057" lon="4.80695">
        <ele>230</ele>
        <time>2018-06-15T09:54:22Z</time>
      </trkpt>
      <trkpt lat="45.98062" lon="4.80695">
        <ele>230</ele>
        <time>2018-06-15T09:54:23Z</time>
      </trkpt>
      <trkpt lat="45.98068" lon="4.80695">
        <ele>230</ele>
        <time>2018-06-15T09:54:24Z</time>
      </trkpt>
      <trkpt lat="45.98073" lon="4.80697">
        <ele>230</ele>
        <time>2018-06-15T09:54:25Z</time>
      </trkpt>
      <trkpt lat="45.98079" lon="4.80697">
        <ele>230</ele>
        <time>2018-06-15T09:54:26Z</time>
      </trkpt>
      <trkpt lat="45.98086" lon="4.80696">
        <ele>228</ele>
        <time>2018-06-15T09:54:27Z</time>
      </trkpt>
      <trkpt lat="45.98093" lon="4.80696">
        <ele>228</ele>
        <time>2018-06-15T09:54:28Z</time>
      </trkpt>
      <trkpt lat="45.98099" lon="4.80695">
        <ele>228</ele>
        <time>2018-06-15T09:54:29Z</time>
      </trkpt>
      <trkpt lat="45.98106" lon="4.80695">
        <ele>228</ele>
        <time>2018-06-15T09:54:30Z</time>
      </trkpt>
      <trkpt lat="45.98111" lon="4.80696">
        <ele>228</ele>
        <time>2018-06-15T09:54:31Z</time>
      </trkpt>
      <trkpt lat="45.98118" lon="4.80695">
        <ele>228</ele>
        <time>2018-06-15T09:54:32Z</time>
      </trkpt>
      <trkpt lat="45.98124" lon="4.80695">
        <ele>228</ele>
        <time>2018-06-15T09:54:33Z</time>
      </trkpt>
      <trkpt lat="45.98131" lon="4.80695">
        <ele>228</ele>
        <time>2018-06-15T09:54:34Z</time>
      </trkpt>
      <trkpt lat="45.98137" lon="4.80695">
        <ele>228</ele>
        <time>2018-06-15T09:54:35Z</time>
      </trkpt>
      <trkpt lat="45.98144" lon="4.80695">
        <ele>228</ele>
        <time>2018-06-15T09:54:36Z</time>
      </trkpt>
      <trkpt lat="45.98151" lon="4.80694">
        <ele>228</ele>
        <time>2018-06-15T09:54:37Z</time>
      </trkpt>
      <trkpt lat="45.98157" lon="4.80694">
        <ele>228</ele>
        <time>2018-06-15T09:54:38Z</time>
      </trkpt>
      <trkpt lat="45.98163" lon="4.80692">
        <ele>227</ele>
        <time>2018-06-15T09:54:39Z</time>
      </trkpt>
      <trkpt lat="45.98171" lon="4.80691">
        <ele>225</ele>
        <time>2018-06-15T09:54:40Z</time>
      </trkpt>
      <trkpt lat="45.98178" lon="4.8069">
        <ele>225</ele>
        <time>2018-06-15T09:54:41Z</time>
      </trkpt>
      <trkpt lat="45.98185" lon="4.80688">
        <ele>225</ele>
        <time>2018-06-15T09:54:42Z</time>
      </trkpt>
      <trkpt lat="45.98192" lon="4.80686">
        <ele>225</ele>
        <time>2018-06-15T09:54:43Z</time>
      </trkpt>
      <trkpt lat="45.98198" lon="4.80684">
        <ele>225</ele>
        <time>2018-06-15T09:54:44Z</time>
      </trkpt>
      <trkpt lat="45.98206" lon="4.80679">
        <ele>224</ele>
        <time>2018-06-15T09:54:45Z</time>
      </trkpt>
      <trkpt lat="45.9821" lon="4.80676">
        <ele>224</ele>
        <time>2018-06-15T09:54:46Z</time>
      </trkpt>
      <trkpt lat="45.98216" lon="4.80671">
        <ele>224</ele>
        <time>2018-06-15T09:54:47Z</time>
      </trkpt>
      <trkpt lat="45.98222" lon="4.80663">
        <ele>224</ele>
        <time>2018-06-15T09:54:48Z</time>
      </trkpt>
      <trkpt lat="45.98225" lon="4.80655">
        <ele>223</ele>
        <time>2018-06-15T09:54:49Z</time>
      </trkpt>
      <trkpt lat="45.98229" lon="4.80646">
        <ele>223</ele>
        <time>2018-06-15T09:54:50Z</time>
      </trkpt>
      <trkpt lat="45.98232" lon="4.80638">
        <ele>224</ele>
        <time>2018-06-15T09:54:51Z</time>
      </trkpt>
      <trkpt lat="45.98235" lon="4.80628">
        <ele>224</ele>
        <time>2018-06-15T09:54:52Z</time>
      </trkpt>
      <trkpt lat="45.98238" lon="4.80619">
        <ele>224</ele>
        <time>2018-06-15T09:54:53Z</time>
      </trkpt>
      <trkpt lat="45.98241" lon="4.8061">
        <ele>224</ele>
        <time>2018-06-15T09:54:54Z</time>
      </trkpt>
      <trkpt lat="45.98244" lon="4.80601">
        <ele>224</ele>
        <time>2018-06-15T09:54:55Z</time>
      </trkpt>
      <trkpt lat="45.98246" lon="4.80594">
        <ele>224</ele>
        <time>2018-06-15T09:54:56Z</time>
      </trkpt>
      <trkpt lat="45.98249" lon="4.80584">
        <ele>224</ele>
        <time>2018-06-15T09:54:57Z</time>
      </trkpt>
      <trkpt lat="45.98252" lon="4.80576">
        <ele>224</ele>
        <time>2018-06-15T09:54:58Z</time>
      </trkpt>
      <trkpt lat="45.98255" lon="4.80567">
        <ele>224</ele>
        <time>2018-06-15T09:54:59Z</time>
      </trkpt>
      <trkpt lat="45.98257" lon="4.80558">
        <ele>224</ele>
        <time>2018-06-15T09:55:00Z</time>
      </trkpt>
      <trkpt lat="45.9826" lon="4.80552">
        <ele>224</ele>
        <time>2018-06-15T09:55:01Z</time>
      </trkpt>
      <trkpt lat="45.98263" lon="4.80546">
        <ele>224</ele>
        <time>2018-06-15T09:55:02Z</time>
      </trkpt>
      <trkpt lat="45.98265" lon="4.8054">
        <ele>224</ele>
        <time>2018-06-15T09:55:03Z</time>
      </trkpt>
      <trkpt lat="45.98268" lon="4.80531">
        <ele>224</ele>
        <time>2018-06-15T09:55:04Z</time>
      </trkpt>
      <trkpt lat="45.9827" lon="4.80522">
        <ele>224</ele>
        <time>2018-06-15T09:55:05Z</time>
      </trkpt>
      <trkpt lat="45.98272" lon="4.80513">
        <ele>223</ele>
        <time>2018-06-15T09:55:06Z</time>
      </trkpt>
      <trkpt lat="45.98274" lon="4.80505">
        <ele>223</ele>
        <time>2018-06-15T09:55:07Z</time>
      </trkpt>
      <trkpt lat="45.98277" lon="4.80494">
        <ele>223</ele>
        <time>2018-06-15T09:55:08Z</time>
      </trkpt>
      <trkpt lat="45.98278" lon="4.80486">
        <ele>223</ele>
        <time>2018-06-15T09:55:09Z</time>
      </trkpt>
      <trkpt lat="45.98281" lon="4.80477">
        <ele>223</ele>
        <time>2018-06-15T09:55:10Z</time>
      </trkpt>
      <trkpt lat="45.98284" lon="4.80468">
        <ele>223</ele>
        <time>2018-06-15T09:55:11Z</time>
      </trkpt>
      <trkpt lat="45.98284" lon="4.8046">
        <ele>224</ele>
        <time>2018-06-15T09:55:12Z</time>
      </trkpt>
      <trkpt lat="45.98286" lon="4.80452">
        <ele>224</ele>
        <time>2018-06-15T09:55:13Z</time>
      </trkpt>
      <trkpt lat="45.98288" lon="4.80442">
        <ele>224</ele>
        <time>2018-06-15T09:55:14Z</time>
      </trkpt>
      <trkpt lat="45.98288" lon="4.80434">
        <ele>224</ele>
        <time>2018-06-15T09:55:15Z</time>
      </trkpt>
      <trkpt lat="45.9829" lon="4.80426">
        <ele>224</ele>
        <time>2018-06-15T09:55:16Z</time>
      </trkpt>
      <trkpt lat="45.98291" lon="4.80418">
        <ele>224</ele>
        <time>2018-06-15T09:55:17Z</time>
      </trkpt>
      <trkpt lat="45.98294" lon="4.80412">
        <ele>224</ele>
        <time>2018-06-15T09:55:18Z</time>
      </trkpt>
      <trkpt lat="45.98296" lon="4.80403">
        <ele>224</ele>
        <time>2018-06-15T09:55:19Z</time>
      </trkpt>
      <trkpt lat="45.98297" lon="4.80398">
        <ele>225</ele>
        <time>2018-06-15T09:55:20Z</time>
      </trkpt>
      <trkpt lat="45.98298" lon="4.80391">
        <ele>225</ele>
        <time>2018-06-15T09:55:21Z</time>
      </trkpt>
      <trkpt lat="45.983" lon="4.80384">
        <ele>225</ele>
        <time>2018-06-15T09:55:22Z</time>
      </trkpt>
      <trkpt lat="45.98301" lon="4.80377">
        <ele>225</ele>
        <time>2018-06-15T09:55:23Z</time>
      </trkpt>
      <trkpt lat="45.98302" lon="4.80371">
        <ele>225</ele>
        <time>2018-06-15T09:55:24Z</time>
      </trkpt>
      <trkpt lat="45.98304" lon="4.80363">
        <ele>225</ele>
        <time>2018-06-15T09:55:25Z</time>
      </trkpt>
      <trkpt lat="45.98307" lon="4.80352">
        <ele>226</ele>
        <time>2018-06-15T09:55:27Z</time>
      </trkpt>
      <trkpt lat="45.98308" lon="4.80347">
        <ele>226</ele>
        <time>2018-06-15T09:55:28Z</time>
      </trkpt>
      <trkpt lat="45.9831" lon="4.80341">
        <ele>226</ele>
        <time>2018-06-15T09:55:29Z</time>
      </trkpt>
      <trkpt lat="45.98312" lon="4.80335">
        <ele>226</ele>
        <time>2018-06-15T09:55:30Z</time>
      </trkpt>
      <trkpt lat="45.98313" lon="4.80329">
        <ele>227</ele>
        <time>2018-06-15T09:55:31Z</time>
      </trkpt>
      <trkpt lat="45.98316" lon="4.80321">
        <ele>227</ele>
        <time>2018-06-15T09:55:32Z</time>
      </trkpt>
      <trkpt lat="45.98318" lon="4.80314">
        <ele>227</ele>
        <time>2018-06-15T09:55:33Z</time>
      </trkpt>
      <trkpt lat="45.9832" lon="4.80307">
        <ele>227</ele>
        <time>2018-06-15T09:55:34Z</time>
      </trkpt>
      <trkpt lat="45.9832" lon="4.80298">
        <ele>227</ele>
        <time>2018-06-15T09:55:36Z</time>
      </trkpt>
      <trkpt lat="45.98323" lon="4.80287">
        <ele>227</ele>
        <time>2018-06-15T09:55:37Z</time>
      </trkpt>
      <trkpt lat="45.98325" lon="4.80282">
        <ele>227</ele>
        <time>2018-06-15T09:55:38Z</time>
      </trkpt>
      <trkpt lat="45.98327" lon="4.80275">
        <ele>227</ele>
        <time>2018-06-15T09:55:39Z</time>
      </trkpt>
      <trkpt lat="45.98328" lon="4.80264">
        <ele>228</ele>
        <time>2018-06-15T09:55:42Z</time>
      </trkpt>
      <trkpt lat="45.9833" lon="4.80253">
        <ele>229</ele>
        <time>2018-06-15T09:55:43Z</time>
      </trkpt>
      <trkpt lat="45.98334" lon="4.80245">
        <ele>230</ele>
        <time>2018-06-15T09:55:46Z</time>
      </trkpt>
      <trkpt lat="45.98336" lon="4.80243">
        <ele>230</ele>
        <time>2018-06-15T09:55:47Z</time>
      </trkpt>
      <trkpt lat="45.98337" lon="4.80232">
        <ele>230</ele>
        <time>2018-06-15T09:55:48Z</time>
      </trkpt>
      <trkpt lat="45.98336" lon="4.80227">
        <ele>230</ele>
        <time>2018-06-15T09:55:49Z</time>
      </trkpt>
      <trkpt lat="45.98335" lon="4.80221">
        <ele>230</ele>
        <time>2018-06-15T09:55:50Z</time>
      </trkpt>
      <trkpt lat="45.98331" lon="4.80213">
        <ele>227</ele>
        <time>2018-06-15T09:55:51Z</time>
      </trkpt>
      <trkpt lat="45.98328" lon="4.80208">
        <ele>227</ele>
        <time>2018-06-15T09:55:52Z</time>
      </trkpt>
      <trkpt lat="45.98325" lon="4.80198">
        <ele>227</ele>
        <time>2018-06-15T09:55:53Z</time>
      </trkpt>
      <trkpt lat="45.98323" lon="4.80193">
        <ele>227</ele>
        <time>2018-06-15T09:55:54Z</time>
      </trkpt>
      <trkpt lat="45.98321" lon="4.80186">
        <ele>227</ele>
        <time>2018-06-15T09:55:55Z</time>
      </trkpt>
      <trkpt lat="45.98319" lon="4.80179">
        <ele>227</ele>
        <time>2018-06-15T09:55:56Z</time>
      </trkpt>
      <trkpt lat="45.98317" lon="4.80172">
        <ele>227</ele>
        <time>2018-06-15T09:55:57Z</time>
      </trkpt>
      <trkpt lat="45.98314" lon="4.80166">
        <ele>228</ele>
        <time>2018-06-15T09:55:58Z</time>
      </trkpt>
      <trkpt lat="45.98312" lon="4.80158">
        <ele>228</ele>
        <time>2018-06-15T09:55:59Z</time>
      </trkpt>
      <trkpt lat="45.9831" lon="4.80151">
        <ele>228</ele>
        <time>2018-06-15T09:56:00Z</time>
      </trkpt>
      <trkpt lat="45.98308" lon="4.80144">
        <ele>228</ele>
        <time>2018-06-15T09:56:01Z</time>
      </trkpt>
      <trkpt lat="45.98305" lon="4.80138">
        <ele>228</ele>
        <time>2018-06-15T09:56:02Z</time>
      </trkpt>
      <trkpt lat="45.98303" lon="4.80132">
        <ele>228</ele>
        <time>2018-06-15T09:56:03Z</time>
      </trkpt>
      <trkpt lat="45.983" lon="4.80125">
        <ele>228</ele>
        <time>2018-06-15T09:56:04Z</time>
      </trkpt>
      <trkpt lat="45.983" lon="4.80118">
        <ele>228</ele>
        <time>2018-06-15T09:56:05Z</time>
      </trkpt>
      <trkpt lat="45.98297" lon="4.8011">
        <ele>228</ele>
        <time>2018-06-15T09:56:06Z</time>
      </trkpt>
      <trkpt lat="45.98295" lon="4.80103">
        <ele>228</ele>
        <time>2018-06-15T09:56:07Z</time>
      </trkpt>
      <trkpt lat="45.98292" lon="4.80097">
        <ele>228</ele>
        <time>2018-06-15T09:56:08Z</time>
      </trkpt>
      <trkpt lat="45.98289" lon="4.8009">
        <ele>228</ele>
        <time>2018-06-15T09:56:09Z</time>
      </trkpt>
      <trkpt lat="45.98287" lon="4.80084">
        <ele>228</ele>
        <time>2018-06-15T09:56:10Z</time>
      </trkpt>
      <trkpt lat="45.98284" lon="4.80078">
        <ele>229</ele>
        <time>2018-06-15T09:56:11Z</time>
      </trkpt>
      <trkpt lat="45.98281" lon="4.80072">
        <ele>229</ele>
        <time>2018-06-15T09:56:12Z</time>
      </trkpt>
      <trkpt lat="45.98279" lon="4.80066">
        <ele>229</ele>
        <time>2018-06-15T09:56:13Z</time>
      </trkpt>
      <trkpt lat="45.98277" lon="4.80059">
        <ele>229</ele>
        <time>2018-06-15T09:56:14Z</time>
      </trkpt>
      <trkpt lat="45.98275" lon="4.80053">
        <ele>229</ele>
        <time>2018-06-15T09:56:15Z</time>
      </trkpt>
      <trkpt lat="45.98274" lon="4.80046">
        <ele>229</ele>
        <time>2018-06-15T09:56:16Z</time>
      </trkpt>
      <trkpt lat="45.98272" lon="4.80039">
        <ele>229</ele>
        <time>2018-06-15T09:56:17Z</time>
      </trkpt>
      <trkpt lat="45.9827" lon="4.80031">
        <ele>229</ele>
        <time>2018-06-15T09:56:18Z</time>
      </trkpt>
      <trkpt lat="45.98268" lon="4.80023">
        <ele>228</ele>
        <time>2018-06-15T09:56:19Z</time>
      </trkpt>
      <trkpt lat="45.98266" lon="4.80015">
        <ele>228</ele>
        <time>2018-06-15T09:56:20Z</time>
      </trkpt>
      <trkpt lat="45.98263" lon="4.80009">
        <ele>228</ele>
        <time>2018-06-15T09:56:21Z</time>
      </trkpt>
      <trkpt lat="45.9826" lon="4.80003">
        <ele>227</ele>
        <time>2018-06-15T09:56:22Z</time>
      </trkpt>
      <trkpt lat="45.98256" lon="4.79996">
        <ele>227</ele>
        <time>2018-06-15T09:56:23Z</time>
      </trkpt>
      <trkpt lat="45.98253" lon="4.79989">
        <ele>227</ele>
        <time>2018-06-15T09:56:24Z</time>
      </trkpt>
      <trkpt lat="45.98251" lon="4.79982">
        <ele>228</ele>
        <time>2018-06-15T09:56:25Z</time>
      </trkpt>
      <trkpt lat="45.98249" lon="4.79975">
        <ele>225</ele>
        <time>2018-06-15T09:56:26Z</time>
      </trkpt>
      <trkpt lat="45.98247" lon="4.7997">
        <ele>225</ele>
        <time>2018-06-15T09:56:27Z</time>
      </trkpt>
      <trkpt lat="45.98244" lon="4.79963">
        <ele>225</ele>
        <time>2018-06-15T09:56:28Z</time>
      </trkpt>
      <trkpt lat="45.98241" lon="4.79957">
        <ele>225</ele>
        <time>2018-06-15T09:56:29Z</time>
      </trkpt>
      <trkpt lat="45.98239" lon="4.79952">
        <ele>225</ele>
        <time>2018-06-15T09:56:30Z</time>
      </trkpt>
      <trkpt lat="45.98237" lon="4.79945">
        <ele>225</ele>
        <time>2018-06-15T09:56:31Z</time>
      </trkpt>
      <trkpt lat="45.98236" lon="4.79939">
        <ele>225</ele>
        <time>2018-06-15T09:56:32Z</time>
      </trkpt>
      <trkpt lat="45.98234" lon="4.79933">
        <ele>225</ele>
        <time>2018-06-15T09:56:33Z</time>
      </trkpt>
      <trkpt lat="45.98231" lon="4.79926">
        <ele>225</ele>
        <time>2018-06-15T09:56:34Z</time>
      </trkpt>
      <trkpt lat="45.98229" lon="4.7992">
        <ele>225</ele>
        <time>2018-06-15T09:56:35Z</time>
      </trkpt>
      <trkpt lat="45.98226" lon="4.79912">
        <ele>225</ele>
        <time>2018-06-15T09:56:36Z</time>
      </trkpt>
      <trkpt lat="45.98227" lon="4.79907">
        <ele>225</ele>
        <time>2018-06-15T09:56:37Z</time>
      </trkpt>
      <trkpt lat="45.98226" lon="4.799">
        <ele>225</ele>
        <time>2018-06-15T09:56:38Z</time>
      </trkpt>
      <trkpt lat="45.98222" lon="4.79892">
        <ele>225</ele>
        <time>2018-06-15T09:56:39Z</time>
      </trkpt>
      <trkpt lat="45.9822" lon="4.79887">
        <ele>225</ele>
        <time>2018-06-15T09:56:40Z</time>
      </trkpt>
      <trkpt lat="45.98216" lon="4.79879">
        <ele>225</ele>
        <time>2018-06-15T09:56:41Z</time>
      </trkpt>
      <trkpt lat="45.98213" lon="4.79867">
        <ele>225</ele>
        <time>2018-06-15T09:56:43Z</time>
      </trkpt>
      <trkpt lat="45.9821" lon="4.7986">
        <ele>225</ele>
        <time>2018-06-15T09:56:44Z</time>
      </trkpt>
      <trkpt lat="45.98207" lon="4.79854">
        <ele>225</ele>
        <time>2018-06-15T09:56:45Z</time>
      </trkpt>
      <trkpt lat="45.98205" lon="4.79847">
        <ele>225</ele>
        <time>2018-06-15T09:56:46Z</time>
      </trkpt>
      <trkpt lat="45.98202" lon="4.79841">
        <ele>225</ele>
        <time>2018-06-15T09:56:47Z</time>
      </trkpt>
      <trkpt lat="45.982" lon="4.79836">
        <ele>225</ele>
        <time>2018-06-15T09:56:48Z</time>
      </trkpt>
      <trkpt lat="45.98196" lon="4.79825">
        <ele>225</ele>
        <time>2018-06-15T09:56:50Z</time>
      </trkpt>
      <trkpt lat="45.98195" lon="4.7982">
        <ele>225</ele>
        <time>2018-06-15T09:56:51Z</time>
      </trkpt>
      <trkpt lat="45.98193" lon="4.79814">
        <ele>225</ele>
        <time>2018-06-15T09:56:52Z</time>
      </trkpt>
      <trkpt lat="45.9819" lon="4.79809">
        <ele>226</ele>
        <time>2018-06-15T09:56:53Z</time>
      </trkpt>
      <trkpt lat="45.98187" lon="4.79796">
        <ele>226</ele>
        <time>2018-06-15T09:56:55Z</time>
      </trkpt>
      <trkpt lat="45.98186" lon="4.79792">
        <ele>226</ele>
        <time>2018-06-15T09:56:56Z</time>
      </trkpt>
      <trkpt lat="45.98185" lon="4.79782">
        <ele>226</ele>
        <time>2018-06-15T09:56:58Z</time>
      </trkpt>
      <trkpt lat="45.98185" lon="4.79776">
        <ele>226</ele>
        <time>2018-06-15T09:56:59Z</time>
      </trkpt>
      <trkpt lat="45.98187" lon="4.79767">
        <ele>226</ele>
        <time>2018-06-15T09:57:02Z</time>
      </trkpt>
      <trkpt lat="45.98189" lon="4.79763">
        <ele>226</ele>
        <time>2018-06-15T09:57:03Z</time>
      </trkpt>
      <trkpt lat="45.98196" lon="4.79756">
        <ele>226</ele>
        <time>2018-06-15T09:57:06Z</time>
      </trkpt>
      <trkpt lat="45.98199" lon="4.79755">
        <ele>226</ele>
        <time>2018-06-15T09:57:07Z</time>
      </trkpt>
      <trkpt lat="45.98205" lon="4.79753">
        <ele>226</ele>
        <time>2018-06-15T09:57:09Z</time>
      </trkpt>
      <trkpt lat="45.98209" lon="4.79752">
        <ele>226</ele>
        <time>2018-06-15T09:57:10Z</time>
      </trkpt>
      <trkpt lat="45.98218" lon="4.79751">
        <ele>227</ele>
        <time>2018-06-15T09:57:11Z</time>
      </trkpt>
      <trkpt lat="45.98221" lon="4.79751">
        <ele>227</ele>
        <time>2018-06-15T09:57:12Z</time>
      </trkpt>
      <trkpt lat="45.98226" lon="4.79751">
        <ele>227</ele>
        <time>2018-06-15T09:57:14Z</time>
      </trkpt>
      <trkpt lat="45.98232" lon="4.79751">
        <ele>227</ele>
        <time>2018-06-15T09:57:15Z</time>
      </trkpt>
      <trkpt lat="45.98239" lon="4.79751">
        <ele>227</ele>
        <time>2018-06-15T09:57:17Z</time>
      </trkpt>
      <trkpt lat="45.98243" lon="4.7975">
        <ele>227</ele>
        <time>2018-06-15T09:57:18Z</time>
      </trkpt>
      <trkpt lat="45.98248" lon="4.7975">
        <ele>228</ele>
        <time>2018-06-15T09:57:20Z</time>
      </trkpt>
      <trkpt lat="45.98254" lon="4.79749">
        <ele>229</ele>
        <time>2018-06-15T09:57:21Z</time>
      </trkpt>
      <trkpt lat="45.98261" lon="4.79747">
        <ele>231</ele>
        <time>2018-06-15T09:57:23Z</time>
      </trkpt>
      <trkpt lat="45.98264" lon="4.79747">
        <ele>231</ele>
        <time>2018-06-15T09:57:24Z</time>
      </trkpt>
      <trkpt lat="45.9827" lon="4.79746">
        <ele>232</ele>
        <time>2018-06-15T09:57:26Z</time>
      </trkpt>
      <trkpt lat="45.98275" lon="4.79745">
        <ele>233</ele>
        <time>2018-06-15T09:57:27Z</time>
      </trkpt>
      <trkpt lat="45.9828" lon="4.79744">
        <ele>233</ele>
        <time>2018-06-15T09:57:29Z</time>
      </trkpt>
      <trkpt lat="45.98285" lon="4.79743">
        <ele>234</ele>
        <time>2018-06-15T09:57:30Z</time>
      </trkpt>
      <trkpt lat="45.98293" lon="4.79743">
        <ele>234</ele>
        <time>2018-06-15T09:57:33Z</time>
      </trkpt>
      <trkpt lat="45.98295" lon="4.79742">
        <ele>235</ele>
        <time>2018-06-15T09:57:34Z</time>
      </trkpt>
      <trkpt lat="45.98304" lon="4.79741">
        <ele>235</ele>
        <time>2018-06-15T09:57:37Z</time>
      </trkpt>
      <trkpt lat="45.98308" lon="4.79741">
        <ele>235</ele>
        <time>2018-06-15T09:57:38Z</time>
      </trkpt>
      <trkpt lat="45.98314" lon="4.7974">
        <ele>236</ele>
        <time>2018-06-15T09:57:40Z</time>
      </trkpt>
      <trkpt lat="45.98318" lon="4.7974">
        <ele>236</ele>
        <time>2018-06-15T09:57:41Z</time>
      </trkpt>
      <trkpt lat="45.98324" lon="4.79739">
        <ele>236</ele>
        <time>2018-06-15T09:57:43Z</time>
      </trkpt>
      <trkpt lat="45.98327" lon="4.79738">
        <ele>236</ele>
        <time>2018-06-15T09:57:44Z</time>
      </trkpt>
      <trkpt lat="45.98334" lon="4.79738">
        <ele>239</ele>
        <time>2018-06-15T09:57:46Z</time>
      </trkpt>
      <trkpt lat="45.98337" lon="4.79737">
        <ele>239</ele>
        <time>2018-06-15T09:57:47Z</time>
      </trkpt>
      <trkpt lat="45.9834" lon="4.79737">
        <ele>239</ele>
        <time>2018-06-15T09:57:48Z</time>
      </trkpt>
      <trkpt lat="45.98349" lon="4.79735">
        <ele>239</ele>
        <time>2018-06-15T09:57:49Z</time>
      </trkpt>
      <trkpt lat="45.98358" lon="4.79734">
        <ele>240</ele>
        <time>2018-06-15T09:57:53Z</time>
      </trkpt>
      <trkpt lat="45.9836" lon="4.79733">
        <ele>240</ele>
        <time>2018-06-15T09:57:54Z</time>
      </trkpt>
      <trkpt lat="45.98366" lon="4.79732">
        <ele>240</ele>
        <time>2018-06-15T09:57:56Z</time>
      </trkpt>
      <trkpt lat="45.9837" lon="4.79732">
        <ele>240</ele>
        <time>2018-06-15T09:57:57Z</time>
      </trkpt>
      <trkpt lat="45.98376" lon="4.7973">
        <ele>241</ele>
        <time>2018-06-15T09:57:59Z</time>
      </trkpt>
      <trkpt lat="45.98379" lon="4.7973">
        <ele>241</ele>
        <time>2018-06-15T09:58:00Z</time>
      </trkpt>
      <trkpt lat="45.98385" lon="4.7973">
        <ele>241</ele>
        <time>2018-06-15T09:58:02Z</time>
      </trkpt>
      <trkpt lat="45.98389" lon="4.79729">
        <ele>241</ele>
        <time>2018-06-15T09:58:03Z</time>
      </trkpt>
      <trkpt lat="45.98395" lon="4.79729">
        <ele>241</ele>
        <time>2018-06-15T09:58:05Z</time>
      </trkpt>
      <trkpt lat="45.98398" lon="4.79729">
        <ele>241</ele>
        <time>2018-06-15T09:58:06Z</time>
      </trkpt>
      <trkpt lat="45.98405" lon="4.79728">
        <ele>241</ele>
        <time>2018-06-15T09:58:08Z</time>
      </trkpt>
      <trkpt lat="45.98409" lon="4.79728">
        <ele>241</ele>
        <time>2018-06-15T09:58:09Z</time>
      </trkpt>
      <trkpt lat="45.98416" lon="4.79728">
        <ele>241</ele>
        <time>2018-06-15T09:58:11Z</time>
      </trkpt>
      <trkpt lat="45.98419" lon="4.79728">
        <ele>242</ele>
        <time>2018-06-15T09:58:12Z</time>
      </trkpt>
      <trkpt lat="45.98428" lon="4.79728">
        <ele>242</ele>
        <time>2018-06-15T09:58:15Z</time>
      </trkpt>
      <trkpt lat="45.98431" lon="4.79728">
        <ele>242</ele>
        <time>2018-06-15T09:58:16Z</time>
      </trkpt>
      <trkpt lat="45.98439" lon="4.79728">
        <ele>242</ele>
        <time>2018-06-15T09:58:17Z</time>
      </trkpt>
      <trkpt lat="45.98441" lon="4.79729">
        <ele>242</ele>
        <time>2018-06-15T09:58:18Z</time>
      </trkpt>
      <trkpt lat="45.98446" lon="4.79729">
        <ele>242</ele>
        <time>2018-06-15T09:58:20Z</time>
      </trkpt>
      <trkpt lat="45.98453" lon="4.79729">
        <ele>243</ele>
        <time>2018-06-15T09:58:21Z</time>
      </trkpt>
      <trkpt lat="45.98459" lon="4.79728">
        <ele>243</ele>
        <time>2018-06-15T09:58:24Z</time>
      </trkpt>
      <trkpt lat="45.98462" lon="4.79728">
        <ele>243</ele>
        <time>2018-06-15T09:58:25Z</time>
      </trkpt>
      <trkpt lat="45.98471" lon="4.79728">
        <ele>243</ele>
        <time>2018-06-15T09:58:28Z</time>
      </trkpt>
      <trkpt lat="45.98474" lon="4.79728">
        <ele>243</ele>
        <time>2018-06-15T09:58:29Z</time>
      </trkpt>
      <trkpt lat="45.98481" lon="4.79729">
        <ele>243</ele>
        <time>2018-06-15T09:58:31Z</time>
      </trkpt>
      <trkpt lat="45.98484" lon="4.79729">
        <ele>243</ele>
        <time>2018-06-15T09:58:32Z</time>
      </trkpt>
      <trkpt lat="45.98491" lon="4.79729">
        <ele>243</ele>
        <time>2018-06-15T09:58:34Z</time>
      </trkpt>
      <trkpt lat="45.98495" lon="4.79729">
        <ele>243</ele>
        <time>2018-06-15T09:58:35Z</time>
      </trkpt>
      <trkpt lat="45.98502" lon="4.79729">
        <ele>244</ele>
        <time>2018-06-15T09:58:37Z</time>
      </trkpt>
      <trkpt lat="45.98505" lon="4.79728">
        <ele>244</ele>
        <time>2018-06-15T09:58:38Z</time>
      </trkpt>
      <trkpt lat="45.98512" lon="4.79727">
        <ele>244</ele>
        <time>2018-06-15T09:58:40Z</time>
      </trkpt>
      <trkpt lat="45.98516" lon="4.79726">
        <ele>244</ele>
        <time>2018-06-15T09:58:41Z</time>
      </trkpt>
      <trkpt lat="45.98525" lon="4.79724">
        <ele>244</ele>
        <time>2018-06-15T09:58:42Z</time>
      </trkpt>
      <trkpt lat="45.98533" lon="4.7972">
        <ele>244</ele>
        <time>2018-06-15T09:58:45Z</time>
      </trkpt>
      <trkpt lat="45.98539" lon="4.79716">
        <ele>244</ele>
        <time>2018-06-15T09:58:46Z</time>
      </trkpt>
      <trkpt lat="45.98545" lon="4.79711">
        <ele>244</ele>
        <time>2018-06-15T09:58:49Z</time>
      </trkpt>
      <trkpt lat="45.98547" lon="4.79709">
        <ele>244</ele>
        <time>2018-06-15T09:58:50Z</time>
      </trkpt>
      <trkpt lat="45.98552" lon="4.79704">
        <ele>244</ele>
        <time>2018-06-15T09:58:52Z</time>
      </trkpt>
      <trkpt lat="45.98555" lon="4.79701">
        <ele>244</ele>
        <time>2018-06-15T09:58:53Z</time>
      </trkpt>
      <trkpt lat="45.98558" lon="4.79698">
        <ele>244</ele>
        <time>2018-06-15T09:58:54Z</time>
      </trkpt>
      <trkpt lat="45.98565" lon="4.79691">
        <ele>244</ele>
        <time>2018-06-15T09:58:55Z</time>
      </trkpt>
      <trkpt lat="45.9857" lon="4.79683">
        <ele>244</ele>
        <time>2018-06-15T09:58:57Z</time>
      </trkpt>
      <trkpt lat="45.98572" lon="4.79681">
        <ele>244</ele>
        <time>2018-06-15T09:58:58Z</time>
      </trkpt>
      <trkpt lat="45.98574" lon="4.79678">
        <ele>245</ele>
        <time>2018-06-15T09:58:59Z</time>
      </trkpt>
      <trkpt lat="45.98578" lon="4.79671">
        <ele>245</ele>
        <time>2018-06-15T09:59:00Z</time>
      </trkpt>
      <trkpt lat="45.98583" lon="4.79661">
        <ele>245</ele>
        <time>2018-06-15T09:59:02Z</time>
      </trkpt>
      <trkpt lat="45.98585" lon="4.79656">
        <ele>245</ele>
        <time>2018-06-15T09:59:03Z</time>
      </trkpt>
      <trkpt lat="45.9859" lon="4.79646">
        <ele>245</ele>
        <time>2018-06-15T09:59:05Z</time>
      </trkpt>
      <trkpt lat="45.98592" lon="4.79642">
        <ele>245</ele>
        <time>2018-06-15T09:59:06Z</time>
      </trkpt>
      <trkpt lat="45.98598" lon="4.79636">
        <ele>245</ele>
        <time>2018-06-15T09:59:08Z</time>
      </trkpt>
      <trkpt lat="45.986" lon="4.79634">
        <ele>245</ele>
        <time>2018-06-15T09:59:09Z</time>
      </trkpt>
      <trkpt lat="45.98608" lon="4.7963">
        <ele>245</ele>
        <time>2018-06-15T09:59:11Z</time>
      </trkpt>
      <trkpt lat="45.98612" lon="4.79629">
        <ele>245</ele>
        <time>2018-06-15T09:59:12Z</time>
      </trkpt>
      <trkpt lat="45.98617" lon="4.79626">
        <ele>245</ele>
        <time>2018-06-15T09:59:14Z</time>
      </trkpt>
      <trkpt lat="45.98622" lon="4.79621">
        <ele>245</ele>
        <time>2018-06-15T09:59:15Z</time>
      </trkpt>
      <trkpt lat="45.98625" lon="4.79617">
        <ele>245</ele>
        <time>2018-06-15T09:59:16Z</time>
      </trkpt>
      <trkpt lat="45.98626" lon="4.7961">
        <ele>245</ele>
        <time>2018-06-15T09:59:17Z</time>
      </trkpt>
      <trkpt lat="45.98626" lon="4.796">
        <ele>245</ele>
        <time>2018-06-15T09:59:19Z</time>
      </trkpt>
      <trkpt lat="45.98623" lon="4.79594">
        <ele>245</ele>
        <time>2018-06-15T09:59:20Z</time>
      </trkpt>
      <trkpt lat="45.9862" lon="4.79589">
        <ele>245</ele>
        <time>2018-06-15T09:59:21Z</time>
      </trkpt>
      <trkpt lat="45.98615" lon="4.79584">
        <ele>245</ele>
        <time>2018-06-15T09:59:22Z</time>
      </trkpt>
      <trkpt lat="45.98606" lon="4.79582">
        <ele>245</ele>
        <time>2018-06-15T09:59:24Z</time>
      </trkpt>
      <trkpt lat="45.98602" lon="4.79582">
        <ele>245</ele>
        <time>2018-06-15T09:59:25Z</time>
      </trkpt>
      <trkpt lat="45.98593" lon="4.79584">
        <ele>245</ele>
        <time>2018-06-15T09:59:27Z</time>
      </trkpt>
      <trkpt lat="45.98589" lon="4.79585">
        <ele>245</ele>
        <time>2018-06-15T09:59:28Z</time>
      </trkpt>
      <trkpt lat="45.98584" lon="4.79585">
        <ele>245</ele>
        <time>2018-06-15T09:59:29Z</time>
      </trkpt>
      <trkpt lat="45.98578" lon="4.79582">
        <ele>245</ele>
        <time>2018-06-15T09:59:30Z</time>
      </trkpt>
      <trkpt lat="45.98574" lon="4.79579">
        <ele>245</ele>
        <time>2018-06-15T09:59:31Z</time>
      </trkpt>
      <trkpt lat="45.9857" lon="4.79576">
        <ele>245</ele>
        <time>2018-06-15T09:59:32Z</time>
      </trkpt>
      <trkpt lat="45.98565" lon="4.79572">
        <ele>244</ele>
        <time>2018-06-15T09:59:33Z</time>
      </trkpt>
      <trkpt lat="45.9856" lon="4.79568">
        <ele>244</ele>
        <time>2018-06-15T09:59:34Z</time>
      </trkpt>
      <trkpt lat="45.98556" lon="4.79564">
        <ele>244</ele>
        <time>2018-06-15T09:59:35Z</time>
      </trkpt>
      <trkpt lat="45.98552" lon="4.79559">
        <ele>244</ele>
        <time>2018-06-15T09:59:36Z</time>
      </trkpt>
      <trkpt lat="45.98548" lon="4.79553">
        <ele>244</ele>
        <time>2018-06-15T09:59:37Z</time>
      </trkpt>
      <trkpt lat="45.98544" lon="4.79547">
        <ele>244</ele>
        <time>2018-06-15T09:59:38Z</time>
      </trkpt>
      <trkpt lat="45.98541" lon="4.7954">
        <ele>244</ele>
        <time>2018-06-15T09:59:39Z</time>
      </trkpt>
      <trkpt lat="45.98538" lon="4.79533">
        <ele>244</ele>
        <time>2018-06-15T09:59:40Z</time>
      </trkpt>
      <trkpt lat="45.98535" lon="4.79526">
        <ele>244</ele>
        <time>2018-06-15T09:59:41Z</time>
      </trkpt>
      <trkpt lat="45.98533" lon="4.79519">
        <ele>244</ele>
        <time>2018-06-15T09:59:42Z</time>
      </trkpt>
      <trkpt lat="45.98531" lon="4.79511">
        <ele>244</ele>
        <time>2018-06-15T09:59:43Z</time>
      </trkpt>
      <trkpt lat="45.98528" lon="4.79504">
        <ele>244</ele>
        <time>2018-06-15T09:59:44Z</time>
      </trkpt>
      <trkpt lat="45.98527" lon="4.79496">
        <ele>244</ele>
        <time>2018-06-15T09:59:45Z</time>
      </trkpt>
      <trkpt lat="45.98525" lon="4.79489">
        <ele>244</ele>
        <time>2018-06-15T09:59:46Z</time>
      </trkpt>
      <trkpt lat="45.98524" lon="4.79482">
        <ele>244</ele>
        <time>2018-06-15T09:59:47Z</time>
      </trkpt>
      <trkpt lat="45.98524" lon="4.79475">
        <ele>244</ele>
        <time>2018-06-15T09:59:48Z</time>
      </trkpt>
      <trkpt lat="45.98523" lon="4.79468">
        <ele>244</ele>
        <time>2018-06-15T09:59:49Z</time>
      </trkpt>
      <trkpt lat="45.98522" lon="4.79461">
        <ele>244</ele>
        <time>2018-06-15T09:59:50Z</time>
      </trkpt>
      <trkpt lat="45.98523" lon="4.79454">
        <ele>244</ele>
        <time>2018-06-15T09:59:51Z</time>
      </trkpt>
      <trkpt lat="45.98522" lon="4.79448">
        <ele>244</ele>
        <time>2018-06-15T09:59:52Z</time>
      </trkpt>
      <trkpt lat="45.98522" lon="4.7944">
        <ele>244</ele>
        <time>2018-06-15T09:59:53Z</time>
      </trkpt>
      <trkpt lat="45.98522" lon="4.79432">
        <ele>244</ele>
        <time>2018-06-15T09:59:54Z</time>
      </trkpt>
      <trkpt lat="45.98522" lon="4.79425">
        <ele>244</ele>
        <time>2018-06-15T09:59:55Z</time>
      </trkpt>
      <trkpt lat="45.98521" lon="4.79418">
        <ele>244</ele>
        <time>2018-06-15T09:59:56Z</time>
      </trkpt>
      <trkpt lat="45.98521" lon="4.7941">
        <ele>244</ele>
        <time>2018-06-15T09:59:57Z</time>
      </trkpt>
      <trkpt lat="45.9852" lon="4.79402">
        <ele>244</ele>
        <time>2018-06-15T09:59:58Z</time>
      </trkpt>
      <trkpt lat="45.98519" lon="4.79395">
        <ele>244</ele>
        <time>2018-06-15T09:59:59Z</time>
      </trkpt>
      <trkpt lat="45.98519" lon="4.79386">
        <ele>244</ele>
        <time>2018-06-15T10:00:00Z</time>
      </trkpt>
      <trkpt lat="45.98517" lon="4.79379">
        <ele>244</ele>
        <time>2018-06-15T10:00:01Z</time>
      </trkpt>
      <trkpt lat="45.98517" lon="4.79371">
        <ele>243</ele>
        <time>2018-06-15T10:00:02Z</time>
      </trkpt>
      <trkpt lat="45.98516" lon="4.79364">
        <ele>243</ele>
        <time>2018-06-15T10:00:03Z</time>
      </trkpt>
      <trkpt lat="45.98515" lon="4.79357">
        <ele>243</ele>
        <time>2018-06-15T10:00:04Z</time>
      </trkpt>
      <trkpt lat="45.98513" lon="4.79349">
        <ele>243</ele>
        <time>2018-06-15T10:00:05Z</time>
      </trkpt>
      <trkpt lat="45.98512" lon="4.79343">
        <ele>243</ele>
        <time>2018-06-15T10:00:06Z</time>
      </trkpt>
      <trkpt lat="45.98509" lon="4.79337">
        <ele>243</ele>
        <time>2018-06-15T10:00:07Z</time>
      </trkpt>
      <trkpt lat="45.98506" lon="4.7933">
        <ele>243</ele>
        <time>2018-06-15T10:00:08Z</time>
      </trkpt>
      <trkpt lat="45.98504" lon="4.79323">
        <ele>243</ele>
        <time>2018-06-15T10:00:09Z</time>
      </trkpt>
      <trkpt lat="45.98502" lon="4.79315">
        <ele>243</ele>
        <time>2018-06-15T10:00:10Z</time>
      </trkpt>
      <trkpt lat="45.98499" lon="4.79308">
        <ele>243</ele>
        <time>2018-06-15T10:00:11Z</time>
      </trkpt>
      <trkpt lat="45.98497" lon="4.79301">
        <ele>243</ele>
        <time>2018-06-15T10:00:12Z</time>
      </trkpt>
      <trkpt lat="45.98494" lon="4.79293">
        <ele>243</ele>
        <time>2018-06-15T10:00:13Z</time>
      </trkpt>
      <trkpt lat="45.98492" lon="4.79287">
        <ele>243</ele>
        <time>2018-06-15T10:00:14Z</time>
      </trkpt>
      <trkpt lat="45.98489" lon="4.79281">
        <ele>243</ele>
        <time>2018-06-15T10:00:15Z</time>
      </trkpt>
      <trkpt lat="45.98487" lon="4.79275">
        <ele>243</ele>
        <time>2018-06-15T10:00:16Z</time>
      </trkpt>
      <trkpt lat="45.98484" lon="4.79269">
        <ele>243</ele>
        <time>2018-06-15T10:00:17Z</time>
      </trkpt>
      <trkpt lat="45.98481" lon="4.79264">
        <ele>243</ele>
        <time>2018-06-15T10:00:18Z</time>
      </trkpt>
      <trkpt lat="45.98478" lon="4.79258">
        <ele>243</ele>
        <time>2018-06-15T10:00:19Z</time>
      </trkpt>
      <trkpt lat="45.98475" lon="4.79252">
        <ele>243</ele>
        <time>2018-06-15T10:00:20Z</time>
      </trkpt>
      <trkpt lat="45.98472" lon="4.79246">
        <ele>243</ele>
        <time>2018-06-15T10:00:21Z</time>
      </trkpt>
      <trkpt lat="45.98469" lon="4.79241">
        <ele>243</ele>
        <time>2018-06-15T10:00:22Z</time>
      </trkpt>
      <trkpt lat="45.98466" lon="4.79234">
        <ele>243</ele>
        <time>2018-06-15T10:00:23Z</time>
      </trkpt>
      <trkpt lat="45.98463" lon="4.79229">
        <ele>243</ele>
        <time>2018-06-15T10:00:24Z</time>
      </trkpt>
      <trkpt lat="45.9846" lon="4.79222">
        <ele>243</ele>
        <time>2018-06-15T10:00:25Z</time>
      </trkpt>
      <trkpt lat="45.98457" lon="4.79216">
        <ele>243</ele>
        <time>2018-06-15T10:00:26Z</time>
      </trkpt>
      <trkpt lat="45.98453" lon="4.7921">
        <ele>242</ele>
        <time>2018-06-15T10:00:27Z</time>
      </trkpt>
      <trkpt lat="45.98451" lon="4.79202">
        <ele>242</ele>
        <time>2018-06-15T10:00:28Z</time>
      </trkpt>
      <trkpt lat="45.98448" lon="4.79196">
        <ele>242</ele>
        <time>2018-06-15T10:00:29Z</time>
      </trkpt>
      <trkpt lat="45.98444" lon="4.79189">
        <ele>242</ele>
        <time>2018-06-15T10:00:30Z</time>
      </trkpt>
      <trkpt lat="45.9844" lon="4.79183">
        <ele>242</ele>
        <time>2018-06-15T10:00:31Z</time>
      </trkpt>
      <trkpt lat="45.98436" lon="4.79177">
        <ele>242</ele>
        <time>2018-06-15T10:00:32Z</time>
      </trkpt>
      <trkpt lat="45.98432" lon="4.7917">
        <ele>242</ele>
        <time>2018-06-15T10:00:33Z</time>
      </trkpt>
      <trkpt lat="45.98429" lon="4.79164">
        <ele>242</ele>
        <time>2018-06-15T10:00:34Z</time>
      </trkpt>
      <trkpt lat="45.98426" lon="4.79157">
        <ele>242</ele>
        <time>2018-06-15T10:00:35Z</time>
      </trkpt>
      <trkpt lat="45.98422" lon="4.7915">
        <ele>242</ele>
        <time>2018-06-15T10:00:36Z</time>
      </trkpt>
      <trkpt lat="45.98419" lon="4.79142">
        <ele>242</ele>
        <time>2018-06-15T10:00:37Z</time>
      </trkpt>
      <trkpt lat="45.98415" lon="4.79135">
        <ele>242</ele>
        <time>2018-06-15T10:00:38Z</time>
      </trkpt>
      <trkpt lat="45.98413" lon="4.79128">
        <ele>242</ele>
        <time>2018-06-15T10:00:39Z</time>
      </trkpt>
      <trkpt lat="45.9841" lon="4.79121">
        <ele>242</ele>
        <time>2018-06-15T10:00:40Z</time>
      </trkpt>
      <trkpt lat="45.98405" lon="4.79114">
        <ele>242</ele>
        <time>2018-06-15T10:00:41Z</time>
      </trkpt>
      <trkpt lat="45.98401" lon="4.79108">
        <ele>242</ele>
        <time>2018-06-15T10:00:42Z</time>
      </trkpt>
      <trkpt lat="45.98398" lon="4.79101">
        <ele>242</ele>
        <time>2018-06-15T10:00:43Z</time>
      </trkpt>
      <trkpt lat="45.98394" lon="4.79095">
        <ele>242</ele>
        <time>2018-06-15T10:00:44Z</time>
      </trkpt>
      <trkpt lat="45.9839" lon="4.79088">
        <ele>242</ele>
        <time>2018-06-15T10:00:45Z</time>
      </trkpt>
      <trkpt lat="45.98387" lon="4.79082">
        <ele>242</ele>
        <time>2018-06-15T10:00:46Z</time>
      </trkpt>
      <trkpt lat="45.98384" lon="4.79075">
        <ele>242</ele>
        <time>2018-06-15T10:00:47Z</time>
      </trkpt>
      <trkpt lat="45.98379" lon="4.79069">
        <ele>242</ele>
        <time>2018-06-15T10:00:48Z</time>
      </trkpt>
      <trkpt lat="45.98374" lon="4.79063">
        <ele>242</ele>
        <time>2018-06-15T10:00:49Z</time>
      </trkpt>
      <trkpt lat="45.9837" lon="4.79056">
        <ele>242</ele>
        <time>2018-06-15T10:00:50Z</time>
      </trkpt>
      <trkpt lat="45.98366" lon="4.79049">
        <ele>242</ele>
        <time>2018-06-15T10:00:51Z</time>
      </trkpt>
      <trkpt lat="45.98361" lon="4.79042">
        <ele>242</ele>
        <time>2018-06-15T10:00:52Z</time>
      </trkpt>
      <trkpt lat="45.98356" lon="4.79036">
        <ele>242</ele>
        <time>2018-06-15T10:00:53Z</time>
      </trkpt>
      <trkpt lat="45.98352" lon="4.7903">
        <ele>242</ele>
        <time>2018-06-15T10:00:54Z</time>
      </trkpt>
      <trkpt lat="45.98347" lon="4.79025">
        <ele>242</ele>
        <time>2018-06-15T10:00:55Z</time>
      </trkpt>
      <trkpt lat="45.98342" lon="4.7902">
        <ele>242</ele>
        <time>2018-06-15T10:00:56Z</time>
      </trkpt>
      <trkpt lat="45.98336" lon="4.79015">
        <ele>242</ele>
        <time>2018-06-15T10:00:57Z</time>
      </trkpt>
      <trkpt lat="45.98332" lon="4.79011">
        <ele>242</ele>
        <time>2018-06-15T10:00:58Z</time>
      </trkpt>
      <trkpt lat="45.98326" lon="4.79008">
        <ele>242</ele>
        <time>2018-06-15T10:00:59Z</time>
      </trkpt>
      <trkpt lat="45.98321" lon="4.79004">
        <ele>242</ele>
        <time>2018-06-15T10:01:00Z</time>
      </trkpt>
      <trkpt lat="45.98315" lon="4.79001">
        <ele>242</ele>
        <time>2018-06-15T10:01:01Z</time>
      </trkpt>
      <trkpt lat="45.9831" lon="4.78999">
        <ele>241</ele>
        <time>2018-06-15T10:01:02Z</time>
      </trkpt>
      <trkpt lat="45.98305" lon="4.78995">
        <ele>241</ele>
        <time>2018-06-15T10:01:03Z</time>
      </trkpt>
      <trkpt lat="45.983" lon="4.78993">
        <ele>241</ele>
        <time>2018-06-15T10:01:04Z</time>
      </trkpt>
      <trkpt lat="45.98294" lon="4.7899">
        <ele>241</ele>
        <time>2018-06-15T10:01:05Z</time>
      </trkpt>
      <trkpt lat="45.98289" lon="4.78986">
        <ele>241</ele>
        <time>2018-06-15T10:01:06Z</time>
      </trkpt>
      <trkpt lat="45.98283" lon="4.78982">
        <ele>241</ele>
        <time>2018-06-15T10:01:07Z</time>
      </trkpt>
      <trkpt lat="45.98277" lon="4.78979">
        <ele>241</ele>
        <time>2018-06-15T10:01:08Z</time>
      </trkpt>
      <trkpt lat="45.98272" lon="4.78975">
        <ele>241</ele>
        <time>2018-06-15T10:01:09Z</time>
      </trkpt>
      <trkpt lat="45.98266" lon="4.7897">
        <ele>241</ele>
        <time>2018-06-15T10:01:10Z</time>
      </trkpt>
      <trkpt lat="45.98259" lon="4.78968">
        <ele>241</ele>
        <time>2018-06-15T10:01:11Z</time>
      </trkpt>
      <trkpt lat="45.98254" lon="4.78965">
        <ele>241</ele>
        <time>2018-06-15T10:01:12Z</time>
      </trkpt>
      <trkpt lat="45.98247" lon="4.78961">
        <ele>241</ele>
        <time>2018-06-15T10:01:13Z</time>
      </trkpt>
      <trkpt lat="45.98242" lon="4.78958">
        <ele>241</ele>
        <time>2018-06-15T10:01:14Z</time>
      </trkpt>
      <trkpt lat="45.98236" lon="4.78954">
        <ele>241</ele>
        <time>2018-06-15T10:01:15Z</time>
      </trkpt>
      <trkpt lat="45.98231" lon="4.7895">
        <ele>241</ele>
        <time>2018-06-15T10:01:16Z</time>
      </trkpt>
      <trkpt lat="45.98224" lon="4.78947">
        <ele>241</ele>
        <time>2018-06-15T10:01:17Z</time>
      </trkpt>
      <trkpt lat="45.98219" lon="4.78944">
        <ele>241</ele>
        <time>2018-06-15T10:01:18Z</time>
      </trkpt>
      <trkpt lat="45.98214" lon="4.7894">
        <ele>241</ele>
        <time>2018-06-15T10:01:19Z</time>
      </trkpt>
      <trkpt lat="45.9821" lon="4.78938">
        <ele>241</ele>
        <time>2018-06-15T10:01:20Z</time>
      </trkpt>
      <trkpt lat="45.98204" lon="4.78934">
        <ele>241</ele>
        <time>2018-06-15T10:01:21Z</time>
      </trkpt>
      <trkpt lat="45.98199" lon="4.78931">
        <ele>241</ele>
        <time>2018-06-15T10:01:22Z</time>
      </trkpt>
      <trkpt lat="45.98195" lon="4.78927">
        <ele>241</ele>
        <time>2018-06-15T10:01:23Z</time>
      </trkpt>
      <trkpt lat="45.98189" lon="4.78924">
        <ele>241</ele>
        <time>2018-06-15T10:01:24Z</time>
      </trkpt>
      <trkpt lat="45.98184" lon="4.7892">
        <ele>240</ele>
        <time>2018-06-15T10:01:25Z</time>
      </trkpt>
      <trkpt lat="45.98179" lon="4.78916">
        <ele>240</ele>
        <time>2018-06-15T10:01:26Z</time>
      </trkpt>
      <trkpt lat="45.98173" lon="4.78913">
        <ele>240</ele>
        <time>2018-06-15T10:01:27Z</time>
      </trkpt>
      <trkpt lat="45.98168" lon="4.78911">
        <ele>240</ele>
        <time>2018-06-15T10:01:28Z</time>
      </trkpt>
      <trkpt lat="45.98163" lon="4.78908">
        <ele>240</ele>
        <time>2018-06-15T10:01:29Z</time>
      </trkpt>
      <trkpt lat="45.98157" lon="4.78905">
        <ele>240</ele>
        <time>2018-06-15T10:01:30Z</time>
      </trkpt>
      <trkpt lat="45.98152" lon="4.78902">
        <ele>240</ele>
        <time>2018-06-15T10:01:31Z</time>
      </trkpt>
      <trkpt lat="45.98147" lon="4.789">
        <ele>240</ele>
        <time>2018-06-15T10:01:32Z</time>
      </trkpt>
      <trkpt lat="45.9814" lon="4.78897">
        <ele>240</ele>
        <time>2018-06-15T10:01:33Z</time>
      </trkpt>
      <trkpt lat="45.98135" lon="4.78894">
        <ele>240</ele>
        <time>2018-06-15T10:01:34Z</time>
      </trkpt>
      <trkpt lat="45.9813" lon="4.78892">
        <ele>240</ele>
        <time>2018-06-15T10:01:35Z</time>
      </trkpt>
      <trkpt lat="45.98124" lon="4.78889">
        <ele>240</ele>
        <time>2018-06-15T10:01:36Z</time>
      </trkpt>
      <trkpt lat="45.9812" lon="4.78886">
        <ele>240</ele>
        <time>2018-06-15T10:01:37Z</time>
      </trkpt>
      <trkpt lat="45.98115" lon="4.78882">
        <ele>240</ele>
        <time>2018-06-15T10:01:38Z</time>
      </trkpt>
      <trkpt lat="45.98109" lon="4.7888">
        <ele>240</ele>
        <time>2018-06-15T10:01:39Z</time>
      </trkpt>
      <trkpt lat="45.98103" lon="4.78877">
        <ele>240</ele>
        <time>2018-06-15T10:01:40Z</time>
      </trkpt>
      <trkpt lat="45.98099" lon="4.78875">
        <ele>239</ele>
        <time>2018-06-15T10:01:41Z</time>
      </trkpt>
      <trkpt lat="45.98094" lon="4.78871">
        <ele>239</ele>
        <time>2018-06-15T10:01:42Z</time>
      </trkpt>
      <trkpt lat="45.98089" lon="4.78866">
        <ele>239</ele>
        <time>2018-06-15T10:01:43Z</time>
      </trkpt>
      <trkpt lat="45.98085" lon="4.78861">
        <ele>239</ele>
        <time>2018-06-15T10:01:44Z</time>
      </trkpt>
      <trkpt lat="45.98078" lon="4.78857">
        <ele>239</ele>
        <time>2018-06-15T10:01:45Z</time>
      </trkpt>
      <trkpt lat="45.98073" lon="4.78853">
        <ele>239</ele>
        <time>2018-06-15T10:01:46Z</time>
      </trkpt>
      <trkpt lat="45.98066" lon="4.78849">
        <ele>239</ele>
        <time>2018-06-15T10:01:47Z</time>
      </trkpt>
      <trkpt lat="45.9806" lon="4.78846">
        <ele>239</ele>
        <time>2018-06-15T10:01:48Z</time>
      </trkpt>
      <trkpt lat="45.98054" lon="4.78842">
        <ele>239</ele>
        <time>2018-06-15T10:01:49Z</time>
      </trkpt>
      <trkpt lat="45.98048" lon="4.78839">
        <ele>238</ele>
        <time>2018-06-15T10:01:50Z</time>
      </trkpt>
      <trkpt lat="45.98043" lon="4.78835">
        <ele>238</ele>
        <time>2018-06-15T10:01:51Z</time>
      </trkpt>
      <trkpt lat="45.98037" lon="4.7883">
        <ele>238</ele>
        <time>2018-06-15T10:01:52Z</time>
      </trkpt>
      <trkpt lat="45.98031" lon="4.78826">
        <ele>238</ele>
        <time>2018-06-15T10:01:53Z</time>
      </trkpt>
      <trkpt lat="45.98026" lon="4.78822">
        <ele>238</ele>
        <time>2018-06-15T10:01:54Z</time>
      </trkpt>
      <trkpt lat="45.9802" lon="4.78818">
        <ele>238</ele>
        <time>2018-06-15T10:01:55Z</time>
      </trkpt>
      <trkpt lat="45.98014" lon="4.78814">
        <ele>238</ele>
        <time>2018-06-15T10:01:56Z</time>
      </trkpt>
      <trkpt lat="45.98008" lon="4.7881">
        <ele>238</ele>
        <time>2018-06-15T10:01:57Z</time>
      </trkpt>
      <trkpt lat="45.98002" lon="4.78806">
        <ele>238</ele>
        <time>2018-06-15T10:01:58Z</time>
      </trkpt>
      <trkpt lat="45.97996" lon="4.78802">
        <ele>238</ele>
        <time>2018-06-15T10:01:59Z</time>
      </trkpt>
      <trkpt lat="45.9799" lon="4.78798">
        <ele>238</ele>
        <time>2018-06-15T10:02:00Z</time>
      </trkpt>
      <trkpt lat="45.97984" lon="4.78794">
        <ele>238</ele>
        <time>2018-06-15T10:02:01Z</time>
      </trkpt>
      <trkpt lat="45.97978" lon="4.7879">
        <ele>238</ele>
        <time>2018-06-15T10:02:02Z</time>
      </trkpt>
      <trkpt lat="45.97973" lon="4.78786">
        <ele>238</ele>
        <time>2018-06-15T10:02:03Z</time>
      </trkpt>
      <trkpt lat="45.97967" lon="4.78782">
        <ele>238</ele>
        <time>2018-06-15T10:02:04Z</time>
      </trkpt>
      <trkpt lat="45.97961" lon="4.78777">
        <ele>238</ele>
        <time>2018-06-15T10:02:05Z</time>
      </trkpt>
      <trkpt lat="45.97956" lon="4.78773">
        <ele>238</ele>
        <time>2018-06-15T10:02:06Z</time>
      </trkpt>
      <trkpt lat="45.97951" lon="4.78768">
        <ele>238</ele>
        <time>2018-06-15T10:02:07Z</time>
      </trkpt>
      <trkpt lat="45.97946" lon="4.78765">
        <ele>238</ele>
        <time>2018-06-15T10:02:08Z</time>
      </trkpt>
      <trkpt lat="45.9794" lon="4.78761">
        <ele>238</ele>
        <time>2018-06-15T10:02:09Z</time>
      </trkpt>
      <trkpt lat="45.97935" lon="4.78757">
        <ele>238</ele>
        <time>2018-06-15T10:02:10Z</time>
      </trkpt>
      <trkpt lat="45.9793" lon="4.78752">
        <ele>237</ele>
        <time>2018-06-15T10:02:11Z</time>
      </trkpt>
      <trkpt lat="45.97924" lon="4.78748">
        <ele>237</ele>
        <time>2018-06-15T10:02:12Z</time>
      </trkpt>
      <trkpt lat="45.97918" lon="4.78744">
        <ele>237</ele>
        <time>2018-06-15T10:02:13Z</time>
      </trkpt>
      <trkpt lat="45.97912" lon="4.7874">
        <ele>237</ele>
        <time>2018-06-15T10:02:14Z</time>
      </trkpt>
      <trkpt lat="45.97906" lon="4.78737">
        <ele>237</ele>
        <time>2018-06-15T10:02:15Z</time>
      </trkpt>
      <trkpt lat="45.97899" lon="4.78732">
        <ele>237</ele>
        <time>2018-06-15T10:02:16Z</time>
      </trkpt>
      <trkpt lat="45.97892" lon="4.78727">
        <ele>236</ele>
        <time>2018-06-15T10:02:17Z</time>
      </trkpt>
      <trkpt lat="45.97886" lon="4.78723">
        <ele>236</ele>
        <time>2018-06-15T10:02:18Z</time>
      </trkpt>
      <trkpt lat="45.97879" lon="4.78718">
        <ele>236</ele>
        <time>2018-06-15T10:02:19Z</time>
      </trkpt>
      <trkpt lat="45.97872" lon="4.78715">
        <ele>236</ele>
        <time>2018-06-15T10:02:20Z</time>
      </trkpt>
      <trkpt lat="45.97866" lon="4.7871">
        <ele>236</ele>
        <time>2018-06-15T10:02:21Z</time>
      </trkpt>
      <trkpt lat="45.9786" lon="4.78706">
        <ele>236</ele>
        <time>2018-06-15T10:02:22Z</time>
      </trkpt>
      <trkpt lat="45.97854" lon="4.78701">
        <ele>236</ele>
        <time>2018-06-15T10:02:23Z</time>
      </trkpt>
      <trkpt lat="45.97848" lon="4.78697">
        <ele>236</ele>
        <time>2018-06-15T10:02:24Z</time>
      </trkpt>
      <trkpt lat="45.97842" lon="4.78694">
        <ele>236</ele>
        <time>2018-06-15T10:02:25Z</time>
      </trkpt>
      <trkpt lat="45.97836" lon="4.78691">
        <ele>236</ele>
        <time>2018-06-15T10:02:26Z</time>
      </trkpt>
      <trkpt lat="45.9783" lon="4.78688">
        <ele>235</ele>
        <time>2018-06-15T10:02:27Z</time>
      </trkpt>
      <trkpt lat="45.97824" lon="4.78685">
        <ele>235</ele>
        <time>2018-06-15T10:02:28Z</time>
      </trkpt>
      <trkpt lat="45.97818" lon="4.78683">
        <ele>235</ele>
        <time>2018-06-15T10:02:29Z</time>
      </trkpt>
      <trkpt lat="45.97812" lon="4.78679">
        <ele>235</ele>
        <time>2018-06-15T10:02:30Z</time>
      </trkpt>
      <trkpt lat="45.97806" lon="4.78677">
        <ele>235</ele>
        <time>2018-06-15T10:02:31Z</time>
      </trkpt>
      <trkpt lat="45.978" lon="4.78675">
        <ele>235</ele>
        <time>2018-06-15T10:02:32Z</time>
      </trkpt>
      <trkpt lat="45.97794" lon="4.78672">
        <ele>235</ele>
        <time>2018-06-15T10:02:33Z</time>
      </trkpt>
      <trkpt lat="45.97787" lon="4.78669">
        <ele>235</ele>
        <time>2018-06-15T10:02:34Z</time>
      </trkpt>
      <trkpt lat="45.9778" lon="4.78666">
        <ele>235</ele>
        <time>2018-06-15T10:02:35Z</time>
      </trkpt>
      <trkpt lat="45.97774" lon="4.78663">
        <ele>235</ele>
        <time>2018-06-15T10:02:36Z</time>
      </trkpt>
      <trkpt lat="45.97767" lon="4.78659">
        <ele>235</ele>
        <time>2018-06-15T10:02:37Z</time>
      </trkpt>
      <trkpt lat="45.97761" lon="4.78657">
        <ele>235</ele>
        <time>2018-06-15T10:02:38Z</time>
      </trkpt>
      <trkpt lat="45.97755" lon="4.78654">
        <ele>235</ele>
        <time>2018-06-15T10:02:39Z</time>
      </trkpt>
      <trkpt lat="45.97749" lon="4.78653">
        <ele>234</ele>
        <time>2018-06-15T10:02:40Z</time>
      </trkpt>
      <trkpt lat="45.97742" lon="4.7865">
        <ele>234</ele>
        <time>2018-06-15T10:02:41Z</time>
      </trkpt>
      <trkpt lat="45.97737" lon="4.78647">
        <ele>234</ele>
        <time>2018-06-15T10:02:42Z</time>
      </trkpt>
      <trkpt lat="45.97731" lon="4.78645">
        <ele>234</ele>
        <time>2018-06-15T10:02:43Z</time>
      </trkpt>
      <trkpt lat="45.97726" lon="4.78643">
        <ele>234</ele>
        <time>2018-06-15T10:02:44Z</time>
      </trkpt>
      <trkpt lat="45.97721" lon="4.78642">
        <ele>234</ele>
        <time>2018-06-15T10:02:45Z</time>
      </trkpt>
      <trkpt lat="45.97715" lon="4.78639">
        <ele>234</ele>
        <time>2018-06-15T10:02:46Z</time>
      </trkpt>
      <trkpt lat="45.9771" lon="4.78637">
        <ele>234</ele>
        <time>2018-06-15T10:02:47Z</time>
      </trkpt>
      <trkpt lat="45.97704" lon="4.78634">
        <ele>234</ele>
        <time>2018-06-15T10:02:48Z</time>
      </trkpt>
      <trkpt lat="45.97699" lon="4.78632">
        <ele>234</ele>
        <time>2018-06-15T10:02:49Z</time>
      </trkpt>
      <trkpt lat="45.97694" lon="4.78628">
        <ele>234</ele>
        <time>2018-06-15T10:02:50Z</time>
      </trkpt>
      <trkpt lat="45.97688" lon="4.78626">
        <ele>234</ele>
        <time>2018-06-15T10:02:51Z</time>
      </trkpt>
      <trkpt lat="45.97682" lon="4.78624">
        <ele>234</ele>
        <time>2018-06-15T10:02:52Z</time>
      </trkpt>
      <trkpt lat="45.97676" lon="4.78622">
        <ele>234</ele>
        <time>2018-06-15T10:02:53Z</time>
      </trkpt>
      <trkpt lat="45.9767" lon="4.78619">
        <ele>234</ele>
        <time>2018-06-15T10:02:54Z</time>
      </trkpt>
      <trkpt lat="45.97664" lon="4.78616">
        <ele>233</ele>
        <time>2018-06-15T10:02:55Z</time>
      </trkpt>
      <trkpt lat="45.97658" lon="4.78614">
        <ele>233</ele>
        <time>2018-06-15T10:02:56Z</time>
      </trkpt>
      <trkpt lat="45.97652" lon="4.78611">
        <ele>233</ele>
        <time>2018-06-15T10:02:57Z</time>
      </trkpt>
      <trkpt lat="45.97645" lon="4.78608">
        <ele>233</ele>
        <time>2018-06-15T10:02:58Z</time>
      </trkpt>
      <trkpt lat="45.97639" lon="4.78605">
        <ele>233</ele>
        <time>2018-06-15T10:02:59Z</time>
      </trkpt>
      <trkpt lat="45.97632" lon="4.78602">
        <ele>233</ele>
        <time>2018-06-15T10:03:00Z</time>
      </trkpt>
      <trkpt lat="45.97626" lon="4.786">
        <ele>233</ele>
        <time>2018-06-15T10:03:01Z</time>
      </trkpt>
      <trkpt lat="45.97621" lon="4.78597">
        <ele>233</ele>
        <time>2018-06-15T10:03:02Z</time>
      </trkpt>
      <trkpt lat="45.97614" lon="4.78595">
        <ele>233</ele>
        <time>2018-06-15T10:03:03Z</time>
      </trkpt>
      <trkpt lat="45.97609" lon="4.78593">
        <ele>233</ele>
        <time>2018-06-15T10:03:04Z</time>
      </trkpt>
      <trkpt lat="45.97603" lon="4.7859">
        <ele>233</ele>
        <time>2018-06-15T10:03:05Z</time>
      </trkpt>
      <trkpt lat="45.97597" lon="4.78588">
        <ele>233</ele>
        <time>2018-06-15T10:03:06Z</time>
      </trkpt>
      <trkpt lat="45.97592" lon="4.78586">
        <ele>233</ele>
        <time>2018-06-15T10:03:07Z</time>
      </trkpt>
      <trkpt lat="45.97586" lon="4.78584">
        <ele>233</ele>
        <time>2018-06-15T10:03:08Z</time>
      </trkpt>
      <trkpt lat="45.97581" lon="4.78581">
        <ele>233</ele>
        <time>2018-06-15T10:03:09Z</time>
      </trkpt>
      <trkpt lat="45.97576" lon="4.78579">
        <ele>233</ele>
        <time>2018-06-15T10:03:10Z</time>
      </trkpt>
      <trkpt lat="45.97571" lon="4.78578">
        <ele>233</ele>
        <time>2018-06-15T10:03:11Z</time>
      </trkpt>
      <trkpt lat="45.97565" lon="4.78578">
        <ele>233</ele>
        <time>2018-06-15T10:03:12Z</time>
      </trkpt>
      <trkpt lat="45.97559" lon="4.78576">
        <ele>233</ele>
        <time>2018-06-15T10:03:13Z</time>
      </trkpt>
      <trkpt lat="45.97553" lon="4.78572">
        <ele>233</ele>
        <time>2018-06-15T10:03:14Z</time>
      </trkpt>
      <trkpt lat="45.97547" lon="4.78569">
        <ele>234</ele>
        <time>2018-06-15T10:03:15Z</time>
      </trkpt>
      <trkpt lat="45.97541" lon="4.78566">
        <ele>234</ele>
        <time>2018-06-15T10:03:16Z</time>
      </trkpt>
      <trkpt lat="45.97535" lon="4.78562">
        <ele>234</ele>
        <time>2018-06-15T10:03:17Z</time>
      </trkpt>
      <trkpt lat="45.97528" lon="4.78559">
        <ele>234</ele>
        <time>2018-06-15T10:03:18Z</time>
      </trkpt>
      <trkpt lat="45.97523" lon="4.78556">
        <ele>234</ele>
        <time>2018-06-15T10:03:19Z</time>
      </trkpt>
      <trkpt lat="45.97517" lon="4.78552">
        <ele>234</ele>
        <time>2018-06-15T10:03:20Z</time>
      </trkpt>
      <trkpt lat="45.97511" lon="4.78548">
        <ele>234</ele>
        <time>2018-06-15T10:03:21Z</time>
      </trkpt>
      <trkpt lat="45.97505" lon="4.78545">
        <ele>234</ele>
        <time>2018-06-15T10:03:22Z</time>
      </trkpt>
      <trkpt lat="45.975" lon="4.78541">
        <ele>233</ele>
        <time>2018-06-15T10:03:23Z</time>
      </trkpt>
      <trkpt lat="45.97495" lon="4.78538">
        <ele>233</ele>
        <time>2018-06-15T10:03:24Z</time>
      </trkpt>
      <trkpt lat="45.9749" lon="4.78535">
        <ele>233</ele>
        <time>2018-06-15T10:03:25Z</time>
      </trkpt>
      <trkpt lat="45.97485" lon="4.7853">
        <ele>233</ele>
        <time>2018-06-15T10:03:26Z</time>
      </trkpt>
      <trkpt lat="45.97479" lon="4.78526">
        <ele>233</ele>
        <time>2018-06-15T10:03:27Z</time>
      </trkpt>
      <trkpt lat="45.97474" lon="4.78522">
        <ele>233</ele>
        <time>2018-06-15T10:03:28Z</time>
      </trkpt>
      <trkpt lat="45.97469" lon="4.78517">
        <ele>233</ele>
        <time>2018-06-15T10:03:29Z</time>
      </trkpt>
      <trkpt lat="45.97463" lon="4.78512">
        <ele>233</ele>
        <time>2018-06-15T10:03:30Z</time>
      </trkpt>
      <trkpt lat="45.97457" lon="4.78507">
        <ele>234</ele>
        <time>2018-06-15T10:03:31Z</time>
      </trkpt>
      <trkpt lat="45.97451" lon="4.78502">
        <ele>234</ele>
        <time>2018-06-15T10:03:32Z</time>
      </trkpt>
      <trkpt lat="45.97446" lon="4.78496">
        <ele>234</ele>
        <time>2018-06-15T10:03:33Z</time>
      </trkpt>
      <trkpt lat="45.9744" lon="4.78491">
        <ele>234</ele>
        <time>2018-06-15T10:03:34Z</time>
      </trkpt>
      <trkpt lat="45.97434" lon="4.78486">
        <ele>234</ele>
        <time>2018-06-15T10:03:35Z</time>
      </trkpt>
      <trkpt lat="45.97428" lon="4.7848">
        <ele>234</ele>
        <time>2018-06-15T10:03:36Z</time>
      </trkpt>
      <trkpt lat="45.97422" lon="4.78475">
        <ele>234</ele>
        <time>2018-06-15T10:03:37Z</time>
      </trkpt>
      <trkpt lat="45.97417" lon="4.78471">
        <ele>234</ele>
        <time>2018-06-15T10:03:38Z</time>
      </trkpt>
      <trkpt lat="45.97412" lon="4.78466">
        <ele>233</ele>
        <time>2018-06-15T10:03:39Z</time>
      </trkpt>
      <trkpt lat="45.97406" lon="4.7846">
        <ele>233</ele>
        <time>2018-06-15T10:03:40Z</time>
      </trkpt>
      <trkpt lat="45.97402" lon="4.78456">
        <ele>233</ele>
        <time>2018-06-15T10:03:41Z</time>
      </trkpt>
      <trkpt lat="45.97396" lon="4.78451">
        <ele>233</ele>
        <time>2018-06-15T10:03:42Z</time>
      </trkpt>
      <trkpt lat="45.97391" lon="4.78446">
        <ele>233</ele>
        <time>2018-06-15T10:03:43Z</time>
      </trkpt>
      <trkpt lat="45.97386" lon="4.78442">
        <ele>233</ele>
        <time>2018-06-15T10:03:44Z</time>
      </trkpt>
      <trkpt lat="45.97381" lon="4.78436">
        <ele>233</ele>
        <time>2018-06-15T10:03:45Z</time>
      </trkpt>
      <trkpt lat="45.97377" lon="4.78431">
        <ele>233</ele>
        <time>2018-06-15T10:03:46Z</time>
      </trkpt>
      <trkpt lat="45.97372" lon="4.78427">
        <ele>233</ele>
        <time>2018-06-15T10:03:47Z</time>
      </trkpt>
      <trkpt lat="45.97368" lon="4.78422">
        <ele>233</ele>
        <time>2018-06-15T10:03:48Z</time>
      </trkpt>
      <trkpt lat="45.97362" lon="4.78418">
        <ele>233</ele>
        <time>2018-06-15T10:03:49Z</time>
      </trkpt>
      <trkpt lat="45.97357" lon="4.78413">
        <ele>232</ele>
        <time>2018-06-15T10:03:50Z</time>
      </trkpt>
      <trkpt lat="45.97352" lon="4.78408">
        <ele>232</ele>
        <time>2018-06-15T10:03:51Z</time>
      </trkpt>
      <trkpt lat="45.97347" lon="4.78403">
        <ele>232</ele>
        <time>2018-06-15T10:03:52Z</time>
      </trkpt>
      <trkpt lat="45.97343" lon="4.78398">
        <ele>232</ele>
        <time>2018-06-15T10:03:53Z</time>
      </trkpt>
      <trkpt lat="45.97338" lon="4.78392">
        <ele>232</ele>
        <time>2018-06-15T10:03:54Z</time>
      </trkpt>
      <trkpt lat="45.97335" lon="4.78386">
        <ele>233</ele>
        <time>2018-06-15T10:03:55Z</time>
      </trkpt>
      <trkpt lat="45.97329" lon="4.78381">
        <ele>232</ele>
        <time>2018-06-15T10:03:56Z</time>
      </trkpt>
      <trkpt lat="45.97324" lon="4.78375">
        <ele>232</ele>
        <time>2018-06-15T10:03:57Z</time>
      </trkpt>
      <trkpt lat="45.97319" lon="4.78369">
        <ele>232</ele>
        <time>2018-06-15T10:03:58Z</time>
      </trkpt>
      <trkpt lat="45.97314" lon="4.78363">
        <ele>232</ele>
        <time>2018-06-15T10:03:59Z</time>
      </trkpt>
      <trkpt lat="45.97309" lon="4.78356">
        <ele>232</ele>
        <time>2018-06-15T10:04:00Z</time>
      </trkpt>
      <trkpt lat="45.97305" lon="4.78349">
        <ele>232</ele>
        <time>2018-06-15T10:04:01Z</time>
      </trkpt>
      <trkpt lat="45.97299" lon="4.78343">
        <ele>232</ele>
        <time>2018-06-15T10:04:02Z</time>
      </trkpt>
      <trkpt lat="45.97295" lon="4.78336">
        <ele>232</ele>
        <time>2018-06-15T10:04:03Z</time>
      </trkpt>
      <trkpt lat="45.97291" lon="4.7833">
        <ele>232</ele>
        <time>2018-06-15T10:04:04Z</time>
      </trkpt>
      <trkpt lat="45.97287" lon="4.78324">
        <ele>232</ele>
        <time>2018-06-15T10:04:05Z</time>
      </trkpt>
      <trkpt lat="45.97283" lon="4.78317">
        <ele>232</ele>
        <time>2018-06-15T10:04:06Z</time>
      </trkpt>
      <trkpt lat="45.97278" lon="4.78312">
        <ele>232</ele>
        <time>2018-06-15T10:04:07Z</time>
      </trkpt>
      <trkpt lat="45.97274" lon="4.78306">
        <ele>232</ele>
        <time>2018-06-15T10:04:08Z</time>
      </trkpt>
      <trkpt lat="45.9727" lon="4.783">
        <ele>232</ele>
        <time>2018-06-15T10:04:09Z</time>
      </trkpt>
      <trkpt lat="45.97266" lon="4.78294">
        <ele>232</ele>
        <time>2018-06-15T10:04:10Z</time>
      </trkpt>
      <trkpt lat="45.97262" lon="4.7829">
        <ele>232</ele>
        <time>2018-06-15T10:04:11Z</time>
      </trkpt>
      <trkpt lat="45.97258" lon="4.78284">
        <ele>232</ele>
        <time>2018-06-15T10:04:12Z</time>
      </trkpt>
      <trkpt lat="45.97254" lon="4.78278">
        <ele>232</ele>
        <time>2018-06-15T10:04:13Z</time>
      </trkpt>
      <trkpt lat="45.97251" lon="4.78272">
        <ele>232</ele>
        <time>2018-06-15T10:04:14Z</time>
      </trkpt>
      <trkpt lat="45.97247" lon="4.78266">
        <ele>231</ele>
        <time>2018-06-15T10:04:15Z</time>
      </trkpt>
      <trkpt lat="45.97244" lon="4.78259">
        <ele>231</ele>
        <time>2018-06-15T10:04:16Z</time>
      </trkpt>
      <trkpt lat="45.97239" lon="4.78253">
        <ele>231</ele>
        <time>2018-06-15T10:04:17Z</time>
      </trkpt>
      <trkpt lat="45.97236" lon="4.78247">
        <ele>231</ele>
        <time>2018-06-15T10:04:18Z</time>
      </trkpt>
      <trkpt lat="45.97232" lon="4.7824">
        <ele>231</ele>
        <time>2018-06-15T10:04:19Z</time>
      </trkpt>
      <trkpt lat="45.97227" lon="4.78233">
        <ele>231</ele>
        <time>2018-06-15T10:04:20Z</time>
      </trkpt>
      <trkpt lat="45.97223" lon="4.78225">
        <ele>231</ele>
        <time>2018-06-15T10:04:21Z</time>
      </trkpt>
      <trkpt lat="45.97219" lon="4.78219">
        <ele>231</ele>
        <time>2018-06-15T10:04:22Z</time>
      </trkpt>
      <trkpt lat="45.97215" lon="4.78211">
        <ele>231</ele>
        <time>2018-06-15T10:04:23Z</time>
      </trkpt>
      <trkpt lat="45.97211" lon="4.78203">
        <ele>231</ele>
        <time>2018-06-15T10:04:24Z</time>
      </trkpt>
      <trkpt lat="45.97206" lon="4.78195">
        <ele>231</ele>
        <time>2018-06-15T10:04:25Z</time>
      </trkpt>
      <trkpt lat="45.97202" lon="4.78188">
        <ele>231</ele>
        <time>2018-06-15T10:04:26Z</time>
      </trkpt>
      <trkpt lat="45.97197" lon="4.78181">
        <ele>231</ele>
        <time>2018-06-15T10:04:27Z</time>
      </trkpt>
      <trkpt lat="45.97192" lon="4.78174">
        <ele>231</ele>
        <time>2018-06-15T10:04:28Z</time>
      </trkpt>
      <trkpt lat="45.97187" lon="4.78166">
        <ele>231</ele>
        <time>2018-06-15T10:04:29Z</time>
      </trkpt>
      <trkpt lat="45.97183" lon="4.78158">
        <ele>231</ele>
        <time>2018-06-15T10:04:30Z</time>
      </trkpt>
      <trkpt lat="45.97179" lon="4.78151">
        <ele>231</ele>
        <time>2018-06-15T10:04:31Z</time>
      </trkpt>
      <trkpt lat="45.97175" lon="4.78144">
        <ele>231</ele>
        <time>2018-06-15T10:04:32Z</time>
      </trkpt>
      <trkpt lat="45.97171" lon="4.78137">
        <ele>231</ele>
        <time>2018-06-15T10:04:33Z</time>
      </trkpt>
      <trkpt lat="45.97167" lon="4.78129">
        <ele>231</ele>
        <time>2018-06-15T10:04:34Z</time>
      </trkpt>
      <trkpt lat="45.97164" lon="4.78123">
        <ele>230</ele>
        <time>2018-06-15T10:04:35Z</time>
      </trkpt>
      <trkpt lat="45.97161" lon="4.78115">
        <ele>230</ele>
        <time>2018-06-15T10:04:36Z</time>
      </trkpt>
      <trkpt lat="45.97158" lon="4.78109">
        <ele>230</ele>
        <time>2018-06-15T10:04:37Z</time>
      </trkpt>
      <trkpt lat="45.97155" lon="4.78102">
        <ele>230</ele>
        <time>2018-06-15T10:04:38Z</time>
      </trkpt>
      <trkpt lat="45.97151" lon="4.78095">
        <ele>230</ele>
        <time>2018-06-15T10:04:39Z</time>
      </trkpt>
      <trkpt lat="45.97148" lon="4.78088">
        <ele>230</ele>
        <time>2018-06-15T10:04:40Z</time>
      </trkpt>
      <trkpt lat="45.97144" lon="4.78081">
        <ele>230</ele>
        <time>2018-06-15T10:04:41Z</time>
      </trkpt>
      <trkpt lat="45.97139" lon="4.78074">
        <ele>230</ele>
        <time>2018-06-15T10:04:42Z</time>
      </trkpt>
      <trkpt lat="45.97135" lon="4.78068">
        <ele>230</ele>
        <time>2018-06-15T10:04:43Z</time>
      </trkpt>
      <trkpt lat="45.9713" lon="4.78063">
        <ele>230</ele>
        <time>2018-06-15T10:04:44Z</time>
      </trkpt>
      <trkpt lat="45.97125" lon="4.78057">
        <ele>230</ele>
        <time>2018-06-15T10:04:45Z</time>
      </trkpt>
      <trkpt lat="45.9712" lon="4.78051">
        <ele>229</ele>
        <time>2018-06-15T10:04:46Z</time>
      </trkpt>
      <trkpt lat="45.97115" lon="4.78047">
        <ele>229</ele>
        <time>2018-06-15T10:04:47Z</time>
      </trkpt>
      <trkpt lat="45.9711" lon="4.78042">
        <ele>229</ele>
        <time>2018-06-15T10:04:48Z</time>
      </trkpt>
      <trkpt lat="45.97105" lon="4.78038">
        <ele>229</ele>
        <time>2018-06-15T10:04:49Z</time>
      </trkpt>
      <trkpt lat="45.971" lon="4.78033">
        <ele>229</ele>
        <time>2018-06-15T10:04:50Z</time>
      </trkpt>
      <trkpt lat="45.97095" lon="4.78028">
        <ele>229</ele>
        <time>2018-06-15T10:04:51Z</time>
      </trkpt>
      <trkpt lat="45.9709" lon="4.78024">
        <ele>229</ele>
        <time>2018-06-15T10:04:52Z</time>
      </trkpt>
      <trkpt lat="45.97086" lon="4.78019">
        <ele>229</ele>
        <time>2018-06-15T10:04:53Z</time>
      </trkpt>
      <trkpt lat="45.97081" lon="4.78014">
        <ele>229</ele>
        <time>2018-06-15T10:04:54Z</time>
      </trkpt>
      <trkpt lat="45.97076" lon="4.7801">
        <ele>229</ele>
        <time>2018-06-15T10:04:55Z</time>
      </trkpt>
      <trkpt lat="45.97071" lon="4.78006">
        <ele>229</ele>
        <time>2018-06-15T10:04:56Z</time>
      </trkpt>
      <trkpt lat="45.97066" lon="4.78">
        <ele>229</ele>
        <time>2018-06-15T10:04:57Z</time>
      </trkpt>
      <trkpt lat="45.9706" lon="4.77994">
        <ele>229</ele>
        <time>2018-06-15T10:04:58Z</time>
      </trkpt>
      <trkpt lat="45.97054" lon="4.77989">
        <ele>229</ele>
        <time>2018-06-15T10:04:59Z</time>
      </trkpt>
      <trkpt lat="45.97049" lon="4.77983">
        <ele>229</ele>
        <time>2018-06-15T10:05:00Z</time>
      </trkpt>
      <trkpt lat="45.97044" lon="4.77977">
        <ele>229</ele>
        <time>2018-06-15T10:05:01Z</time>
      </trkpt>
      <trkpt lat="45.97039" lon="4.77971">
        <ele>229</ele>
        <time>2018-06-15T10:05:02Z</time>
      </trkpt>
      <trkpt lat="45.97034" lon="4.77965">
        <ele>229</ele>
        <time>2018-06-15T10:05:03Z</time>
      </trkpt>
      <trkpt lat="45.97028" lon="4.7796">
        <ele>228</ele>
        <time>2018-06-15T10:05:04Z</time>
      </trkpt>
      <trkpt lat="45.97024" lon="4.77954">
        <ele>228</ele>
        <time>2018-06-15T10:05:05Z</time>
      </trkpt>
      <trkpt lat="45.97018" lon="4.77948">
        <ele>228</ele>
        <time>2018-06-15T10:05:06Z</time>
      </trkpt>
      <trkpt lat="45.97014" lon="4.77943">
        <ele>228</ele>
        <time>2018-06-15T10:05:07Z</time>
      </trkpt>
      <trkpt lat="45.9701" lon="4.77938">
        <ele>228</ele>
        <time>2018-06-15T10:05:08Z</time>
      </trkpt>
      <trkpt lat="45.97005" lon="4.77933">
        <ele>228</ele>
        <time>2018-06-15T10:05:09Z</time>
      </trkpt>
      <trkpt lat="45.97001" lon="4.77928">
        <ele>228</ele>
        <time>2018-06-15T10:05:10Z</time>
      </trkpt>
      <trkpt lat="45.96997" lon="4.77922">
        <ele>227</ele>
        <time>2018-06-15T10:05:11Z</time>
      </trkpt>
      <trkpt lat="45.96993" lon="4.77917">
        <ele>227</ele>
        <time>2018-06-15T10:05:12Z</time>
      </trkpt>
      <trkpt lat="45.96989" lon="4.77911">
        <ele>227</ele>
        <time>2018-06-15T10:05:13Z</time>
      </trkpt>
      <trkpt lat="45.96985" lon="4.77906">
        <ele>227</ele>
        <time>2018-06-15T10:05:14Z</time>
      </trkpt>
      <trkpt lat="45.96981" lon="4.779">
        <ele>227</ele>
        <time>2018-06-15T10:05:15Z</time>
      </trkpt>
      <trkpt lat="45.96976" lon="4.77895">
        <ele>228</ele>
        <time>2018-06-15T10:05:16Z</time>
      </trkpt>
      <trkpt lat="45.96971" lon="4.77889">
        <ele>228</ele>
        <time>2018-06-15T10:05:17Z</time>
      </trkpt>
      <trkpt lat="45.96967" lon="4.77884">
        <ele>228</ele>
        <time>2018-06-15T10:05:18Z</time>
      </trkpt>
      <trkpt lat="45.96962" lon="4.77877">
        <ele>228</ele>
        <time>2018-06-15T10:05:19Z</time>
      </trkpt>
      <trkpt lat="45.96957" lon="4.77871">
        <ele>228</ele>
        <time>2018-06-15T10:05:20Z</time>
      </trkpt>
      <trkpt lat="45.96952" lon="4.77865">
        <ele>228</ele>
        <time>2018-06-15T10:05:21Z</time>
      </trkpt>
      <trkpt lat="45.96947" lon="4.7786">
        <ele>228</ele>
        <time>2018-06-15T10:05:22Z</time>
      </trkpt>
      <trkpt lat="45.96942" lon="4.77854">
        <ele>228</ele>
        <time>2018-06-15T10:05:23Z</time>
      </trkpt>
      <trkpt lat="45.96938" lon="4.77849">
        <ele>228</ele>
        <time>2018-06-15T10:05:24Z</time>
      </trkpt>
      <trkpt lat="45.96933" lon="4.77843">
        <ele>228</ele>
        <time>2018-06-15T10:05:25Z</time>
      </trkpt>
      <trkpt lat="45.96927" lon="4.77837">
        <ele>228</ele>
        <time>2018-06-15T10:05:26Z</time>
      </trkpt>
      <trkpt lat="45.96922" lon="4.77831">
        <ele>228</ele>
        <time>2018-06-15T10:05:27Z</time>
      </trkpt>
      <trkpt lat="45.96916" lon="4.77826">
        <ele>228</ele>
        <time>2018-06-15T10:05:28Z</time>
      </trkpt>
      <trkpt lat="45.9691" lon="4.77819">
        <ele>228</ele>
        <time>2018-06-15T10:05:29Z</time>
      </trkpt>
      <trkpt lat="45.96904" lon="4.77813">
        <ele>228</ele>
        <time>2018-06-15T10:05:30Z</time>
      </trkpt>
      <trkpt lat="45.96898" lon="4.77807">
        <ele>228</ele>
        <time>2018-06-15T10:05:31Z</time>
      </trkpt>
      <trkpt lat="45.96893" lon="4.77801">
        <ele>228</ele>
        <time>2018-06-15T10:05:32Z</time>
      </trkpt>
      <trkpt lat="45.96887" lon="4.77796">
        <ele>228</ele>
        <time>2018-06-15T10:05:33Z</time>
      </trkpt>
      <trkpt lat="45.96882" lon="4.77789">
        <ele>228</ele>
        <time>2018-06-15T10:05:34Z</time>
      </trkpt>
      <trkpt lat="45.96876" lon="4.77783">
        <ele>228</ele>
        <time>2018-06-15T10:05:35Z</time>
      </trkpt>
      <trkpt lat="45.96871" lon="4.77778">
        <ele>228</ele>
        <time>2018-06-15T10:05:36Z</time>
      </trkpt>
      <trkpt lat="45.96867" lon="4.77773">
        <ele>228</ele>
        <time>2018-06-15T10:05:37Z</time>
      </trkpt>
      <trkpt lat="45.96861" lon="4.77767">
        <ele>228</ele>
        <time>2018-06-15T10:05:38Z</time>
      </trkpt>
      <trkpt lat="45.96856" lon="4.77761">
        <ele>228</ele>
        <time>2018-06-15T10:05:39Z</time>
      </trkpt>
      <trkpt lat="45.9685" lon="4.77755">
        <ele>228</ele>
        <time>2018-06-15T10:05:40Z</time>
      </trkpt>
      <trkpt lat="45.96845" lon="4.7775">
        <ele>228</ele>
        <time>2018-06-15T10:05:41Z</time>
      </trkpt>
      <trkpt lat="45.96839" lon="4.77745">
        <ele>228</ele>
        <time>2018-06-15T10:05:42Z</time>
      </trkpt>
      <trkpt lat="45.96834" lon="4.77739">
        <ele>228</ele>
        <time>2018-06-15T10:05:43Z</time>
      </trkpt>
      <trkpt lat="45.96828" lon="4.77733">
        <ele>228</ele>
        <time>2018-06-15T10:05:44Z</time>
      </trkpt>
      <trkpt lat="45.96822" lon="4.77727">
        <ele>228</ele>
        <time>2018-06-15T10:05:45Z</time>
      </trkpt>
      <trkpt lat="45.96818" lon="4.77721">
        <ele>228</ele>
        <time>2018-06-15T10:05:46Z</time>
      </trkpt>
      <trkpt lat="45.96813" lon="4.77715">
        <ele>228</ele>
        <time>2018-06-15T10:05:47Z</time>
      </trkpt>
      <trkpt lat="45.96807" lon="4.77709">
        <ele>228</ele>
        <time>2018-06-15T10:05:48Z</time>
      </trkpt>
      <trkpt lat="45.96802" lon="4.77703">
        <ele>228</ele>
        <time>2018-06-15T10:05:49Z</time>
      </trkpt>
      <trkpt lat="45.96796" lon="4.77698">
        <ele>228</ele>
        <time>2018-06-15T10:05:50Z</time>
      </trkpt>
      <trkpt lat="45.96791" lon="4.77692">
        <ele>227</ele>
        <time>2018-06-15T10:05:51Z</time>
      </trkpt>
      <trkpt lat="45.96787" lon="4.77687">
        <ele>227</ele>
        <time>2018-06-15T10:05:52Z</time>
      </trkpt>
      <trkpt lat="45.96781" lon="4.77682">
        <ele>227</ele>
        <time>2018-06-15T10:05:53Z</time>
      </trkpt>
      <trkpt lat="45.96776" lon="4.77676">
        <ele>227</ele>
        <time>2018-06-15T10:05:54Z</time>
      </trkpt>
      <trkpt lat="45.96771" lon="4.7767">
        <ele>227</ele>
        <time>2018-06-15T10:05:55Z</time>
      </trkpt>
      <trkpt lat="45.96765" lon="4.77663">
        <ele>227</ele>
        <time>2018-06-15T10:05:56Z</time>
      </trkpt>
      <trkpt lat="45.9676" lon="4.77657">
        <ele>227</ele>
        <time>2018-06-15T10:05:57Z</time>
      </trkpt>
      <trkpt lat="45.96755" lon="4.77651">
        <ele>227</ele>
        <time>2018-06-15T10:05:58Z</time>
      </trkpt>
      <trkpt lat="45.96751" lon="4.77645">
        <ele>227</ele>
        <time>2018-06-15T10:05:59Z</time>
      </trkpt>
      <trkpt lat="45.96746" lon="4.77639">
        <ele>227</ele>
        <time>2018-06-15T10:06:00Z</time>
      </trkpt>
      <trkpt lat="45.96741" lon="4.77633">
        <ele>227</ele>
        <time>2018-06-15T10:06:01Z</time>
      </trkpt>
      <trkpt lat="45.96736" lon="4.77626">
        <ele>226</ele>
        <time>2018-06-15T10:06:02Z</time>
      </trkpt>
      <trkpt lat="45.96731" lon="4.77621">
        <ele>226</ele>
        <time>2018-06-15T10:06:03Z</time>
      </trkpt>
      <trkpt lat="45.96727" lon="4.77615">
        <ele>226</ele>
        <time>2018-06-15T10:06:04Z</time>
      </trkpt>
      <trkpt lat="45.96722" lon="4.7761">
        <ele>226</ele>
        <time>2018-06-15T10:06:05Z</time>
      </trkpt>
      <trkpt lat="45.96717" lon="4.77604">
        <ele>226</ele>
        <time>2018-06-15T10:06:06Z</time>
      </trkpt>
      <trkpt lat="45.96712" lon="4.77598">
        <ele>226</ele>
        <time>2018-06-15T10:06:07Z</time>
      </trkpt>
      <trkpt lat="45.96707" lon="4.77594">
        <ele>226</ele>
        <time>2018-06-15T10:06:08Z</time>
      </trkpt>
      <trkpt lat="45.96702" lon="4.77589">
        <ele>226</ele>
        <time>2018-06-15T10:06:09Z</time>
      </trkpt>
      <trkpt lat="45.96697" lon="4.77583">
        <ele>225</ele>
        <time>2018-06-15T10:06:10Z</time>
      </trkpt>
      <trkpt lat="45.96691" lon="4.77578">
        <ele>225</ele>
        <time>2018-06-15T10:06:11Z</time>
      </trkpt>
      <trkpt lat="45.96686" lon="4.77574">
        <ele>225</ele>
        <time>2018-06-15T10:06:12Z</time>
      </trkpt>
      <trkpt lat="45.96681" lon="4.77569">
        <ele>225</ele>
        <time>2018-06-15T10:06:13Z</time>
      </trkpt>
      <trkpt lat="45.96675" lon="4.77564">
        <ele>225</ele>
        <time>2018-06-15T10:06:14Z</time>
      </trkpt>
      <trkpt lat="45.96669" lon="4.77559">
        <ele>225</ele>
        <time>2018-06-15T10:06:15Z</time>
      </trkpt>
      <trkpt lat="45.96663" lon="4.77555">
        <ele>224</ele>
        <time>2018-06-15T10:06:16Z</time>
      </trkpt>
      <trkpt lat="45.96657" lon="4.77552">
        <ele>224</ele>
        <time>2018-06-15T10:06:17Z</time>
      </trkpt>
      <trkpt lat="45.96652" lon="4.77548">
        <ele>224</ele>
        <time>2018-06-15T10:06:18Z</time>
      </trkpt>
      <trkpt lat="45.96646" lon="4.77544">
        <ele>224</ele>
        <time>2018-06-15T10:06:19Z</time>
      </trkpt>
      <trkpt lat="45.9664" lon="4.77539">
        <ele>224</ele>
        <time>2018-06-15T10:06:20Z</time>
      </trkpt>
      <trkpt lat="45.96634" lon="4.77535">
        <ele>224</ele>
        <time>2018-06-15T10:06:21Z</time>
      </trkpt>
      <trkpt lat="45.96629" lon="4.77531">
        <ele>224</ele>
        <time>2018-06-15T10:06:22Z</time>
      </trkpt>
      <trkpt lat="45.96623" lon="4.77526">
        <ele>224</ele>
        <time>2018-06-15T10:06:23Z</time>
      </trkpt>
      <trkpt lat="45.96617" lon="4.77521">
        <ele>224</ele>
        <time>2018-06-15T10:06:24Z</time>
      </trkpt>
      <trkpt lat="45.96611" lon="4.77518">
        <ele>224</ele>
        <time>2018-06-15T10:06:25Z</time>
      </trkpt>
      <trkpt lat="45.96605" lon="4.77514">
        <ele>224</ele>
        <time>2018-06-15T10:06:26Z</time>
      </trkpt>
      <trkpt lat="45.96598" lon="4.77509">
        <ele>224</ele>
        <time>2018-06-15T10:06:27Z</time>
      </trkpt>
      <trkpt lat="45.96592" lon="4.77503">
        <ele>224</ele>
        <time>2018-06-15T10:06:28Z</time>
      </trkpt>
      <trkpt lat="45.96586" lon="4.775">
        <ele>224</ele>
        <time>2018-06-15T10:06:29Z</time>
      </trkpt>
      <trkpt lat="45.96579" lon="4.77496">
        <ele>224</ele>
        <time>2018-06-15T10:06:30Z</time>
      </trkpt>
      <trkpt lat="45.96574" lon="4.77492">
        <ele>224</ele>
        <time>2018-06-15T10:06:31Z</time>
      </trkpt>
      <trkpt lat="45.96567" lon="4.77488">
        <ele>224</ele>
        <time>2018-06-15T10:06:32Z</time>
      </trkpt>
      <trkpt lat="45.96561" lon="4.77485">
        <ele>224</ele>
        <time>2018-06-15T10:06:33Z</time>
      </trkpt>
      <trkpt lat="45.96554" lon="4.7748">
        <ele>224</ele>
        <time>2018-06-15T10:06:34Z</time>
      </trkpt>
      <trkpt lat="45.96548" lon="4.77476">
        <ele>223</ele>
        <time>2018-06-15T10:06:35Z</time>
      </trkpt>
      <trkpt lat="45.96542" lon="4.77472">
        <ele>223</ele>
        <time>2018-06-15T10:06:36Z</time>
      </trkpt>
      <trkpt lat="45.96535" lon="4.77468">
        <ele>223</ele>
        <time>2018-06-15T10:06:37Z</time>
      </trkpt>
      <trkpt lat="45.96528" lon="4.77464">
        <ele>223</ele>
        <time>2018-06-15T10:06:38Z</time>
      </trkpt>
      <trkpt lat="45.96521" lon="4.7746">
        <ele>223</ele>
        <time>2018-06-15T10:06:39Z</time>
      </trkpt>
      <trkpt lat="45.96515" lon="4.77455">
        <ele>223</ele>
        <time>2018-06-15T10:06:40Z</time>
      </trkpt>
      <trkpt lat="45.96508" lon="4.77451">
        <ele>223</ele>
        <time>2018-06-15T10:06:41Z</time>
      </trkpt>
      <trkpt lat="45.96501" lon="4.77447">
        <ele>223</ele>
        <time>2018-06-15T10:06:42Z</time>
      </trkpt>
      <trkpt lat="45.96494" lon="4.77441">
        <ele>222</ele>
        <time>2018-06-15T10:06:43Z</time>
      </trkpt>
      <trkpt lat="45.96487" lon="4.77437">
        <ele>222</ele>
        <time>2018-06-15T10:06:44Z</time>
      </trkpt>
      <trkpt lat="45.9648" lon="4.77432">
        <ele>222</ele>
        <time>2018-06-15T10:06:45Z</time>
      </trkpt>
      <trkpt lat="45.96474" lon="4.77427">
        <ele>221</ele>
        <time>2018-06-15T10:06:46Z</time>
      </trkpt>
      <trkpt lat="45.96467" lon="4.77423">
        <ele>221</ele>
        <time>2018-06-15T10:06:47Z</time>
      </trkpt>
      <trkpt lat="45.9646" lon="4.7742">
        <ele>221</ele>
        <time>2018-06-15T10:06:48Z</time>
      </trkpt>
      <trkpt lat="45.96452" lon="4.77415">
        <ele>222</ele>
        <time>2018-06-15T10:06:49Z</time>
      </trkpt>
      <trkpt lat="45.96445" lon="4.77409">
        <ele>222</ele>
        <time>2018-06-15T10:06:50Z</time>
      </trkpt>
      <trkpt lat="45.96438" lon="4.77404">
        <ele>222</ele>
        <time>2018-06-15T10:06:51Z</time>
      </trkpt>
      <trkpt lat="45.96431" lon="4.774">
        <ele>222</ele>
        <time>2018-06-15T10:06:52Z</time>
      </trkpt>
      <trkpt lat="45.96424" lon="4.77396">
        <ele>222</ele>
        <time>2018-06-15T10:06:53Z</time>
      </trkpt>
      <trkpt lat="45.96417" lon="4.77392">
        <ele>222</ele>
        <time>2018-06-15T10:06:54Z</time>
      </trkpt>
      <trkpt lat="45.9641" lon="4.77389">
        <ele>220</ele>
        <time>2018-06-15T10:06:55Z</time>
      </trkpt>
      <trkpt lat="45.96402" lon="4.77385">
        <ele>220</ele>
        <time>2018-06-15T10:06:56Z</time>
      </trkpt>
      <trkpt lat="45.96395" lon="4.77381">
        <ele>220</ele>
        <time>2018-06-15T10:06:57Z</time>
      </trkpt>
      <trkpt lat="45.96387" lon="4.77377">
        <ele>220</ele>
        <time>2018-06-15T10:06:58Z</time>
      </trkpt>
      <trkpt lat="45.96379" lon="4.77373">
        <ele>220</ele>
        <time>2018-06-15T10:06:59Z</time>
      </trkpt>
      <trkpt lat="45.96371" lon="4.77368">
        <ele>220</ele>
        <time>2018-06-15T10:07:00Z</time>
      </trkpt>
      <trkpt lat="45.96363" lon="4.77364">
        <ele>219</ele>
        <time>2018-06-15T10:07:01Z</time>
      </trkpt>
      <trkpt lat="45.96353" lon="4.77361">
        <ele>219</ele>
        <time>2018-06-15T10:07:02Z</time>
      </trkpt>
      <trkpt lat="45.96347" lon="4.77355">
        <ele>219</ele>
        <time>2018-06-15T10:07:03Z</time>
      </trkpt>
      <trkpt lat="45.96339" lon="4.7735">
        <ele>220</ele>
        <time>2018-06-15T10:07:04Z</time>
      </trkpt>
      <trkpt lat="45.96331" lon="4.77345">
        <ele>218</ele>
        <time>2018-06-15T10:07:05Z</time>
      </trkpt>
      <trkpt lat="45.96324" lon="4.77341">
        <ele>218</ele>
        <time>2018-06-15T10:07:06Z</time>
      </trkpt>
      <trkpt lat="45.96316" lon="4.77337">
        <ele>218</ele>
        <time>2018-06-15T10:07:07Z</time>
      </trkpt>
      <trkpt lat="45.96308" lon="4.77333">
        <ele>217</ele>
        <time>2018-06-15T10:07:08Z</time>
      </trkpt>
      <trkpt lat="45.963" lon="4.77329">
        <ele>219</ele>
        <time>2018-06-15T10:07:09Z</time>
      </trkpt>
      <trkpt lat="45.96293" lon="4.77325">
        <ele>219</ele>
        <time>2018-06-15T10:07:10Z</time>
      </trkpt>
      <trkpt lat="45.96285" lon="4.77322">
        <ele>219</ele>
        <time>2018-06-15T10:07:11Z</time>
      </trkpt>
      <trkpt lat="45.96276" lon="4.77319">
        <ele>219</ele>
        <time>2018-06-15T10:07:12Z</time>
      </trkpt>
      <trkpt lat="45.96269" lon="4.77315">
        <ele>218</ele>
        <time>2018-06-15T10:07:13Z</time>
      </trkpt>
      <trkpt lat="45.96262" lon="4.7731">
        <ele>218</ele>
        <time>2018-06-15T10:07:14Z</time>
      </trkpt>
      <trkpt lat="45.96254" lon="4.77306">
        <ele>218</ele>
        <time>2018-06-15T10:07:15Z</time>
      </trkpt>
      <trkpt lat="45.96246" lon="4.77301">
        <ele>217</ele>
        <time>2018-06-15T10:07:16Z</time>
      </trkpt>
      <trkpt lat="45.96238" lon="4.77297">
        <ele>217</ele>
        <time>2018-06-15T10:07:17Z</time>
      </trkpt>
      <trkpt lat="45.96231" lon="4.77293">
        <ele>217</ele>
        <time>2018-06-15T10:07:18Z</time>
      </trkpt>
      <trkpt lat="45.96224" lon="4.77289">
        <ele>217</ele>
        <time>2018-06-15T10:07:19Z</time>
      </trkpt>
      <trkpt lat="45.96217" lon="4.77285">
        <ele>217</ele>
        <time>2018-06-15T10:07:20Z</time>
      </trkpt>
      <trkpt lat="45.96209" lon="4.7728">
        <ele>217</ele>
        <time>2018-06-15T10:07:21Z</time>
      </trkpt>
      <trkpt lat="45.96202" lon="4.77276">
        <ele>216</ele>
        <time>2018-06-15T10:07:22Z</time>
      </trkpt>
      <trkpt lat="45.96195" lon="4.77272">
        <ele>216</ele>
        <time>2018-06-15T10:07:23Z</time>
      </trkpt>
      <trkpt lat="45.96187" lon="4.77268">
        <ele>216</ele>
        <time>2018-06-15T10:07:24Z</time>
      </trkpt>
      <trkpt lat="45.9618" lon="4.77264">
        <ele>216</ele>
        <time>2018-06-15T10:07:25Z</time>
      </trkpt>
      <trkpt lat="45.96173" lon="4.7726">
        <ele>216</ele>
        <time>2018-06-15T10:07:26Z</time>
      </trkpt>
      <trkpt lat="45.96166" lon="4.77257">
        <ele>215</ele>
        <time>2018-06-15T10:07:27Z</time>
      </trkpt>
      <trkpt lat="45.96159" lon="4.77254">
        <ele>214</ele>
        <time>2018-06-15T10:07:28Z</time>
      </trkpt>
      <trkpt lat="45.96152" lon="4.77249">
        <ele>215</ele>
        <time>2018-06-15T10:07:29Z</time>
      </trkpt>
      <trkpt lat="45.96146" lon="4.77245">
        <ele>215</ele>
        <time>2018-06-15T10:07:30Z</time>
      </trkpt>
      <trkpt lat="45.96139" lon="4.77243">
        <ele>215</ele>
        <time>2018-06-15T10:07:31Z</time>
      </trkpt>
      <trkpt lat="45.96132" lon="4.77242">
        <ele>215</ele>
        <time>2018-06-15T10:07:32Z</time>
      </trkpt>
      <trkpt lat="45.96124" lon="4.7724">
        <ele>214</ele>
        <time>2018-06-15T10:07:33Z</time>
      </trkpt>
      <trkpt lat="45.96117" lon="4.7724">
        <ele>214</ele>
        <time>2018-06-15T10:07:34Z</time>
      </trkpt>
      <trkpt lat="45.9611" lon="4.77241">
        <ele>213</ele>
        <time>2018-06-15T10:07:35Z</time>
      </trkpt>
      <trkpt lat="45.96103" lon="4.77241">
        <ele>213</ele>
        <time>2018-06-15T10:07:36Z</time>
      </trkpt>
      <trkpt lat="45.96095" lon="4.77242">
        <ele>212</ele>
        <time>2018-06-15T10:07:37Z</time>
      </trkpt>
      <trkpt lat="45.96088" lon="4.77241">
        <ele>212</ele>
        <time>2018-06-15T10:07:38Z</time>
      </trkpt>
      <trkpt lat="45.9608" lon="4.77242">
        <ele>210</ele>
        <time>2018-06-15T10:07:39Z</time>
      </trkpt>
      <trkpt lat="45.96071" lon="4.77242">
        <ele>210</ele>
        <time>2018-06-15T10:07:40Z</time>
      </trkpt>
      <trkpt lat="45.96061" lon="4.77243">
        <ele>209</ele>
        <time>2018-06-15T10:07:41Z</time>
      </trkpt>
      <trkpt lat="45.96053" lon="4.77243">
        <ele>209</ele>
        <time>2018-06-15T10:07:42Z</time>
      </trkpt>
      <trkpt lat="45.96044" lon="4.77244">
        <ele>208</ele>
        <time>2018-06-15T10:07:43Z</time>
      </trkpt>
      <trkpt lat="45.96036" lon="4.77244">
        <ele>208</ele>
        <time>2018-06-15T10:07:44Z</time>
      </trkpt>
      <trkpt lat="45.96027" lon="4.77244">
        <ele>207</ele>
        <time>2018-06-15T10:07:45Z</time>
      </trkpt>
      <trkpt lat="45.96018" lon="4.77245">
        <ele>206</ele>
        <time>2018-06-15T10:07:46Z</time>
      </trkpt>
      <trkpt lat="45.96008" lon="4.77244">
        <ele>205</ele>
        <time>2018-06-15T10:07:47Z</time>
      </trkpt>
      <trkpt lat="45.95999" lon="4.77243">
        <ele>203</ele>
        <time>2018-06-15T10:07:48Z</time>
      </trkpt>
      <trkpt lat="45.9599" lon="4.77239">
        <ele>202</ele>
        <time>2018-06-15T10:07:49Z</time>
      </trkpt>
      <trkpt lat="45.95981" lon="4.77234">
        <ele>202</ele>
        <time>2018-06-15T10:07:50Z</time>
      </trkpt>
      <trkpt lat="45.95973" lon="4.77227">
        <ele>202</ele>
        <time>2018-06-15T10:07:51Z</time>
      </trkpt>
      <trkpt lat="45.95966" lon="4.7722">
        <ele>201</ele>
        <time>2018-06-15T10:07:52Z</time>
      </trkpt>
      <trkpt lat="45.95959" lon="4.7721">
        <ele>201</ele>
        <time>2018-06-15T10:07:53Z</time>
      </trkpt>
      <trkpt lat="45.95954" lon="4.77199">
        <ele>201</ele>
        <time>2018-06-15T10:07:54Z</time>
      </trkpt>
      <trkpt lat="45.9595" lon="4.77187">
        <ele>201</ele>
        <time>2018-06-15T10:07:55Z</time>
      </trkpt>
      <trkpt lat="45.95946" lon="4.77174">
        <ele>200</ele>
        <time>2018-06-15T10:07:56Z</time>
      </trkpt>
      <trkpt lat="45.95944" lon="4.77161">
        <ele>201</ele>
        <time>2018-06-15T10:07:57Z</time>
      </trkpt>
      <trkpt lat="45.95943" lon="4.77149">
        <ele>201</ele>
        <time>2018-06-15T10:07:58Z</time>
      </trkpt>
      <trkpt lat="45.95942" lon="4.77137">
        <ele>201</ele>
        <time>2018-06-15T10:07:59Z</time>
      </trkpt>
      <trkpt lat="45.95942" lon="4.77125">
        <ele>201</ele>
        <time>2018-06-15T10:08:00Z</time>
      </trkpt>
      <trkpt lat="45.95941" lon="4.77113">
        <ele>201</ele>
        <time>2018-06-15T10:08:01Z</time>
      </trkpt>
      <trkpt lat="45.95943" lon="4.77101">
        <ele>201</ele>
        <time>2018-06-15T10:08:02Z</time>
      </trkpt>
      <trkpt lat="45.95945" lon="4.7709">
        <ele>201</ele>
        <time>2018-06-15T10:08:03Z</time>
      </trkpt>
      <trkpt lat="45.95946" lon="4.77079">
        <ele>200</ele>
        <time>2018-06-15T10:08:04Z</time>
      </trkpt>
      <trkpt lat="45.9595" lon="4.77071">
        <ele>200</ele>
        <time>2018-06-15T10:08:05Z</time>
      </trkpt>
      <trkpt lat="45.95953" lon="4.77062">
        <ele>200</ele>
        <time>2018-06-15T10:08:06Z</time>
      </trkpt>
      <trkpt lat="45.95955" lon="4.77053">
        <ele>200</ele>
        <time>2018-06-15T10:08:07Z</time>
      </trkpt>
      <trkpt lat="45.9596" lon="4.77045">
        <ele>200</ele>
        <time>2018-06-15T10:08:08Z</time>
      </trkpt>
      <trkpt lat="45.95962" lon="4.77036">
        <ele>200</ele>
        <time>2018-06-15T10:08:09Z</time>
      </trkpt>
      <trkpt lat="45.95964" lon="4.77025">
        <ele>200</ele>
        <time>2018-06-15T10:08:10Z</time>
      </trkpt>
      <trkpt lat="45.95968" lon="4.77016">
        <ele>200</ele>
        <time>2018-06-15T10:08:11Z</time>
      </trkpt>
      <trkpt lat="45.95972" lon="4.77007">
        <ele>200</ele>
        <time>2018-06-15T10:08:12Z</time>
      </trkpt>
      <trkpt lat="45.95976" lon="4.76997">
        <ele>198</ele>
        <time>2018-06-15T10:08:13Z</time>
      </trkpt>
      <trkpt lat="45.95978" lon="4.76988">
        <ele>197</ele>
        <time>2018-06-15T10:08:14Z</time>
      </trkpt>
      <trkpt lat="45.9598" lon="4.76978">
        <ele>197</ele>
        <time>2018-06-15T10:08:15Z</time>
      </trkpt>
      <trkpt lat="45.9598" lon="4.76966">
        <ele>196</ele>
        <time>2018-06-15T10:08:16Z</time>
      </trkpt>
      <trkpt lat="45.95979" lon="4.76955">
        <ele>196</ele>
        <time>2018-06-15T10:08:17Z</time>
      </trkpt>
      <trkpt lat="45.95976" lon="4.76944">
        <ele>196</ele>
        <time>2018-06-15T10:08:18Z</time>
      </trkpt>
      <trkpt lat="45.95971" lon="4.76935">
        <ele>195</ele>
        <time>2018-06-15T10:08:19Z</time>
      </trkpt>
      <trkpt lat="45.95964" lon="4.76927">
        <ele>195</ele>
        <time>2018-06-15T10:08:20Z</time>
      </trkpt>
      <trkpt lat="45.95958" lon="4.76919">
        <ele>195</ele>
        <time>2018-06-15T10:08:21Z</time>
      </trkpt>
      <trkpt lat="45.95952" lon="4.76912">
        <ele>193</ele>
        <time>2018-06-15T10:08:22Z</time>
      </trkpt>
      <trkpt lat="45.95945" lon="4.76904">
        <ele>193</ele>
        <time>2018-06-15T10:08:23Z</time>
      </trkpt>
      <trkpt lat="45.95939" lon="4.76896">
        <ele>192</ele>
        <time>2018-06-15T10:08:24Z</time>
      </trkpt>
      <trkpt lat="45.95933" lon="4.76889">
        <ele>192</ele>
        <time>2018-06-15T10:08:25Z</time>
      </trkpt>
      <trkpt lat="45.95925" lon="4.76882">
        <ele>192</ele>
        <time>2018-06-15T10:08:26Z</time>
      </trkpt>
      <trkpt lat="45.95918" lon="4.76873">
        <ele>192</ele>
        <time>2018-06-15T10:08:27Z</time>
      </trkpt>
      <trkpt lat="45.95911" lon="4.76864">
        <ele>191</ele>
        <time>2018-06-15T10:08:28Z</time>
      </trkpt>
      <trkpt lat="45.95904" lon="4.76857">
        <ele>191</ele>
        <time>2018-06-15T10:08:29Z</time>
      </trkpt>
      <trkpt lat="45.95897" lon="4.76849">
        <ele>191</ele>
        <time>2018-06-15T10:08:30Z</time>
      </trkpt>
      <trkpt lat="45.95889" lon="4.76842">
        <ele>191</ele>
        <time>2018-06-15T10:08:31Z</time>
      </trkpt>
      <trkpt lat="45.95883" lon="4.76834">
        <ele>191</ele>
        <time>2018-06-15T10:08:32Z</time>
      </trkpt>
      <trkpt lat="45.95876" lon="4.76826">
        <ele>191</ele>
        <time>2018-06-15T10:08:33Z</time>
      </trkpt>
      <trkpt lat="45.95869" lon="4.76818">
        <ele>191</ele>
        <time>2018-06-15T10:08:34Z</time>
      </trkpt>
      <trkpt lat="45.95862" lon="4.76811">
        <ele>191</ele>
        <time>2018-06-15T10:08:35Z</time>
      </trkpt>
      <trkpt lat="45.95855" lon="4.76804">
        <ele>191</ele>
        <time>2018-06-15T10:08:36Z</time>
      </trkpt>
      <trkpt lat="45.95849" lon="4.76797">
        <ele>191</ele>
        <time>2018-06-15T10:08:37Z</time>
      </trkpt>
      <trkpt lat="45.95843" lon="4.7679">
        <ele>191</ele>
        <time>2018-06-15T10:08:38Z</time>
      </trkpt>
      <trkpt lat="45.95838" lon="4.76782">
        <ele>191</ele>
        <time>2018-06-15T10:08:39Z</time>
      </trkpt>
      <trkpt lat="45.95834" lon="4.76773">
        <ele>191</ele>
        <time>2018-06-15T10:08:40Z</time>
      </trkpt>
      <trkpt lat="45.95831" lon="4.76764">
        <ele>190</ele>
        <time>2018-06-15T10:08:41Z</time>
      </trkpt>
      <trkpt lat="45.95829" lon="4.76754">
        <ele>191</ele>
        <time>2018-06-15T10:08:42Z</time>
      </trkpt>
      <trkpt lat="45.95827" lon="4.76744">
        <ele>190</ele>
        <time>2018-06-15T10:08:43Z</time>
      </trkpt>
      <trkpt lat="45.95825" lon="4.76735">
        <ele>190</ele>
        <time>2018-06-15T10:08:44Z</time>
      </trkpt>
      <trkpt lat="45.95824" lon="4.76725">
        <ele>190</ele>
        <time>2018-06-15T10:08:45Z</time>
      </trkpt>
      <trkpt lat="45.95822" lon="4.76715">
        <ele>189</ele>
        <time>2018-06-15T10:08:46Z</time>
      </trkpt>
      <trkpt lat="45.9582" lon="4.76706">
        <ele>189</ele>
        <time>2018-06-15T10:08:47Z</time>
      </trkpt>
      <trkpt lat="45.95819" lon="4.76697">
        <ele>189</ele>
        <time>2018-06-15T10:08:48Z</time>
      </trkpt>
      <trkpt lat="45.95817" lon="4.76688">
        <ele>189</ele>
        <time>2018-06-15T10:08:49Z</time>
      </trkpt>
      <trkpt lat="45.95816" lon="4.76679">
        <ele>189</ele>
        <time>2018-06-15T10:08:50Z</time>
      </trkpt>
      <trkpt lat="45.95813" lon="4.76669">
        <ele>189</ele>
        <time>2018-06-15T10:08:51Z</time>
      </trkpt>
      <trkpt lat="45.95813" lon="4.76661">
        <ele>188</ele>
        <time>2018-06-15T10:08:52Z</time>
      </trkpt>
      <trkpt lat="45.95811" lon="4.76652">
        <ele>188</ele>
        <time>2018-06-15T10:08:53Z</time>
      </trkpt>
      <trkpt lat="45.9581" lon="4.76643">
        <ele>188</ele>
        <time>2018-06-15T10:08:54Z</time>
      </trkpt>
      <trkpt lat="45.95809" lon="4.76634">
        <ele>188</ele>
        <time>2018-06-15T10:08:55Z</time>
      </trkpt>
      <trkpt lat="45.95808" lon="4.76624">
        <ele>188</ele>
        <time>2018-06-15T10:08:56Z</time>
      </trkpt>
      <trkpt lat="45.95807" lon="4.76614">
        <ele>188</ele>
        <time>2018-06-15T10:08:57Z</time>
      </trkpt>
      <trkpt lat="45.95805" lon="4.76605">
        <ele>188</ele>
        <time>2018-06-15T10:08:58Z</time>
      </trkpt>
      <trkpt lat="45.95804" lon="4.76594">
        <ele>188</ele>
        <time>2018-06-15T10:08:59Z</time>
      </trkpt>
      <trkpt lat="45.95802" lon="4.76584">
        <ele>187</ele>
        <time>2018-06-15T10:09:00Z</time>
      </trkpt>
      <trkpt lat="45.958" lon="4.76575">
        <ele>187</ele>
        <time>2018-06-15T10:09:01Z</time>
      </trkpt>
      <trkpt lat="45.95798" lon="4.76567">
        <ele>187</ele>
        <time>2018-06-15T10:09:02Z</time>
      </trkpt>
      <trkpt lat="45.95797" lon="4.76559">
        <ele>187</ele>
        <time>2018-06-15T10:09:03Z</time>
      </trkpt>
      <trkpt lat="45.95795" lon="4.7655">
        <ele>187</ele>
        <time>2018-06-15T10:09:04Z</time>
      </trkpt>
      <trkpt lat="45.95795" lon="4.76542">
        <ele>187</ele>
        <time>2018-06-15T10:09:05Z</time>
      </trkpt>
      <trkpt lat="45.95794" lon="4.76535">
        <ele>187</ele>
        <time>2018-06-15T10:09:06Z</time>
      </trkpt>
      <trkpt lat="45.95793" lon="4.76527">
        <ele>187</ele>
        <time>2018-06-15T10:09:07Z</time>
      </trkpt>
      <trkpt lat="45.95791" lon="4.76519">
        <ele>187</ele>
        <time>2018-06-15T10:09:08Z</time>
      </trkpt>
      <trkpt lat="45.9579" lon="4.7651">
        <ele>187</ele>
        <time>2018-06-15T10:09:09Z</time>
      </trkpt>
      <trkpt lat="45.95788" lon="4.76502">
        <ele>187</ele>
        <time>2018-06-15T10:09:10Z</time>
      </trkpt>
      <trkpt lat="45.95787" lon="4.76493">
        <ele>186</ele>
        <time>2018-06-15T10:09:11Z</time>
      </trkpt>
      <trkpt lat="45.95785" lon="4.76484">
        <ele>186</ele>
        <time>2018-06-15T10:09:12Z</time>
      </trkpt>
      <trkpt lat="45.95784" lon="4.76475">
        <ele>186</ele>
        <time>2018-06-15T10:09:13Z</time>
      </trkpt>
      <trkpt lat="45.95783" lon="4.76466">
        <ele>186</ele>
        <time>2018-06-15T10:09:14Z</time>
      </trkpt>
      <trkpt lat="45.95784" lon="4.76458">
        <ele>186</ele>
        <time>2018-06-15T10:09:15Z</time>
      </trkpt>
      <trkpt lat="45.95783" lon="4.76449">
        <ele>186</ele>
        <time>2018-06-15T10:09:16Z</time>
      </trkpt>
      <trkpt lat="45.95782" lon="4.7644">
        <ele>186</ele>
        <time>2018-06-15T10:09:17Z</time>
      </trkpt>
      <trkpt lat="45.95783" lon="4.76432">
        <ele>186</ele>
        <time>2018-06-15T10:09:18Z</time>
      </trkpt>
      <trkpt lat="45.95782" lon="4.76424">
        <ele>186</ele>
        <time>2018-06-15T10:09:19Z</time>
      </trkpt>
      <trkpt lat="45.95781" lon="4.76417">
        <ele>186</ele>
        <time>2018-06-15T10:09:20Z</time>
      </trkpt>
      <trkpt lat="45.9578" lon="4.76408">
        <ele>186</ele>
        <time>2018-06-15T10:09:21Z</time>
      </trkpt>
      <trkpt lat="45.95779" lon="4.76401">
        <ele>186</ele>
        <time>2018-06-15T10:09:22Z</time>
      </trkpt>
      <trkpt lat="45.95779" lon="4.76394">
        <ele>186</ele>
        <time>2018-06-15T10:09:23Z</time>
      </trkpt>
      <trkpt lat="45.95779" lon="4.76386">
        <ele>186</ele>
        <time>2018-06-15T10:09:24Z</time>
      </trkpt>
      <trkpt lat="45.95778" lon="4.76378">
        <ele>186</ele>
        <time>2018-06-15T10:09:25Z</time>
      </trkpt>
      <trkpt lat="45.95777" lon="4.76368">
        <ele>186</ele>
        <time>2018-06-15T10:09:26Z</time>
      </trkpt>
      <trkpt lat="45.95776" lon="4.7636">
        <ele>186</ele>
        <time>2018-06-15T10:09:27Z</time>
      </trkpt>
      <trkpt lat="45.95775" lon="4.76351">
        <ele>186</ele>
        <time>2018-06-15T10:09:28Z</time>
      </trkpt>
      <trkpt lat="45.95774" lon="4.76342">
        <ele>186</ele>
        <time>2018-06-15T10:09:29Z</time>
      </trkpt>
      <trkpt lat="45.95774" lon="4.76334">
        <ele>186</ele>
        <time>2018-06-15T10:09:30Z</time>
      </trkpt>
      <trkpt lat="45.95772" lon="4.76325">
        <ele>185</ele>
        <time>2018-06-15T10:09:31Z</time>
      </trkpt>
      <trkpt lat="45.95772" lon="4.76315">
        <ele>186</ele>
        <time>2018-06-15T10:09:32Z</time>
      </trkpt>
      <trkpt lat="45.95772" lon="4.76306">
        <ele>186</ele>
        <time>2018-06-15T10:09:33Z</time>
      </trkpt>
      <trkpt lat="45.9577" lon="4.76298">
        <ele>186</ele>
        <time>2018-06-15T10:09:34Z</time>
      </trkpt>
      <trkpt lat="45.9577" lon="4.76291">
        <ele>186</ele>
        <time>2018-06-15T10:09:35Z</time>
      </trkpt>
      <trkpt lat="45.95769" lon="4.76282">
        <ele>186</ele>
        <time>2018-06-15T10:09:36Z</time>
      </trkpt>
      <trkpt lat="45.95769" lon="4.76275">
        <ele>186</ele>
        <time>2018-06-15T10:09:37Z</time>
      </trkpt>
      <trkpt lat="45.95768" lon="4.76268">
        <ele>186</ele>
        <time>2018-06-15T10:09:38Z</time>
      </trkpt>
      <trkpt lat="45.95768" lon="4.76259">
        <ele>185</ele>
        <time>2018-06-15T10:09:39Z</time>
      </trkpt>
      <trkpt lat="45.95767" lon="4.76252">
        <ele>185</ele>
        <time>2018-06-15T10:09:40Z</time>
      </trkpt>
      <trkpt lat="45.95766" lon="4.76243">
        <ele>186</ele>
        <time>2018-06-15T10:09:41Z</time>
      </trkpt>
      <trkpt lat="45.95766" lon="4.76235">
        <ele>186</ele>
        <time>2018-06-15T10:09:42Z</time>
      </trkpt>
      <trkpt lat="45.95765" lon="4.76226">
        <ele>186</ele>
        <time>2018-06-15T10:09:43Z</time>
      </trkpt>
      <trkpt lat="45.95765" lon="4.76218">
        <ele>186</ele>
        <time>2018-06-15T10:09:44Z</time>
      </trkpt>
      <trkpt lat="45.95765" lon="4.76211">
        <ele>186</ele>
        <time>2018-06-15T10:09:45Z</time>
      </trkpt>
      <trkpt lat="45.95764" lon="4.76203">
        <ele>186</ele>
        <time>2018-06-15T10:09:46Z</time>
      </trkpt>
      <trkpt lat="45.95764" lon="4.76195">
        <ele>186</ele>
        <time>2018-06-15T10:09:47Z</time>
      </trkpt>
      <trkpt lat="45.95763" lon="4.76187">
        <ele>186</ele>
        <time>2018-06-15T10:09:48Z</time>
      </trkpt>
      <trkpt lat="45.95762" lon="4.76179">
        <ele>185</ele>
        <time>2018-06-15T10:09:49Z</time>
      </trkpt>
      <trkpt lat="45.95761" lon="4.76171">
        <ele>185</ele>
        <time>2018-06-15T10:09:50Z</time>
      </trkpt>
      <trkpt lat="45.95759" lon="4.76163">
        <ele>185</ele>
        <time>2018-06-15T10:09:51Z</time>
      </trkpt>
      <trkpt lat="45.95758" lon="4.76155">
        <ele>186</ele>
        <time>2018-06-15T10:09:52Z</time>
      </trkpt>
      <trkpt lat="45.95757" lon="4.76147">
        <ele>186</ele>
        <time>2018-06-15T10:09:53Z</time>
      </trkpt>
      <trkpt lat="45.95757" lon="4.76139">
        <ele>186</ele>
        <time>2018-06-15T10:09:54Z</time>
      </trkpt>
      <trkpt lat="45.95756" lon="4.7613">
        <ele>186</ele>
        <time>2018-06-15T10:09:55Z</time>
      </trkpt>
      <trkpt lat="45.95755" lon="4.76122">
        <ele>186</ele>
        <time>2018-06-15T10:09:56Z</time>
      </trkpt>
      <trkpt lat="45.95757" lon="4.76111">
        <ele>186</ele>
        <time>2018-06-15T10:09:57Z</time>
      </trkpt>
      <trkpt lat="45.95757" lon="4.76105">
        <ele>186</ele>
        <time>2018-06-15T10:09:58Z</time>
      </trkpt>
      <trkpt lat="45.95756" lon="4.76097">
        <ele>186</ele>
        <time>2018-06-15T10:09:59Z</time>
      </trkpt>
      <trkpt lat="45.95755" lon="4.76089">
        <ele>185</ele>
        <time>2018-06-15T10:10:00Z</time>
      </trkpt>
      <trkpt lat="45.95753" lon="4.76082">
        <ele>185</ele>
        <time>2018-06-15T10:10:01Z</time>
      </trkpt>
      <trkpt lat="45.9575" lon="4.76076">
        <ele>186</ele>
        <time>2018-06-15T10:10:02Z</time>
      </trkpt>
      <trkpt lat="45.95748" lon="4.7607">
        <ele>185</ele>
        <time>2018-06-15T10:10:03Z</time>
      </trkpt>
      <trkpt lat="45.95746" lon="4.76064">
        <ele>185</ele>
        <time>2018-06-15T10:10:04Z</time>
      </trkpt>
      <trkpt lat="45.95742" lon="4.76056">
        <ele>184</ele>
        <time>2018-06-15T10:10:05Z</time>
      </trkpt>
      <trkpt lat="45.95739" lon="4.7605">
        <ele>184</ele>
        <time>2018-06-15T10:10:06Z</time>
      </trkpt>
      <trkpt lat="45.95736" lon="4.76042">
        <ele>184</ele>
        <time>2018-06-15T10:10:07Z</time>
      </trkpt>
      <trkpt lat="45.95733" lon="4.76035">
        <ele>184</ele>
        <time>2018-06-15T10:10:08Z</time>
      </trkpt>
      <trkpt lat="45.9573" lon="4.76028">
        <ele>185</ele>
        <time>2018-06-15T10:10:09Z</time>
      </trkpt>
      <trkpt lat="45.95727" lon="4.76021">
        <ele>185</ele>
        <time>2018-06-15T10:10:10Z</time>
      </trkpt>
      <trkpt lat="45.95723" lon="4.76014">
        <ele>185</ele>
        <time>2018-06-15T10:10:11Z</time>
      </trkpt>
      <trkpt lat="45.9572" lon="4.76007">
        <ele>185</ele>
        <time>2018-06-15T10:10:12Z</time>
      </trkpt>
      <trkpt lat="45.95717" lon="4.76">
        <ele>184</ele>
        <time>2018-06-15T10:10:13Z</time>
      </trkpt>
      <trkpt lat="45.95713" lon="4.75994">
        <ele>185</ele>
        <time>2018-06-15T10:10:14Z</time>
      </trkpt>
      <trkpt lat="45.95709" lon="4.75986">
        <ele>185</ele>
        <time>2018-06-15T10:10:15Z</time>
      </trkpt>
      <trkpt lat="45.95706" lon="4.75979">
        <ele>185</ele>
        <time>2018-06-15T10:10:16Z</time>
      </trkpt>
      <trkpt lat="45.95702" lon="4.75972">
        <ele>185</ele>
        <time>2018-06-15T10:10:17Z</time>
      </trkpt>
      <trkpt lat="45.95699" lon="4.75965">
        <ele>185</ele>
        <time>2018-06-15T10:10:18Z</time>
      </trkpt>
      <trkpt lat="45.95696" lon="4.75958">
        <ele>185</ele>
        <time>2018-06-15T10:10:19Z</time>
      </trkpt>
      <trkpt lat="45.95692" lon="4.7595">
        <ele>185</ele>
        <time>2018-06-15T10:10:20Z</time>
      </trkpt>
      <trkpt lat="45.95688" lon="4.75943">
        <ele>185</ele>
        <time>2018-06-15T10:10:21Z</time>
      </trkpt>
      <trkpt lat="45.95685" lon="4.75936">
        <ele>185</ele>
        <time>2018-06-15T10:10:22Z</time>
      </trkpt>
      <trkpt lat="45.95682" lon="4.75928">
        <ele>185</ele>
        <time>2018-06-15T10:10:23Z</time>
      </trkpt>
      <trkpt lat="45.95678" lon="4.7592">
        <ele>185</ele>
        <time>2018-06-15T10:10:24Z</time>
      </trkpt>
      <trkpt lat="45.95673" lon="4.75912">
        <ele>185</ele>
        <time>2018-06-15T10:10:25Z</time>
      </trkpt>
      <trkpt lat="45.9567" lon="4.75903">
        <ele>185</ele>
        <time>2018-06-15T10:10:26Z</time>
      </trkpt>
      <trkpt lat="45.95668" lon="4.75895">
        <ele>186</ele>
        <time>2018-06-15T10:10:27Z</time>
      </trkpt>
      <trkpt lat="45.95665" lon="4.75889">
        <ele>184</ele>
        <time>2018-06-15T10:10:28Z</time>
      </trkpt>
      <trkpt lat="45.95663" lon="4.75881">
        <ele>184</ele>
        <time>2018-06-15T10:10:29Z</time>
      </trkpt>
      <trkpt lat="45.9566" lon="4.75874">
        <ele>184</ele>
        <time>2018-06-15T10:10:30Z</time>
      </trkpt>
      <trkpt lat="45.95658" lon="4.75866">
        <ele>184</ele>
        <time>2018-06-15T10:10:31Z</time>
      </trkpt>
      <trkpt lat="45.95656" lon="4.75858">
        <ele>184</ele>
        <time>2018-06-15T10:10:32Z</time>
      </trkpt>
      <trkpt lat="45.95654" lon="4.75851">
        <ele>185</ele>
        <time>2018-06-15T10:10:33Z</time>
      </trkpt>
      <trkpt lat="45.95652" lon="4.75842">
        <ele>185</ele>
        <time>2018-06-15T10:10:34Z</time>
      </trkpt>
      <trkpt lat="45.95651" lon="4.75835">
        <ele>185</ele>
        <time>2018-06-15T10:10:35Z</time>
      </trkpt>
      <trkpt lat="45.9565" lon="4.75828">
        <ele>185</ele>
        <time>2018-06-15T10:10:36Z</time>
      </trkpt>
      <trkpt lat="45.95648" lon="4.75821">
        <ele>185</ele>
        <time>2018-06-15T10:10:37Z</time>
      </trkpt>
      <trkpt lat="45.95647" lon="4.75814">
        <ele>185</ele>
        <time>2018-06-15T10:10:38Z</time>
      </trkpt>
      <trkpt lat="45.95646" lon="4.75806">
        <ele>185</ele>
        <time>2018-06-15T10:10:39Z</time>
      </trkpt>
      <trkpt lat="45.95645" lon="4.75799">
        <ele>185</ele>
        <time>2018-06-15T10:10:40Z</time>
      </trkpt>
      <trkpt lat="45.95644" lon="4.75792">
        <ele>185</ele>
        <time>2018-06-15T10:10:41Z</time>
      </trkpt>
      <trkpt lat="45.95642" lon="4.75784">
        <ele>186</ele>
        <time>2018-06-15T10:10:42Z</time>
      </trkpt>
      <trkpt lat="45.95642" lon="4.75777">
        <ele>186</ele>
        <time>2018-06-15T10:10:43Z</time>
      </trkpt>
      <trkpt lat="45.95638" lon="4.75769">
        <ele>186</ele>
        <time>2018-06-15T10:10:44Z</time>
      </trkpt>
      <trkpt lat="45.95638" lon="4.75762">
        <ele>186</ele>
        <time>2018-06-15T10:10:45Z</time>
      </trkpt>
      <trkpt lat="45.95638" lon="4.75754">
        <ele>186</ele>
        <time>2018-06-15T10:10:46Z</time>
      </trkpt>
      <trkpt lat="45.95637" lon="4.75745">
        <ele>187</ele>
        <time>2018-06-15T10:10:47Z</time>
      </trkpt>
      <trkpt lat="45.95637" lon="4.75737">
        <ele>187</ele>
        <time>2018-06-15T10:10:48Z</time>
      </trkpt>
      <trkpt lat="45.95635" lon="4.7573">
        <ele>187</ele>
        <time>2018-06-15T10:10:49Z</time>
      </trkpt>
      <trkpt lat="45.95634" lon="4.75723">
        <ele>187</ele>
        <time>2018-06-15T10:10:50Z</time>
      </trkpt>
      <trkpt lat="45.95633" lon="4.75716">
        <ele>187</ele>
        <time>2018-06-15T10:10:51Z</time>
      </trkpt>
      <trkpt lat="45.95632" lon="4.75707">
        <ele>187</ele>
        <time>2018-06-15T10:10:52Z</time>
      </trkpt>
      <trkpt lat="45.95632" lon="4.757">
        <ele>187</ele>
        <time>2018-06-15T10:10:53Z</time>
      </trkpt>
      <trkpt lat="45.95631" lon="4.75692">
        <ele>187</ele>
        <time>2018-06-15T10:10:54Z</time>
      </trkpt>
      <trkpt lat="45.95629" lon="4.75684">
        <ele>187</ele>
        <time>2018-06-15T10:10:55Z</time>
      </trkpt>
      <trkpt lat="45.95627" lon="4.75675">
        <ele>187</ele>
        <time>2018-06-15T10:10:56Z</time>
      </trkpt>
      <trkpt lat="45.95626" lon="4.75667">
        <ele>187</ele>
        <time>2018-06-15T10:10:57Z</time>
      </trkpt>
      <trkpt lat="45.95623" lon="4.75658">
        <ele>188</ele>
        <time>2018-06-15T10:10:58Z</time>
      </trkpt>
      <trkpt lat="45.95622" lon="4.7565">
        <ele>188</ele>
        <time>2018-06-15T10:10:59Z</time>
      </trkpt>
      <trkpt lat="45.9562" lon="4.75642">
        <ele>188</ele>
        <time>2018-06-15T10:11:00Z</time>
      </trkpt>
      <trkpt lat="45.95617" lon="4.75636">
        <ele>188</ele>
        <time>2018-06-15T10:11:01Z</time>
      </trkpt>
      <trkpt lat="45.95616" lon="4.75628">
        <ele>188</ele>
        <time>2018-06-15T10:11:02Z</time>
      </trkpt>
      <trkpt lat="45.95612" lon="4.75621">
        <ele>188</ele>
        <time>2018-06-15T10:11:03Z</time>
      </trkpt>
      <trkpt lat="45.9561" lon="4.75613">
        <ele>188</ele>
        <time>2018-06-15T10:11:04Z</time>
      </trkpt>
      <trkpt lat="45.95608" lon="4.75606">
        <ele>188</ele>
        <time>2018-06-15T10:11:05Z</time>
      </trkpt>
      <trkpt lat="45.95606" lon="4.75599">
        <ele>187</ele>
        <time>2018-06-15T10:11:06Z</time>
      </trkpt>
      <trkpt lat="45.95603" lon="4.75592">
        <ele>187</ele>
        <time>2018-06-15T10:11:07Z</time>
      </trkpt>
      <trkpt lat="45.95599" lon="4.75585">
        <ele>187</ele>
        <time>2018-06-15T10:11:08Z</time>
      </trkpt>
      <trkpt lat="45.95596" lon="4.75579">
        <ele>187</ele>
        <time>2018-06-15T10:11:09Z</time>
      </trkpt>
      <trkpt lat="45.95593" lon="4.75573">
        <ele>188</ele>
        <time>2018-06-15T10:11:10Z</time>
      </trkpt>
      <trkpt lat="45.9559" lon="4.75566">
        <ele>188</ele>
        <time>2018-06-15T10:11:11Z</time>
      </trkpt>
      <trkpt lat="45.95586" lon="4.7556">
        <ele>188</ele>
        <time>2018-06-15T10:11:12Z</time>
      </trkpt>
      <trkpt lat="45.95581" lon="4.75554">
        <ele>186</ele>
        <time>2018-06-15T10:11:13Z</time>
      </trkpt>
      <trkpt lat="45.95577" lon="4.75548">
        <ele>186</ele>
        <time>2018-06-15T10:11:14Z</time>
      </trkpt>
      <trkpt lat="45.95572" lon="4.75542">
        <ele>186</ele>
        <time>2018-06-15T10:11:15Z</time>
      </trkpt>
      <trkpt lat="45.95568" lon="4.75536">
        <ele>186</ele>
        <time>2018-06-15T10:11:16Z</time>
      </trkpt>
      <trkpt lat="45.95563" lon="4.75532">
        <ele>186</ele>
        <time>2018-06-15T10:11:17Z</time>
      </trkpt>
      <trkpt lat="45.95558" lon="4.75526">
        <ele>186</ele>
        <time>2018-06-15T10:11:18Z</time>
      </trkpt>
      <trkpt lat="45.95553" lon="4.75521">
        <ele>186</ele>
        <time>2018-06-15T10:11:19Z</time>
      </trkpt>
      <trkpt lat="45.95549" lon="4.75516">
        <ele>186</ele>
        <time>2018-06-15T10:11:20Z</time>
      </trkpt>
      <trkpt lat="45.95545" lon="4.75509">
        <ele>186</ele>
        <time>2018-06-15T10:11:21Z</time>
      </trkpt>
      <trkpt lat="45.9554" lon="4.75502">
        <ele>186</ele>
        <time>2018-06-15T10:11:23Z</time>
      </trkpt>
      <trkpt lat="45.95539" lon="4.75499">
        <ele>187</ele>
        <time>2018-06-15T10:11:24Z</time>
      </trkpt>
      <trkpt lat="45.9554" lon="4.75487">
        <ele>187</ele>
        <time>2018-06-15T10:11:28Z</time>
      </trkpt>
      <trkpt lat="45.95541" lon="4.75484">
        <ele>187</ele>
        <time>2018-06-15T10:11:29Z</time>
      </trkpt>
      <trkpt lat="45.95542" lon="4.75471">
        <ele>187</ele>
        <time>2018-06-15T10:11:32Z</time>
      </trkpt>
      <trkpt lat="45.9554" lon="4.75459">
        <ele>187</ele>
        <time>2018-06-15T10:11:33Z</time>
      </trkpt>
      <trkpt lat="45.95537" lon="4.75453">
        <ele>187</ele>
        <time>2018-06-15T10:11:34Z</time>
      </trkpt>
      <trkpt lat="45.95534" lon="4.75449">
        <ele>187</ele>
        <time>2018-06-15T10:11:35Z</time>
      </trkpt>
      <trkpt lat="45.95527" lon="4.7544">
        <ele>187</ele>
        <time>2018-06-15T10:11:37Z</time>
      </trkpt>
      <trkpt lat="45.95522" lon="4.75435">
        <ele>187</ele>
        <time>2018-06-15T10:11:38Z</time>
      </trkpt>
      <trkpt lat="45.95519" lon="4.7543">
        <ele>187</ele>
        <time>2018-06-15T10:11:39Z</time>
      </trkpt>
      <trkpt lat="45.95516" lon="4.75424">
        <ele>186</ele>
        <time>2018-06-15T10:11:40Z</time>
      </trkpt>
      <trkpt lat="45.95513" lon="4.75417">
        <ele>186</ele>
        <time>2018-06-15T10:11:41Z</time>
      </trkpt>
      <trkpt lat="45.95511" lon="4.7541">
        <ele>187</ele>
        <time>2018-06-15T10:11:42Z</time>
      </trkpt>
      <trkpt lat="45.95508" lon="4.75404">
        <ele>187</ele>
        <time>2018-06-15T10:11:43Z</time>
      </trkpt>
      <trkpt lat="45.95507" lon="4.75397">
        <ele>188</ele>
        <time>2018-06-15T10:11:44Z</time>
      </trkpt>
      <trkpt lat="45.95505" lon="4.75391">
        <ele>188</ele>
        <time>2018-06-15T10:11:45Z</time>
      </trkpt>
      <trkpt lat="45.95502" lon="4.75385">
        <ele>188</ele>
        <time>2018-06-15T10:11:46Z</time>
      </trkpt>
      <trkpt lat="45.95498" lon="4.75379">
        <ele>185</ele>
        <time>2018-06-15T10:11:47Z</time>
      </trkpt>
      <trkpt lat="45.95495" lon="4.75374">
        <ele>185</ele>
        <time>2018-06-15T10:11:48Z</time>
      </trkpt>
      <trkpt lat="45.95493" lon="4.75367">
        <ele>186</ele>
        <time>2018-06-15T10:11:49Z</time>
      </trkpt>
      <trkpt lat="45.95489" lon="4.75363">
        <ele>186</ele>
        <time>2018-06-15T10:11:50Z</time>
      </trkpt>
      <trkpt lat="45.95486" lon="4.75358">
        <ele>186</ele>
        <time>2018-06-15T10:11:51Z</time>
      </trkpt>
      <trkpt lat="45.95483" lon="4.75351">
        <ele>186</ele>
        <time>2018-06-15T10:11:52Z</time>
      </trkpt>
      <trkpt lat="45.95479" lon="4.75344">
        <ele>186</ele>
        <time>2018-06-15T10:11:53Z</time>
      </trkpt>
      <trkpt lat="45.95477" lon="4.75339">
        <ele>186</ele>
        <time>2018-06-15T10:11:54Z</time>
      </trkpt>
      <trkpt lat="45.95474" lon="4.75333">
        <ele>188</ele>
        <time>2018-06-15T10:11:55Z</time>
      </trkpt>
      <trkpt lat="45.95471" lon="4.75327">
        <ele>188</ele>
        <time>2018-06-15T10:11:56Z</time>
      </trkpt>
      <trkpt lat="45.95467" lon="4.75322">
        <ele>188</ele>
        <time>2018-06-15T10:11:57Z</time>
      </trkpt>
      <trkpt lat="45.95464" lon="4.75316">
        <ele>188</ele>
        <time>2018-06-15T10:11:58Z</time>
      </trkpt>
      <trkpt lat="45.95462" lon="4.75311">
        <ele>188</ele>
        <time>2018-06-15T10:11:59Z</time>
      </trkpt>
      <trkpt lat="45.95459" lon="4.75305">
        <ele>188</ele>
        <time>2018-06-15T10:12:00Z</time>
      </trkpt>
      <trkpt lat="45.95455" lon="4.753">
        <ele>188</ele>
        <time>2018-06-15T10:12:01Z</time>
      </trkpt>
      <trkpt lat="45.95452" lon="4.75294">
        <ele>188</ele>
        <time>2018-06-15T10:12:02Z</time>
      </trkpt>
      <trkpt lat="45.9545" lon="4.75288">
        <ele>188</ele>
        <time>2018-06-15T10:12:03Z</time>
      </trkpt>
      <trkpt lat="45.95447" lon="4.75281">
        <ele>188</ele>
        <time>2018-06-15T10:12:04Z</time>
      </trkpt>
      <trkpt lat="45.95443" lon="4.75275">
        <ele>189</ele>
        <time>2018-06-15T10:12:05Z</time>
      </trkpt>
      <trkpt lat="45.95439" lon="4.7527">
        <ele>189</ele>
        <time>2018-06-15T10:12:06Z</time>
      </trkpt>
      <trkpt lat="45.95435" lon="4.75265">
        <ele>189</ele>
        <time>2018-06-15T10:12:07Z</time>
      </trkpt>
      <trkpt lat="45.95432" lon="4.75259">
        <ele>189</ele>
        <time>2018-06-15T10:12:08Z</time>
      </trkpt>
      <trkpt lat="45.95429" lon="4.75253">
        <ele>189</ele>
        <time>2018-06-15T10:12:09Z</time>
      </trkpt>
      <trkpt lat="45.95426" lon="4.75246">
        <ele>190</ele>
        <time>2018-06-15T10:12:10Z</time>
      </trkpt>
      <trkpt lat="45.95424" lon="4.75241">
        <ele>190</ele>
        <time>2018-06-15T10:12:11Z</time>
      </trkpt>
      <trkpt lat="45.9542" lon="4.75236">
        <ele>190</ele>
        <time>2018-06-15T10:12:12Z</time>
      </trkpt>
      <trkpt lat="45.95414" lon="4.75226">
        <ele>189</ele>
        <time>2018-06-15T10:12:14Z</time>
      </trkpt>
      <trkpt lat="45.95411" lon="4.7522">
        <ele>189</ele>
        <time>2018-06-15T10:12:15Z</time>
      </trkpt>
      <trkpt lat="45.95408" lon="4.75215">
        <ele>189</ele>
        <time>2018-06-15T10:12:16Z</time>
      </trkpt>
      <trkpt lat="45.95405" lon="4.75209">
        <ele>189</ele>
        <time>2018-06-15T10:12:17Z</time>
      </trkpt>
      <trkpt lat="45.95401" lon="4.75204">
        <ele>189</ele>
        <time>2018-06-15T10:12:18Z</time>
      </trkpt>
      <trkpt lat="45.95398" lon="4.75198">
        <ele>189</ele>
        <time>2018-06-15T10:12:19Z</time>
      </trkpt>
      <trkpt lat="45.95395" lon="4.75187">
        <ele>189</ele>
        <time>2018-06-15T10:12:21Z</time>
      </trkpt>
      <trkpt lat="45.95392" lon="4.75182">
        <ele>189</ele>
        <time>2018-06-15T10:12:22Z</time>
      </trkpt>
      <trkpt lat="45.95386" lon="4.75177">
        <ele>189</ele>
        <time>2018-06-15T10:12:23Z</time>
      </trkpt>
      <trkpt lat="45.95383" lon="4.75172">
        <ele>189</ele>
        <time>2018-06-15T10:12:24Z</time>
      </trkpt>
      <trkpt lat="45.95379" lon="4.75166">
        <ele>191</ele>
        <time>2018-06-15T10:12:25Z</time>
      </trkpt>
      <trkpt lat="45.95377" lon="4.75161">
        <ele>191</ele>
        <time>2018-06-15T10:12:26Z</time>
      </trkpt>
      <trkpt lat="45.95375" lon="4.75155">
        <ele>191</ele>
        <time>2018-06-15T10:12:27Z</time>
      </trkpt>
      <trkpt lat="45.95372" lon="4.75148">
        <ele>191</ele>
        <time>2018-06-15T10:12:28Z</time>
      </trkpt>
      <trkpt lat="45.95369" lon="4.75143">
        <ele>191</ele>
        <time>2018-06-15T10:12:29Z</time>
      </trkpt>
      <trkpt lat="45.95366" lon="4.75138">
        <ele>191</ele>
        <time>2018-06-15T10:12:30Z</time>
      </trkpt>
      <trkpt lat="45.95361" lon="4.75133">
        <ele>191</ele>
        <time>2018-06-15T10:12:31Z</time>
      </trkpt>
      <trkpt lat="45.95357" lon="4.75127">
        <ele>191</ele>
        <time>2018-06-15T10:12:32Z</time>
      </trkpt>
      <trkpt lat="45.95354" lon="4.75121">
        <ele>191</ele>
        <time>2018-06-15T10:12:33Z</time>
      </trkpt>
      <trkpt lat="45.9535" lon="4.75115">
        <ele>192</ele>
        <time>2018-06-15T10:12:34Z</time>
      </trkpt>
      <trkpt lat="45.95346" lon="4.7511">
        <ele>192</ele>
        <time>2018-06-15T10:12:35Z</time>
      </trkpt>
      <trkpt lat="45.95343" lon="4.75104">
        <ele>192</ele>
        <time>2018-06-15T10:12:36Z</time>
      </trkpt>
      <trkpt lat="45.95338" lon="4.75098">
        <ele>192</ele>
        <time>2018-06-15T10:12:37Z</time>
      </trkpt>
      <trkpt lat="45.95335" lon="4.75092">
        <ele>193</ele>
        <time>2018-06-15T10:12:38Z</time>
      </trkpt>
      <trkpt lat="45.95331" lon="4.75085">
        <ele>192</ele>
        <time>2018-06-15T10:12:39Z</time>
      </trkpt>
      <trkpt lat="45.95328" lon="4.75079">
        <ele>193</ele>
        <time>2018-06-15T10:12:40Z</time>
      </trkpt>
      <trkpt lat="45.95324" lon="4.75073">
        <ele>192</ele>
        <time>2018-06-15T10:12:41Z</time>
      </trkpt>
      <trkpt lat="45.9532" lon="4.75066">
        <ele>192</ele>
        <time>2018-06-15T10:12:42Z</time>
      </trkpt>
      <trkpt lat="45.95316" lon="4.7506">
        <ele>192</ele>
        <time>2018-06-15T10:12:43Z</time>
      </trkpt>
      <trkpt lat="45.95311" lon="4.75053">
        <ele>192</ele>
        <time>2018-06-15T10:12:44Z</time>
      </trkpt>
      <trkpt lat="45.95307" lon="4.75047">
        <ele>192</ele>
        <time>2018-06-15T10:12:45Z</time>
      </trkpt>
      <trkpt lat="45.95304" lon="4.75041">
        <ele>191</ele>
        <time>2018-06-15T10:12:46Z</time>
      </trkpt>
      <trkpt lat="45.953" lon="4.75036">
        <ele>191</ele>
        <time>2018-06-15T10:12:47Z</time>
      </trkpt>
      <trkpt lat="45.95298" lon="4.75031">
        <ele>191</ele>
        <time>2018-06-15T10:12:48Z</time>
      </trkpt>
      <trkpt lat="45.95294" lon="4.75026">
        <ele>191</ele>
        <time>2018-06-15T10:12:49Z</time>
      </trkpt>
      <trkpt lat="45.95291" lon="4.75021">
        <ele>191</ele>
        <time>2018-06-15T10:12:50Z</time>
      </trkpt>
      <trkpt lat="45.95286" lon="4.75015">
        <ele>191</ele>
        <time>2018-06-15T10:12:51Z</time>
      </trkpt>
      <trkpt lat="45.95284" lon="4.75009">
        <ele>191</ele>
        <time>2018-06-15T10:12:52Z</time>
      </trkpt>
      <trkpt lat="45.95281" lon="4.75004">
        <ele>191</ele>
        <time>2018-06-15T10:12:53Z</time>
      </trkpt>
      <trkpt lat="45.95277" lon="4.74999">
        <ele>192</ele>
        <time>2018-06-15T10:12:54Z</time>
      </trkpt>
      <trkpt lat="45.95274" lon="4.74994">
        <ele>192</ele>
        <time>2018-06-15T10:12:55Z</time>
      </trkpt>
      <trkpt lat="45.95272" lon="4.74988">
        <ele>192</ele>
        <time>2018-06-15T10:12:56Z</time>
      </trkpt>
      <trkpt lat="45.95268" lon="4.74983">
        <ele>192</ele>
        <time>2018-06-15T10:12:57Z</time>
      </trkpt>
      <trkpt lat="45.95264" lon="4.74976">
        <ele>192</ele>
        <time>2018-06-15T10:12:58Z</time>
      </trkpt>
      <trkpt lat="45.95262" lon="4.74971">
        <ele>192</ele>
        <time>2018-06-15T10:12:59Z</time>
      </trkpt>
      <trkpt lat="45.95257" lon="4.74965">
        <ele>192</ele>
        <time>2018-06-15T10:13:00Z</time>
      </trkpt>
      <trkpt lat="45.95253" lon="4.74959">
        <ele>192</ele>
        <time>2018-06-15T10:13:01Z</time>
      </trkpt>
      <trkpt lat="45.95249" lon="4.74954">
        <ele>192</ele>
        <time>2018-06-15T10:13:02Z</time>
      </trkpt>
      <trkpt lat="45.95246" lon="4.74948">
        <ele>192</ele>
        <time>2018-06-15T10:13:03Z</time>
      </trkpt>
      <trkpt lat="45.95242" lon="4.74941">
        <ele>192</ele>
        <time>2018-06-15T10:13:04Z</time>
      </trkpt>
      <trkpt lat="45.95238" lon="4.74937">
        <ele>192</ele>
        <time>2018-06-15T10:13:05Z</time>
      </trkpt>
      <trkpt lat="45.95235" lon="4.74931">
        <ele>192</ele>
        <time>2018-06-15T10:13:06Z</time>
      </trkpt>
      <trkpt lat="45.95231" lon="4.74925">
        <ele>192</ele>
        <time>2018-06-15T10:13:07Z</time>
      </trkpt>
      <trkpt lat="45.95228" lon="4.7492">
        <ele>192</ele>
        <time>2018-06-15T10:13:08Z</time>
      </trkpt>
      <trkpt lat="45.95224" lon="4.74915">
        <ele>193</ele>
        <time>2018-06-15T10:13:09Z</time>
      </trkpt>
      <trkpt lat="45.95221" lon="4.7491">
        <ele>193</ele>
        <time>2018-06-15T10:13:10Z</time>
      </trkpt>
      <trkpt lat="45.95216" lon="4.749">
        <ele>193</ele>
        <time>2018-06-15T10:13:12Z</time>
      </trkpt>
      <trkpt lat="45.95211" lon="4.74895">
        <ele>193</ele>
        <time>2018-06-15T10:13:13Z</time>
      </trkpt>
      <trkpt lat="45.95208" lon="4.74889">
        <ele>194</ele>
        <time>2018-06-15T10:13:14Z</time>
      </trkpt>
      <trkpt lat="45.95205" lon="4.74884">
        <ele>194</ele>
        <time>2018-06-15T10:13:15Z</time>
      </trkpt>
      <trkpt lat="45.952" lon="4.74878">
        <ele>194</ele>
        <time>2018-06-15T10:13:16Z</time>
      </trkpt>
      <trkpt lat="45.95196" lon="4.74872">
        <ele>194</ele>
        <time>2018-06-15T10:13:17Z</time>
      </trkpt>
      <trkpt lat="45.95191" lon="4.74865">
        <ele>194</ele>
        <time>2018-06-15T10:13:18Z</time>
      </trkpt>
      <trkpt lat="45.95188" lon="4.74859">
        <ele>194</ele>
        <time>2018-06-15T10:13:19Z</time>
      </trkpt>
      <trkpt lat="45.95184" lon="4.74853">
        <ele>194</ele>
        <time>2018-06-15T10:13:20Z</time>
      </trkpt>
      <trkpt lat="45.95181" lon="4.74846">
        <ele>194</ele>
        <time>2018-06-15T10:13:21Z</time>
      </trkpt>
      <trkpt lat="45.95177" lon="4.74841">
        <ele>194</ele>
        <time>2018-06-15T10:13:22Z</time>
      </trkpt>
      <trkpt lat="45.95173" lon="4.74835">
        <ele>194</ele>
        <time>2018-06-15T10:13:23Z</time>
      </trkpt>
      <trkpt lat="45.9517" lon="4.7483">
        <ele>194</ele>
        <time>2018-06-15T10:13:24Z</time>
      </trkpt>
      <trkpt lat="45.95165" lon="4.74823">
        <ele>194</ele>
        <time>2018-06-15T10:13:25Z</time>
      </trkpt>
      <trkpt lat="45.95162" lon="4.74818">
        <ele>194</ele>
        <time>2018-06-15T10:13:26Z</time>
      </trkpt>
      <trkpt lat="45.95158" lon="4.74813">
        <ele>194</ele>
        <time>2018-06-15T10:13:27Z</time>
      </trkpt>
      <trkpt lat="45.95154" lon="4.74807">
        <ele>194</ele>
        <time>2018-06-15T10:13:28Z</time>
      </trkpt>
      <trkpt lat="45.9515" lon="4.74801">
        <ele>194</ele>
        <time>2018-06-15T10:13:29Z</time>
      </trkpt>
      <trkpt lat="45.95146" lon="4.74794">
        <ele>194</ele>
        <time>2018-06-15T10:13:30Z</time>
      </trkpt>
      <trkpt lat="45.95141" lon="4.74787">
        <ele>194</ele>
        <time>2018-06-15T10:13:31Z</time>
      </trkpt>
      <trkpt lat="45.95136" lon="4.7478">
        <ele>194</ele>
        <time>2018-06-15T10:13:32Z</time>
      </trkpt>
      <trkpt lat="45.95132" lon="4.74774">
        <ele>194</ele>
        <time>2018-06-15T10:13:33Z</time>
      </trkpt>
      <trkpt lat="45.95129" lon="4.74767">
        <ele>194</ele>
        <time>2018-06-15T10:13:34Z</time>
      </trkpt>
      <trkpt lat="45.95125" lon="4.74761">
        <ele>194</ele>
        <time>2018-06-15T10:13:35Z</time>
      </trkpt>
      <trkpt lat="45.95122" lon="4.74756">
        <ele>194</ele>
        <time>2018-06-15T10:13:36Z</time>
      </trkpt>
      <trkpt lat="45.95118" lon="4.74751">
        <ele>194</ele>
        <time>2018-06-15T10:13:37Z</time>
      </trkpt>
      <trkpt lat="45.95116" lon="4.74744">
        <ele>194</ele>
        <time>2018-06-15T10:13:38Z</time>
      </trkpt>
      <trkpt lat="45.95112" lon="4.74738">
        <ele>194</ele>
        <time>2018-06-15T10:13:39Z</time>
      </trkpt>
      <trkpt lat="45.9511" lon="4.74731">
        <ele>194</ele>
        <time>2018-06-15T10:13:40Z</time>
      </trkpt>
      <trkpt lat="45.95106" lon="4.74726">
        <ele>194</ele>
        <time>2018-06-15T10:13:41Z</time>
      </trkpt>
      <trkpt lat="45.95103" lon="4.7472">
        <ele>194</ele>
        <time>2018-06-15T10:13:42Z</time>
      </trkpt>
      <trkpt lat="45.95099" lon="4.74713">
        <ele>194</ele>
        <time>2018-06-15T10:13:43Z</time>
      </trkpt>
      <trkpt lat="45.95095" lon="4.74708">
        <ele>194</ele>
        <time>2018-06-15T10:13:44Z</time>
      </trkpt>
      <trkpt lat="45.95092" lon="4.74702">
        <ele>194</ele>
        <time>2018-06-15T10:13:45Z</time>
      </trkpt>
      <trkpt lat="45.95088" lon="4.74697">
        <ele>194</ele>
        <time>2018-06-15T10:13:46Z</time>
      </trkpt>
      <trkpt lat="45.95085" lon="4.74691">
        <ele>195</ele>
        <time>2018-06-15T10:13:47Z</time>
      </trkpt>
      <trkpt lat="45.95081" lon="4.74685">
        <ele>194</ele>
        <time>2018-06-15T10:13:48Z</time>
      </trkpt>
      <trkpt lat="45.95077" lon="4.74679">
        <ele>194</ele>
        <time>2018-06-15T10:13:49Z</time>
      </trkpt>
      <trkpt lat="45.95074" lon="4.74673">
        <ele>194</ele>
        <time>2018-06-15T10:13:50Z</time>
      </trkpt>
      <trkpt lat="45.9507" lon="4.74666">
        <ele>195</ele>
        <time>2018-06-15T10:13:51Z</time>
      </trkpt>
      <trkpt lat="45.95066" lon="4.74659">
        <ele>195</ele>
        <time>2018-06-15T10:13:52Z</time>
      </trkpt>
      <trkpt lat="45.95063" lon="4.74652">
        <ele>195</ele>
        <time>2018-06-15T10:13:53Z</time>
      </trkpt>
      <trkpt lat="45.9506" lon="4.74646">
        <ele>194</ele>
        <time>2018-06-15T10:13:54Z</time>
      </trkpt>
      <trkpt lat="45.95057" lon="4.74639">
        <ele>194</ele>
        <time>2018-06-15T10:13:55Z</time>
      </trkpt>
      <trkpt lat="45.95054" lon="4.74633">
        <ele>194</ele>
        <time>2018-06-15T10:13:56Z</time>
      </trkpt>
      <trkpt lat="45.9505" lon="4.74627">
        <ele>194</ele>
        <time>2018-06-15T10:13:57Z</time>
      </trkpt>
      <trkpt lat="45.95047" lon="4.74622">
        <ele>194</ele>
        <time>2018-06-15T10:13:58Z</time>
      </trkpt>
      <trkpt lat="45.95044" lon="4.74615">
        <ele>194</ele>
        <time>2018-06-15T10:13:59Z</time>
      </trkpt>
      <trkpt lat="45.95041" lon="4.7461">
        <ele>194</ele>
        <time>2018-06-15T10:14:00Z</time>
      </trkpt>
      <trkpt lat="45.95037" lon="4.74603">
        <ele>194</ele>
        <time>2018-06-15T10:14:01Z</time>
      </trkpt>
      <trkpt lat="45.95035" lon="4.74597">
        <ele>194</ele>
        <time>2018-06-15T10:14:02Z</time>
      </trkpt>
      <trkpt lat="45.95031" lon="4.74592">
        <ele>194</ele>
        <time>2018-06-15T10:14:03Z</time>
      </trkpt>
      <trkpt lat="45.95028" lon="4.74584">
        <ele>194</ele>
        <time>2018-06-15T10:14:04Z</time>
      </trkpt>
      <trkpt lat="45.95024" lon="4.74578">
        <ele>194</ele>
        <time>2018-06-15T10:14:05Z</time>
      </trkpt>
      <trkpt lat="45.9502" lon="4.74571">
        <ele>194</ele>
        <time>2018-06-15T10:14:06Z</time>
      </trkpt>
      <trkpt lat="45.95017" lon="4.74565">
        <ele>194</ele>
        <time>2018-06-15T10:14:07Z</time>
      </trkpt>
      <trkpt lat="45.95013" lon="4.74558">
        <ele>194</ele>
        <time>2018-06-15T10:14:08Z</time>
      </trkpt>
      <trkpt lat="45.95009" lon="4.7455">
        <ele>194</ele>
        <time>2018-06-15T10:14:09Z</time>
      </trkpt>
      <trkpt lat="45.95005" lon="4.74543">
        <ele>194</ele>
        <time>2018-06-15T10:14:10Z</time>
      </trkpt>
      <trkpt lat="45.95001" lon="4.74536">
        <ele>194</ele>
        <time>2018-06-15T10:14:11Z</time>
      </trkpt>
      <trkpt lat="45.94997" lon="4.74528">
        <ele>193</ele>
        <time>2018-06-15T10:14:12Z</time>
      </trkpt>
      <trkpt lat="45.94993" lon="4.74521">
        <ele>193</ele>
        <time>2018-06-15T10:14:13Z</time>
      </trkpt>
      <trkpt lat="45.94989" lon="4.74514">
        <ele>193</ele>
        <time>2018-06-15T10:14:14Z</time>
      </trkpt>
      <trkpt lat="45.94986" lon="4.74507">
        <ele>193</ele>
        <time>2018-06-15T10:14:15Z</time>
      </trkpt>
      <trkpt lat="45.94982" lon="4.745">
        <ele>193</ele>
        <time>2018-06-15T10:14:16Z</time>
      </trkpt>
      <trkpt lat="45.94979" lon="4.74492">
        <ele>193</ele>
        <time>2018-06-15T10:14:17Z</time>
      </trkpt>
      <trkpt lat="45.94975" lon="4.74485">
        <ele>193</ele>
        <time>2018-06-15T10:14:18Z</time>
      </trkpt>
      <trkpt lat="45.94973" lon="4.74477">
        <ele>193</ele>
        <time>2018-06-15T10:14:19Z</time>
      </trkpt>
      <trkpt lat="45.94969" lon="4.74471">
        <ele>193</ele>
        <time>2018-06-15T10:14:20Z</time>
      </trkpt>
      <trkpt lat="45.94965" lon="4.74464">
        <ele>193</ele>
        <time>2018-06-15T10:14:21Z</time>
      </trkpt>
      <trkpt lat="45.94961" lon="4.74457">
        <ele>192</ele>
        <time>2018-06-15T10:14:22Z</time>
      </trkpt>
      <trkpt lat="45.94958" lon="4.74449">
        <ele>192</ele>
        <time>2018-06-15T10:14:23Z</time>
      </trkpt>
      <trkpt lat="45.94954" lon="4.74442">
        <ele>192</ele>
        <time>2018-06-15T10:14:24Z</time>
      </trkpt>
      <trkpt lat="45.94949" lon="4.74434">
        <ele>192</ele>
        <time>2018-06-15T10:14:25Z</time>
      </trkpt>
      <trkpt lat="45.94944" lon="4.74427">
        <ele>192</ele>
        <time>2018-06-15T10:14:26Z</time>
      </trkpt>
      <trkpt lat="45.94941" lon="4.7442">
        <ele>192</ele>
        <time>2018-06-15T10:14:27Z</time>
      </trkpt>
      <trkpt lat="45.94937" lon="4.74412">
        <ele>192</ele>
        <time>2018-06-15T10:14:28Z</time>
      </trkpt>
      <trkpt lat="45.94933" lon="4.74404">
        <ele>192</ele>
        <time>2018-06-15T10:14:29Z</time>
      </trkpt>
      <trkpt lat="45.94929" lon="4.74398">
        <ele>192</ele>
        <time>2018-06-15T10:14:30Z</time>
      </trkpt>
      <trkpt lat="45.94925" lon="4.74389">
        <ele>192</ele>
        <time>2018-06-15T10:14:31Z</time>
      </trkpt>
      <trkpt lat="45.94921" lon="4.74381">
        <ele>192</ele>
        <time>2018-06-15T10:14:32Z</time>
      </trkpt>
      <trkpt lat="45.94916" lon="4.74373">
        <ele>191</ele>
        <time>2018-06-15T10:14:33Z</time>
      </trkpt>
      <trkpt lat="45.94913" lon="4.74365">
        <ele>191</ele>
        <time>2018-06-15T10:14:34Z</time>
      </trkpt>
      <trkpt lat="45.94909" lon="4.74357">
        <ele>191</ele>
        <time>2018-06-15T10:14:35Z</time>
      </trkpt>
      <trkpt lat="45.94905" lon="4.74349">
        <ele>191</ele>
        <time>2018-06-15T10:14:36Z</time>
      </trkpt>
      <trkpt lat="45.94901" lon="4.7434">
        <ele>191</ele>
        <time>2018-06-15T10:14:37Z</time>
      </trkpt>
      <trkpt lat="45.94897" lon="4.74332">
        <ele>191</ele>
        <time>2018-06-15T10:14:38Z</time>
      </trkpt>
      <trkpt lat="45.94893" lon="4.74323">
        <ele>191</ele>
        <time>2018-06-15T10:14:39Z</time>
      </trkpt>
      <trkpt lat="45.94889" lon="4.74316">
        <ele>191</ele>
        <time>2018-06-15T10:14:40Z</time>
      </trkpt>
      <trkpt lat="45.94885" lon="4.74308">
        <ele>191</ele>
        <time>2018-06-15T10:14:41Z</time>
      </trkpt>
      <trkpt lat="45.94881" lon="4.743">
        <ele>191</ele>
        <time>2018-06-15T10:14:42Z</time>
      </trkpt>
      <trkpt lat="45.94877" lon="4.74293">
        <ele>191</ele>
        <time>2018-06-15T10:14:43Z</time>
      </trkpt>
      <trkpt lat="45.94873" lon="4.74286">
        <ele>191</ele>
        <time>2018-06-15T10:14:44Z</time>
      </trkpt>
      <trkpt lat="45.9487" lon="4.74279">
        <ele>191</ele>
        <time>2018-06-15T10:14:45Z</time>
      </trkpt>
      <trkpt lat="45.94866" lon="4.74272">
        <ele>191</ele>
        <time>2018-06-15T10:14:46Z</time>
      </trkpt>
      <trkpt lat="45.94863" lon="4.74264">
        <ele>190</ele>
        <time>2018-06-15T10:14:47Z</time>
      </trkpt>
      <trkpt lat="45.94859" lon="4.74256">
        <ele>190</ele>
        <time>2018-06-15T10:14:48Z</time>
      </trkpt>
      <trkpt lat="45.94855" lon="4.74249">
        <ele>190</ele>
        <time>2018-06-15T10:14:49Z</time>
      </trkpt>
      <trkpt lat="45.94851" lon="4.7424">
        <ele>190</ele>
        <time>2018-06-15T10:14:50Z</time>
      </trkpt>
      <trkpt lat="45.94846" lon="4.74232">
        <ele>190</ele>
        <time>2018-06-15T10:14:51Z</time>
      </trkpt>
      <trkpt lat="45.94842" lon="4.74224">
        <ele>190</ele>
        <time>2018-06-15T10:14:52Z</time>
      </trkpt>
      <trkpt lat="45.94838" lon="4.74217">
        <ele>190</ele>
        <time>2018-06-15T10:14:53Z</time>
      </trkpt>
      <trkpt lat="45.94833" lon="4.74209">
        <ele>189</ele>
        <time>2018-06-15T10:14:54Z</time>
      </trkpt>
      <trkpt lat="45.94829" lon="4.74202">
        <ele>189</ele>
        <time>2018-06-15T10:14:55Z</time>
      </trkpt>
      <trkpt lat="45.94825" lon="4.74194">
        <ele>189</ele>
        <time>2018-06-15T10:14:56Z</time>
      </trkpt>
      <trkpt lat="45.94821" lon="4.74186">
        <ele>189</ele>
        <time>2018-06-15T10:14:57Z</time>
      </trkpt>
      <trkpt lat="45.94817" lon="4.74179">
        <ele>189</ele>
        <time>2018-06-15T10:14:58Z</time>
      </trkpt>
      <trkpt lat="45.94813" lon="4.74172">
        <ele>189</ele>
        <time>2018-06-15T10:14:59Z</time>
      </trkpt>
      <trkpt lat="45.94809" lon="4.74165">
        <ele>189</ele>
        <time>2018-06-15T10:15:00Z</time>
      </trkpt>
      <trkpt lat="45.94807" lon="4.74157">
        <ele>189</ele>
        <time>2018-06-15T10:15:01Z</time>
      </trkpt>
      <trkpt lat="45.94803" lon="4.7415">
        <ele>189</ele>
        <time>2018-06-15T10:15:02Z</time>
      </trkpt>
      <trkpt lat="45.948" lon="4.74144">
        <ele>189</ele>
        <time>2018-06-15T10:15:03Z</time>
      </trkpt>
      <trkpt lat="45.94796" lon="4.74137">
        <ele>189</ele>
        <time>2018-06-15T10:15:04Z</time>
      </trkpt>
      <trkpt lat="45.94792" lon="4.7413">
        <ele>189</ele>
        <time>2018-06-15T10:15:05Z</time>
      </trkpt>
      <trkpt lat="45.94788" lon="4.74124">
        <ele>189</ele>
        <time>2018-06-15T10:15:06Z</time>
      </trkpt>
      <trkpt lat="45.94783" lon="4.74119">
        <ele>189</ele>
        <time>2018-06-15T10:15:07Z</time>
      </trkpt>
      <trkpt lat="45.94779" lon="4.74113">
        <ele>189</ele>
        <time>2018-06-15T10:15:08Z</time>
      </trkpt>
      <trkpt lat="45.94774" lon="4.74107">
        <ele>189</ele>
        <time>2018-06-15T10:15:09Z</time>
      </trkpt>
      <trkpt lat="45.9477" lon="4.74101">
        <ele>189</ele>
        <time>2018-06-15T10:15:10Z</time>
      </trkpt>
      <trkpt lat="45.94765" lon="4.74095">
        <ele>189</ele>
        <time>2018-06-15T10:15:11Z</time>
      </trkpt>
      <trkpt lat="45.94761" lon="4.74089">
        <ele>189</ele>
        <time>2018-06-15T10:15:12Z</time>
      </trkpt>
      <trkpt lat="45.94754" lon="4.74084">
        <ele>189</ele>
        <time>2018-06-15T10:15:13Z</time>
      </trkpt>
      <trkpt lat="45.9475" lon="4.74079">
        <ele>189</ele>
        <time>2018-06-15T10:15:14Z</time>
      </trkpt>
      <trkpt lat="45.94745" lon="4.74073">
        <ele>188</ele>
        <time>2018-06-15T10:15:15Z</time>
      </trkpt>
      <trkpt lat="45.94742" lon="4.74067">
        <ele>188</ele>
        <time>2018-06-15T10:15:16Z</time>
      </trkpt>
      <trkpt lat="45.94738" lon="4.74062">
        <ele>188</ele>
        <time>2018-06-15T10:15:17Z</time>
      </trkpt>
      <trkpt lat="45.94734" lon="4.74057">
        <ele>188</ele>
        <time>2018-06-15T10:15:18Z</time>
      </trkpt>
      <trkpt lat="45.9473" lon="4.74051">
        <ele>188</ele>
        <time>2018-06-15T10:15:19Z</time>
      </trkpt>
      <trkpt lat="45.94726" lon="4.74045">
        <ele>188</ele>
        <time>2018-06-15T10:15:20Z</time>
      </trkpt>
      <trkpt lat="45.94721" lon="4.7404">
        <ele>187</ele>
        <time>2018-06-15T10:15:21Z</time>
      </trkpt>
      <trkpt lat="45.94717" lon="4.74035">
        <ele>187</ele>
        <time>2018-06-15T10:15:22Z</time>
      </trkpt>
      <trkpt lat="45.94714" lon="4.7403">
        <ele>187</ele>
        <time>2018-06-15T10:15:23Z</time>
      </trkpt>
      <trkpt lat="45.9471" lon="4.74025">
        <ele>187</ele>
        <time>2018-06-15T10:15:24Z</time>
      </trkpt>
      <trkpt lat="45.94706" lon="4.74019">
        <ele>187</ele>
        <time>2018-06-15T10:15:25Z</time>
      </trkpt>
      <trkpt lat="45.94701" lon="4.74014">
        <ele>187</ele>
        <time>2018-06-15T10:15:26Z</time>
      </trkpt>
      <trkpt lat="45.94697" lon="4.74008">
        <ele>187</ele>
        <time>2018-06-15T10:15:27Z</time>
      </trkpt>
      <trkpt lat="45.94693" lon="4.74002">
        <ele>187</ele>
        <time>2018-06-15T10:15:28Z</time>
      </trkpt>
      <trkpt lat="45.94689" lon="4.73996">
        <ele>187</ele>
        <time>2018-06-15T10:15:29Z</time>
      </trkpt>
      <trkpt lat="45.94685" lon="4.7399">
        <ele>187</ele>
        <time>2018-06-15T10:15:30Z</time>
      </trkpt>
      <trkpt lat="45.9468" lon="4.73985">
        <ele>187</ele>
        <time>2018-06-15T10:15:31Z</time>
      </trkpt>
      <trkpt lat="45.94676" lon="4.73979">
        <ele>187</ele>
        <time>2018-06-15T10:15:32Z</time>
      </trkpt>
      <trkpt lat="45.94672" lon="4.73974">
        <ele>187</ele>
        <time>2018-06-15T10:15:33Z</time>
      </trkpt>
      <trkpt lat="45.94667" lon="4.73968">
        <ele>187</ele>
        <time>2018-06-15T10:15:34Z</time>
      </trkpt>
      <trkpt lat="45.94662" lon="4.73962">
        <ele>187</ele>
        <time>2018-06-15T10:15:35Z</time>
      </trkpt>
      <trkpt lat="45.94658" lon="4.73955">
        <ele>187</ele>
        <time>2018-06-15T10:15:36Z</time>
      </trkpt>
      <trkpt lat="45.94653" lon="4.73949">
        <ele>187</ele>
        <time>2018-06-15T10:15:37Z</time>
      </trkpt>
      <trkpt lat="45.94649" lon="4.73943">
        <ele>187</ele>
        <time>2018-06-15T10:15:38Z</time>
      </trkpt>
      <trkpt lat="45.94644" lon="4.73937">
        <ele>187</ele>
        <time>2018-06-15T10:15:39Z</time>
      </trkpt>
      <trkpt lat="45.9464" lon="4.73932">
        <ele>187</ele>
        <time>2018-06-15T10:15:40Z</time>
      </trkpt>
      <trkpt lat="45.94635" lon="4.73926">
        <ele>187</ele>
        <time>2018-06-15T10:15:41Z</time>
      </trkpt>
      <trkpt lat="45.9463" lon="4.7392">
        <ele>187</ele>
        <time>2018-06-15T10:15:42Z</time>
      </trkpt>
      <trkpt lat="45.94625" lon="4.73913">
        <ele>187</ele>
        <time>2018-06-15T10:15:43Z</time>
      </trkpt>
      <trkpt lat="45.9462" lon="4.73907">
        <ele>187</ele>
        <time>2018-06-15T10:15:44Z</time>
      </trkpt>
      <trkpt lat="45.94615" lon="4.73899">
        <ele>187</ele>
        <time>2018-06-15T10:15:45Z</time>
      </trkpt>
      <trkpt lat="45.94609" lon="4.73893">
        <ele>187</ele>
        <time>2018-06-15T10:15:46Z</time>
      </trkpt>
      <trkpt lat="45.94605" lon="4.73888">
        <ele>187</ele>
        <time>2018-06-15T10:15:47Z</time>
      </trkpt>
      <trkpt lat="45.946" lon="4.73881">
        <ele>187</ele>
        <time>2018-06-15T10:15:48Z</time>
      </trkpt>
      <trkpt lat="45.94595" lon="4.73876">
        <ele>187</ele>
        <time>2018-06-15T10:15:49Z</time>
      </trkpt>
      <trkpt lat="45.9459" lon="4.7387">
        <ele>187</ele>
        <time>2018-06-15T10:15:50Z</time>
      </trkpt>
      <trkpt lat="45.94585" lon="4.73864">
        <ele>187</ele>
        <time>2018-06-15T10:15:51Z</time>
      </trkpt>
      <trkpt lat="45.9458" lon="4.7386">
        <ele>186</ele>
        <time>2018-06-15T10:15:52Z</time>
      </trkpt>
      <trkpt lat="45.94575" lon="4.73854">
        <ele>186</ele>
        <time>2018-06-15T10:15:53Z</time>
      </trkpt>
      <trkpt lat="45.94569" lon="4.73848">
        <ele>186</ele>
        <time>2018-06-15T10:15:54Z</time>
      </trkpt>
      <trkpt lat="45.94564" lon="4.73843">
        <ele>186</ele>
        <time>2018-06-15T10:15:55Z</time>
      </trkpt>
      <trkpt lat="45.94558" lon="4.73838">
        <ele>186</ele>
        <time>2018-06-15T10:15:56Z</time>
      </trkpt>
      <trkpt lat="45.94553" lon="4.73831">
        <ele>186</ele>
        <time>2018-06-15T10:15:57Z</time>
      </trkpt>
      <trkpt lat="45.94547" lon="4.73826">
        <ele>186</ele>
        <time>2018-06-15T10:15:58Z</time>
      </trkpt>
      <trkpt lat="45.94541" lon="4.73821">
        <ele>186</ele>
        <time>2018-06-15T10:15:59Z</time>
      </trkpt>
      <trkpt lat="45.94536" lon="4.73816">
        <ele>186</ele>
        <time>2018-06-15T10:16:00Z</time>
      </trkpt>
      <trkpt lat="45.94531" lon="4.73811">
        <ele>186</ele>
        <time>2018-06-15T10:16:01Z</time>
      </trkpt>
      <trkpt lat="45.94526" lon="4.73807">
        <ele>186</ele>
        <time>2018-06-15T10:16:02Z</time>
      </trkpt>
      <trkpt lat="45.94521" lon="4.73802">
        <ele>186</ele>
        <time>2018-06-15T10:16:03Z</time>
      </trkpt>
      <trkpt lat="45.94517" lon="4.73796">
        <ele>186</ele>
        <time>2018-06-15T10:16:04Z</time>
      </trkpt>
      <trkpt lat="45.94513" lon="4.73791">
        <ele>186</ele>
        <time>2018-06-15T10:16:05Z</time>
      </trkpt>
      <trkpt lat="45.94509" lon="4.73786">
        <ele>186</ele>
        <time>2018-06-15T10:16:06Z</time>
      </trkpt>
      <trkpt lat="45.94504" lon="4.73781">
        <ele>186</ele>
        <time>2018-06-15T10:16:07Z</time>
      </trkpt>
      <trkpt lat="45.94501" lon="4.73775">
        <ele>186</ele>
        <time>2018-06-15T10:16:08Z</time>
      </trkpt>
      <trkpt lat="45.94496" lon="4.73769">
        <ele>186</ele>
        <time>2018-06-15T10:16:09Z</time>
      </trkpt>
      <trkpt lat="45.94492" lon="4.73763">
        <ele>186</ele>
        <time>2018-06-15T10:16:10Z</time>
      </trkpt>
      <trkpt lat="45.94489" lon="4.73757">
        <ele>186</ele>
        <time>2018-06-15T10:16:11Z</time>
      </trkpt>
      <trkpt lat="45.94487" lon="4.73749">
        <ele>186</ele>
        <time>2018-06-15T10:16:12Z</time>
      </trkpt>
      <trkpt lat="45.94486" lon="4.73742">
        <ele>186</ele>
        <time>2018-06-15T10:16:13Z</time>
      </trkpt>
      <trkpt lat="45.94485" lon="4.73734">
        <ele>186</ele>
        <time>2018-06-15T10:16:14Z</time>
      </trkpt>
      <trkpt lat="45.94487" lon="4.73724">
        <ele>186</ele>
        <time>2018-06-15T10:16:15Z</time>
      </trkpt>
      <trkpt lat="45.94489" lon="4.73715">
        <ele>186</ele>
        <time>2018-06-15T10:16:16Z</time>
      </trkpt>
      <trkpt lat="45.94491" lon="4.73706">
        <ele>186</ele>
        <time>2018-06-15T10:16:17Z</time>
      </trkpt>
      <trkpt lat="45.94492" lon="4.73698">
        <ele>186</ele>
        <time>2018-06-15T10:16:18Z</time>
      </trkpt>
      <trkpt lat="45.94493" lon="4.73688">
        <ele>186</ele>
        <time>2018-06-15T10:16:19Z</time>
      </trkpt>
      <trkpt lat="45.94493" lon="4.73679">
        <ele>185</ele>
        <time>2018-06-15T10:16:20Z</time>
      </trkpt>
      <trkpt lat="45.94493" lon="4.73669">
        <ele>185</ele>
        <time>2018-06-15T10:16:21Z</time>
      </trkpt>
      <trkpt lat="45.94495" lon="4.73659">
        <ele>185</ele>
        <time>2018-06-15T10:16:22Z</time>
      </trkpt>
      <trkpt lat="45.94497" lon="4.73651">
        <ele>185</ele>
        <time>2018-06-15T10:16:23Z</time>
      </trkpt>
      <trkpt lat="45.94498" lon="4.73641">
        <ele>186</ele>
        <time>2018-06-15T10:16:24Z</time>
      </trkpt>
      <trkpt lat="45.94499" lon="4.73633">
        <ele>186</ele>
        <time>2018-06-15T10:16:25Z</time>
      </trkpt>
      <trkpt lat="45.94501" lon="4.73624">
        <ele>184</ele>
        <time>2018-06-15T10:16:26Z</time>
      </trkpt>
      <trkpt lat="45.94502" lon="4.73615">
        <ele>184</ele>
        <time>2018-06-15T10:16:27Z</time>
      </trkpt>
      <trkpt lat="45.94504" lon="4.73607">
        <ele>184</ele>
        <time>2018-06-15T10:16:28Z</time>
      </trkpt>
      <trkpt lat="45.94503" lon="4.73599">
        <ele>184</ele>
        <time>2018-06-15T10:16:29Z</time>
      </trkpt>
      <trkpt lat="45.94504" lon="4.73589">
        <ele>185</ele>
        <time>2018-06-15T10:16:30Z</time>
      </trkpt>
      <trkpt lat="45.94504" lon="4.73581">
        <ele>185</ele>
        <time>2018-06-15T10:16:31Z</time>
      </trkpt>
      <trkpt lat="45.94505" lon="4.73572">
        <ele>184</ele>
        <time>2018-06-15T10:16:32Z</time>
      </trkpt>
      <trkpt lat="45.94505" lon="4.73564">
        <ele>184</ele>
        <time>2018-06-15T10:16:33Z</time>
      </trkpt>
      <trkpt lat="45.94505" lon="4.73554">
        <ele>183</ele>
        <time>2018-06-15T10:16:34Z</time>
      </trkpt>
      <trkpt lat="45.94507" lon="4.73545">
        <ele>183</ele>
        <time>2018-06-15T10:16:35Z</time>
      </trkpt>
      <trkpt lat="45.94507" lon="4.73536">
        <ele>183</ele>
        <time>2018-06-15T10:16:36Z</time>
      </trkpt>
      <trkpt lat="45.94507" lon="4.73526">
        <ele>183</ele>
        <time>2018-06-15T10:16:37Z</time>
      </trkpt>
      <trkpt lat="45.94507" lon="4.73516">
        <ele>183</ele>
        <time>2018-06-15T10:16:38Z</time>
      </trkpt>
      <trkpt lat="45.94506" lon="4.73505">
        <ele>183</ele>
        <time>2018-06-15T10:16:39Z</time>
      </trkpt>
      <trkpt lat="45.94506" lon="4.73495">
        <ele>182</ele>
        <time>2018-06-15T10:16:40Z</time>
      </trkpt>
      <trkpt lat="45.94505" lon="4.73485">
        <ele>182</ele>
        <time>2018-06-15T10:16:41Z</time>
      </trkpt>
      <trkpt lat="45.94505" lon="4.73475">
        <ele>182</ele>
        <time>2018-06-15T10:16:42Z</time>
      </trkpt>
      <trkpt lat="45.94506" lon="4.73464">
        <ele>181</ele>
        <time>2018-06-15T10:16:43Z</time>
      </trkpt>
      <trkpt lat="45.94506" lon="4.73454">
        <ele>181</ele>
        <time>2018-06-15T10:16:44Z</time>
      </trkpt>
      <trkpt lat="45.94506" lon="4.73443">
        <ele>181</ele>
        <time>2018-06-15T10:16:45Z</time>
      </trkpt>
      <trkpt lat="45.94505" lon="4.73432">
        <ele>181</ele>
        <time>2018-06-15T10:16:46Z</time>
      </trkpt>
      <trkpt lat="45.94504" lon="4.73421">
        <ele>180</ele>
        <time>2018-06-15T10:16:47Z</time>
      </trkpt>
      <trkpt lat="45.94504" lon="4.73409">
        <ele>179</ele>
        <time>2018-06-15T10:16:48Z</time>
      </trkpt>
      <trkpt lat="45.94503" lon="4.73399">
        <ele>179</ele>
        <time>2018-06-15T10:16:49Z</time>
      </trkpt>
      <trkpt lat="45.94502" lon="4.73388">
        <ele>179</ele>
        <time>2018-06-15T10:16:50Z</time>
      </trkpt>
      <trkpt lat="45.94501" lon="4.73376">
        <ele>178</ele>
        <time>2018-06-15T10:16:51Z</time>
      </trkpt>
      <trkpt lat="45.94499" lon="4.73366">
        <ele>179</ele>
        <time>2018-06-15T10:16:52Z</time>
      </trkpt>
      <trkpt lat="45.94498" lon="4.73355">
        <ele>178</ele>
        <time>2018-06-15T10:16:53Z</time>
      </trkpt>
      <trkpt lat="45.94498" lon="4.73344">
        <ele>178</ele>
        <time>2018-06-15T10:16:54Z</time>
      </trkpt>
      <trkpt lat="45.94497" lon="4.73332">
        <ele>177</ele>
        <time>2018-06-15T10:16:55Z</time>
      </trkpt>
      <trkpt lat="45.94496" lon="4.73321">
        <ele>177</ele>
        <time>2018-06-15T10:16:56Z</time>
      </trkpt>
      <trkpt lat="45.94495" lon="4.73309">
        <ele>177</ele>
        <time>2018-06-15T10:16:57Z</time>
      </trkpt>
      <trkpt lat="45.94493" lon="4.73299">
        <ele>177</ele>
        <time>2018-06-15T10:16:58Z</time>
      </trkpt>
      <trkpt lat="45.9449" lon="4.73288">
        <ele>177</ele>
        <time>2018-06-15T10:16:59Z</time>
      </trkpt>
      <trkpt lat="45.94488" lon="4.73276">
        <ele>177</ele>
        <time>2018-06-15T10:17:00Z</time>
      </trkpt>
      <trkpt lat="45.94487" lon="4.73265">
        <ele>177</ele>
        <time>2018-06-15T10:17:01Z</time>
      </trkpt>
      <trkpt lat="45.94485" lon="4.73254">
        <ele>176</ele>
        <time>2018-06-15T10:17:02Z</time>
      </trkpt>
      <trkpt lat="45.94484" lon="4.73243">
        <ele>175</ele>
        <time>2018-06-15T10:17:03Z</time>
      </trkpt>
      <trkpt lat="45.94483" lon="4.73231">
        <ele>175</ele>
        <time>2018-06-15T10:17:04Z</time>
      </trkpt>
      <trkpt lat="45.94482" lon="4.7322">
        <ele>175</ele>
        <time>2018-06-15T10:17:05Z</time>
      </trkpt>
      <trkpt lat="45.9448" lon="4.73209">
        <ele>175</ele>
        <time>2018-06-15T10:17:06Z</time>
      </trkpt>
      <trkpt lat="45.94479" lon="4.73198">
        <ele>174</ele>
        <time>2018-06-15T10:17:07Z</time>
      </trkpt>
      <trkpt lat="45.94477" lon="4.73187">
        <ele>174</ele>
        <time>2018-06-15T10:17:08Z</time>
      </trkpt>
      <trkpt lat="45.94475" lon="4.73175">
        <ele>174</ele>
        <time>2018-06-15T10:17:09Z</time>
      </trkpt>
      <trkpt lat="45.94474" lon="4.73164">
        <ele>173</ele>
        <time>2018-06-15T10:17:10Z</time>
      </trkpt>
      <trkpt lat="45.94471" lon="4.73153">
        <ele>172</ele>
        <time>2018-06-15T10:17:11Z</time>
      </trkpt>
      <trkpt lat="45.9447" lon="4.73141">
        <ele>172</ele>
        <time>2018-06-15T10:17:12Z</time>
      </trkpt>
      <trkpt lat="45.94468" lon="4.7313">
        <ele>172</ele>
        <time>2018-06-15T10:17:13Z</time>
      </trkpt>
      <trkpt lat="45.94466" lon="4.73119">
        <ele>172</ele>
        <time>2018-06-15T10:17:14Z</time>
      </trkpt>
      <trkpt lat="45.94464" lon="4.73107">
        <ele>172</ele>
        <time>2018-06-15T10:17:15Z</time>
      </trkpt>
      <trkpt lat="45.94461" lon="4.73096">
        <ele>171</ele>
        <time>2018-06-15T10:17:16Z</time>
      </trkpt>
      <trkpt lat="45.9446" lon="4.73086">
        <ele>171</ele>
        <time>2018-06-15T10:17:17Z</time>
      </trkpt>
      <trkpt lat="45.94458" lon="4.73075">
        <ele>170</ele>
        <time>2018-06-15T10:17:18Z</time>
      </trkpt>
      <trkpt lat="45.94456" lon="4.73064">
        <ele>170</ele>
        <time>2018-06-15T10:17:19Z</time>
      </trkpt>
      <trkpt lat="45.94455" lon="4.73053">
        <ele>170</ele>
        <time>2018-06-15T10:17:20Z</time>
      </trkpt>
      <trkpt lat="45.94453" lon="4.73043">
        <ele>169</ele>
        <time>2018-06-15T10:17:21Z</time>
      </trkpt>
      <trkpt lat="45.94451" lon="4.73034">
        <ele>169</ele>
        <time>2018-06-15T10:17:22Z</time>
      </trkpt>
      <trkpt lat="45.94449" lon="4.73025">
        <ele>169</ele>
        <time>2018-06-15T10:17:23Z</time>
      </trkpt>
      <trkpt lat="45.94448" lon="4.73017">
        <ele>169</ele>
        <time>2018-06-15T10:17:24Z</time>
      </trkpt>
      <trkpt lat="45.94447" lon="4.73008">
        <ele>169</ele>
        <time>2018-06-15T10:17:25Z</time>
      </trkpt>
      <trkpt lat="45.94445" lon="4.73">
        <ele>167</ele>
        <time>2018-06-15T10:17:26Z</time>
      </trkpt>
      <trkpt lat="45.94444" lon="4.72992">
        <ele>167</ele>
        <time>2018-06-15T10:17:27Z</time>
      </trkpt>
      <trkpt lat="45.94444" lon="4.72983">
        <ele>167</ele>
        <time>2018-06-15T10:17:28Z</time>
      </trkpt>
      <trkpt lat="45.94442" lon="4.72976">
        <ele>167</ele>
        <time>2018-06-15T10:17:29Z</time>
      </trkpt>
      <trkpt lat="45.94442" lon="4.72968">
        <ele>167</ele>
        <time>2018-06-15T10:17:30Z</time>
      </trkpt>
      <trkpt lat="45.94441" lon="4.7296">
        <ele>167</ele>
        <time>2018-06-15T10:17:31Z</time>
      </trkpt>
      <trkpt lat="45.94439" lon="4.72952">
        <ele>167</ele>
        <time>2018-06-15T10:17:32Z</time>
      </trkpt>
      <trkpt lat="45.94439" lon="4.72945">
        <ele>167</ele>
        <time>2018-06-15T10:17:33Z</time>
      </trkpt>
      <trkpt lat="45.94438" lon="4.72938">
        <ele>167</ele>
        <time>2018-06-15T10:17:34Z</time>
      </trkpt>
      <trkpt lat="45.94437" lon="4.72931">
        <ele>167</ele>
        <time>2018-06-15T10:17:35Z</time>
      </trkpt>
      <trkpt lat="45.94436" lon="4.72924">
        <ele>167</ele>
        <time>2018-06-15T10:17:36Z</time>
      </trkpt>
      <trkpt lat="45.94435" lon="4.72917">
        <ele>167</ele>
        <time>2018-06-15T10:17:37Z</time>
      </trkpt>
      <trkpt lat="45.94434" lon="4.7291">
        <ele>166</ele>
        <time>2018-06-15T10:17:38Z</time>
      </trkpt>
      <trkpt lat="45.94433" lon="4.72902">
        <ele>166</ele>
        <time>2018-06-15T10:17:39Z</time>
      </trkpt>
      <trkpt lat="45.94432" lon="4.72895">
        <ele>166</ele>
        <time>2018-06-15T10:17:40Z</time>
      </trkpt>
      <trkpt lat="45.94432" lon="4.72887">
        <ele>166</ele>
        <time>2018-06-15T10:17:41Z</time>
      </trkpt>
      <trkpt lat="45.94431" lon="4.72879">
        <ele>166</ele>
        <time>2018-06-15T10:17:42Z</time>
      </trkpt>
      <trkpt lat="45.9443" lon="4.72872">
        <ele>166</ele>
        <time>2018-06-15T10:17:43Z</time>
      </trkpt>
      <trkpt lat="45.94429" lon="4.72864">
        <ele>166</ele>
        <time>2018-06-15T10:17:44Z</time>
      </trkpt>
      <trkpt lat="45.94427" lon="4.72856">
        <ele>166</ele>
        <time>2018-06-15T10:17:45Z</time>
      </trkpt>
      <trkpt lat="45.94426" lon="4.72848">
        <ele>166</ele>
        <time>2018-06-15T10:17:46Z</time>
      </trkpt>
      <trkpt lat="45.94426" lon="4.7284">
        <ele>166</ele>
        <time>2018-06-15T10:17:47Z</time>
      </trkpt>
      <trkpt lat="45.94425" lon="4.72831">
        <ele>166</ele>
        <time>2018-06-15T10:17:48Z</time>
      </trkpt>
      <trkpt lat="45.94424" lon="4.72822">
        <ele>167</ele>
        <time>2018-06-15T10:17:49Z</time>
      </trkpt>
      <trkpt lat="45.94423" lon="4.72813">
        <ele>167</ele>
        <time>2018-06-15T10:17:50Z</time>
      </trkpt>
      <trkpt lat="45.94421" lon="4.72805">
        <ele>167</ele>
        <time>2018-06-15T10:17:51Z</time>
      </trkpt>
      <trkpt lat="45.94421" lon="4.72796">
        <ele>168</ele>
        <time>2018-06-15T10:17:52Z</time>
      </trkpt>
      <trkpt lat="45.94419" lon="4.72786">
        <ele>168</ele>
        <time>2018-06-15T10:17:53Z</time>
      </trkpt>
      <trkpt lat="45.94418" lon="4.72777">
        <ele>168</ele>
        <time>2018-06-15T10:17:54Z</time>
      </trkpt>
      <trkpt lat="45.94415" lon="4.72767">
        <ele>170</ele>
        <time>2018-06-15T10:17:55Z</time>
      </trkpt>
      <trkpt lat="45.94414" lon="4.72758">
        <ele>170</ele>
        <time>2018-06-15T10:17:56Z</time>
      </trkpt>
      <trkpt lat="45.94413" lon="4.72749">
        <ele>171</ele>
        <time>2018-06-15T10:17:57Z</time>
      </trkpt>
      <trkpt lat="45.94413" lon="4.72739">
        <ele>171</ele>
        <time>2018-06-15T10:17:58Z</time>
      </trkpt>
      <trkpt lat="45.94412" lon="4.7273">
        <ele>172</ele>
        <time>2018-06-15T10:17:59Z</time>
      </trkpt>
      <trkpt lat="45.94411" lon="4.72721">
        <ele>172</ele>
        <time>2018-06-15T10:18:00Z</time>
      </trkpt>
      <trkpt lat="45.9441" lon="4.72711">
        <ele>172</ele>
        <time>2018-06-15T10:18:01Z</time>
      </trkpt>
      <trkpt lat="45.9441" lon="4.72701">
        <ele>172</ele>
        <time>2018-06-15T10:18:02Z</time>
      </trkpt>
      <trkpt lat="45.94408" lon="4.72692">
        <ele>173</ele>
        <time>2018-06-15T10:18:03Z</time>
      </trkpt>
      <trkpt lat="45.94409" lon="4.72683">
        <ele>173</ele>
        <time>2018-06-15T10:18:04Z</time>
      </trkpt>
      <trkpt lat="45.94407" lon="4.72673">
        <ele>173</ele>
        <time>2018-06-15T10:18:05Z</time>
      </trkpt>
      <trkpt lat="45.94405" lon="4.72664">
        <ele>174</ele>
        <time>2018-06-15T10:18:06Z</time>
      </trkpt>
      <trkpt lat="45.94403" lon="4.72656">
        <ele>174</ele>
        <time>2018-06-15T10:18:07Z</time>
      </trkpt>
      <trkpt lat="45.94401" lon="4.72646">
        <ele>174</ele>
        <time>2018-06-15T10:18:08Z</time>
      </trkpt>
      <trkpt lat="45.944" lon="4.72635">
        <ele>174</ele>
        <time>2018-06-15T10:18:09Z</time>
      </trkpt>
      <trkpt lat="45.94399" lon="4.72626">
        <ele>174</ele>
        <time>2018-06-15T10:18:10Z</time>
      </trkpt>
      <trkpt lat="45.94399" lon="4.72615">
        <ele>173</ele>
        <time>2018-06-15T10:18:11Z</time>
      </trkpt>
      <trkpt lat="45.94398" lon="4.72606">
        <ele>173</ele>
        <time>2018-06-15T10:18:12Z</time>
      </trkpt>
      <trkpt lat="45.94395" lon="4.72595">
        <ele>173</ele>
        <time>2018-06-15T10:18:13Z</time>
      </trkpt>
      <trkpt lat="45.94394" lon="4.72586">
        <ele>173</ele>
        <time>2018-06-15T10:18:14Z</time>
      </trkpt>
      <trkpt lat="45.94393" lon="4.72578">
        <ele>173</ele>
        <time>2018-06-15T10:18:15Z</time>
      </trkpt>
      <trkpt lat="45.94391" lon="4.7257">
        <ele>173</ele>
        <time>2018-06-15T10:18:16Z</time>
      </trkpt>
      <trkpt lat="45.9439" lon="4.72561">
        <ele>173</ele>
        <time>2018-06-15T10:18:17Z</time>
      </trkpt>
      <trkpt lat="45.94389" lon="4.72553">
        <ele>173</ele>
        <time>2018-06-15T10:18:18Z</time>
      </trkpt>
      <trkpt lat="45.94386" lon="4.72544">
        <ele>173</ele>
        <time>2018-06-15T10:18:19Z</time>
      </trkpt>
      <trkpt lat="45.94384" lon="4.72536">
        <ele>174</ele>
        <time>2018-06-15T10:18:20Z</time>
      </trkpt>
      <trkpt lat="45.94382" lon="4.72529">
        <ele>174</ele>
        <time>2018-06-15T10:18:21Z</time>
      </trkpt>
      <trkpt lat="45.9438" lon="4.7252">
        <ele>174</ele>
        <time>2018-06-15T10:18:22Z</time>
      </trkpt>
      <trkpt lat="45.94378" lon="4.72513">
        <ele>174</ele>
        <time>2018-06-15T10:18:23Z</time>
      </trkpt>
      <trkpt lat="45.94375" lon="4.72505">
        <ele>173</ele>
        <time>2018-06-15T10:18:24Z</time>
      </trkpt>
      <trkpt lat="45.94373" lon="4.72494">
        <ele>173</ele>
        <time>2018-06-15T10:18:25Z</time>
      </trkpt>
      <trkpt lat="45.9437" lon="4.72486">
        <ele>173</ele>
        <time>2018-06-15T10:18:26Z</time>
      </trkpt>
      <trkpt lat="45.94367" lon="4.72478">
        <ele>173</ele>
        <time>2018-06-15T10:18:27Z</time>
      </trkpt>
      <trkpt lat="45.94365" lon="4.7247">
        <ele>173</ele>
        <time>2018-06-15T10:18:28Z</time>
      </trkpt>
      <trkpt lat="45.94361" lon="4.72462">
        <ele>173</ele>
        <time>2018-06-15T10:18:29Z</time>
      </trkpt>
      <trkpt lat="45.94357" lon="4.72454">
        <ele>173</ele>
        <time>2018-06-15T10:18:30Z</time>
      </trkpt>
      <trkpt lat="45.94354" lon="4.72447">
        <ele>173</ele>
        <time>2018-06-15T10:18:31Z</time>
      </trkpt>
      <trkpt lat="45.94351" lon="4.72439">
        <ele>173</ele>
        <time>2018-06-15T10:18:32Z</time>
      </trkpt>
      <trkpt lat="45.94348" lon="4.72432">
        <ele>173</ele>
        <time>2018-06-15T10:18:33Z</time>
      </trkpt>
      <trkpt lat="45.94345" lon="4.72426">
        <ele>173</ele>
        <time>2018-06-15T10:18:34Z</time>
      </trkpt>
      <trkpt lat="45.94343" lon="4.72417">
        <ele>173</ele>
        <time>2018-06-15T10:18:35Z</time>
      </trkpt>
      <trkpt lat="45.9434" lon="4.7241">
        <ele>173</ele>
        <time>2018-06-15T10:18:36Z</time>
      </trkpt>
      <trkpt lat="45.94336" lon="4.72402">
        <ele>173</ele>
        <time>2018-06-15T10:18:37Z</time>
      </trkpt>
      <trkpt lat="45.94333" lon="4.72395">
        <ele>172</ele>
        <time>2018-06-15T10:18:38Z</time>
      </trkpt>
      <trkpt lat="45.94332" lon="4.72388">
        <ele>172</ele>
        <time>2018-06-15T10:18:39Z</time>
      </trkpt>
      <trkpt lat="45.94328" lon="4.72382">
        <ele>172</ele>
        <time>2018-06-15T10:18:40Z</time>
      </trkpt>
      <trkpt lat="45.94325" lon="4.72375">
        <ele>172</ele>
        <time>2018-06-15T10:18:41Z</time>
      </trkpt>
      <trkpt lat="45.94321" lon="4.72367">
        <ele>172</ele>
        <time>2018-06-15T10:18:42Z</time>
      </trkpt>
      <trkpt lat="45.94317" lon="4.7236">
        <ele>172</ele>
        <time>2018-06-15T10:18:43Z</time>
      </trkpt>
      <trkpt lat="45.94314" lon="4.72353">
        <ele>172</ele>
        <time>2018-06-15T10:18:44Z</time>
      </trkpt>
      <trkpt lat="45.9431" lon="4.72345">
        <ele>172</ele>
        <time>2018-06-15T10:18:45Z</time>
      </trkpt>
      <trkpt lat="45.94307" lon="4.72337">
        <ele>172</ele>
        <time>2018-06-15T10:18:46Z</time>
      </trkpt>
      <trkpt lat="45.94303" lon="4.7233">
        <ele>171</ele>
        <time>2018-06-15T10:18:47Z</time>
      </trkpt>
      <trkpt lat="45.94299" lon="4.72322">
        <ele>171</ele>
        <time>2018-06-15T10:18:48Z</time>
      </trkpt>
      <trkpt lat="45.94296" lon="4.72314">
        <ele>171</ele>
        <time>2018-06-15T10:18:49Z</time>
      </trkpt>
      <trkpt lat="45.94293" lon="4.72306">
        <ele>171</ele>
        <time>2018-06-15T10:18:50Z</time>
      </trkpt>
      <trkpt lat="45.9429" lon="4.72298">
        <ele>171</ele>
        <time>2018-06-15T10:18:51Z</time>
      </trkpt>
      <trkpt lat="45.94287" lon="4.7229">
        <ele>171</ele>
        <time>2018-06-15T10:18:52Z</time>
      </trkpt>
      <trkpt lat="45.94284" lon="4.72283">
        <ele>171</ele>
        <time>2018-06-15T10:18:53Z</time>
      </trkpt>
      <trkpt lat="45.9428" lon="4.72277">
        <ele>171</ele>
        <time>2018-06-15T10:18:54Z</time>
      </trkpt>
      <trkpt lat="45.94277" lon="4.72272">
        <ele>171</ele>
        <time>2018-06-15T10:18:55Z</time>
      </trkpt>
      <trkpt lat="45.94274" lon="4.72267">
        <ele>171</ele>
        <time>2018-06-15T10:18:56Z</time>
      </trkpt>
      <trkpt lat="45.94269" lon="4.72266">
        <ele>171</ele>
        <time>2018-06-15T10:18:57Z</time>
      </trkpt>
      <trkpt lat="45.94263" lon="4.72268">
        <ele>171</ele>
        <time>2018-06-15T10:18:58Z</time>
      </trkpt>
      <trkpt lat="45.94258" lon="4.72273">
        <ele>171</ele>
        <time>2018-06-15T10:18:59Z</time>
      </trkpt>
      <trkpt lat="45.94253" lon="4.72276">
        <ele>171</ele>
        <time>2018-06-15T10:19:00Z</time>
      </trkpt>
      <trkpt lat="45.94249" lon="4.72278">
        <ele>171</ele>
        <time>2018-06-15T10:19:01Z</time>
      </trkpt>
      <trkpt lat="45.94243" lon="4.7228">
        <ele>171</ele>
        <time>2018-06-15T10:19:02Z</time>
      </trkpt>
      <trkpt lat="45.94238" lon="4.72281">
        <ele>171</ele>
        <time>2018-06-15T10:19:03Z</time>
      </trkpt>
      <trkpt lat="45.94233" lon="4.72285">
        <ele>171</ele>
        <time>2018-06-15T10:19:04Z</time>
      </trkpt>
      <trkpt lat="45.94227" lon="4.72287">
        <ele>171</ele>
        <time>2018-06-15T10:19:05Z</time>
      </trkpt>
      <trkpt lat="45.94222" lon="4.72289">
        <ele>171</ele>
        <time>2018-06-15T10:19:06Z</time>
      </trkpt>
      <trkpt lat="45.94215" lon="4.7229">
        <ele>171</ele>
        <time>2018-06-15T10:19:07Z</time>
      </trkpt>
      <trkpt lat="45.94209" lon="4.72291">
        <ele>171</ele>
        <time>2018-06-15T10:19:08Z</time>
      </trkpt>
      <trkpt lat="45.94203" lon="4.7229">
        <ele>171</ele>
        <time>2018-06-15T10:19:09Z</time>
      </trkpt>
      <trkpt lat="45.94196" lon="4.7229">
        <ele>171</ele>
        <time>2018-06-15T10:19:10Z</time>
      </trkpt>
      <trkpt lat="45.9419" lon="4.7229">
        <ele>171</ele>
        <time>2018-06-15T10:19:11Z</time>
      </trkpt>
      <trkpt lat="45.94183" lon="4.72288">
        <ele>171</ele>
        <time>2018-06-15T10:19:12Z</time>
      </trkpt>
      <trkpt lat="45.94177" lon="4.72288">
        <ele>171</ele>
        <time>2018-06-15T10:19:13Z</time>
      </trkpt>
      <trkpt lat="45.9417" lon="4.72288">
        <ele>171</ele>
        <time>2018-06-15T10:19:14Z</time>
      </trkpt>
      <trkpt lat="45.94165" lon="4.72287">
        <ele>171</ele>
        <time>2018-06-15T10:19:15Z</time>
      </trkpt>
      <trkpt lat="45.94158" lon="4.72286">
        <ele>171</ele>
        <time>2018-06-15T10:19:16Z</time>
      </trkpt>
      <trkpt lat="45.94152" lon="4.72284">
        <ele>171</ele>
        <time>2018-06-15T10:19:17Z</time>
      </trkpt>
      <trkpt lat="45.94147" lon="4.72282">
        <ele>171</ele>
        <time>2018-06-15T10:19:18Z</time>
      </trkpt>
      <trkpt lat="45.94141" lon="4.72281">
        <ele>171</ele>
        <time>2018-06-15T10:19:19Z</time>
      </trkpt>
      <trkpt lat="45.94137" lon="4.72277">
        <ele>171</ele>
        <time>2018-06-15T10:19:20Z</time>
      </trkpt>
      <trkpt lat="45.94131" lon="4.72275">
        <ele>171</ele>
        <time>2018-06-15T10:19:21Z</time>
      </trkpt>
      <trkpt lat="45.94126" lon="4.72272">
        <ele>171</ele>
        <time>2018-06-15T10:19:22Z</time>
      </trkpt>
      <trkpt lat="45.9412" lon="4.72268">
        <ele>171</ele>
        <time>2018-06-15T10:19:23Z</time>
      </trkpt>
      <trkpt lat="45.94115" lon="4.72265">
        <ele>171</ele>
        <time>2018-06-15T10:19:24Z</time>
      </trkpt>
      <trkpt lat="45.94109" lon="4.72263">
        <ele>171</ele>
        <time>2018-06-15T10:19:25Z</time>
      </trkpt>
      <trkpt lat="45.94103" lon="4.72263">
        <ele>171</ele>
        <time>2018-06-15T10:19:26Z</time>
      </trkpt>
      <trkpt lat="45.94096" lon="4.72263">
        <ele>171</ele>
        <time>2018-06-15T10:19:27Z</time>
      </trkpt>
      <trkpt lat="45.9409" lon="4.72264">
        <ele>171</ele>
        <time>2018-06-15T10:19:28Z</time>
      </trkpt>
      <trkpt lat="45.94084" lon="4.72266">
        <ele>171</ele>
        <time>2018-06-15T10:19:29Z</time>
      </trkpt>
      <trkpt lat="45.94078" lon="4.72268">
        <ele>171</ele>
        <time>2018-06-15T10:19:30Z</time>
      </trkpt>
      <trkpt lat="45.94072" lon="4.72273">
        <ele>171</ele>
        <time>2018-06-15T10:19:31Z</time>
      </trkpt>
      <trkpt lat="45.94067" lon="4.72278">
        <ele>171</ele>
        <time>2018-06-15T10:19:32Z</time>
      </trkpt>
      <trkpt lat="45.9406" lon="4.72286">
        <ele>171</ele>
        <time>2018-06-15T10:19:33Z</time>
      </trkpt>
      <trkpt lat="45.94055" lon="4.72292">
        <ele>171</ele>
        <time>2018-06-15T10:19:34Z</time>
      </trkpt>
      <trkpt lat="45.9405" lon="4.72298">
        <ele>171</ele>
        <time>2018-06-15T10:19:35Z</time>
      </trkpt>
      <trkpt lat="45.94045" lon="4.72304">
        <ele>171</ele>
        <time>2018-06-15T10:19:36Z</time>
      </trkpt>
      <trkpt lat="45.94041" lon="4.72311">
        <ele>171</ele>
        <time>2018-06-15T10:19:37Z</time>
      </trkpt>
      <trkpt lat="45.94036" lon="4.72317">
        <ele>171</ele>
        <time>2018-06-15T10:19:38Z</time>
      </trkpt>
      <trkpt lat="45.94032" lon="4.72323">
        <ele>171</ele>
        <time>2018-06-15T10:19:39Z</time>
      </trkpt>
      <trkpt lat="45.94026" lon="4.72328">
        <ele>171</ele>
        <time>2018-06-15T10:19:40Z</time>
      </trkpt>
      <trkpt lat="45.94021" lon="4.72334">
        <ele>171</ele>
        <time>2018-06-15T10:19:41Z</time>
      </trkpt>
      <trkpt lat="45.9402" lon="4.72337">
        <ele>171</ele>
        <time>2018-06-15T10:19:42Z</time>
      </trkpt>
      <trkpt lat="45.94015" lon="4.72345">
        <ele>171</ele>
        <time>2018-06-15T10:19:43Z</time>
      </trkpt>
      <trkpt lat="45.94011" lon="4.72351">
        <ele>171</ele>
        <time>2018-06-15T10:19:44Z</time>
      </trkpt>
      <trkpt lat="45.94005" lon="4.72357">
        <ele>171</ele>
        <time>2018-06-15T10:19:45Z</time>
      </trkpt>
      <trkpt lat="45.94001" lon="4.72363">
        <ele>171</ele>
        <time>2018-06-15T10:19:46Z</time>
      </trkpt>
      <trkpt lat="45.93996" lon="4.7237">
        <ele>171</ele>
        <time>2018-06-15T10:19:47Z</time>
      </trkpt>
      <trkpt lat="45.9399" lon="4.72378">
        <ele>171</ele>
        <time>2018-06-15T10:19:48Z</time>
      </trkpt>
      <trkpt lat="45.93984" lon="4.72384">
        <ele>171</ele>
        <time>2018-06-15T10:19:49Z</time>
      </trkpt>
      <trkpt lat="45.93981" lon="4.72388">
        <ele>171</ele>
        <time>2018-06-15T10:19:50Z</time>
      </trkpt>
      <trkpt lat="45.93975" lon="4.72396">
        <ele>171</ele>
        <time>2018-06-15T10:19:51Z</time>
      </trkpt>
      <trkpt lat="45.93968" lon="4.72403">
        <ele>171</ele>
        <time>2018-06-15T10:19:52Z</time>
      </trkpt>
      <trkpt lat="45.93963" lon="4.72408">
        <ele>171</ele>
        <time>2018-06-15T10:19:53Z</time>
      </trkpt>
      <trkpt lat="45.93958" lon="4.72414">
        <ele>171</ele>
        <time>2018-06-15T10:19:54Z</time>
      </trkpt>
      <trkpt lat="45.93953" lon="4.72421">
        <ele>171</ele>
        <time>2018-06-15T10:19:55Z</time>
      </trkpt>
      <trkpt lat="45.93948" lon="4.72427">
        <ele>171</ele>
        <time>2018-06-15T10:19:56Z</time>
      </trkpt>
      <trkpt lat="45.93943" lon="4.72433">
        <ele>171</ele>
        <time>2018-06-15T10:19:57Z</time>
      </trkpt>
      <trkpt lat="45.93938" lon="4.72439">
        <ele>171</ele>
        <time>2018-06-15T10:19:58Z</time>
      </trkpt>
      <trkpt lat="45.93934" lon="4.72444">
        <ele>171</ele>
        <time>2018-06-15T10:19:59Z</time>
      </trkpt>
      <trkpt lat="45.93929" lon="4.7245">
        <ele>171</ele>
        <time>2018-06-15T10:20:00Z</time>
      </trkpt>
      <trkpt lat="45.93922" lon="4.72457">
        <ele>171</ele>
        <time>2018-06-15T10:20:01Z</time>
      </trkpt>
      <trkpt lat="45.93919" lon="4.72462">
        <ele>171</ele>
        <time>2018-06-15T10:20:02Z</time>
      </trkpt>
      <trkpt lat="45.93915" lon="4.72466">
        <ele>172</ele>
        <time>2018-06-15T10:20:03Z</time>
      </trkpt>
      <trkpt lat="45.93911" lon="4.72471">
        <ele>172</ele>
        <time>2018-06-15T10:20:04Z</time>
      </trkpt>
      <trkpt lat="45.93906" lon="4.72477">
        <ele>172</ele>
        <time>2018-06-15T10:20:05Z</time>
      </trkpt>
      <trkpt lat="45.93902" lon="4.72484">
        <ele>172</ele>
        <time>2018-06-15T10:20:06Z</time>
      </trkpt>
      <trkpt lat="45.93898" lon="4.72489">
        <ele>172</ele>
        <time>2018-06-15T10:20:07Z</time>
      </trkpt>
      <trkpt lat="45.93894" lon="4.72494">
        <ele>172</ele>
        <time>2018-06-15T10:20:08Z</time>
      </trkpt>
      <trkpt lat="45.9389" lon="4.72498">
        <ele>172</ele>
        <time>2018-06-15T10:20:09Z</time>
      </trkpt>
      <trkpt lat="45.93885" lon="4.72502">
        <ele>173</ele>
        <time>2018-06-15T10:20:10Z</time>
      </trkpt>
      <trkpt lat="45.93881" lon="4.72507">
        <ele>173</ele>
        <time>2018-06-15T10:20:11Z</time>
      </trkpt>
      <trkpt lat="45.93876" lon="4.72509">
        <ele>173</ele>
        <time>2018-06-15T10:20:12Z</time>
      </trkpt>
      <trkpt lat="45.9387" lon="4.72509">
        <ele>173</ele>
        <time>2018-06-15T10:20:13Z</time>
      </trkpt>
      <trkpt lat="45.93866" lon="4.72506">
        <ele>173</ele>
        <time>2018-06-15T10:20:14Z</time>
      </trkpt>
      <trkpt lat="45.9386" lon="4.72505">
        <ele>173</ele>
        <time>2018-06-15T10:20:15Z</time>
      </trkpt>
      <trkpt lat="45.93856" lon="4.72502">
        <ele>173</ele>
        <time>2018-06-15T10:20:16Z</time>
      </trkpt>
      <trkpt lat="45.93823" lon="4.72476">
        <ele>172</ele>
        <time>2018-06-15T10:20:23Z</time>
      </trkpt>
      <trkpt lat="45.93818" lon="4.72472">
        <ele>172</ele>
        <time>2018-06-15T10:20:24Z</time>
      </trkpt>
      <trkpt lat="45.93813" lon="4.72469">
        <ele>172</ele>
        <time>2018-06-15T10:20:25Z</time>
      </trkpt>
      <trkpt lat="45.93808" lon="4.72462">
        <ele>172</ele>
        <time>2018-06-15T10:20:26Z</time>
      </trkpt>
      <trkpt lat="45.93805" lon="4.72455">
        <ele>172</ele>
        <time>2018-06-15T10:20:27Z</time>
      </trkpt>
      <trkpt lat="45.938" lon="4.72453">
        <ele>172</ele>
        <time>2018-06-15T10:20:28Z</time>
      </trkpt>
      <trkpt lat="45.93797" lon="4.72448">
        <ele>172</ele>
        <time>2018-06-15T10:20:29Z</time>
      </trkpt>
      <trkpt lat="45.93788" lon="4.72447">
        <ele>172</ele>
        <time>2018-06-15T10:20:30Z</time>
      </trkpt>
      <trkpt lat="45.93783" lon="4.72442">
        <ele>172</ele>
        <time>2018-06-15T10:20:31Z</time>
      </trkpt>
      <trkpt lat="45.9378" lon="4.72436">
        <ele>172</ele>
        <time>2018-06-15T10:20:32Z</time>
      </trkpt>
      <trkpt lat="45.93776" lon="4.72432">
        <ele>171</ele>
        <time>2018-06-15T10:20:33Z</time>
      </trkpt>
      <trkpt lat="45.93771" lon="4.72429">
        <ele>171</ele>
        <time>2018-06-15T10:20:34Z</time>
      </trkpt>
      <trkpt lat="45.93767" lon="4.72423">
        <ele>171</ele>
        <time>2018-06-15T10:20:35Z</time>
      </trkpt>
      <trkpt lat="45.93764" lon="4.72419">
        <ele>171</ele>
        <time>2018-06-15T10:20:36Z</time>
      </trkpt>
      <trkpt lat="45.93757" lon="4.72411">
        <ele>171</ele>
        <time>2018-06-15T10:20:38Z</time>
      </trkpt>
      <trkpt lat="45.93753" lon="4.72408">
        <ele>171</ele>
        <time>2018-06-15T10:20:39Z</time>
      </trkpt>
      <trkpt lat="45.93749" lon="4.72404">
        <ele>171</ele>
        <time>2018-06-15T10:20:40Z</time>
      </trkpt>
      <trkpt lat="45.93745" lon="4.724">
        <ele>171</ele>
        <time>2018-06-15T10:20:41Z</time>
      </trkpt>
      <trkpt lat="45.93741" lon="4.72396">
        <ele>171</ele>
        <time>2018-06-15T10:20:42Z</time>
      </trkpt>
      <trkpt lat="45.93737" lon="4.72392">
        <ele>171</ele>
        <time>2018-06-15T10:20:43Z</time>
      </trkpt>
      <trkpt lat="45.93733" lon="4.72388">
        <ele>171</ele>
        <time>2018-06-15T10:20:44Z</time>
      </trkpt>
      <trkpt lat="45.93729" lon="4.72384">
        <ele>171</ele>
        <time>2018-06-15T10:20:45Z</time>
      </trkpt>
      <trkpt lat="45.93726" lon="4.72379">
        <ele>171</ele>
        <time>2018-06-15T10:20:46Z</time>
      </trkpt>
      <trkpt lat="45.93721" lon="4.72375">
        <ele>172</ele>
        <time>2018-06-15T10:20:47Z</time>
      </trkpt>
      <trkpt lat="45.93717" lon="4.72372">
        <ele>172</ele>
        <time>2018-06-15T10:20:48Z</time>
      </trkpt>
      <trkpt lat="45.93713" lon="4.72368">
        <ele>172</ele>
        <time>2018-06-15T10:20:49Z</time>
      </trkpt>
      <trkpt lat="45.93709" lon="4.72364">
        <ele>172</ele>
        <time>2018-06-15T10:20:50Z</time>
      </trkpt>
      <trkpt lat="45.93704" lon="4.7236">
        <ele>171</ele>
        <time>2018-06-15T10:20:51Z</time>
      </trkpt>
      <trkpt lat="45.93699" lon="4.72355">
        <ele>171</ele>
        <time>2018-06-15T10:20:52Z</time>
      </trkpt>
      <trkpt lat="45.93695" lon="4.72352">
        <ele>171</ele>
        <time>2018-06-15T10:20:53Z</time>
      </trkpt>
      <trkpt lat="45.93691" lon="4.72349">
        <ele>171</ele>
        <time>2018-06-15T10:20:54Z</time>
      </trkpt>
      <trkpt lat="45.93683" lon="4.72336">
        <ele>171</ele>
        <time>2018-06-15T10:20:57Z</time>
      </trkpt>
      <trkpt lat="45.93679" lon="4.72331">
        <ele>171</ele>
        <time>2018-06-15T10:20:58Z</time>
      </trkpt>
      <trkpt lat="45.93673" lon="4.72326">
        <ele>171</ele>
        <time>2018-06-15T10:20:59Z</time>
      </trkpt>
      <trkpt lat="45.93669" lon="4.72322">
        <ele>171</ele>
        <time>2018-06-15T10:21:00Z</time>
      </trkpt>
      <trkpt lat="45.93665" lon="4.72319">
        <ele>172</ele>
        <time>2018-06-15T10:21:01Z</time>
      </trkpt>
      <trkpt lat="45.93662" lon="4.72314">
        <ele>172</ele>
        <time>2018-06-15T10:21:02Z</time>
      </trkpt>
      <trkpt lat="45.93658" lon="4.7231">
        <ele>172</ele>
        <time>2018-06-15T10:21:03Z</time>
      </trkpt>
      <trkpt lat="45.93655" lon="4.72305">
        <ele>172</ele>
        <time>2018-06-15T10:21:04Z</time>
      </trkpt>
      <trkpt lat="45.93651" lon="4.72302">
        <ele>172</ele>
        <time>2018-06-15T10:21:05Z</time>
      </trkpt>
      <trkpt lat="45.93647" lon="4.72298">
        <ele>172</ele>
        <time>2018-06-15T10:21:06Z</time>
      </trkpt>
      <trkpt lat="45.93643" lon="4.72295">
        <ele>172</ele>
        <time>2018-06-15T10:21:07Z</time>
      </trkpt>
      <trkpt lat="45.93636" lon="4.72288">
        <ele>172</ele>
        <time>2018-06-15T10:21:09Z</time>
      </trkpt>
      <trkpt lat="45.93632" lon="4.72285">
        <ele>172</ele>
        <time>2018-06-15T10:21:10Z</time>
      </trkpt>
      <trkpt lat="45.93627" lon="4.72282">
        <ele>172</ele>
        <time>2018-06-15T10:21:11Z</time>
      </trkpt>
      <trkpt lat="45.93623" lon="4.72278">
        <ele>172</ele>
        <time>2018-06-15T10:21:12Z</time>
      </trkpt>
      <trkpt lat="45.93615" lon="4.72274">
        <ele>172</ele>
        <time>2018-06-15T10:21:14Z</time>
      </trkpt>
      <trkpt lat="45.93611" lon="4.72269">
        <ele>172</ele>
        <time>2018-06-15T10:21:15Z</time>
      </trkpt>
      <trkpt lat="45.93606" lon="4.72267">
        <ele>173</ele>
        <time>2018-06-15T10:21:16Z</time>
      </trkpt>
      <trkpt lat="45.93603" lon="4.72263">
        <ele>173</ele>
        <time>2018-06-15T10:21:17Z</time>
      </trkpt>
      <trkpt lat="45.93599" lon="4.72259">
        <ele>173</ele>
        <time>2018-06-15T10:21:18Z</time>
      </trkpt>
      <trkpt lat="45.93595" lon="4.72255">
        <ele>173</ele>
        <time>2018-06-15T10:21:19Z</time>
      </trkpt>
      <trkpt lat="45.93587" lon="4.72249">
        <ele>173</ele>
        <time>2018-06-15T10:21:21Z</time>
      </trkpt>
      <trkpt lat="45.93583" lon="4.72244">
        <ele>173</ele>
        <time>2018-06-15T10:21:22Z</time>
      </trkpt>
      <trkpt lat="45.93576" lon="4.72241">
        <ele>173</ele>
        <time>2018-06-15T10:21:24Z</time>
      </trkpt>
      <trkpt lat="45.93573" lon="4.72237">
        <ele>173</ele>
        <time>2018-06-15T10:21:25Z</time>
      </trkpt>
      <trkpt lat="45.93566" lon="4.72232">
        <ele>173</ele>
        <time>2018-06-15T10:21:27Z</time>
      </trkpt>
      <trkpt lat="45.93563" lon="4.72227">
        <ele>173</ele>
        <time>2018-06-15T10:21:28Z</time>
      </trkpt>
      <trkpt lat="45.93555" lon="4.72224">
        <ele>173</ele>
        <time>2018-06-15T10:21:31Z</time>
      </trkpt>
      <trkpt lat="45.93549" lon="4.72225">
        <ele>172</ele>
        <time>2018-06-15T10:21:32Z</time>
      </trkpt>
      <trkpt lat="45.93542" lon="4.72233">
        <ele>172</ele>
        <time>2018-06-15T10:21:34Z</time>
      </trkpt>
      <trkpt lat="45.93541" lon="4.7224">
        <ele>172</ele>
        <time>2018-06-15T10:21:35Z</time>
      </trkpt>
      <trkpt lat="45.93538" lon="4.7225">
        <ele>172</ele>
        <time>2018-06-15T10:21:37Z</time>
      </trkpt>
      <trkpt lat="45.93535" lon="4.72256">
        <ele>172</ele>
        <time>2018-06-15T10:21:38Z</time>
      </trkpt>
      <trkpt lat="45.93532" lon="4.72262">
        <ele>172</ele>
        <time>2018-06-15T10:21:39Z</time>
      </trkpt>
      <trkpt lat="45.9353" lon="4.72268">
        <ele>172</ele>
        <time>2018-06-15T10:21:40Z</time>
      </trkpt>
      <trkpt lat="45.93528" lon="4.72274">
        <ele>172</ele>
        <time>2018-06-15T10:21:41Z</time>
      </trkpt>
      <trkpt lat="45.93526" lon="4.72279">
        <ele>172</ele>
        <time>2018-06-15T10:21:42Z</time>
      </trkpt>
      <trkpt lat="45.93524" lon="4.72285">
        <ele>172</ele>
        <time>2018-06-15T10:21:43Z</time>
      </trkpt>
      <trkpt lat="45.93521" lon="4.7229">
        <ele>172</ele>
        <time>2018-06-15T10:21:44Z</time>
      </trkpt>
      <trkpt lat="45.93518" lon="4.72296">
        <ele>172</ele>
        <time>2018-06-15T10:21:45Z</time>
      </trkpt>
      <trkpt lat="45.93514" lon="4.72302">
        <ele>172</ele>
        <time>2018-06-15T10:21:46Z</time>
      </trkpt>
      <trkpt lat="45.9351" lon="4.72308">
        <ele>173</ele>
        <time>2018-06-15T10:21:47Z</time>
      </trkpt>
      <trkpt lat="45.93507" lon="4.72313">
        <ele>173</ele>
        <time>2018-06-15T10:21:48Z</time>
      </trkpt>
      <trkpt lat="45.93503" lon="4.72319">
        <ele>173</ele>
        <time>2018-06-15T10:21:49Z</time>
      </trkpt>
      <trkpt lat="45.935" lon="4.72325">
        <ele>173</ele>
        <time>2018-06-15T10:21:50Z</time>
      </trkpt>
      <trkpt lat="45.93496" lon="4.7233">
        <ele>173</ele>
        <time>2018-06-15T10:21:51Z</time>
      </trkpt>
      <trkpt lat="45.93492" lon="4.72336">
        <ele>173</ele>
        <time>2018-06-15T10:21:52Z</time>
      </trkpt>
      <trkpt lat="45.93487" lon="4.72339">
        <ele>173</ele>
        <time>2018-06-15T10:21:53Z</time>
      </trkpt>
      <trkpt lat="45.93483" lon="4.72343">
        <ele>173</ele>
        <time>2018-06-15T10:21:54Z</time>
      </trkpt>
      <trkpt lat="45.93478" lon="4.72353">
        <ele>173</ele>
        <time>2018-06-15T10:21:55Z</time>
      </trkpt>
      <trkpt lat="45.93474" lon="4.72359">
        <ele>173</ele>
        <time>2018-06-15T10:21:56Z</time>
      </trkpt>
      <trkpt lat="45.9347" lon="4.72365">
        <ele>173</ele>
        <time>2018-06-15T10:21:57Z</time>
      </trkpt>
      <trkpt lat="45.93465" lon="4.72368">
        <ele>173</ele>
        <time>2018-06-15T10:21:58Z</time>
      </trkpt>
      <trkpt lat="45.93461" lon="4.72373">
        <ele>173</ele>
        <time>2018-06-15T10:21:59Z</time>
      </trkpt>
      <trkpt lat="45.93456" lon="4.72376">
        <ele>173</ele>
        <time>2018-06-15T10:22:00Z</time>
      </trkpt>
      <trkpt lat="45.93453" lon="4.72379">
        <ele>173</ele>
        <time>2018-06-15T10:22:01Z</time>
      </trkpt>
      <trkpt lat="45.93447" lon="4.72384">
        <ele>173</ele>
        <time>2018-06-15T10:22:02Z</time>
      </trkpt>
      <trkpt lat="45.93443" lon="4.72387">
        <ele>173</ele>
        <time>2018-06-15T10:22:03Z</time>
      </trkpt>
      <trkpt lat="45.93437" lon="4.72392">
        <ele>173</ele>
        <time>2018-06-15T10:22:04Z</time>
      </trkpt>
      <trkpt lat="45.93433" lon="4.72396">
        <ele>173</ele>
        <time>2018-06-15T10:22:05Z</time>
      </trkpt>
      <trkpt lat="45.93428" lon="4.72397">
        <ele>174</ele>
        <time>2018-06-15T10:22:06Z</time>
      </trkpt>
      <trkpt lat="45.93423" lon="4.72399">
        <ele>174</ele>
        <time>2018-06-15T10:22:07Z</time>
      </trkpt>
      <trkpt lat="45.93417" lon="4.724">
        <ele>174</ele>
        <time>2018-06-15T10:22:08Z</time>
      </trkpt>
      <trkpt lat="45.9341" lon="4.72402">
        <ele>174</ele>
        <time>2018-06-15T10:22:09Z</time>
      </trkpt>
      <trkpt lat="45.93406" lon="4.72401">
        <ele>174</ele>
        <time>2018-06-15T10:22:10Z</time>
      </trkpt>
      <trkpt lat="45.93402" lon="4.72401">
        <ele>174</ele>
        <time>2018-06-15T10:22:11Z</time>
      </trkpt>
      <trkpt lat="45.93397" lon="4.72399">
        <ele>174</ele>
        <time>2018-06-15T10:22:12Z</time>
      </trkpt>
      <trkpt lat="45.93389" lon="4.72403">
        <ele>174</ele>
        <time>2018-06-15T10:22:14Z</time>
      </trkpt>
      <trkpt lat="45.93388" lon="4.72407">
        <ele>174</ele>
        <time>2018-06-15T10:22:15Z</time>
      </trkpt>
      <trkpt lat="45.93387" lon="4.72415">
        <ele>174</ele>
        <time>2018-06-15T10:22:16Z</time>
      </trkpt>
      <trkpt lat="45.93386" lon="4.72423">
        <ele>173</ele>
        <time>2018-06-15T10:22:17Z</time>
      </trkpt>
      <trkpt lat="45.93388" lon="4.7243">
        <ele>173</ele>
        <time>2018-06-15T10:22:18Z</time>
      </trkpt>
      <trkpt lat="45.9339" lon="4.72438">
        <ele>173</ele>
        <time>2018-06-15T10:22:19Z</time>
      </trkpt>
      <trkpt lat="45.93391" lon="4.72445">
        <ele>173</ele>
        <time>2018-06-15T10:22:20Z</time>
      </trkpt>
      <trkpt lat="45.93391" lon="4.72452">
        <ele>173</ele>
        <time>2018-06-15T10:22:21Z</time>
      </trkpt>
      <trkpt lat="45.93389" lon="4.72459">
        <ele>173</ele>
        <time>2018-06-15T10:22:22Z</time>
      </trkpt>
      <trkpt lat="45.93386" lon="4.72463">
        <ele>173</ele>
        <time>2018-06-15T10:22:23Z</time>
      </trkpt>
      <trkpt lat="45.93383" lon="4.72469">
        <ele>173</ele>
        <time>2018-06-15T10:22:24Z</time>
      </trkpt>
      <trkpt lat="45.93378" lon="4.72473">
        <ele>173</ele>
        <time>2018-06-15T10:22:25Z</time>
      </trkpt>
      <trkpt lat="45.93373" lon="4.72479">
        <ele>173</ele>
        <time>2018-06-15T10:22:26Z</time>
      </trkpt>
      <trkpt lat="45.93368" lon="4.72484">
        <ele>173</ele>
        <time>2018-06-15T10:22:27Z</time>
      </trkpt>
      <trkpt lat="45.93364" lon="4.7249">
        <ele>173</ele>
        <time>2018-06-15T10:22:28Z</time>
      </trkpt>
      <trkpt lat="45.9336" lon="4.72499">
        <ele>173</ele>
        <time>2018-06-15T10:22:29Z</time>
      </trkpt>
      <trkpt lat="45.93356" lon="4.72505">
        <ele>172</ele>
        <time>2018-06-15T10:22:30Z</time>
      </trkpt>
      <trkpt lat="45.93351" lon="4.72511">
        <ele>172</ele>
        <time>2018-06-15T10:22:31Z</time>
      </trkpt>
      <trkpt lat="45.93346" lon="4.72516">
        <ele>172</ele>
        <time>2018-06-15T10:22:32Z</time>
      </trkpt>
      <trkpt lat="45.9334" lon="4.72521">
        <ele>172</ele>
        <time>2018-06-15T10:22:33Z</time>
      </trkpt>
      <trkpt lat="45.93336" lon="4.72526">
        <ele>172</ele>
        <time>2018-06-15T10:22:34Z</time>
      </trkpt>
      <trkpt lat="45.9333" lon="4.72532">
        <ele>172</ele>
        <time>2018-06-15T10:22:35Z</time>
      </trkpt>
      <trkpt lat="45.93325" lon="4.72537">
        <ele>172</ele>
        <time>2018-06-15T10:22:36Z</time>
      </trkpt>
      <trkpt lat="45.93322" lon="4.72542">
        <ele>172</ele>
        <time>2018-06-15T10:22:37Z</time>
      </trkpt>
      <trkpt lat="45.93319" lon="4.72548">
        <ele>172</ele>
        <time>2018-06-15T10:22:38Z</time>
      </trkpt>
      <trkpt lat="45.93314" lon="4.72553">
        <ele>172</ele>
        <time>2018-06-15T10:22:39Z</time>
      </trkpt>
      <trkpt lat="45.93308" lon="4.72558">
        <ele>172</ele>
        <time>2018-06-15T10:22:40Z</time>
      </trkpt>
      <trkpt lat="45.93301" lon="4.72565">
        <ele>172</ele>
        <time>2018-06-15T10:22:41Z</time>
      </trkpt>
      <trkpt lat="45.93298" lon="4.7257">
        <ele>171</ele>
        <time>2018-06-15T10:22:42Z</time>
      </trkpt>
      <trkpt lat="45.93293" lon="4.72575">
        <ele>171</ele>
        <time>2018-06-15T10:22:43Z</time>
      </trkpt>
      <trkpt lat="45.93289" lon="4.7258">
        <ele>171</ele>
        <time>2018-06-15T10:22:44Z</time>
      </trkpt>
      <trkpt lat="45.93284" lon="4.72586">
        <ele>170</ele>
        <time>2018-06-15T10:22:45Z</time>
      </trkpt>
      <trkpt lat="45.9328" lon="4.72591">
        <ele>170</ele>
        <time>2018-06-15T10:22:46Z</time>
      </trkpt>
      <trkpt lat="45.93275" lon="4.72593">
        <ele>170</ele>
        <time>2018-06-15T10:22:47Z</time>
      </trkpt>
      <trkpt lat="45.9327" lon="4.72598">
        <ele>170</ele>
        <time>2018-06-15T10:22:48Z</time>
      </trkpt>
      <trkpt lat="45.93266" lon="4.72606">
        <ele>170</ele>
        <time>2018-06-15T10:22:49Z</time>
      </trkpt>
      <trkpt lat="45.9326" lon="4.72611">
        <ele>170</ele>
        <time>2018-06-15T10:22:50Z</time>
      </trkpt>
      <trkpt lat="45.93256" lon="4.72614">
        <ele>170</ele>
        <time>2018-06-15T10:22:51Z</time>
      </trkpt>
      <trkpt lat="45.93252" lon="4.72619">
        <ele>170</ele>
        <time>2018-06-15T10:22:52Z</time>
      </trkpt>
      <trkpt lat="45.93247" lon="4.72624">
        <ele>170</ele>
        <time>2018-06-15T10:22:53Z</time>
      </trkpt>
      <trkpt lat="45.93243" lon="4.72631">
        <ele>170</ele>
        <time>2018-06-15T10:22:54Z</time>
      </trkpt>
      <trkpt lat="45.93238" lon="4.72636">
        <ele>170</ele>
        <time>2018-06-15T10:22:55Z</time>
      </trkpt>
      <trkpt lat="45.93235" lon="4.7264">
        <ele>170</ele>
        <time>2018-06-15T10:22:56Z</time>
      </trkpt>
      <trkpt lat="45.9323" lon="4.72646">
        <ele>170</ele>
        <time>2018-06-15T10:22:57Z</time>
      </trkpt>
      <trkpt lat="45.93226" lon="4.72651">
        <ele>170</ele>
        <time>2018-06-15T10:22:58Z</time>
      </trkpt>
      <trkpt lat="45.93223" lon="4.72657">
        <ele>170</ele>
        <time>2018-06-15T10:22:59Z</time>
      </trkpt>
      <trkpt lat="45.93218" lon="4.72662">
        <ele>170</ele>
        <time>2018-06-15T10:23:00Z</time>
      </trkpt>
      <trkpt lat="45.93215" lon="4.72666">
        <ele>170</ele>
        <time>2018-06-15T10:23:01Z</time>
      </trkpt>
      <trkpt lat="45.9321" lon="4.72671">
        <ele>169</ele>
        <time>2018-06-15T10:23:02Z</time>
      </trkpt>
      <trkpt lat="45.93205" lon="4.72676">
        <ele>169</ele>
        <time>2018-06-15T10:23:03Z</time>
      </trkpt>
      <trkpt lat="45.932" lon="4.72682">
        <ele>169</ele>
        <time>2018-06-15T10:23:04Z</time>
      </trkpt>
      <trkpt lat="45.93197" lon="4.72685">
        <ele>169</ele>
        <time>2018-06-15T10:23:05Z</time>
      </trkpt>
      <trkpt lat="45.93192" lon="4.7269">
        <ele>169</ele>
        <time>2018-06-15T10:23:06Z</time>
      </trkpt>
      <trkpt lat="45.93189" lon="4.72695">
        <ele>169</ele>
        <time>2018-06-15T10:23:07Z</time>
      </trkpt>
      <trkpt lat="45.93185" lon="4.72701">
        <ele>169</ele>
        <time>2018-06-15T10:23:08Z</time>
      </trkpt>
      <trkpt lat="45.93181" lon="4.72707">
        <ele>169</ele>
        <time>2018-06-15T10:23:09Z</time>
      </trkpt>
      <trkpt lat="45.93176" lon="4.72712">
        <ele>169</ele>
        <time>2018-06-15T10:23:10Z</time>
      </trkpt>
      <trkpt lat="45.93171" lon="4.72717">
        <ele>170</ele>
        <time>2018-06-15T10:23:11Z</time>
      </trkpt>
      <trkpt lat="45.93167" lon="4.72722">
        <ele>170</ele>
        <time>2018-06-15T10:23:12Z</time>
      </trkpt>
      <trkpt lat="45.93161" lon="4.7273">
        <ele>170</ele>
        <time>2018-06-15T10:23:13Z</time>
      </trkpt>
      <trkpt lat="45.93156" lon="4.72735">
        <ele>170</ele>
        <time>2018-06-15T10:23:14Z</time>
      </trkpt>
      <trkpt lat="45.93151" lon="4.72741">
        <ele>170</ele>
        <time>2018-06-15T10:23:15Z</time>
      </trkpt>
      <trkpt lat="45.93147" lon="4.72748">
        <ele>170</ele>
        <time>2018-06-15T10:23:16Z</time>
      </trkpt>
      <trkpt lat="45.93142" lon="4.72754">
        <ele>171</ele>
        <time>2018-06-15T10:23:17Z</time>
      </trkpt>
      <trkpt lat="45.93139" lon="4.7276">
        <ele>171</ele>
        <time>2018-06-15T10:23:18Z</time>
      </trkpt>
      <trkpt lat="45.93137" lon="4.72765">
        <ele>171</ele>
        <time>2018-06-15T10:23:19Z</time>
      </trkpt>
      <trkpt lat="45.93132" lon="4.7277">
        <ele>171</ele>
        <time>2018-06-15T10:23:20Z</time>
      </trkpt>
      <trkpt lat="45.93126" lon="4.72776">
        <ele>171</ele>
        <time>2018-06-15T10:23:21Z</time>
      </trkpt>
      <trkpt lat="45.93121" lon="4.72782">
        <ele>171</ele>
        <time>2018-06-15T10:23:22Z</time>
      </trkpt>
      <trkpt lat="45.93116" lon="4.72787">
        <ele>171</ele>
        <time>2018-06-15T10:23:23Z</time>
      </trkpt>
      <trkpt lat="45.93111" lon="4.72793">
        <ele>171</ele>
        <time>2018-06-15T10:23:24Z</time>
      </trkpt>
      <trkpt lat="45.93106" lon="4.728">
        <ele>171</ele>
        <time>2018-06-15T10:23:25Z</time>
      </trkpt>
      <trkpt lat="45.93102" lon="4.72808">
        <ele>171</ele>
        <time>2018-06-15T10:23:26Z</time>
      </trkpt>
      <trkpt lat="45.93097" lon="4.72814">
        <ele>172</ele>
        <time>2018-06-15T10:23:27Z</time>
      </trkpt>
      <trkpt lat="45.93092" lon="4.72819">
        <ele>172</ele>
        <time>2018-06-15T10:23:28Z</time>
      </trkpt>
      <trkpt lat="45.93048" lon="4.72857">
        <ele>172</ele>
        <time>2018-06-15T10:23:37Z</time>
      </trkpt>
      <trkpt lat="45.93042" lon="4.72864">
        <ele>172</ele>
        <time>2018-06-15T10:23:38Z</time>
      </trkpt>
      <trkpt lat="45.93039" lon="4.72869">
        <ele>172</ele>
        <time>2018-06-15T10:23:39Z</time>
      </trkpt>
      <trkpt lat="45.93033" lon="4.72875">
        <ele>172</ele>
        <time>2018-06-15T10:23:40Z</time>
      </trkpt>
      <trkpt lat="45.93029" lon="4.7288">
        <ele>172</ele>
        <time>2018-06-15T10:23:41Z</time>
      </trkpt>
      <trkpt lat="45.93025" lon="4.72886">
        <ele>172</ele>
        <time>2018-06-15T10:23:42Z</time>
      </trkpt>
      <trkpt lat="45.93021" lon="4.72892">
        <ele>172</ele>
        <time>2018-06-15T10:23:43Z</time>
      </trkpt>
      <trkpt lat="45.93016" lon="4.72897">
        <ele>172</ele>
        <time>2018-06-15T10:23:44Z</time>
      </trkpt>
      <trkpt lat="45.93012" lon="4.72903">
        <ele>172</ele>
        <time>2018-06-15T10:23:45Z</time>
      </trkpt>
      <trkpt lat="45.93009" lon="4.72909">
        <ele>171</ele>
        <time>2018-06-15T10:23:46Z</time>
      </trkpt>
      <trkpt lat="45.93003" lon="4.72916">
        <ele>171</ele>
        <time>2018-06-15T10:23:47Z</time>
      </trkpt>
      <trkpt lat="45.92999" lon="4.72922">
        <ele>171</ele>
        <time>2018-06-15T10:23:48Z</time>
      </trkpt>
      <trkpt lat="45.92993" lon="4.72928">
        <ele>171</ele>
        <time>2018-06-15T10:23:49Z</time>
      </trkpt>
      <trkpt lat="45.92988" lon="4.72933">
        <ele>171</ele>
        <time>2018-06-15T10:23:50Z</time>
      </trkpt>
      <trkpt lat="45.92982" lon="4.72938">
        <ele>171</ele>
        <time>2018-06-15T10:23:51Z</time>
      </trkpt>
      <trkpt lat="45.92977" lon="4.72947">
        <ele>171</ele>
        <time>2018-06-15T10:23:53Z</time>
      </trkpt>
      <trkpt lat="45.92971" lon="4.72953">
        <ele>171</ele>
        <time>2018-06-15T10:23:54Z</time>
      </trkpt>
      <trkpt lat="45.92966" lon="4.72959">
        <ele>171</ele>
        <time>2018-06-15T10:23:55Z</time>
      </trkpt>
      <trkpt lat="45.92962" lon="4.72965">
        <ele>171</ele>
        <time>2018-06-15T10:23:56Z</time>
      </trkpt>
      <trkpt lat="45.92957" lon="4.72971">
        <ele>171</ele>
        <time>2018-06-15T10:23:57Z</time>
      </trkpt>
      <trkpt lat="45.92952" lon="4.72976">
        <ele>171</ele>
        <time>2018-06-15T10:23:58Z</time>
      </trkpt>
      <trkpt lat="45.92946" lon="4.72981">
        <ele>171</ele>
        <time>2018-06-15T10:23:59Z</time>
      </trkpt>
      <trkpt lat="45.92943" lon="4.72987">
        <ele>171</ele>
        <time>2018-06-15T10:24:00Z</time>
      </trkpt>
      <trkpt lat="45.92938" lon="4.72991">
        <ele>171</ele>
        <time>2018-06-15T10:24:01Z</time>
      </trkpt>
      <trkpt lat="45.92936" lon="4.72997">
        <ele>171</ele>
        <time>2018-06-15T10:24:02Z</time>
      </trkpt>
      <trkpt lat="45.92932" lon="4.73002">
        <ele>171</ele>
        <time>2018-06-15T10:24:03Z</time>
      </trkpt>
      <trkpt lat="45.92928" lon="4.73005">
        <ele>172</ele>
        <time>2018-06-15T10:24:04Z</time>
      </trkpt>
      <trkpt lat="45.92923" lon="4.73009">
        <ele>172</ele>
        <time>2018-06-15T10:24:05Z</time>
      </trkpt>
      <trkpt lat="45.9292" lon="4.73013">
        <ele>172</ele>
        <time>2018-06-15T10:24:06Z</time>
      </trkpt>
      <trkpt lat="45.92916" lon="4.73017">
        <ele>172</ele>
        <time>2018-06-15T10:24:07Z</time>
      </trkpt>
      <trkpt lat="45.92911" lon="4.73023">
        <ele>172</ele>
        <time>2018-06-15T10:24:08Z</time>
      </trkpt>
      <trkpt lat="45.92907" lon="4.73028">
        <ele>172</ele>
        <time>2018-06-15T10:24:09Z</time>
      </trkpt>
      <trkpt lat="45.92903" lon="4.73034">
        <ele>172</ele>
        <time>2018-06-15T10:24:10Z</time>
      </trkpt>
      <trkpt lat="45.929" lon="4.7304">
        <ele>172</ele>
        <time>2018-06-15T10:24:11Z</time>
      </trkpt>
      <trkpt lat="45.92896" lon="4.73044">
        <ele>172</ele>
        <time>2018-06-15T10:24:12Z</time>
      </trkpt>
      <trkpt lat="45.92892" lon="4.7305">
        <ele>172</ele>
        <time>2018-06-15T10:24:13Z</time>
      </trkpt>
      <trkpt lat="45.92888" lon="4.73057">
        <ele>172</ele>
        <time>2018-06-15T10:24:14Z</time>
      </trkpt>
      <trkpt lat="45.92884" lon="4.73065">
        <ele>172</ele>
        <time>2018-06-15T10:24:15Z</time>
      </trkpt>
      <trkpt lat="45.9288" lon="4.7307">
        <ele>172</ele>
        <time>2018-06-15T10:24:16Z</time>
      </trkpt>
      <trkpt lat="45.92876" lon="4.73076">
        <ele>172</ele>
        <time>2018-06-15T10:24:17Z</time>
      </trkpt>
      <trkpt lat="45.92872" lon="4.73081">
        <ele>172</ele>
        <time>2018-06-15T10:24:18Z</time>
      </trkpt>
      <trkpt lat="45.92868" lon="4.73086">
        <ele>172</ele>
        <time>2018-06-15T10:24:19Z</time>
      </trkpt>
      <trkpt lat="45.92864" lon="4.73091">
        <ele>171</ele>
        <time>2018-06-15T10:24:20Z</time>
      </trkpt>
      <trkpt lat="45.92858" lon="4.73098">
        <ele>171</ele>
        <time>2018-06-15T10:24:22Z</time>
      </trkpt>
      <trkpt lat="45.92856" lon="4.731">
        <ele>171</ele>
        <time>2018-06-15T10:24:23Z</time>
      </trkpt>
      <trkpt lat="45.92852" lon="4.73099">
        <ele>171</ele>
        <time>2018-06-15T10:24:25Z</time>
      </trkpt>
      <trkpt lat="45.92848" lon="4.73092">
        <ele>171</ele>
        <time>2018-06-15T10:24:26Z</time>
      </trkpt>
      <trkpt lat="45.92847" lon="4.73081">
        <ele>171</ele>
        <time>2018-06-15T10:24:28Z</time>
      </trkpt>
      <trkpt lat="45.92847" lon="4.73072">
        <ele>171</ele>
        <time>2018-06-15T10:24:29Z</time>
      </trkpt>
      <trkpt lat="45.92846" lon="4.73064">
        <ele>171</ele>
        <time>2018-06-15T10:24:30Z</time>
      </trkpt>
      <trkpt lat="45.92843" lon="4.73058">
        <ele>171</ele>
        <time>2018-06-15T10:24:31Z</time>
      </trkpt>
      <trkpt lat="45.92843" lon="4.7305">
        <ele>171</ele>
        <time>2018-06-15T10:24:32Z</time>
      </trkpt>
      <trkpt lat="45.92841" lon="4.73043">
        <ele>171</ele>
        <time>2018-06-15T10:24:33Z</time>
      </trkpt>
      <trkpt lat="45.92839" lon="4.73035">
        <ele>171</ele>
        <time>2018-06-15T10:24:34Z</time>
      </trkpt>
      <trkpt lat="45.92838" lon="4.73027">
        <ele>171</ele>
        <time>2018-06-15T10:24:35Z</time>
      </trkpt>
      <trkpt lat="45.92837" lon="4.7302">
        <ele>171</ele>
        <time>2018-06-15T10:24:36Z</time>
      </trkpt>
      <trkpt lat="45.92836" lon="4.73014">
        <ele>171</ele>
        <time>2018-06-15T10:24:37Z</time>
      </trkpt>
      <trkpt lat="45.92835" lon="4.73007">
        <ele>170</ele>
        <time>2018-06-15T10:24:38Z</time>
      </trkpt>
      <trkpt lat="45.92834" lon="4.73">
        <ele>170</ele>
        <time>2018-06-15T10:24:39Z</time>
      </trkpt>
      <trkpt lat="45.92832" lon="4.72993">
        <ele>170</ele>
        <time>2018-06-15T10:24:40Z</time>
      </trkpt>
      <trkpt lat="45.9283" lon="4.72985">
        <ele>170</ele>
        <time>2018-06-15T10:24:41Z</time>
      </trkpt>
      <trkpt lat="45.9283" lon="4.72977">
        <ele>170</ele>
        <time>2018-06-15T10:24:42Z</time>
      </trkpt>
      <trkpt lat="45.9283" lon="4.7297">
        <ele>170</ele>
        <time>2018-06-15T10:24:43Z</time>
      </trkpt>
      <trkpt lat="45.92829" lon="4.72963">
        <ele>170</ele>
        <time>2018-06-15T10:24:44Z</time>
      </trkpt>
      <trkpt lat="45.92829" lon="4.72955">
        <ele>170</ele>
        <time>2018-06-15T10:24:45Z</time>
      </trkpt>
      <trkpt lat="45.92827" lon="4.72943">
        <ele>170</ele>
        <time>2018-06-15T10:24:47Z</time>
      </trkpt>
      <trkpt lat="45.92826" lon="4.72938">
        <ele>170</ele>
        <time>2018-06-15T10:24:48Z</time>
      </trkpt>
      <trkpt lat="45.92825" lon="4.72931">
        <ele>170</ele>
        <time>2018-06-15T10:24:49Z</time>
      </trkpt>
      <trkpt lat="45.92825" lon="4.72924">
        <ele>170</ele>
        <time>2018-06-15T10:24:50Z</time>
      </trkpt>
      <trkpt lat="45.92823" lon="4.72916">
        <ele>170</ele>
        <time>2018-06-15T10:24:51Z</time>
      </trkpt>
      <trkpt lat="45.92822" lon="4.72909">
        <ele>170</ele>
        <time>2018-06-15T10:24:52Z</time>
      </trkpt>
      <trkpt lat="45.92821" lon="4.72902">
        <ele>170</ele>
        <time>2018-06-15T10:24:53Z</time>
      </trkpt>
      <trkpt lat="45.9282" lon="4.72896">
        <ele>170</ele>
        <time>2018-06-15T10:24:54Z</time>
      </trkpt>
      <trkpt lat="45.92819" lon="4.72889">
        <ele>170</ele>
        <time>2018-06-15T10:24:55Z</time>
      </trkpt>
      <trkpt lat="45.92818" lon="4.72883">
        <ele>170</ele>
        <time>2018-06-15T10:24:56Z</time>
      </trkpt>
      <trkpt lat="45.92816" lon="4.72876">
        <ele>170</ele>
        <time>2018-06-15T10:24:57Z</time>
      </trkpt>
      <trkpt lat="45.92815" lon="4.72869">
        <ele>170</ele>
        <time>2018-06-15T10:24:58Z</time>
      </trkpt>
      <trkpt lat="45.92813" lon="4.72862">
        <ele>170</ele>
        <time>2018-06-15T10:24:59Z</time>
      </trkpt>
      <trkpt lat="45.92811" lon="4.72855">
        <ele>170</ele>
        <time>2018-06-15T10:25:00Z</time>
      </trkpt>
      <trkpt lat="45.92809" lon="4.72849">
        <ele>170</ele>
        <time>2018-06-15T10:25:01Z</time>
      </trkpt>
      <trkpt lat="45.92807" lon="4.7284">
        <ele>170</ele>
        <time>2018-06-15T10:25:02Z</time>
      </trkpt>
      <trkpt lat="45.92805" lon="4.72835">
        <ele>170</ele>
        <time>2018-06-15T10:25:03Z</time>
      </trkpt>
      <trkpt lat="45.92805" lon="4.72827">
        <ele>171</ele>
        <time>2018-06-15T10:25:04Z</time>
      </trkpt>
      <trkpt lat="45.92804" lon="4.72816">
        <ele>171</ele>
        <time>2018-06-15T10:25:06Z</time>
      </trkpt>
      <trkpt lat="45.92802" lon="4.7281">
        <ele>171</ele>
        <time>2018-06-15T10:25:07Z</time>
      </trkpt>
      <trkpt lat="45.92802" lon="4.72797">
        <ele>171</ele>
        <time>2018-06-15T10:25:09Z</time>
      </trkpt>
      <trkpt lat="45.92802" lon="4.72791">
        <ele>171</ele>
        <time>2018-06-15T10:25:10Z</time>
      </trkpt>
      <trkpt lat="45.92795" lon="4.72787">
        <ele>171</ele>
        <time>2018-06-15T10:25:13Z</time>
      </trkpt>
      <trkpt lat="45.92791" lon="4.7279">
        <ele>171</ele>
        <time>2018-06-15T10:25:14Z</time>
      </trkpt>
      <trkpt lat="45.92784" lon="4.72796">
        <ele>170</ele>
        <time>2018-06-15T10:25:16Z</time>
      </trkpt>
      <trkpt lat="45.9278" lon="4.72798">
        <ele>170</ele>
        <time>2018-06-15T10:25:17Z</time>
      </trkpt>
      <trkpt lat="45.92776" lon="4.72801">
        <ele>170</ele>
        <time>2018-06-15T10:25:18Z</time>
      </trkpt>
      <trkpt lat="45.92771" lon="4.72804">
        <ele>170</ele>
        <time>2018-06-15T10:25:19Z</time>
      </trkpt>
      <trkpt lat="45.92767" lon="4.72807">
        <ele>170</ele>
        <time>2018-06-15T10:25:20Z</time>
      </trkpt>
      <trkpt lat="45.92762" lon="4.72811">
        <ele>170</ele>
        <time>2018-06-15T10:25:21Z</time>
      </trkpt>
      <trkpt lat="45.92758" lon="4.72814">
        <ele>170</ele>
        <time>2018-06-15T10:25:22Z</time>
      </trkpt>
      <trkpt lat="45.92754" lon="4.72817">
        <ele>170</ele>
        <time>2018-06-15T10:25:23Z</time>
      </trkpt>
      <trkpt lat="45.92749" lon="4.72821">
        <ele>169</ele>
        <time>2018-06-15T10:25:24Z</time>
      </trkpt>
      <trkpt lat="45.92745" lon="4.72824">
        <ele>169</ele>
        <time>2018-06-15T10:25:25Z</time>
      </trkpt>
      <trkpt lat="45.9274" lon="4.72828">
        <ele>169</ele>
        <time>2018-06-15T10:25:26Z</time>
      </trkpt>
      <trkpt lat="45.92736" lon="4.72831">
        <ele>169</ele>
        <time>2018-06-15T10:25:27Z</time>
      </trkpt>
      <trkpt lat="45.9273" lon="4.72835">
        <ele>169</ele>
        <time>2018-06-15T10:25:28Z</time>
      </trkpt>
      <trkpt lat="45.92726" lon="4.72838">
        <ele>169</ele>
        <time>2018-06-15T10:25:29Z</time>
      </trkpt>
      <trkpt lat="45.92722" lon="4.7284">
        <ele>169</ele>
        <time>2018-06-15T10:25:30Z</time>
      </trkpt>
      <trkpt lat="45.92717" lon="4.72844">
        <ele>169</ele>
        <time>2018-06-15T10:25:31Z</time>
      </trkpt>
      <trkpt lat="45.92712" lon="4.72847">
        <ele>169</ele>
        <time>2018-06-15T10:25:32Z</time>
      </trkpt>
      <trkpt lat="45.92707" lon="4.7285">
        <ele>169</ele>
        <time>2018-06-15T10:25:33Z</time>
      </trkpt>
      <trkpt lat="45.92702" lon="4.72854">
        <ele>169</ele>
        <time>2018-06-15T10:25:34Z</time>
      </trkpt>
      <trkpt lat="45.92698" lon="4.72859">
        <ele>169</ele>
        <time>2018-06-15T10:25:35Z</time>
      </trkpt>
      <trkpt lat="45.92692" lon="4.72862">
        <ele>169</ele>
        <time>2018-06-15T10:25:36Z</time>
      </trkpt>
      <trkpt lat="45.92687" lon="4.72865">
        <ele>169</ele>
        <time>2018-06-15T10:25:37Z</time>
      </trkpt>
      <trkpt lat="45.92683" lon="4.7287">
        <ele>169</ele>
        <time>2018-06-15T10:25:38Z</time>
      </trkpt>
      <trkpt lat="45.92677" lon="4.72875">
        <ele>169</ele>
        <time>2018-06-15T10:25:39Z</time>
      </trkpt>
      <trkpt lat="45.92673" lon="4.72878">
        <ele>170</ele>
        <time>2018-06-15T10:25:40Z</time>
      </trkpt>
      <trkpt lat="45.92668" lon="4.72881">
        <ele>170</ele>
        <time>2018-06-15T10:25:41Z</time>
      </trkpt>
      <trkpt lat="45.92664" lon="4.72885">
        <ele>169</ele>
        <time>2018-06-15T10:25:42Z</time>
      </trkpt>
      <trkpt lat="45.92659" lon="4.72889">
        <ele>169</ele>
        <time>2018-06-15T10:25:43Z</time>
      </trkpt>
      <trkpt lat="45.92652" lon="4.72895">
        <ele>169</ele>
        <time>2018-06-15T10:25:45Z</time>
      </trkpt>
      <trkpt lat="45.92647" lon="4.72899">
        <ele>169</ele>
        <time>2018-06-15T10:25:46Z</time>
      </trkpt>
      <trkpt lat="45.92642" lon="4.72904">
        <ele>169</ele>
        <time>2018-06-15T10:25:47Z</time>
      </trkpt>
      <trkpt lat="45.92637" lon="4.72907">
        <ele>169</ele>
        <time>2018-06-15T10:25:48Z</time>
      </trkpt>
      <trkpt lat="45.92632" lon="4.72911">
        <ele>169</ele>
        <time>2018-06-15T10:25:49Z</time>
      </trkpt>
      <trkpt lat="45.92628" lon="4.72915">
        <ele>169</ele>
        <time>2018-06-15T10:25:50Z</time>
      </trkpt>
      <trkpt lat="45.92623" lon="4.72918">
        <ele>169</ele>
        <time>2018-06-15T10:25:51Z</time>
      </trkpt>
      <trkpt lat="45.92618" lon="4.72922">
        <ele>169</ele>
        <time>2018-06-15T10:25:52Z</time>
      </trkpt>
      <trkpt lat="45.92613" lon="4.72926">
        <ele>169</ele>
        <time>2018-06-15T10:25:53Z</time>
      </trkpt>
      <trkpt lat="45.92608" lon="4.72932">
        <ele>169</ele>
        <time>2018-06-15T10:25:54Z</time>
      </trkpt>
      <trkpt lat="45.92603" lon="4.72936">
        <ele>169</ele>
        <time>2018-06-15T10:25:55Z</time>
      </trkpt>
      <trkpt lat="45.92598" lon="4.72941">
        <ele>169</ele>
        <time>2018-06-15T10:25:56Z</time>
      </trkpt>
      <trkpt lat="45.92593" lon="4.72948">
        <ele>169</ele>
        <time>2018-06-15T10:25:57Z</time>
      </trkpt>
      <trkpt lat="45.92589" lon="4.72954">
        <ele>169</ele>
        <time>2018-06-15T10:25:58Z</time>
      </trkpt>
      <trkpt lat="45.92584" lon="4.72959">
        <ele>169</ele>
        <time>2018-06-15T10:25:59Z</time>
      </trkpt>
      <trkpt lat="45.92581" lon="4.72963">
        <ele>169</ele>
        <time>2018-06-15T10:26:00Z</time>
      </trkpt>
      <trkpt lat="45.92577" lon="4.72969">
        <ele>169</ele>
        <time>2018-06-15T10:26:01Z</time>
      </trkpt>
      <trkpt lat="45.92572" lon="4.72973">
        <ele>169</ele>
        <time>2018-06-15T10:26:02Z</time>
      </trkpt>
      <trkpt lat="45.92568" lon="4.72977">
        <ele>169</ele>
        <time>2018-06-15T10:26:03Z</time>
      </trkpt>
      <trkpt lat="45.92565" lon="4.72981">
        <ele>169</ele>
        <time>2018-06-15T10:26:04Z</time>
      </trkpt>
      <trkpt lat="45.9256" lon="4.72986">
        <ele>169</ele>
        <time>2018-06-15T10:26:05Z</time>
      </trkpt>
      <trkpt lat="45.92556" lon="4.7299">
        <ele>169</ele>
        <time>2018-06-15T10:26:06Z</time>
      </trkpt>
      <trkpt lat="45.92551" lon="4.72994">
        <ele>169</ele>
        <time>2018-06-15T10:26:07Z</time>
      </trkpt>
      <trkpt lat="45.92545" lon="4.72998">
        <ele>169</ele>
        <time>2018-06-15T10:26:08Z</time>
      </trkpt>
      <trkpt lat="45.9254" lon="4.73004">
        <ele>169</ele>
        <time>2018-06-15T10:26:09Z</time>
      </trkpt>
      <trkpt lat="45.92534" lon="4.73008">
        <ele>169</ele>
        <time>2018-06-15T10:26:10Z</time>
      </trkpt>
      <trkpt lat="45.92529" lon="4.73013">
        <ele>169</ele>
        <time>2018-06-15T10:26:11Z</time>
      </trkpt>
      <trkpt lat="45.92524" lon="4.73017">
        <ele>169</ele>
        <time>2018-06-15T10:26:12Z</time>
      </trkpt>
      <trkpt lat="45.92519" lon="4.73023">
        <ele>169</ele>
        <time>2018-06-15T10:26:13Z</time>
      </trkpt>
      <trkpt lat="45.92514" lon="4.73027">
        <ele>169</ele>
        <time>2018-06-15T10:26:14Z</time>
      </trkpt>
      <trkpt lat="45.92509" lon="4.73031">
        <ele>169</ele>
        <time>2018-06-15T10:26:15Z</time>
      </trkpt>
      <trkpt lat="45.92504" lon="4.73034">
        <ele>169</ele>
        <time>2018-06-15T10:26:16Z</time>
      </trkpt>
      <trkpt lat="45.92499" lon="4.73038">
        <ele>170</ele>
        <time>2018-06-15T10:26:17Z</time>
      </trkpt>
      <trkpt lat="45.92496" lon="4.73043">
        <ele>170</ele>
        <time>2018-06-15T10:26:18Z</time>
      </trkpt>
      <trkpt lat="45.9249" lon="4.73048">
        <ele>170</ele>
        <time>2018-06-15T10:26:19Z</time>
      </trkpt>
      <trkpt lat="45.92485" lon="4.73052">
        <ele>170</ele>
        <time>2018-06-15T10:26:20Z</time>
      </trkpt>
      <trkpt lat="45.92481" lon="4.73056">
        <ele>170</ele>
        <time>2018-06-15T10:26:21Z</time>
      </trkpt>
      <trkpt lat="45.92475" lon="4.73061">
        <ele>170</ele>
        <time>2018-06-15T10:26:22Z</time>
      </trkpt>
      <trkpt lat="45.9247" lon="4.73065">
        <ele>170</ele>
        <time>2018-06-15T10:26:23Z</time>
      </trkpt>
      <trkpt lat="45.92464" lon="4.7307">
        <ele>170</ele>
        <time>2018-06-15T10:26:24Z</time>
      </trkpt>
      <trkpt lat="45.92459" lon="4.73075">
        <ele>170</ele>
        <time>2018-06-15T10:26:25Z</time>
      </trkpt>
      <trkpt lat="45.92454" lon="4.7308">
        <ele>170</ele>
        <time>2018-06-15T10:26:26Z</time>
      </trkpt>
      <trkpt lat="45.92449" lon="4.73085">
        <ele>170</ele>
        <time>2018-06-15T10:26:27Z</time>
      </trkpt>
      <trkpt lat="45.92444" lon="4.7309">
        <ele>170</ele>
        <time>2018-06-15T10:26:28Z</time>
      </trkpt>
      <trkpt lat="45.92439" lon="4.73094">
        <ele>170</ele>
        <time>2018-06-15T10:26:29Z</time>
      </trkpt>
      <trkpt lat="45.92434" lon="4.73098">
        <ele>171</ele>
        <time>2018-06-15T10:26:30Z</time>
      </trkpt>
      <trkpt lat="45.92431" lon="4.73103">
        <ele>171</ele>
        <time>2018-06-15T10:26:31Z</time>
      </trkpt>
      <trkpt lat="45.92426" lon="4.73106">
        <ele>171</ele>
        <time>2018-06-15T10:26:32Z</time>
      </trkpt>
      <trkpt lat="45.92422" lon="4.7311">
        <ele>170</ele>
        <time>2018-06-15T10:26:33Z</time>
      </trkpt>
      <trkpt lat="45.92417" lon="4.73114">
        <ele>170</ele>
        <time>2018-06-15T10:26:34Z</time>
      </trkpt>
      <trkpt lat="45.92411" lon="4.73123">
        <ele>171</ele>
        <time>2018-06-15T10:26:36Z</time>
      </trkpt>
      <trkpt lat="45.9241" lon="4.73129">
        <ele>171</ele>
        <time>2018-06-15T10:26:37Z</time>
      </trkpt>
      <trkpt lat="45.92408" lon="4.73136">
        <ele>171</ele>
        <time>2018-06-15T10:26:38Z</time>
      </trkpt>
      <trkpt lat="45.92407" lon="4.73142">
        <ele>171</ele>
        <time>2018-06-15T10:26:39Z</time>
      </trkpt>
      <trkpt lat="45.92408" lon="4.73152">
        <ele>171</ele>
        <time>2018-06-15T10:26:41Z</time>
      </trkpt>
      <trkpt lat="45.92408" lon="4.73159">
        <ele>170</ele>
        <time>2018-06-15T10:26:42Z</time>
      </trkpt>
      <trkpt lat="45.92408" lon="4.73166">
        <ele>170</ele>
        <time>2018-06-15T10:26:43Z</time>
      </trkpt>
      <trkpt lat="45.92408" lon="4.73174">
        <ele>170</ele>
        <time>2018-06-15T10:26:44Z</time>
      </trkpt>
      <trkpt lat="45.92408" lon="4.73181">
        <ele>171</ele>
        <time>2018-06-15T10:26:45Z</time>
      </trkpt>
      <trkpt lat="45.92408" lon="4.73188">
        <ele>171</ele>
        <time>2018-06-15T10:26:46Z</time>
      </trkpt>
      <trkpt lat="45.92408" lon="4.73196">
        <ele>171</ele>
        <time>2018-06-15T10:26:47Z</time>
      </trkpt>
      <trkpt lat="45.92409" lon="4.73204">
        <ele>171</ele>
        <time>2018-06-15T10:26:48Z</time>
      </trkpt>
      <trkpt lat="45.92409" lon="4.73212">
        <ele>171</ele>
        <time>2018-06-15T10:26:49Z</time>
      </trkpt>
      <trkpt lat="45.9241" lon="4.7322">
        <ele>171</ele>
        <time>2018-06-15T10:26:50Z</time>
      </trkpt>
      <trkpt lat="45.92409" lon="4.73227">
        <ele>171</ele>
        <time>2018-06-15T10:26:51Z</time>
      </trkpt>
      <trkpt lat="45.92409" lon="4.73234">
        <ele>171</ele>
        <time>2018-06-15T10:26:52Z</time>
      </trkpt>
      <trkpt lat="45.9241" lon="4.73241">
        <ele>171</ele>
        <time>2018-06-15T10:26:53Z</time>
      </trkpt>
      <trkpt lat="45.9241" lon="4.73248">
        <ele>171</ele>
        <time>2018-06-15T10:26:54Z</time>
      </trkpt>
      <trkpt lat="45.9241" lon="4.73255">
        <ele>171</ele>
        <time>2018-06-15T10:26:55Z</time>
      </trkpt>
      <trkpt lat="45.92412" lon="4.73262">
        <ele>171</ele>
        <time>2018-06-15T10:26:56Z</time>
      </trkpt>
      <trkpt lat="45.92414" lon="4.73267">
        <ele>171</ele>
        <time>2018-06-15T10:26:57Z</time>
      </trkpt>
      <trkpt lat="45.92415" lon="4.73274">
        <ele>171</ele>
        <time>2018-06-15T10:26:58Z</time>
      </trkpt>
      <trkpt lat="45.92418" lon="4.73281">
        <ele>171</ele>
        <time>2018-06-15T10:26:59Z</time>
      </trkpt>
      <trkpt lat="45.92418" lon="4.73289">
        <ele>171</ele>
        <time>2018-06-15T10:27:00Z</time>
      </trkpt>
      <trkpt lat="45.92418" lon="4.73297">
        <ele>171</ele>
        <time>2018-06-15T10:27:01Z</time>
      </trkpt>
      <trkpt lat="45.92418" lon="4.73305">
        <ele>171</ele>
        <time>2018-06-15T10:27:02Z</time>
      </trkpt>
      <trkpt lat="45.92419" lon="4.73312">
        <ele>171</ele>
        <time>2018-06-15T10:27:03Z</time>
      </trkpt>
      <trkpt lat="45.92421" lon="4.73321">
        <ele>171</ele>
        <time>2018-06-15T10:27:04Z</time>
      </trkpt>
      <trkpt lat="45.92421" lon="4.73329">
        <ele>171</ele>
        <time>2018-06-15T10:27:05Z</time>
      </trkpt>
      <trkpt lat="45.92421" lon="4.73335">
        <ele>171</ele>
        <time>2018-06-15T10:27:06Z</time>
      </trkpt>
      <trkpt lat="45.92423" lon="4.73343">
        <ele>171</ele>
        <time>2018-06-15T10:27:07Z</time>
      </trkpt>
      <trkpt lat="45.92423" lon="4.73351">
        <ele>171</ele>
        <time>2018-06-15T10:27:08Z</time>
      </trkpt>
      <trkpt lat="45.92425" lon="4.73358">
        <ele>171</ele>
        <time>2018-06-15T10:27:09Z</time>
      </trkpt>
      <trkpt lat="45.92426" lon="4.73366">
        <ele>172</ele>
        <time>2018-06-15T10:27:10Z</time>
      </trkpt>
      <trkpt lat="45.92427" lon="4.73374">
        <ele>172</ele>
        <time>2018-06-15T10:27:11Z</time>
      </trkpt>
      <trkpt lat="45.92428" lon="4.73382">
        <ele>172</ele>
        <time>2018-06-15T10:27:12Z</time>
      </trkpt>
      <trkpt lat="45.92429" lon="4.73389">
        <ele>172</ele>
        <time>2018-06-15T10:27:13Z</time>
      </trkpt>
      <trkpt lat="45.92431" lon="4.73397">
        <ele>172</ele>
        <time>2018-06-15T10:27:14Z</time>
      </trkpt>
      <trkpt lat="45.92433" lon="4.73403">
        <ele>172</ele>
        <time>2018-06-15T10:27:15Z</time>
      </trkpt>
      <trkpt lat="45.92437" lon="4.73409">
        <ele>172</ele>
        <time>2018-06-15T10:27:16Z</time>
      </trkpt>
      <trkpt lat="45.9244" lon="4.73414">
        <ele>172</ele>
        <time>2018-06-15T10:27:17Z</time>
      </trkpt>
      <trkpt lat="45.92444" lon="4.73418">
        <ele>173</ele>
        <time>2018-06-15T10:27:18Z</time>
      </trkpt>
      <trkpt lat="45.92448" lon="4.73422">
        <ele>173</ele>
        <time>2018-06-15T10:27:19Z</time>
      </trkpt>
      <trkpt lat="45.92452" lon="4.73425">
        <ele>173</ele>
        <time>2018-06-15T10:27:20Z</time>
      </trkpt>
      <trkpt lat="45.92456" lon="4.73429">
        <ele>173</ele>
        <time>2018-06-15T10:27:21Z</time>
      </trkpt>
      <trkpt lat="45.92459" lon="4.73434">
        <ele>173</ele>
        <time>2018-06-15T10:27:22Z</time>
      </trkpt>
      <trkpt lat="45.92462" lon="4.73439">
        <ele>173</ele>
        <time>2018-06-15T10:27:23Z</time>
      </trkpt>
      <trkpt lat="45.92465" lon="4.73446">
        <ele>173</ele>
        <time>2018-06-15T10:27:24Z</time>
      </trkpt>
      <trkpt lat="45.92469" lon="4.73451">
        <ele>173</ele>
        <time>2018-06-15T10:27:25Z</time>
      </trkpt>
      <trkpt lat="45.9247" lon="4.73458">
        <ele>173</ele>
        <time>2018-06-15T10:27:26Z</time>
      </trkpt>
      <trkpt lat="45.92468" lon="4.73467">
        <ele>173</ele>
        <time>2018-06-15T10:27:27Z</time>
      </trkpt>
      <trkpt lat="45.92468" lon="4.73475">
        <ele>173</ele>
        <time>2018-06-15T10:27:28Z</time>
      </trkpt>
      <trkpt lat="45.92467" lon="4.73482">
        <ele>173</ele>
        <time>2018-06-15T10:27:29Z</time>
      </trkpt>
      <trkpt lat="45.92467" lon="4.7349">
        <ele>173</ele>
        <time>2018-06-15T10:27:30Z</time>
      </trkpt>
      <trkpt lat="45.92467" lon="4.73497">
        <ele>173</ele>
        <time>2018-06-15T10:27:31Z</time>
      </trkpt>
      <trkpt lat="45.92468" lon="4.73505">
        <ele>174</ele>
        <time>2018-06-15T10:27:32Z</time>
      </trkpt>
      <trkpt lat="45.92467" lon="4.73514">
        <ele>174</ele>
        <time>2018-06-15T10:27:33Z</time>
      </trkpt>
      <trkpt lat="45.92466" lon="4.73522">
        <ele>174</ele>
        <time>2018-06-15T10:27:34Z</time>
      </trkpt>
      <trkpt lat="45.92467" lon="4.73533">
        <ele>174</ele>
        <time>2018-06-15T10:27:36Z</time>
      </trkpt>
      <trkpt lat="45.92467" lon="4.73539">
        <ele>174</ele>
        <time>2018-06-15T10:27:37Z</time>
      </trkpt>
      <trkpt lat="45.92466" lon="4.73551">
        <ele>173</ele>
        <time>2018-06-15T10:27:39Z</time>
      </trkpt>
      <trkpt lat="45.92466" lon="4.73557">
        <ele>173</ele>
        <time>2018-06-15T10:27:40Z</time>
      </trkpt>
      <trkpt lat="45.92467" lon="4.73569">
        <ele>173</ele>
        <time>2018-06-15T10:27:42Z</time>
      </trkpt>
      <trkpt lat="45.92468" lon="4.73577">
        <ele>173</ele>
        <time>2018-06-15T10:27:43Z</time>
      </trkpt>
      <trkpt lat="45.92467" lon="4.73585">
        <ele>174</ele>
        <time>2018-06-15T10:27:44Z</time>
      </trkpt>
      <trkpt lat="45.92468" lon="4.73593">
        <ele>174</ele>
        <time>2018-06-15T10:27:45Z</time>
      </trkpt>
      <trkpt lat="45.92469" lon="4.73603">
        <ele>174</ele>
        <time>2018-06-15T10:27:46Z</time>
      </trkpt>
      <trkpt lat="45.92468" lon="4.73612">
        <ele>174</ele>
        <time>2018-06-15T10:27:47Z</time>
      </trkpt>
      <trkpt lat="45.92467" lon="4.7362">
        <ele>174</ele>
        <time>2018-06-15T10:27:48Z</time>
      </trkpt>
      <trkpt lat="45.92467" lon="4.73629">
        <ele>174</ele>
        <time>2018-06-15T10:27:49Z</time>
      </trkpt>
      <trkpt lat="45.92467" lon="4.73637">
        <ele>174</ele>
        <time>2018-06-15T10:27:50Z</time>
      </trkpt>
      <trkpt lat="45.92467" lon="4.73645">
        <ele>174</ele>
        <time>2018-06-15T10:27:51Z</time>
      </trkpt>
      <trkpt lat="45.92467" lon="4.73653">
        <ele>174</ele>
        <time>2018-06-15T10:27:52Z</time>
      </trkpt>
      <trkpt lat="45.92467" lon="4.73659">
        <ele>174</ele>
        <time>2018-06-15T10:27:53Z</time>
      </trkpt>
      <trkpt lat="45.92466" lon="4.73672">
        <ele>174</ele>
        <time>2018-06-15T10:27:55Z</time>
      </trkpt>
      <trkpt lat="45.92464" lon="4.73677">
        <ele>174</ele>
        <time>2018-06-15T10:27:56Z</time>
      </trkpt>
      <trkpt lat="45.92464" lon="4.7369">
        <ele>174</ele>
        <time>2018-06-15T10:27:58Z</time>
      </trkpt>
      <trkpt lat="45.92464" lon="4.73696">
        <ele>174</ele>
        <time>2018-06-15T10:27:59Z</time>
      </trkpt>
      <trkpt lat="45.92463" lon="4.73708">
        <ele>174</ele>
        <time>2018-06-15T10:28:03Z</time>
      </trkpt>
      <trkpt lat="45.92463" lon="4.73709">
        <ele>174</ele>
        <time>2018-06-15T10:28:04Z</time>
      </trkpt>
      <trkpt lat="45.92456" lon="4.73712">
        <ele>174</ele>
        <time>2018-06-15T10:28:44.896Z</time>
      </trkpt>
    </trkseg>
  </trk>
</gpx>